<?xml version="1.0"?>
<gpx
 version="1.1"
 creator="Satmap Active 20"
 xmlns:xsi="http://www.w3.org/2001/XMLSchema-instance"
 xmlns="http://www.topografix.com/GPX/1/1"
 xmlns:satmap="http://www.satmap.com/updates/xmlschemas/GpxExtensions/v2/GpxExtensions_v2.xsd"
 xsi:schemaLocation="http://www.topografix.com/GPX/1/1 http://www.topografix.com/GPX/1/1/gpx.xsd">
<metadata>
<time>2020-10-07T09:24:20Z</time>
<extensions>
<satmap:platform>43</satmap:platform>
<satmap:software version="3.12.831">SM15.exe</satmap:software>
<satmap:username>Jim Grant</satmap:username>
<satmap:network_ids>
<satmap:network_id type="wifi">00-23-A7-EC-D5-78</satmap:network_id>
<satmap:network_id type="bluetooth">80-BB-EB-D7-5B-7C</satmap:network_id>
</satmap:network_ids>
<satmap:snap_type>simple</satmap:snap_type>
</extensions>
</metadata>
<trk>
<name>2020-10-07_0924</name>
<desc>Track 1</desc>
<number>1</number>
<trkseg>
<trkpt lat="53.184096" lon="-2.054714"><ele>198</ele><time>2020-10-07T09:24:20Z</time><name>PT1</name></trkpt>
<trkpt lat="53.184089" lon="-2.054729"><ele>198</ele><time>2020-10-07T09:24:29Z</time><name>PT2</name></trkpt>
<trkpt lat="53.184087" lon="-2.054709"><ele>198</ele><time>2020-10-07T09:24:30Z</time><name>PT3</name></trkpt>
<trkpt lat="53.184082" lon="-2.054693"><ele>198</ele><time>2020-10-07T09:24:30Z</time><name>PT4</name></trkpt>
<trkpt lat="53.184075" lon="-2.054688"><ele>197</ele><time>2020-10-07T09:24:32Z</time><name>PT5</name></trkpt>
<trkpt lat="53.184063" lon="-2.054682"><ele>197</ele><time>2020-10-07T09:24:33Z</time><name>PT6</name></trkpt>
<trkpt lat="53.184059" lon="-2.054666"><ele>196</ele><time>2020-10-07T09:24:33Z</time><name>PT7</name></trkpt>
<trkpt lat="53.184059" lon="-2.054656"><ele>196</ele><time>2020-10-07T09:24:35Z</time><name>PT8</name></trkpt>
<trkpt lat="53.184057" lon="-2.054646"><ele>195</ele><time>2020-10-07T09:24:36Z</time><name>PT9</name></trkpt>
<trkpt lat="53.184053" lon="-2.054640"><ele>195</ele><time>2020-10-07T09:24:36Z</time><name>PT10</name></trkpt>
<trkpt lat="53.184054" lon="-2.054633"><ele>195</ele><time>2020-10-07T09:24:38Z</time><name>PT11</name></trkpt>
<trkpt lat="53.184054" lon="-2.054620"><ele>194</ele><time>2020-10-07T09:24:39Z</time><name>PT12</name></trkpt>
<trkpt lat="53.184053" lon="-2.054598"><ele>194</ele><time>2020-10-07T09:24:39Z</time><name>PT13</name></trkpt>
<trkpt lat="53.184051" lon="-2.054575"><ele>195</ele><time>2020-10-07T09:24:41Z</time><name>PT14</name></trkpt>
<trkpt lat="53.184041" lon="-2.054541"><ele>197</ele><time>2020-10-07T09:24:42Z</time><name>PT15</name></trkpt>
<trkpt lat="53.184041" lon="-2.054519"><ele>197</ele><time>2020-10-07T09:24:42Z</time><name>PT16</name></trkpt>
<trkpt lat="53.184040" lon="-2.054501"><ele>196</ele><time>2020-10-07T09:24:44Z</time><name>PT17</name></trkpt>
<trkpt lat="53.184042" lon="-2.054483"><ele>195</ele><time>2020-10-07T09:24:45Z</time><name>PT18</name></trkpt>
<trkpt lat="53.184042" lon="-2.054451"><ele>195</ele><time>2020-10-07T09:24:45Z</time><name>PT19</name></trkpt>
<trkpt lat="53.184046" lon="-2.054432"><ele>195</ele><time>2020-10-07T09:24:47Z</time><name>PT20</name></trkpt>
<trkpt lat="53.184045" lon="-2.054395"><ele>196</ele><time>2020-10-07T09:24:48Z</time><name>PT21</name></trkpt>
<trkpt lat="53.184051" lon="-2.054369"><ele>195</ele><time>2020-10-07T09:24:48Z</time><name>PT22</name></trkpt>
<trkpt lat="53.184050" lon="-2.054349"><ele>195</ele><time>2020-10-07T09:24:50Z</time><name>PT23</name></trkpt>
<trkpt lat="53.184058" lon="-2.054339"><ele>192</ele><time>2020-10-07T09:24:51Z</time><name>PT24</name></trkpt>
<trkpt lat="53.184059" lon="-2.054327"><ele>191</ele><time>2020-10-07T09:24:52Z</time><name>PT25</name></trkpt>
<trkpt lat="53.184055" lon="-2.054310"><ele>191</ele><time>2020-10-07T09:24:53Z</time><name>PT26</name></trkpt>
<trkpt lat="53.184049" lon="-2.054290"><ele>191</ele><time>2020-10-07T09:24:54Z</time><name>PT27</name></trkpt>
<trkpt lat="53.184045" lon="-2.054271"><ele>191</ele><time>2020-10-07T09:24:55Z</time><name>PT28</name></trkpt>
<trkpt lat="53.184042" lon="-2.054251"><ele>191</ele><time>2020-10-07T09:24:56Z</time><name>PT29</name></trkpt>
<trkpt lat="53.184039" lon="-2.054232"><ele>191</ele><time>2020-10-07T09:24:57Z</time><name>PT30</name></trkpt>
<trkpt lat="53.184036" lon="-2.054209"><ele>191</ele><time>2020-10-07T09:24:58Z</time><name>PT31</name></trkpt>
<trkpt lat="53.184039" lon="-2.054194"><ele>190</ele><time>2020-10-07T09:24:59Z</time><name>PT32</name></trkpt>
<trkpt lat="53.184038" lon="-2.054178"><ele>190</ele><time>2020-10-07T09:25:00Z</time><name>PT33</name></trkpt>
<trkpt lat="53.184034" lon="-2.054154"><ele>191</ele><time>2020-10-07T09:25:01Z</time><name>PT34</name></trkpt>
<trkpt lat="53.184031" lon="-2.054129"><ele>190</ele><time>2020-10-07T09:25:02Z</time><name>PT35</name></trkpt>
<trkpt lat="53.184027" lon="-2.054107"><ele>189</ele><time>2020-10-07T09:25:03Z</time><name>PT36</name></trkpt>
<trkpt lat="53.184023" lon="-2.054085"><ele>189</ele><time>2020-10-07T09:25:04Z</time><name>PT37</name></trkpt>
<trkpt lat="53.184014" lon="-2.054060"><ele>188</ele><time>2020-10-07T09:25:05Z</time><name>PT38</name></trkpt>
<trkpt lat="53.184007" lon="-2.054042"><ele>189</ele><time>2020-10-07T09:25:06Z</time><name>PT39</name></trkpt>
<trkpt lat="53.184006" lon="-2.054026"><ele>189</ele><time>2020-10-07T09:25:07Z</time><name>PT40</name></trkpt>
<trkpt lat="53.184003" lon="-2.054005"><ele>188</ele><time>2020-10-07T09:25:08Z</time><name>PT41</name></trkpt>
<trkpt lat="53.183999" lon="-2.053987"><ele>188</ele><time>2020-10-07T09:25:09Z</time><name>PT42</name></trkpt>
<trkpt lat="53.183994" lon="-2.053967"><ele>188</ele><time>2020-10-07T09:25:09Z</time><name>PT43</name></trkpt>
<trkpt lat="53.183989" lon="-2.053943"><ele>188</ele><time>2020-10-07T09:25:11Z</time><name>PT44</name></trkpt>
<trkpt lat="53.183985" lon="-2.053920"><ele>189</ele><time>2020-10-07T09:25:12Z</time><name>PT45</name></trkpt>
<trkpt lat="53.183981" lon="-2.053908"><ele>189</ele><time>2020-10-07T09:25:12Z</time><name>PT46</name></trkpt>
<trkpt lat="53.183976" lon="-2.053886"><ele>189</ele><time>2020-10-07T09:25:14Z</time><name>PT47</name></trkpt>
<trkpt lat="53.183972" lon="-2.053864"><ele>189</ele><time>2020-10-07T09:25:15Z</time><name>PT48</name></trkpt>
<trkpt lat="53.183965" lon="-2.053833"><ele>189</ele><time>2020-10-07T09:25:15Z</time><name>PT49</name></trkpt>
<trkpt lat="53.183959" lon="-2.053815"><ele>189</ele><time>2020-10-07T09:25:17Z</time><name>PT50</name></trkpt>
<trkpt lat="53.183953" lon="-2.053801"><ele>189</ele><time>2020-10-07T09:25:18Z</time><name>PT51</name></trkpt>
<trkpt lat="53.183951" lon="-2.053787"><ele>189</ele><time>2020-10-07T09:25:18Z</time><name>PT52</name></trkpt>
<trkpt lat="53.183952" lon="-2.053750"><ele>190</ele><time>2020-10-07T09:25:20Z</time><name>PT53</name></trkpt>
<trkpt lat="53.183949" lon="-2.053723"><ele>189</ele><time>2020-10-07T09:25:21Z</time><name>PT54</name></trkpt>
<trkpt lat="53.183947" lon="-2.053723"><ele>190</ele><time>2020-10-07T09:25:21Z</time><name>PT55</name></trkpt>
<trkpt lat="53.183941" lon="-2.053707"><ele>190</ele><time>2020-10-07T09:25:23Z</time><name>PT56</name></trkpt>
<trkpt lat="53.183933" lon="-2.053687"><ele>190</ele><time>2020-10-07T09:25:24Z</time><name>PT57</name></trkpt>
<trkpt lat="53.183930" lon="-2.053674"><ele>190</ele><time>2020-10-07T09:25:25Z</time><name>PT58</name></trkpt>
<trkpt lat="53.183925" lon="-2.053649"><ele>190</ele><time>2020-10-07T09:25:26Z</time><name>PT59</name></trkpt>
<trkpt lat="53.183920" lon="-2.053626"><ele>190</ele><time>2020-10-07T09:25:27Z</time><name>PT60</name></trkpt>
<trkpt lat="53.183914" lon="-2.053606"><ele>190</ele><time>2020-10-07T09:25:28Z</time><name>PT61</name></trkpt>
<trkpt lat="53.183909" lon="-2.053594"><ele>191</ele><time>2020-10-07T09:25:29Z</time><name>PT62</name></trkpt>
<trkpt lat="53.183907" lon="-2.053579"><ele>190</ele><time>2020-10-07T09:25:30Z</time><name>PT63</name></trkpt>
<trkpt lat="53.183901" lon="-2.053550"><ele>191</ele><time>2020-10-07T09:25:30Z</time><name>PT64</name></trkpt>
<trkpt lat="53.183896" lon="-2.053528"><ele>191</ele><time>2020-10-07T09:25:32Z</time><name>PT65</name></trkpt>
<trkpt lat="53.183891" lon="-2.053511"><ele>191</ele><time>2020-10-07T09:25:33Z</time><name>PT66</name></trkpt>
<trkpt lat="53.183889" lon="-2.053506"><ele>190</ele><time>2020-10-07T09:25:34Z</time><name>PT67</name></trkpt>
<trkpt lat="53.183884" lon="-2.053489"><ele>190</ele><time>2020-10-07T09:25:35Z</time><name>PT68</name></trkpt>
<trkpt lat="53.183874" lon="-2.053468"><ele>190</ele><time>2020-10-07T09:25:36Z</time><name>PT69</name></trkpt>
<trkpt lat="53.183864" lon="-2.053448"><ele>190</ele><time>2020-10-07T09:25:36Z</time><name>PT70</name></trkpt>
<trkpt lat="53.183857" lon="-2.053430"><ele>190</ele><time>2020-10-07T09:25:38Z</time><name>PT71</name></trkpt>
<trkpt lat="53.183853" lon="-2.053420"><ele>190</ele><time>2020-10-07T09:25:39Z</time><name>PT72</name></trkpt>
<trkpt lat="53.183842" lon="-2.053392"><ele>190</ele><time>2020-10-07T09:25:40Z</time><name>PT73</name></trkpt>
<trkpt lat="53.183839" lon="-2.053362"><ele>190</ele><time>2020-10-07T09:25:41Z</time><name>PT74</name></trkpt>
<trkpt lat="53.183833" lon="-2.053352"><ele>190</ele><time>2020-10-07T09:25:42Z</time><name>PT75</name></trkpt>
<trkpt lat="53.183831" lon="-2.053341"><ele>189</ele><time>2020-10-07T09:25:43Z</time><name>PT76</name></trkpt>
<trkpt lat="53.183830" lon="-2.053343"><ele>188</ele><time>2020-10-07T09:25:44Z</time><name>PT77</name></trkpt>
<trkpt lat="53.183827" lon="-2.053341"><ele>187</ele><time>2020-10-07T09:25:45Z</time><name>PT78</name></trkpt>
<trkpt lat="53.183827" lon="-2.053334"><ele>187</ele><time>2020-10-07T09:25:45Z</time><name>PT79</name></trkpt>
<trkpt lat="53.183825" lon="-2.053333"><ele>187</ele><time>2020-10-07T09:25:47Z</time><name>PT80</name></trkpt>
<trkpt lat="53.183820" lon="-2.053329"><ele>188</ele><time>2020-10-07T09:25:48Z</time><name>PT81</name></trkpt>
<trkpt lat="53.183815" lon="-2.053322"><ele>188</ele><time>2020-10-07T09:25:48Z</time><name>PT82</name></trkpt>
<trkpt lat="53.183804" lon="-2.053310"><ele>188</ele><time>2020-10-07T09:25:50Z</time><name>PT83</name></trkpt>
<trkpt lat="53.183794" lon="-2.053294"><ele>188</ele><time>2020-10-07T09:25:51Z</time><name>PT84</name></trkpt>
<trkpt lat="53.183776" lon="-2.053280"><ele>188</ele><time>2020-10-07T09:25:51Z</time><name>PT85</name></trkpt>
<trkpt lat="53.183766" lon="-2.053275"><ele>189</ele><time>2020-10-07T09:25:53Z</time><name>PT86</name></trkpt>
<trkpt lat="53.183751" lon="-2.053267"><ele>188</ele><time>2020-10-07T09:25:54Z</time><name>PT87</name></trkpt>
<trkpt lat="53.183737" lon="-2.053265"><ele>188</ele><time>2020-10-07T09:25:54Z</time><name>PT88</name></trkpt>
<trkpt lat="53.183720" lon="-2.053246"><ele>189</ele><time>2020-10-07T09:25:56Z</time><name>PT89</name></trkpt>
<trkpt lat="53.183708" lon="-2.053232"><ele>189</ele><time>2020-10-07T09:25:57Z</time><name>PT90</name></trkpt>
<trkpt lat="53.183702" lon="-2.053224"><ele>189</ele><time>2020-10-07T09:25:57Z</time><name>PT91</name></trkpt>
<trkpt lat="53.183699" lon="-2.053219"><ele>189</ele><time>2020-10-07T09:25:59Z</time><name>PT92</name></trkpt>
<trkpt lat="53.183692" lon="-2.053227"><ele>188</ele><time>2020-10-07T09:26:00Z</time><name>PT93</name></trkpt>
<trkpt lat="53.183682" lon="-2.053227"><ele>187</ele><time>2020-10-07T09:26:00Z</time><name>PT94</name></trkpt>
<trkpt lat="53.183668" lon="-2.053225"><ele>187</ele><time>2020-10-07T09:26:02Z</time><name>PT95</name></trkpt>
<trkpt lat="53.183655" lon="-2.053224"><ele>186</ele><time>2020-10-07T09:26:03Z</time><name>PT96</name></trkpt>
<trkpt lat="53.183648" lon="-2.053231"><ele>186</ele><time>2020-10-07T09:26:03Z</time><name>PT97</name></trkpt>
<trkpt lat="53.183644" lon="-2.053235"><ele>185</ele><time>2020-10-07T09:26:05Z</time><name>PT98</name></trkpt>
<trkpt lat="53.183643" lon="-2.053238"><ele>183</ele><time>2020-10-07T09:26:06Z</time><name>PT99</name></trkpt>
<trkpt lat="53.183641" lon="-2.053238"><ele>183</ele><time>2020-10-07T09:26:06Z</time><name>PT100</name></trkpt>
<trkpt lat="53.183641" lon="-2.053241"><ele>183</ele><time>2020-10-07T09:26:08Z</time><name>PT101</name></trkpt>
<trkpt lat="53.183643" lon="-2.053250"><ele>183</ele><time>2020-10-07T09:26:09Z</time><name>PT102</name></trkpt>
<trkpt lat="53.183641" lon="-2.053257"><ele>183</ele><time>2020-10-07T09:26:09Z</time><name>PT103</name></trkpt>
<trkpt lat="53.183639" lon="-2.053262"><ele>184</ele><time>2020-10-07T09:26:11Z</time><name>PT104</name></trkpt>
<trkpt lat="53.183633" lon="-2.053264"><ele>184</ele><time>2020-10-07T09:26:17Z</time><name>PT105</name></trkpt>
<trkpt lat="53.183622" lon="-2.053246"><ele>184</ele><time>2020-10-07T09:26:18Z</time><name>PT106</name></trkpt>
<trkpt lat="53.183618" lon="-2.053233"><ele>184</ele><time>2020-10-07T09:26:18Z</time><name>PT107</name></trkpt>
<trkpt lat="53.183605" lon="-2.053236"><ele>184</ele><time>2020-10-07T09:26:20Z</time><name>PT108</name></trkpt>
<trkpt lat="53.183596" lon="-2.053229"><ele>184</ele><time>2020-10-07T09:26:21Z</time><name>PT109</name></trkpt>
<trkpt lat="53.183578" lon="-2.053215"><ele>185</ele><time>2020-10-07T09:26:21Z</time><name>PT110</name></trkpt>
<trkpt lat="53.183557" lon="-2.053212"><ele>185</ele><time>2020-10-07T09:26:23Z</time><name>PT111</name></trkpt>
<trkpt lat="53.183542" lon="-2.053212"><ele>185</ele><time>2020-10-07T09:26:24Z</time><name>PT112</name></trkpt>
<trkpt lat="53.183530" lon="-2.053207"><ele>185</ele><time>2020-10-07T09:26:24Z</time><name>PT113</name></trkpt>
<trkpt lat="53.183517" lon="-2.053194"><ele>185</ele><time>2020-10-07T09:26:26Z</time><name>PT114</name></trkpt>
<trkpt lat="53.183506" lon="-2.053183"><ele>186</ele><time>2020-10-07T09:26:27Z</time><name>PT115</name></trkpt>
<trkpt lat="53.183494" lon="-2.053181"><ele>186</ele><time>2020-10-07T09:26:27Z</time><name>PT116</name></trkpt>
<trkpt lat="53.183485" lon="-2.053170"><ele>187</ele><time>2020-10-07T09:26:29Z</time><name>PT117</name></trkpt>
<trkpt lat="53.183472" lon="-2.053161"><ele>187</ele><time>2020-10-07T09:26:30Z</time><name>PT118</name></trkpt>
<trkpt lat="53.183461" lon="-2.053160"><ele>188</ele><time>2020-10-07T09:26:30Z</time><name>PT119</name></trkpt>
<trkpt lat="53.183447" lon="-2.053154"><ele>187</ele><time>2020-10-07T09:26:32Z</time><name>PT120</name></trkpt>
<trkpt lat="53.183429" lon="-2.053147"><ele>188</ele><time>2020-10-07T09:26:33Z</time><name>PT121</name></trkpt>
<trkpt lat="53.183427" lon="-2.053137"><ele>188</ele><time>2020-10-07T09:26:33Z</time><name>PT122</name></trkpt>
<trkpt lat="53.183418" lon="-2.053121"><ele>189</ele><time>2020-10-07T09:26:35Z</time><name>PT123</name></trkpt>
<trkpt lat="53.183420" lon="-2.053107"><ele>189</ele><time>2020-10-07T09:26:36Z</time><name>PT124</name></trkpt>
<trkpt lat="53.183424" lon="-2.053091"><ele>189</ele><time>2020-10-07T09:26:36Z</time><name>PT125</name></trkpt>
<trkpt lat="53.183425" lon="-2.053081"><ele>190</ele><time>2020-10-07T09:26:38Z</time><name>PT126</name></trkpt>
<trkpt lat="53.183428" lon="-2.053064"><ele>190</ele><time>2020-10-07T09:26:39Z</time><name>PT127</name></trkpt>
<trkpt lat="53.183421" lon="-2.053049"><ele>191</ele><time>2020-10-07T09:26:39Z</time><name>PT128</name></trkpt>
<trkpt lat="53.183421" lon="-2.053033"><ele>191</ele><time>2020-10-07T09:26:41Z</time><name>PT129</name></trkpt>
<trkpt lat="53.183426" lon="-2.053022"><ele>191</ele><time>2020-10-07T09:26:42Z</time><name>PT130</name></trkpt>
<trkpt lat="53.183429" lon="-2.053005"><ele>191</ele><time>2020-10-07T09:26:42Z</time><name>PT131</name></trkpt>
<trkpt lat="53.183432" lon="-2.052998"><ele>192</ele><time>2020-10-07T09:26:44Z</time><name>PT132</name></trkpt>
<trkpt lat="53.183440" lon="-2.052995"><ele>191</ele><time>2020-10-07T09:26:45Z</time><name>PT133</name></trkpt>
<trkpt lat="53.183448" lon="-2.052993"><ele>192</ele><time>2020-10-07T09:26:45Z</time><name>PT134</name></trkpt>
<trkpt lat="53.183453" lon="-2.052985"><ele>191</ele><time>2020-10-07T09:26:47Z</time><name>PT135</name></trkpt>
<trkpt lat="53.183461" lon="-2.052971"><ele>191</ele><time>2020-10-07T09:26:48Z</time><name>PT136</name></trkpt>
<trkpt lat="53.183469" lon="-2.052968"><ele>190</ele><time>2020-10-07T09:26:49Z</time><name>PT137</name></trkpt>
<trkpt lat="53.183471" lon="-2.052957"><ele>190</ele><time>2020-10-07T09:26:50Z</time><name>PT138</name></trkpt>
<trkpt lat="53.183477" lon="-2.052934"><ele>189</ele><time>2020-10-07T09:26:51Z</time><name>PT139</name></trkpt>
<trkpt lat="53.183484" lon="-2.052914"><ele>189</ele><time>2020-10-07T09:26:51Z</time><name>PT140</name></trkpt>
<trkpt lat="53.183488" lon="-2.052888"><ele>189</ele><time>2020-10-07T09:26:53Z</time><name>PT141</name></trkpt>
<trkpt lat="53.183488" lon="-2.052861"><ele>188</ele><time>2020-10-07T09:26:54Z</time><name>PT142</name></trkpt>
<trkpt lat="53.183491" lon="-2.052849"><ele>188</ele><time>2020-10-07T09:26:54Z</time><name>PT143</name></trkpt>
<trkpt lat="53.183489" lon="-2.052835"><ele>188</ele><time>2020-10-07T09:26:56Z</time><name>PT144</name></trkpt>
<trkpt lat="53.183494" lon="-2.052821"><ele>187</ele><time>2020-10-07T09:26:57Z</time><name>PT145</name></trkpt>
<trkpt lat="53.183507" lon="-2.052803"><ele>187</ele><time>2020-10-07T09:26:57Z</time><name>PT146</name></trkpt>
<trkpt lat="53.183511" lon="-2.052786"><ele>188</ele><time>2020-10-07T09:26:59Z</time><name>PT147</name></trkpt>
<trkpt lat="53.183513" lon="-2.052784"><ele>189</ele><time>2020-10-07T09:27:00Z</time><name>PT148</name></trkpt>
<trkpt lat="53.183519" lon="-2.052777"><ele>189</ele><time>2020-10-07T09:27:01Z</time><name>PT149</name></trkpt>
<trkpt lat="53.183530" lon="-2.052769"><ele>189</ele><time>2020-10-07T09:27:02Z</time><name>PT150</name></trkpt>
<trkpt lat="53.183531" lon="-2.052750"><ele>190</ele><time>2020-10-07T09:27:03Z</time><name>PT151</name></trkpt>
<trkpt lat="53.183537" lon="-2.052740"><ele>192</ele><time>2020-10-07T09:27:03Z</time><name>PT152</name></trkpt>
<trkpt lat="53.183542" lon="-2.052732"><ele>193</ele><time>2020-10-07T09:27:05Z</time><name>PT153</name></trkpt>
<trkpt lat="53.183545" lon="-2.052725"><ele>196</ele><time>2020-10-07T09:27:06Z</time><name>PT154</name></trkpt>
<trkpt lat="53.183554" lon="-2.052725"><ele>196</ele><time>2020-10-07T09:27:06Z</time><name>PT155</name></trkpt>
<trkpt lat="53.183563" lon="-2.052721"><ele>196</ele><time>2020-10-07T09:27:08Z</time><name>PT156</name></trkpt>
<trkpt lat="53.183562" lon="-2.052713"><ele>196</ele><time>2020-10-07T09:27:09Z</time><name>PT157</name></trkpt>
<trkpt lat="53.183566" lon="-2.052708"><ele>196</ele><time>2020-10-07T09:27:09Z</time><name>PT158</name></trkpt>
<trkpt lat="53.183583" lon="-2.052717"><ele>197</ele><time>2020-10-07T09:27:11Z</time><name>PT159</name></trkpt>
<trkpt lat="53.183587" lon="-2.052708"><ele>197</ele><time>2020-10-07T09:27:12Z</time><name>PT160</name></trkpt>
<trkpt lat="53.183599" lon="-2.052709"><ele>196</ele><time>2020-10-07T09:27:13Z</time><name>PT161</name></trkpt>
<trkpt lat="53.183607" lon="-2.052694"><ele>196</ele><time>2020-10-07T09:27:14Z</time><name>PT162</name></trkpt>
<trkpt lat="53.183598" lon="-2.052678"><ele>198</ele><time>2020-10-07T09:27:15Z</time><name>PT163</name></trkpt>
<trkpt lat="53.183596" lon="-2.052661"><ele>197</ele><time>2020-10-07T09:27:16Z</time><name>PT164</name></trkpt>
<trkpt lat="53.183599" lon="-2.052642"><ele>197</ele><time>2020-10-07T09:27:17Z</time><name>PT165</name></trkpt>
<trkpt lat="53.183601" lon="-2.052628"><ele>200</ele><time>2020-10-07T09:27:18Z</time><name>PT166</name></trkpt>
<trkpt lat="53.183605" lon="-2.052621"><ele>200</ele><time>2020-10-07T09:27:19Z</time><name>PT167</name></trkpt>
<trkpt lat="53.183600" lon="-2.052608"><ele>200</ele><time>2020-10-07T09:27:20Z</time><name>PT168</name></trkpt>
<trkpt lat="53.183605" lon="-2.052596"><ele>200</ele><time>2020-10-07T09:27:21Z</time><name>PT169</name></trkpt>
<trkpt lat="53.183621" lon="-2.052590"><ele>200</ele><time>2020-10-07T09:27:22Z</time><name>PT170</name></trkpt>
<trkpt lat="53.183634" lon="-2.052580"><ele>200</ele><time>2020-10-07T09:27:23Z</time><name>PT171</name></trkpt>
<trkpt lat="53.183644" lon="-2.052576"><ele>199</ele><time>2020-10-07T09:27:24Z</time><name>PT172</name></trkpt>
<trkpt lat="53.183649" lon="-2.052555"><ele>199</ele><time>2020-10-07T09:27:24Z</time><name>PT173</name></trkpt>
<trkpt lat="53.183657" lon="-2.052559"><ele>200</ele><time>2020-10-07T09:27:26Z</time><name>PT174</name></trkpt>
<trkpt lat="53.183650" lon="-2.052537"><ele>202</ele><time>2020-10-07T09:27:27Z</time><name>PT175</name></trkpt>
<trkpt lat="53.183666" lon="-2.052536"><ele>203</ele><time>2020-10-07T09:27:27Z</time><name>PT176</name></trkpt>
<trkpt lat="53.183674" lon="-2.052523"><ele>202</ele><time>2020-10-07T09:27:29Z</time><name>PT177</name></trkpt>
<trkpt lat="53.183694" lon="-2.052459"><ele>210</ele><time>2020-10-07T09:27:33Z</time><name>PT178</name></trkpt>
<trkpt lat="53.183735" lon="-2.052449"><ele>213</ele><time>2020-10-07T09:27:36Z</time><name>PT179</name></trkpt>
<trkpt lat="53.183774" lon="-2.052448"><ele>216</ele><time>2020-10-07T09:27:39Z</time><name>PT180</name></trkpt>
<trkpt lat="53.183788" lon="-2.052458"><ele>220</ele><time>2020-10-07T09:27:42Z</time><name>PT181</name></trkpt>
<trkpt lat="53.183818" lon="-2.052453"><ele>218</ele><time>2020-10-07T09:27:45Z</time><name>PT182</name></trkpt>
<trkpt lat="53.183851" lon="-2.052439"><ele>217</ele><time>2020-10-07T09:27:50Z</time><name>PT183</name></trkpt>
<trkpt lat="53.183886" lon="-2.052440"><ele>217</ele><time>2020-10-07T09:27:54Z</time><name>PT184</name></trkpt>
<trkpt lat="53.183930" lon="-2.052468"><ele>213</ele><time>2020-10-07T09:27:57Z</time><name>PT185</name></trkpt>
<trkpt lat="53.184021" lon="-2.052544"><ele>209</ele><time>2020-10-07T09:28:00Z</time><name>PT186</name></trkpt>
<trkpt lat="53.184065" lon="-2.052602"><ele>211</ele><time>2020-10-07T09:28:05Z</time><name>PT187</name></trkpt>
<trkpt lat="53.184097" lon="-2.052655"><ele>213</ele><time>2020-10-07T09:28:08Z</time><name>PT188</name></trkpt>
<trkpt lat="53.184137" lon="-2.052699"><ele>217</ele><time>2020-10-07T09:28:12Z</time><name>PT189</name></trkpt>
<trkpt lat="53.184189" lon="-2.052721"><ele>218</ele><time>2020-10-07T09:28:15Z</time><name>PT190</name></trkpt>
<trkpt lat="53.184243" lon="-2.052771"><ele>217</ele><time>2020-10-07T09:28:19Z</time><name>PT191</name></trkpt>
<trkpt lat="53.184308" lon="-2.052823"><ele>216</ele><time>2020-10-07T09:28:23Z</time><name>PT192</name></trkpt>
<trkpt lat="53.184346" lon="-2.052837"><ele>216</ele><time>2020-10-07T09:28:26Z</time><name>PT193</name></trkpt>
<trkpt lat="53.184387" lon="-2.052834"><ele>216</ele><time>2020-10-07T09:28:29Z</time><name>PT194</name></trkpt>
<trkpt lat="53.184407" lon="-2.052837"><ele>217</ele><time>2020-10-07T09:28:32Z</time><name>PT195</name></trkpt>
<trkpt lat="53.184452" lon="-2.052841"><ele>217</ele><time>2020-10-07T09:28:35Z</time><name>PT196</name></trkpt>
<trkpt lat="53.184483" lon="-2.052841"><ele>216</ele><time>2020-10-07T09:28:38Z</time><name>PT197</name></trkpt>
<trkpt lat="53.184514" lon="-2.052854"><ele>218</ele><time>2020-10-07T09:28:42Z</time><name>PT198</name></trkpt>
<trkpt lat="53.184548" lon="-2.052863"><ele>218</ele><time>2020-10-07T09:28:45Z</time><name>PT199</name></trkpt>
<trkpt lat="53.184564" lon="-2.052872"><ele>219</ele><time>2020-10-07T09:28:48Z</time><name>PT200</name></trkpt>
<trkpt lat="53.184643" lon="-2.052848"><ele>219</ele><time>2020-10-07T09:28:53Z</time><name>PT201</name></trkpt>
<trkpt lat="53.184663" lon="-2.052870"><ele>220</ele><time>2020-10-07T09:28:57Z</time><name>PT202</name></trkpt>
<trkpt lat="53.184712" lon="-2.052852"><ele>219</ele><time>2020-10-07T09:29:00Z</time><name>PT203</name></trkpt>
<trkpt lat="53.184790" lon="-2.052862"><ele>222</ele><time>2020-10-07T09:29:03Z</time><name>PT204</name></trkpt>
<trkpt lat="53.184825" lon="-2.052860"><ele>223</ele><time>2020-10-07T09:29:06Z</time><name>PT205</name></trkpt>
<trkpt lat="53.184873" lon="-2.052864"><ele>225</ele><time>2020-10-07T09:29:11Z</time><name>PT206</name></trkpt>
<trkpt lat="53.184933" lon="-2.052908"><ele>225</ele><time>2020-10-07T09:29:15Z</time><name>PT207</name></trkpt>
<trkpt lat="53.184957" lon="-2.052910"><ele>226</ele><time>2020-10-07T09:29:18Z</time><name>PT208</name></trkpt>
<trkpt lat="53.184962" lon="-2.052916"><ele>225</ele><time>2020-10-07T09:29:21Z</time><name>PT209</name></trkpt>
<trkpt lat="53.184984" lon="-2.052915"><ele>224</ele><time>2020-10-07T09:29:24Z</time><name>PT210</name></trkpt>
<trkpt lat="53.185028" lon="-2.052994"><ele>225</ele><time>2020-10-07T09:29:27Z</time><name>PT211</name></trkpt>
<trkpt lat="53.185073" lon="-2.053008"><ele>226</ele><time>2020-10-07T09:29:30Z</time><name>PT212</name></trkpt>
<trkpt lat="53.185112" lon="-2.053061"><ele>228</ele><time>2020-10-07T09:29:35Z</time><name>PT213</name></trkpt>
<trkpt lat="53.185150" lon="-2.053109"><ele>229</ele><time>2020-10-07T09:29:39Z</time><name>PT214</name></trkpt>
<trkpt lat="53.185173" lon="-2.053139"><ele>230</ele><time>2020-10-07T09:29:42Z</time><name>PT215</name></trkpt>
<trkpt lat="53.185179" lon="-2.053156"><ele>230</ele><time>2020-10-07T09:29:45Z</time><name>PT216</name></trkpt>
<trkpt lat="53.185228" lon="-2.053187"><ele>231</ele><time>2020-10-07T09:29:48Z</time><name>PT217</name></trkpt>
<trkpt lat="53.185273" lon="-2.053213"><ele>231</ele><time>2020-10-07T09:29:53Z</time><name>PT218</name></trkpt>
<trkpt lat="53.185306" lon="-2.053235"><ele>230</ele><time>2020-10-07T09:29:56Z</time><name>PT219</name></trkpt>
<trkpt lat="53.185332" lon="-2.053269"><ele>230</ele><time>2020-10-07T09:30:00Z</time><name>PT220</name></trkpt>
<trkpt lat="53.185348" lon="-2.053283"><ele>232</ele><time>2020-10-07T09:30:03Z</time><name>PT221</name></trkpt>
<trkpt lat="53.185367" lon="-2.053329"><ele>232</ele><time>2020-10-07T09:30:06Z</time><name>PT222</name></trkpt>
<trkpt lat="53.185388" lon="-2.053361"><ele>232</ele><time>2020-10-07T09:30:11Z</time><name>PT223</name></trkpt>
<trkpt lat="53.185416" lon="-2.053411"><ele>232</ele><time>2020-10-07T09:30:14Z</time><name>PT224</name></trkpt>
<trkpt lat="53.185440" lon="-2.053433"><ele>231</ele><time>2020-10-07T09:30:17Z</time><name>PT225</name></trkpt>
<trkpt lat="53.185448" lon="-2.053449"><ele>233</ele><time>2020-10-07T09:30:20Z</time><name>PT226</name></trkpt>
<trkpt lat="53.185478" lon="-2.053503"><ele>233</ele><time>2020-10-07T09:30:24Z</time><name>PT227</name></trkpt>
<trkpt lat="53.185504" lon="-2.053523"><ele>232</ele><time>2020-10-07T09:30:27Z</time><name>PT228</name></trkpt>
<trkpt lat="53.185554" lon="-2.053548"><ele>231</ele><time>2020-10-07T09:30:30Z</time><name>PT229</name></trkpt>
<trkpt lat="53.185604" lon="-2.053560"><ele>230</ele><time>2020-10-07T09:30:33Z</time><name>PT230</name></trkpt>
<trkpt lat="53.185664" lon="-2.053598"><ele>229</ele><time>2020-10-07T09:30:38Z</time><name>PT231</name></trkpt>
<trkpt lat="53.185713" lon="-2.053624"><ele>227</ele><time>2020-10-07T09:30:41Z</time><name>PT232</name></trkpt>
<trkpt lat="53.185767" lon="-2.053657"><ele>226</ele><time>2020-10-07T09:30:45Z</time><name>PT233</name></trkpt>
<trkpt lat="53.185802" lon="-2.053671"><ele>224</ele><time>2020-10-07T09:30:48Z</time><name>PT234</name></trkpt>
<trkpt lat="53.185842" lon="-2.053692"><ele>222</ele><time>2020-10-07T09:30:51Z</time><name>PT235</name></trkpt>
<trkpt lat="53.185864" lon="-2.053692"><ele>221</ele><time>2020-10-07T09:30:55Z</time><name>PT236</name></trkpt>
<trkpt lat="53.185899" lon="-2.053713"><ele>221</ele><time>2020-10-07T09:30:59Z</time><name>PT237</name></trkpt>
<trkpt lat="53.185931" lon="-2.053707"><ele>222</ele><time>2020-10-07T09:31:02Z</time><name>PT238</name></trkpt>
<trkpt lat="53.185955" lon="-2.053725"><ele>223</ele><time>2020-10-07T09:31:05Z</time><name>PT239</name></trkpt>
<trkpt lat="53.185972" lon="-2.053736"><ele>222</ele><time>2020-10-07T09:31:09Z</time><name>PT240</name></trkpt>
<trkpt lat="53.186002" lon="-2.053765"><ele>219</ele><time>2020-10-07T09:31:12Z</time><name>PT241</name></trkpt>
<trkpt lat="53.186046" lon="-2.053804"><ele>219</ele><time>2020-10-07T09:31:15Z</time><name>PT242</name></trkpt>
<trkpt lat="53.186097" lon="-2.053840"><ele>220</ele><time>2020-10-07T09:31:20Z</time><name>PT243</name></trkpt>
<trkpt lat="53.186096" lon="-2.053839"><ele>220</ele><time>2020-10-07T09:31:27Z</time><name>PT244</name></trkpt>
<trkpt lat="53.186114" lon="-2.053870"><ele>221</ele><time>2020-10-07T09:31:30Z</time><name>PT245</name></trkpt>
<trkpt lat="53.186139" lon="-2.053902"><ele>223</ele><time>2020-10-07T09:31:33Z</time><name>PT246</name></trkpt>
<trkpt lat="53.186158" lon="-2.053942"><ele>224</ele><time>2020-10-07T09:31:36Z</time><name>PT247</name></trkpt>
<trkpt lat="53.186195" lon="-2.053996"><ele>225</ele><time>2020-10-07T09:31:39Z</time><name>PT248</name></trkpt>
<trkpt lat="53.186245" lon="-2.054065"><ele>226</ele><time>2020-10-07T09:31:44Z</time><name>PT249</name></trkpt>
<trkpt lat="53.186295" lon="-2.054128"><ele>225</ele><time>2020-10-07T09:31:48Z</time><name>PT250</name></trkpt>
<trkpt lat="53.186334" lon="-2.054148"><ele>227</ele><time>2020-10-07T09:31:51Z</time><name>PT251</name></trkpt>
<trkpt lat="53.186375" lon="-2.054134"><ele>228</ele><time>2020-10-07T09:31:56Z</time><name>PT252</name></trkpt>
<trkpt lat="53.186400" lon="-2.054096"><ele>228</ele><time>2020-10-07T09:31:59Z</time><name>PT253</name></trkpt>
<trkpt lat="53.186442" lon="-2.054022"><ele>226</ele><time>2020-10-07T09:32:03Z</time><name>PT254</name></trkpt>
<trkpt lat="53.186461" lon="-2.053980"><ele>224</ele><time>2020-10-07T09:32:06Z</time><name>PT255</name></trkpt>
<trkpt lat="53.186490" lon="-2.053923"><ele>223</ele><time>2020-10-07T09:32:09Z</time><name>PT256</name></trkpt>
<trkpt lat="53.186517" lon="-2.053867"><ele>222</ele><time>2020-10-07T09:32:12Z</time><name>PT257</name></trkpt>
<trkpt lat="53.186529" lon="-2.053815"><ele>222</ele><time>2020-10-07T09:32:17Z</time><name>PT258</name></trkpt>
<trkpt lat="53.186565" lon="-2.053701"><ele>220</ele><time>2020-10-07T09:32:27Z</time><name>PT259</name></trkpt>
<trkpt lat="53.186599" lon="-2.053564"><ele>220</ele><time>2020-10-07T09:32:30Z</time><name>PT260</name></trkpt>
<trkpt lat="53.186627" lon="-2.053472"><ele>219</ele><time>2020-10-07T09:32:35Z</time><name>PT261</name></trkpt>
<trkpt lat="53.186660" lon="-2.053424"><ele>219</ele><time>2020-10-07T09:32:39Z</time><name>PT262</name></trkpt>
<trkpt lat="53.186718" lon="-2.053303"><ele>217</ele><time>2020-10-07T09:32:45Z</time><name>PT263</name></trkpt>
<trkpt lat="53.186764" lon="-2.053232"><ele>215</ele><time>2020-10-07T09:32:48Z</time><name>PT264</name></trkpt>
<trkpt lat="53.186781" lon="-2.053190"><ele>214</ele><time>2020-10-07T09:32:51Z</time><name>PT265</name></trkpt>
<trkpt lat="53.186795" lon="-2.053122"><ele>212</ele><time>2020-10-07T09:32:54Z</time><name>PT266</name></trkpt>
<trkpt lat="53.186821" lon="-2.053028"><ele>210</ele><time>2020-10-07T09:33:02Z</time><name>PT267</name></trkpt>
<trkpt lat="53.186856" lon="-2.052941"><ele>208</ele><time>2020-10-07T09:33:06Z</time><name>PT268</name></trkpt>
<trkpt lat="53.186870" lon="-2.052883"><ele>208</ele><time>2020-10-07T09:33:09Z</time><name>PT269</name></trkpt>
<trkpt lat="53.186881" lon="-2.052858"><ele>207</ele><time>2020-10-07T09:33:12Z</time><name>PT270</name></trkpt>
<trkpt lat="53.186884" lon="-2.052852"><ele>207</ele><time>2020-10-07T09:33:15Z</time><name>PT271</name></trkpt>
<trkpt lat="53.186928" lon="-2.052775"><ele>206</ele><time>2020-10-07T09:33:18Z</time><name>PT272</name></trkpt>
<trkpt lat="53.186977" lon="-2.052696"><ele>206</ele><time>2020-10-07T09:33:23Z</time><name>PT273</name></trkpt>
<trkpt lat="53.187011" lon="-2.052632"><ele>206</ele><time>2020-10-07T09:33:27Z</time><name>PT274</name></trkpt>
<trkpt lat="53.187029" lon="-2.052601"><ele>206</ele><time>2020-10-07T09:33:30Z</time><name>PT275</name></trkpt>
<trkpt lat="53.187057" lon="-2.052598"><ele>206</ele><time>2020-10-07T09:33:33Z</time><name>PT276</name></trkpt>
<trkpt lat="53.187084" lon="-2.052584"><ele>206</ele><time>2020-10-07T09:33:36Z</time><name>PT277</name></trkpt>
<trkpt lat="53.187124" lon="-2.052541"><ele>207</ele><time>2020-10-07T09:33:39Z</time><name>PT278</name></trkpt>
<trkpt lat="53.187141" lon="-2.052524"><ele>206</ele><time>2020-10-07T09:33:44Z</time><name>PT279</name></trkpt>
<trkpt lat="53.187156" lon="-2.052491"><ele>207</ele><time>2020-10-07T09:33:54Z</time><name>PT280</name></trkpt>
<trkpt lat="53.187199" lon="-2.052409"><ele>208</ele><time>2020-10-07T09:33:57Z</time><name>PT281</name></trkpt>
<trkpt lat="53.187219" lon="-2.052363"><ele>207</ele><time>2020-10-07T09:34:08Z</time><name>PT282</name></trkpt>
<trkpt lat="53.187228" lon="-2.052339"><ele>207</ele><time>2020-10-07T09:34:11Z</time><name>PT283</name></trkpt>
<trkpt lat="53.187239" lon="-2.052311"><ele>207</ele><time>2020-10-07T09:34:14Z</time><name>PT284</name></trkpt>
<trkpt lat="53.187290" lon="-2.052249"><ele>208</ele><time>2020-10-07T09:34:18Z</time><name>PT285</name></trkpt>
<trkpt lat="53.187342" lon="-2.052251"><ele>208</ele><time>2020-10-07T09:34:21Z</time><name>PT286</name></trkpt>
<trkpt lat="53.187387" lon="-2.052220"><ele>209</ele><time>2020-10-07T09:34:26Z</time><name>PT287</name></trkpt>
<trkpt lat="53.187400" lon="-2.052216"><ele>210</ele><time>2020-10-07T09:34:29Z</time><name>PT288</name></trkpt>
<trkpt lat="53.187411" lon="-2.052216"><ele>211</ele><time>2020-10-07T09:34:54Z</time><name>PT289</name></trkpt>
<trkpt lat="53.187454" lon="-2.052169"><ele>213</ele><time>2020-10-07T09:34:57Z</time><name>PT290</name></trkpt>
<trkpt lat="53.187485" lon="-2.052105"><ele>215</ele><time>2020-10-07T09:35:00Z</time><name>PT291</name></trkpt>
<trkpt lat="53.187515" lon="-2.052080"><ele>215</ele><time>2020-10-07T09:35:03Z</time><name>PT292</name></trkpt>
<trkpt lat="53.187528" lon="-2.052019"><ele>216</ele><time>2020-10-07T09:35:06Z</time><name>PT293</name></trkpt>
<trkpt lat="53.187555" lon="-2.051961"><ele>217</ele><time>2020-10-07T09:35:09Z</time><name>PT294</name></trkpt>
<trkpt lat="53.187587" lon="-2.051923"><ele>218</ele><time>2020-10-07T09:35:12Z</time><name>PT295</name></trkpt>
<trkpt lat="53.187613" lon="-2.051849"><ele>217</ele><time>2020-10-07T09:35:21Z</time><name>PT296</name></trkpt>
<trkpt lat="53.187637" lon="-2.051781"><ele>216</ele><time>2020-10-07T09:35:24Z</time><name>PT297</name></trkpt>
<trkpt lat="53.187653" lon="-2.051704"><ele>218</ele><time>2020-10-07T09:35:27Z</time><name>PT298</name></trkpt>
<trkpt lat="53.187687" lon="-2.051647"><ele>219</ele><time>2020-10-07T09:35:32Z</time><name>PT299</name></trkpt>
<trkpt lat="53.187704" lon="-2.051614"><ele>219</ele><time>2020-10-07T09:35:35Z</time><name>PT300</name></trkpt>
<trkpt lat="53.187715" lon="-2.051575"><ele>220</ele><time>2020-10-07T09:35:38Z</time><name>PT301</name></trkpt>
<trkpt lat="53.187723" lon="-2.051543"><ele>220</ele><time>2020-10-07T09:35:41Z</time><name>PT302</name></trkpt>
<trkpt lat="53.187728" lon="-2.051517"><ele>220</ele><time>2020-10-07T09:35:44Z</time><name>PT303</name></trkpt>
<trkpt lat="53.187756" lon="-2.051473"><ele>220</ele><time>2020-10-07T09:35:48Z</time><name>PT304</name></trkpt>
<trkpt lat="53.187781" lon="-2.051446"><ele>218</ele><time>2020-10-07T09:35:51Z</time><name>PT305</name></trkpt>
<trkpt lat="53.187787" lon="-2.051424"><ele>218</ele><time>2020-10-07T09:35:54Z</time><name>PT306</name></trkpt>
<trkpt lat="53.187827" lon="-2.051403"><ele>217</ele><time>2020-10-07T09:35:59Z</time><name>PT307</name></trkpt>
<trkpt lat="53.187857" lon="-2.051373"><ele>217</ele><time>2020-10-07T09:36:02Z</time><name>PT308</name></trkpt>
<trkpt lat="53.187876" lon="-2.051371"><ele>217</ele><time>2020-10-07T09:36:05Z</time><name>PT309</name></trkpt>
<trkpt lat="53.187938" lon="-2.051335"><ele>215</ele><time>2020-10-07T09:36:12Z</time><name>PT310</name></trkpt>
<trkpt lat="53.187979" lon="-2.051313"><ele>215</ele><time>2020-10-07T09:36:15Z</time><name>PT311</name></trkpt>
<trkpt lat="53.188020" lon="-2.051285"><ele>215</ele><time>2020-10-07T09:36:18Z</time><name>PT312</name></trkpt>
<trkpt lat="53.188073" lon="-2.051270"><ele>214</ele><time>2020-10-07T09:36:23Z</time><name>PT313</name></trkpt>
<trkpt lat="53.188110" lon="-2.051240"><ele>214</ele><time>2020-10-07T09:36:27Z</time><name>PT314</name></trkpt>
<trkpt lat="53.188153" lon="-2.051229"><ele>215</ele><time>2020-10-07T09:36:30Z</time><name>PT315</name></trkpt>
<trkpt lat="53.188179" lon="-2.051227"><ele>215</ele><time>2020-10-07T09:36:33Z</time><name>PT316</name></trkpt>
<trkpt lat="53.188193" lon="-2.051222"><ele>215</ele><time>2020-10-07T09:36:36Z</time><name>PT317</name></trkpt>
<trkpt lat="53.188203" lon="-2.051219"><ele>215</ele><time>2020-10-07T09:36:41Z</time><name>PT318</name></trkpt>
<trkpt lat="53.188262" lon="-2.051169"><ele>213</ele><time>2020-10-07T09:36:44Z</time><name>PT319</name></trkpt>
<trkpt lat="53.188317" lon="-2.051100"><ele>213</ele><time>2020-10-07T09:36:48Z</time><name>PT320</name></trkpt>
<trkpt lat="53.188355" lon="-2.051052"><ele>214</ele><time>2020-10-07T09:36:51Z</time><name>PT321</name></trkpt>
<trkpt lat="53.188399" lon="-2.051002"><ele>214</ele><time>2020-10-07T09:36:54Z</time><name>PT322</name></trkpt>
<trkpt lat="53.188428" lon="-2.050955"><ele>214</ele><time>2020-10-07T09:36:57Z</time><name>PT323</name></trkpt>
<trkpt lat="53.188457" lon="-2.050894"><ele>214</ele><time>2020-10-07T09:37:02Z</time><name>PT324</name></trkpt>
<trkpt lat="53.188467" lon="-2.050853"><ele>215</ele><time>2020-10-07T09:37:05Z</time><name>PT325</name></trkpt>
<trkpt lat="53.188486" lon="-2.050818"><ele>215</ele><time>2020-10-07T09:37:08Z</time><name>PT326</name></trkpt>
<trkpt lat="53.188495" lon="-2.050792"><ele>215</ele><time>2020-10-07T09:37:15Z</time><name>PT327</name></trkpt>
<trkpt lat="53.188515" lon="-2.050711"><ele>215</ele><time>2020-10-07T09:37:18Z</time><name>PT328</name></trkpt>
<trkpt lat="53.188528" lon="-2.050645"><ele>215</ele><time>2020-10-07T09:37:21Z</time><name>PT329</name></trkpt>
<trkpt lat="53.188553" lon="-2.050619"><ele>215</ele><time>2020-10-07T09:37:24Z</time><name>PT330</name></trkpt>
<trkpt lat="53.188563" lon="-2.050595"><ele>215</ele><time>2020-10-07T09:37:27Z</time><name>PT331</name></trkpt>
<trkpt lat="53.188601" lon="-2.050510"><ele>217</ele><time>2020-10-07T09:37:36Z</time><name>PT332</name></trkpt>
<trkpt lat="53.188638" lon="-2.050402"><ele>217</ele><time>2020-10-07T09:37:48Z</time><name>PT333</name></trkpt>
<trkpt lat="53.188669" lon="-2.050360"><ele>217</ele><time>2020-10-07T09:37:51Z</time><name>PT334</name></trkpt>
<trkpt lat="53.188734" lon="-2.050230"><ele>216</ele><time>2020-10-07T09:38:00Z</time><name>PT335</name></trkpt>
<trkpt lat="53.188779" lon="-2.050167"><ele>215</ele><time>2020-10-07T09:38:03Z</time><name>PT336</name></trkpt>
<trkpt lat="53.188826" lon="-2.050124"><ele>215</ele><time>2020-10-07T09:38:06Z</time><name>PT337</name></trkpt>
<trkpt lat="53.188874" lon="-2.050059"><ele>216</ele><time>2020-10-07T09:38:09Z</time><name>PT338</name></trkpt>
<trkpt lat="53.188897" lon="-2.050029"><ele>216</ele><time>2020-10-07T09:38:12Z</time><name>PT339</name></trkpt>
<trkpt lat="53.188915" lon="-2.050016"><ele>216</ele><time>2020-10-07T09:38:17Z</time><name>PT340</name></trkpt>
<trkpt lat="53.188951" lon="-2.049973"><ele>214</ele><time>2020-10-07T09:38:24Z</time><name>PT341</name></trkpt>
<trkpt lat="53.188968" lon="-2.049926"><ele>213</ele><time>2020-10-07T09:38:27Z</time><name>PT342</name></trkpt>
<trkpt lat="53.189015" lon="-2.049863"><ele>214</ele><time>2020-10-07T09:38:30Z</time><name>PT343</name></trkpt>
<trkpt lat="53.189059" lon="-2.049779"><ele>213</ele><time>2020-10-07T09:38:35Z</time><name>PT344</name></trkpt>
<trkpt lat="53.189105" lon="-2.049724"><ele>214</ele><time>2020-10-07T09:38:39Z</time><name>PT345</name></trkpt>
<trkpt lat="53.189144" lon="-2.049658"><ele>213</ele><time>2020-10-07T09:38:42Z</time><name>PT346</name></trkpt>
<trkpt lat="53.189171" lon="-2.049628"><ele>214</ele><time>2020-10-07T09:38:45Z</time><name>PT347</name></trkpt>
<trkpt lat="53.189196" lon="-2.049583"><ele>214</ele><time>2020-10-07T09:38:50Z</time><name>PT348</name></trkpt>
<trkpt lat="53.189212" lon="-2.049565"><ele>214</ele><time>2020-10-07T09:38:54Z</time><name>PT349</name></trkpt>
<trkpt lat="53.189244" lon="-2.049508"><ele>212</ele><time>2020-10-07T09:38:57Z</time><name>PT350</name></trkpt>
<trkpt lat="53.189269" lon="-2.049469"><ele>212</ele><time>2020-10-07T09:39:00Z</time><name>PT351</name></trkpt>
<trkpt lat="53.189303" lon="-2.049430"><ele>212</ele><time>2020-10-07T09:39:03Z</time><name>PT352</name></trkpt>
<trkpt lat="53.189351" lon="-2.049367"><ele>213</ele><time>2020-10-07T09:39:06Z</time><name>PT353</name></trkpt>
<trkpt lat="53.189403" lon="-2.049287"><ele>212</ele><time>2020-10-07T09:39:11Z</time><name>PT354</name></trkpt>
<trkpt lat="53.189428" lon="-2.049259"><ele>212</ele><time>2020-10-07T09:39:14Z</time><name>PT355</name></trkpt>
<trkpt lat="53.189468" lon="-2.049250"><ele>213</ele><time>2020-10-07T09:39:17Z</time><name>PT356</name></trkpt>
<trkpt lat="53.189521" lon="-2.049192"><ele>213</ele><time>2020-10-07T09:39:21Z</time><name>PT357</name></trkpt>
<trkpt lat="53.189551" lon="-2.049164"><ele>213</ele><time>2020-10-07T09:39:24Z</time><name>PT358</name></trkpt>
<trkpt lat="53.189568" lon="-2.049138"><ele>213</ele><time>2020-10-07T09:39:27Z</time><name>PT359</name></trkpt>
<trkpt lat="53.189601" lon="-2.049107"><ele>214</ele><time>2020-10-07T09:39:30Z</time><name>PT360</name></trkpt>
<trkpt lat="53.189614" lon="-2.049084"><ele>215</ele><time>2020-10-07T09:39:33Z</time><name>PT361</name></trkpt>
<trkpt lat="53.189658" lon="-2.049047"><ele>215</ele><time>2020-10-07T09:39:36Z</time><name>PT362</name></trkpt>
<trkpt lat="53.189686" lon="-2.049012"><ele>216</ele><time>2020-10-07T09:39:41Z</time><name>PT363</name></trkpt>
<trkpt lat="53.189717" lon="-2.048987"><ele>216</ele><time>2020-10-07T09:39:44Z</time><name>PT364</name></trkpt>
<trkpt lat="53.189771" lon="-2.048967"><ele>217</ele><time>2020-10-07T09:39:47Z</time><name>PT365</name></trkpt>
<trkpt lat="53.189807" lon="-2.048945"><ele>216</ele><time>2020-10-07T09:39:50Z</time><name>PT366</name></trkpt>
<trkpt lat="53.189857" lon="-2.048902"><ele>213</ele><time>2020-10-07T09:39:54Z</time><name>PT367</name></trkpt>
<trkpt lat="53.189903" lon="-2.048844"><ele>211</ele><time>2020-10-07T09:39:57Z</time><name>PT368</name></trkpt>
<trkpt lat="53.189935" lon="-2.048802"><ele>211</ele><time>2020-10-07T09:40:02Z</time><name>PT369</name></trkpt>
<trkpt lat="53.189951" lon="-2.048785"><ele>210</ele><time>2020-10-07T09:40:05Z</time><name>PT370</name></trkpt>
<trkpt lat="53.189957" lon="-2.048774"><ele>210</ele><time>2020-10-07T09:40:09Z</time><name>PT371</name></trkpt>
<trkpt lat="53.189975" lon="-2.048745"><ele>209</ele><time>2020-10-07T09:40:26Z</time><name>PT372</name></trkpt>
<trkpt lat="53.190059" lon="-2.048590"><ele>205</ele><time>2020-10-07T09:40:29Z</time><name>PT373</name></trkpt>
<trkpt lat="53.190100" lon="-2.048511"><ele>203</ele><time>2020-10-07T09:40:32Z</time><name>PT374</name></trkpt>
<trkpt lat="53.190157" lon="-2.048423"><ele>202</ele><time>2020-10-07T09:40:36Z</time><name>PT375</name></trkpt>
<trkpt lat="53.190185" lon="-2.048329"><ele>200</ele><time>2020-10-07T09:40:39Z</time><name>PT376</name></trkpt>
<trkpt lat="53.190215" lon="-2.048239"><ele>199</ele><time>2020-10-07T09:40:42Z</time><name>PT377</name></trkpt>
<trkpt lat="53.190267" lon="-2.048160"><ele>199</ele><time>2020-10-07T09:40:47Z</time><name>PT378</name></trkpt>
<trkpt lat="53.190300" lon="-2.048104"><ele>198</ele><time>2020-10-07T09:40:51Z</time><name>PT379</name></trkpt>
<trkpt lat="53.190341" lon="-2.048038"><ele>198</ele><time>2020-10-07T09:40:54Z</time><name>PT380</name></trkpt>
<trkpt lat="53.190371" lon="-2.047988"><ele>198</ele><time>2020-10-07T09:40:57Z</time><name>PT381</name></trkpt>
<trkpt lat="53.190402" lon="-2.047945"><ele>198</ele><time>2020-10-07T09:41:02Z</time><name>PT382</name></trkpt>
<trkpt lat="53.190407" lon="-2.047874"><ele>198</ele><time>2020-10-07T09:41:06Z</time><name>PT383</name></trkpt>
<trkpt lat="53.190425" lon="-2.047833"><ele>200</ele><time>2020-10-07T09:41:09Z</time><name>PT384</name></trkpt>
<trkpt lat="53.190440" lon="-2.047799"><ele>201</ele><time>2020-10-07T09:41:12Z</time><name>PT385</name></trkpt>
<trkpt lat="53.190463" lon="-2.047776"><ele>201</ele><time>2020-10-07T09:41:16Z</time><name>PT386</name></trkpt>
<trkpt lat="53.190499" lon="-2.047722"><ele>201</ele><time>2020-10-07T09:41:20Z</time><name>PT387</name></trkpt>
<trkpt lat="53.190529" lon="-2.047676"><ele>204</ele><time>2020-10-07T09:41:23Z</time><name>PT388</name></trkpt>
<trkpt lat="53.190542" lon="-2.047615"><ele>204</ele><time>2020-10-07T09:41:27Z</time><name>PT389</name></trkpt>
<trkpt lat="53.190567" lon="-2.047564"><ele>206</ele><time>2020-10-07T09:41:30Z</time><name>PT390</name></trkpt>
<trkpt lat="53.190593" lon="-2.047521"><ele>209</ele><time>2020-10-07T09:41:33Z</time><name>PT391</name></trkpt>
<trkpt lat="53.190602" lon="-2.047470"><ele>210</ele><time>2020-10-07T09:41:36Z</time><name>PT392</name></trkpt>
<trkpt lat="53.190627" lon="-2.047394"><ele>211</ele><time>2020-10-07T09:41:39Z</time><name>PT393</name></trkpt>
<trkpt lat="53.190643" lon="-2.047343"><ele>211</ele><time>2020-10-07T09:41:42Z</time><name>PT394</name></trkpt>
<trkpt lat="53.190670" lon="-2.047276"><ele>213</ele><time>2020-10-07T09:41:47Z</time><name>PT395</name></trkpt>
<trkpt lat="53.190685" lon="-2.047231"><ele>213</ele><time>2020-10-07T09:41:50Z</time><name>PT396</name></trkpt>
<trkpt lat="53.190696" lon="-2.047164"><ele>213</ele><time>2020-10-07T09:41:54Z</time><name>PT397</name></trkpt>
<trkpt lat="53.190727" lon="-2.047111"><ele>213</ele><time>2020-10-07T09:41:57Z</time><name>PT398</name></trkpt>
<trkpt lat="53.190762" lon="-2.047072"><ele>214</ele><time>2020-10-07T09:42:02Z</time><name>PT399</name></trkpt>
<trkpt lat="53.190782" lon="-2.047041"><ele>213</ele><time>2020-10-07T09:42:05Z</time><name>PT400</name></trkpt>
<trkpt lat="53.190805" lon="-2.047022"><ele>213</ele><time>2020-10-07T09:42:08Z</time><name>PT401</name></trkpt>
<trkpt lat="53.190834" lon="-2.046990"><ele>213</ele><time>2020-10-07T09:42:11Z</time><name>PT402</name></trkpt>
<trkpt lat="53.190850" lon="-2.046949"><ele>213</ele><time>2020-10-07T09:42:14Z</time><name>PT403</name></trkpt>
<trkpt lat="53.190876" lon="-2.046884"><ele>212</ele><time>2020-10-07T09:42:18Z</time><name>PT404</name></trkpt>
<trkpt lat="53.190902" lon="-2.046831"><ele>213</ele><time>2020-10-07T09:42:21Z</time><name>PT405</name></trkpt>
<trkpt lat="53.190918" lon="-2.046784"><ele>213</ele><time>2020-10-07T09:42:24Z</time><name>PT406</name></trkpt>
<trkpt lat="53.190939" lon="-2.046746"><ele>213</ele><time>2020-10-07T09:42:27Z</time><name>PT407</name></trkpt>
<trkpt lat="53.190962" lon="-2.046687"><ele>213</ele><time>2020-10-07T09:42:30Z</time><name>PT408</name></trkpt>
<trkpt lat="53.190987" lon="-2.046620"><ele>210</ele><time>2020-10-07T09:42:35Z</time><name>PT409</name></trkpt>
<trkpt lat="53.191009" lon="-2.046566"><ele>209</ele><time>2020-10-07T09:42:38Z</time><name>PT410</name></trkpt>
<trkpt lat="53.191040" lon="-2.046508"><ele>209</ele><time>2020-10-07T09:42:42Z</time><name>PT411</name></trkpt>
<trkpt lat="53.191059" lon="-2.046454"><ele>209</ele><time>2020-10-07T09:42:45Z</time><name>PT412</name></trkpt>
<trkpt lat="53.191081" lon="-2.046409"><ele>210</ele><time>2020-10-07T09:42:48Z</time><name>PT413</name></trkpt>
<trkpt lat="53.191100" lon="-2.046361"><ele>212</ele><time>2020-10-07T09:42:51Z</time><name>PT414</name></trkpt>
<trkpt lat="53.191129" lon="-2.046283"><ele>214</ele><time>2020-10-07T09:42:54Z</time><name>PT415</name></trkpt>
<trkpt lat="53.191150" lon="-2.046239"><ele>214</ele><time>2020-10-07T09:42:57Z</time><name>PT416</name></trkpt>
<trkpt lat="53.191173" lon="-2.046198"><ele>215</ele><time>2020-10-07T09:43:00Z</time><name>PT417</name></trkpt>
<trkpt lat="53.191206" lon="-2.046141"><ele>216</ele><time>2020-10-07T09:43:05Z</time><name>PT418</name></trkpt>
<trkpt lat="53.191226" lon="-2.046074"><ele>218</ele><time>2020-10-07T09:43:09Z</time><name>PT419</name></trkpt>
<trkpt lat="53.191241" lon="-2.046018"><ele>220</ele><time>2020-10-07T09:43:12Z</time><name>PT420</name></trkpt>
<trkpt lat="53.191263" lon="-2.045970"><ele>220</ele><time>2020-10-07T09:43:15Z</time><name>PT421</name></trkpt>
<trkpt lat="53.191274" lon="-2.045902"><ele>220</ele><time>2020-10-07T09:43:18Z</time><name>PT422</name></trkpt>
<trkpt lat="53.191297" lon="-2.045839"><ele>219</ele><time>2020-10-07T09:43:23Z</time><name>PT423</name></trkpt>
<trkpt lat="53.191324" lon="-2.045790"><ele>218</ele><time>2020-10-07T09:43:26Z</time><name>PT424</name></trkpt>
<trkpt lat="53.191352" lon="-2.045754"><ele>216</ele><time>2020-10-07T09:43:29Z</time><name>PT425</name></trkpt>
<trkpt lat="53.191376" lon="-2.045684"><ele>215</ele><time>2020-10-07T09:43:33Z</time><name>PT426</name></trkpt>
<trkpt lat="53.191390" lon="-2.045605"><ele>216</ele><time>2020-10-07T09:43:36Z</time><name>PT427</name></trkpt>
<trkpt lat="53.191416" lon="-2.045542"><ele>215</ele><time>2020-10-07T09:43:41Z</time><name>PT428</name></trkpt>
<trkpt lat="53.191444" lon="-2.045499"><ele>215</ele><time>2020-10-07T09:43:45Z</time><name>PT429</name></trkpt>
<trkpt lat="53.191464" lon="-2.045446"><ele>216</ele><time>2020-10-07T09:43:48Z</time><name>PT430</name></trkpt>
<trkpt lat="53.191488" lon="-2.045438"><ele>215</ele><time>2020-10-07T09:43:51Z</time><name>PT431</name></trkpt>
<trkpt lat="53.191496" lon="-2.045442"><ele>215</ele><time>2020-10-07T09:43:54Z</time><name>PT432</name></trkpt>
<trkpt lat="53.191497" lon="-2.045441"><ele>214</ele><time>2020-10-07T09:43:59Z</time><name>PT433</name></trkpt>
<trkpt lat="53.191501" lon="-2.045401"><ele>215</ele><time>2020-10-07T09:44:05Z</time><name>PT434</name></trkpt>
<trkpt lat="53.191495" lon="-2.045340"><ele>216</ele><time>2020-10-07T09:44:09Z</time><name>PT435</name></trkpt>
<trkpt lat="53.191517" lon="-2.045293"><ele>218</ele><time>2020-10-07T09:44:12Z</time><name>PT436</name></trkpt>
<trkpt lat="53.191519" lon="-2.045240"><ele>218</ele><time>2020-10-07T09:44:15Z</time><name>PT437</name></trkpt>
<trkpt lat="53.191531" lon="-2.045193"><ele>219</ele><time>2020-10-07T09:44:18Z</time><name>PT438</name></trkpt>
<trkpt lat="53.191534" lon="-2.045129"><ele>218</ele><time>2020-10-07T09:44:21Z</time><name>PT439</name></trkpt>
<trkpt lat="53.191535" lon="-2.045067"><ele>218</ele><time>2020-10-07T09:44:26Z</time><name>PT440</name></trkpt>
<trkpt lat="53.191538" lon="-2.044997"><ele>219</ele><time>2020-10-07T09:44:30Z</time><name>PT441</name></trkpt>
<trkpt lat="53.191539" lon="-2.044920"><ele>220</ele><time>2020-10-07T09:44:33Z</time><name>PT442</name></trkpt>
<trkpt lat="53.191542" lon="-2.044839"><ele>222</ele><time>2020-10-07T09:44:36Z</time><name>PT443</name></trkpt>
<trkpt lat="53.191555" lon="-2.044775"><ele>223</ele><time>2020-10-07T09:44:41Z</time><name>PT444</name></trkpt>
<trkpt lat="53.191557" lon="-2.044736"><ele>225</ele><time>2020-10-07T09:44:44Z</time><name>PT445</name></trkpt>
<trkpt lat="53.191558" lon="-2.044718"><ele>225</ele><time>2020-10-07T09:44:48Z</time><name>PT446</name></trkpt>
<trkpt lat="53.191568" lon="-2.044715"><ele>225</ele><time>2020-10-07T09:44:51Z</time><name>PT447</name></trkpt>
<trkpt lat="53.191581" lon="-2.044641"><ele>227</ele><time>2020-10-07T09:44:54Z</time><name>PT448</name></trkpt>
<trkpt lat="53.191583" lon="-2.044574"><ele>226</ele><time>2020-10-07T09:44:59Z</time><name>PT449</name></trkpt>
<trkpt lat="53.191593" lon="-2.044505"><ele>225</ele><time>2020-10-07T09:45:02Z</time><name>PT450</name></trkpt>
<trkpt lat="53.191614" lon="-2.044429"><ele>226</ele><time>2020-10-07T09:45:06Z</time><name>PT451</name></trkpt>
<trkpt lat="53.191625" lon="-2.044372"><ele>225</ele><time>2020-10-07T09:45:09Z</time><name>PT452</name></trkpt>
<trkpt lat="53.191637" lon="-2.044300"><ele>225</ele><time>2020-10-07T09:45:12Z</time><name>PT453</name></trkpt>
<trkpt lat="53.191646" lon="-2.044214"><ele>225</ele><time>2020-10-07T09:45:17Z</time><name>PT454</name></trkpt>
<trkpt lat="53.191647" lon="-2.044149"><ele>224</ele><time>2020-10-07T09:45:20Z</time><name>PT455</name></trkpt>
<trkpt lat="53.191653" lon="-2.044072"><ele>225</ele><time>2020-10-07T09:45:24Z</time><name>PT456</name></trkpt>
<trkpt lat="53.191658" lon="-2.044016"><ele>225</ele><time>2020-10-07T09:45:27Z</time><name>PT457</name></trkpt>
<trkpt lat="53.191666" lon="-2.043928"><ele>225</ele><time>2020-10-07T09:45:30Z</time><name>PT458</name></trkpt>
<trkpt lat="53.191668" lon="-2.043848"><ele>225</ele><time>2020-10-07T09:45:35Z</time><name>PT459</name></trkpt>
<trkpt lat="53.191675" lon="-2.043779"><ele>225</ele><time>2020-10-07T09:45:38Z</time><name>PT460</name></trkpt>
<trkpt lat="53.191679" lon="-2.043684"><ele>225</ele><time>2020-10-07T09:45:42Z</time><name>PT461</name></trkpt>
<trkpt lat="53.191688" lon="-2.043628"><ele>225</ele><time>2020-10-07T09:45:45Z</time><name>PT462</name></trkpt>
<trkpt lat="53.191690" lon="-2.043572"><ele>224</ele><time>2020-10-07T09:45:48Z</time><name>PT463</name></trkpt>
<trkpt lat="53.191700" lon="-2.043512"><ele>225</ele><time>2020-10-07T09:45:51Z</time><name>PT464</name></trkpt>
<trkpt lat="53.191710" lon="-2.043459"><ele>225</ele><time>2020-10-07T09:45:54Z</time><name>PT465</name></trkpt>
<trkpt lat="53.191719" lon="-2.043389"><ele>224</ele><time>2020-10-07T09:45:59Z</time><name>PT466</name></trkpt>
<trkpt lat="53.191727" lon="-2.043328"><ele>224</ele><time>2020-10-07T09:46:02Z</time><name>PT467</name></trkpt>
<trkpt lat="53.191737" lon="-2.043246"><ele>224</ele><time>2020-10-07T09:46:06Z</time><name>PT468</name></trkpt>
<trkpt lat="53.191747" lon="-2.043181"><ele>224</ele><time>2020-10-07T09:46:09Z</time><name>PT469</name></trkpt>
<trkpt lat="53.191755" lon="-2.043093"><ele>223</ele><time>2020-10-07T09:46:12Z</time><name>PT470</name></trkpt>
<trkpt lat="53.191768" lon="-2.043008"><ele>225</ele><time>2020-10-07T09:46:17Z</time><name>PT471</name></trkpt>
<trkpt lat="53.191779" lon="-2.042957"><ele>225</ele><time>2020-10-07T09:46:20Z</time><name>PT472</name></trkpt>
<trkpt lat="53.191778" lon="-2.042872"><ele>226</ele><time>2020-10-07T09:46:24Z</time><name>PT473</name></trkpt>
<trkpt lat="53.191783" lon="-2.042803"><ele>227</ele><time>2020-10-07T09:46:27Z</time><name>PT474</name></trkpt>
<trkpt lat="53.191779" lon="-2.042711"><ele>228</ele><time>2020-10-07T09:46:30Z</time><name>PT475</name></trkpt>
<trkpt lat="53.191766" lon="-2.042644"><ele>227</ele><time>2020-10-07T09:46:35Z</time><name>PT476</name></trkpt>
<trkpt lat="53.191755" lon="-2.042578"><ele>225</ele><time>2020-10-07T09:46:38Z</time><name>PT477</name></trkpt>
<trkpt lat="53.191750" lon="-2.042507"><ele>225</ele><time>2020-10-07T09:46:42Z</time><name>PT478</name></trkpt>
<trkpt lat="53.191750" lon="-2.042460"><ele>224</ele><time>2020-10-07T09:46:45Z</time><name>PT479</name></trkpt>
<trkpt lat="53.191755" lon="-2.042374"><ele>226</ele><time>2020-10-07T09:46:48Z</time><name>PT480</name></trkpt>
<trkpt lat="53.191764" lon="-2.042307"><ele>226</ele><time>2020-10-07T09:46:53Z</time><name>PT481</name></trkpt>
<trkpt lat="53.191763" lon="-2.042263"><ele>226</ele><time>2020-10-07T09:46:56Z</time><name>PT482</name></trkpt>
<trkpt lat="53.191767" lon="-2.042199"><ele>227</ele><time>2020-10-07T09:47:00Z</time><name>PT483</name></trkpt>
<trkpt lat="53.191764" lon="-2.042135"><ele>227</ele><time>2020-10-07T09:47:03Z</time><name>PT484</name></trkpt>
<trkpt lat="53.191758" lon="-2.042075"><ele>227</ele><time>2020-10-07T09:47:06Z</time><name>PT485</name></trkpt>
<trkpt lat="53.191769" lon="-2.042016"><ele>228</ele><time>2020-10-07T09:47:11Z</time><name>PT486</name></trkpt>
<trkpt lat="53.191775" lon="-2.041985"><ele>228</ele><time>2020-10-07T09:47:14Z</time><name>PT487</name></trkpt>
<trkpt lat="53.191777" lon="-2.041922"><ele>229</ele><time>2020-10-07T09:47:18Z</time><name>PT488</name></trkpt>
<trkpt lat="53.191776" lon="-2.041890"><ele>229</ele><time>2020-10-07T09:47:21Z</time><name>PT489</name></trkpt>
<trkpt lat="53.191781" lon="-2.041842"><ele>230</ele><time>2020-10-07T09:47:24Z</time><name>PT490</name></trkpt>
<trkpt lat="53.191790" lon="-2.041793"><ele>230</ele><time>2020-10-07T09:47:29Z</time><name>PT491</name></trkpt>
<trkpt lat="53.191797" lon="-2.041746"><ele>232</ele><time>2020-10-07T09:47:32Z</time><name>PT492</name></trkpt>
<trkpt lat="53.191810" lon="-2.041689"><ele>233</ele><time>2020-10-07T09:47:36Z</time><name>PT493</name></trkpt>
<trkpt lat="53.191815" lon="-2.041646"><ele>232</ele><time>2020-10-07T09:47:39Z</time><name>PT494</name></trkpt>
<trkpt lat="53.191814" lon="-2.041610"><ele>233</ele><time>2020-10-07T09:47:42Z</time><name>PT495</name></trkpt>
<trkpt lat="53.191812" lon="-2.041558"><ele>234</ele><time>2020-10-07T09:47:47Z</time><name>PT496</name></trkpt>
<trkpt lat="53.191816" lon="-2.041504"><ele>235</ele><time>2020-10-07T09:47:50Z</time><name>PT497</name></trkpt>
<trkpt lat="53.191828" lon="-2.041455"><ele>235</ele><time>2020-10-07T09:47:53Z</time><name>PT498</name></trkpt>
<trkpt lat="53.191837" lon="-2.041398"><ele>236</ele><time>2020-10-07T09:47:56Z</time><name>PT499</name></trkpt>
<trkpt lat="53.191837" lon="-2.041324"><ele>235</ele><time>2020-10-07T09:48:00Z</time><name>PT500</name></trkpt>
<trkpt lat="53.191839" lon="-2.041260"><ele>235</ele><time>2020-10-07T09:48:03Z</time><name>PT501</name></trkpt>
<trkpt lat="53.191833" lon="-2.041175"><ele>235</ele><time>2020-10-07T09:48:06Z</time><name>PT502</name></trkpt>
<trkpt lat="53.191838" lon="-2.041073"><ele>234</ele><time>2020-10-07T09:48:11Z</time><name>PT503</name></trkpt>
<trkpt lat="53.191847" lon="-2.040996"><ele>234</ele><time>2020-10-07T09:48:14Z</time><name>PT504</name></trkpt>
<trkpt lat="53.191859" lon="-2.040918"><ele>234</ele><time>2020-10-07T09:48:18Z</time><name>PT505</name></trkpt>
<trkpt lat="53.191864" lon="-2.040860"><ele>234</ele><time>2020-10-07T09:48:21Z</time><name>PT506</name></trkpt>
<trkpt lat="53.191864" lon="-2.040808"><ele>234</ele><time>2020-10-07T09:48:24Z</time><name>PT507</name></trkpt>
<trkpt lat="53.191867" lon="-2.040749"><ele>235</ele><time>2020-10-07T09:48:27Z</time><name>PT508</name></trkpt>
<trkpt lat="53.191865" lon="-2.040666"><ele>234</ele><time>2020-10-07T09:48:32Z</time><name>PT509</name></trkpt>
<trkpt lat="53.191870" lon="-2.040619"><ele>235</ele><time>2020-10-07T09:48:35Z</time><name>PT510</name></trkpt>
<trkpt lat="53.191872" lon="-2.040614"><ele>235</ele><time>2020-10-07T09:48:38Z</time><name>PT511</name></trkpt>
<trkpt lat="53.191873" lon="-2.040607"><ele>235</ele><time>2020-10-07T09:48:42Z</time><name>PT512</name></trkpt>
<trkpt lat="53.191874" lon="-2.040599"><ele>235</ele><time>2020-10-07T09:49:14Z</time><name>PT513</name></trkpt>
<trkpt lat="53.191874" lon="-2.040589"><ele>234</ele><time>2020-10-07T09:49:18Z</time><name>PT514</name></trkpt>
<trkpt lat="53.191871" lon="-2.040569"><ele>235</ele><time>2020-10-07T09:49:42Z</time><name>PT515</name></trkpt>
<trkpt lat="53.191879" lon="-2.040506"><ele>235</ele><time>2020-10-07T09:49:47Z</time><name>PT516</name></trkpt>
<trkpt lat="53.191891" lon="-2.040435"><ele>235</ele><time>2020-10-07T09:49:51Z</time><name>PT517</name></trkpt>
<trkpt lat="53.191893" lon="-2.040385"><ele>235</ele><time>2020-10-07T09:49:54Z</time><name>PT518</name></trkpt>
<trkpt lat="53.191901" lon="-2.040305"><ele>235</ele><time>2020-10-07T09:49:57Z</time><name>PT519</name></trkpt>
<trkpt lat="53.191907" lon="-2.040248"><ele>235</ele><time>2020-10-07T09:50:00Z</time><name>PT520</name></trkpt>
<trkpt lat="53.191921" lon="-2.040195"><ele>236</ele><time>2020-10-07T09:50:03Z</time><name>PT521</name></trkpt>
<trkpt lat="53.191925" lon="-2.040140"><ele>236</ele><time>2020-10-07T09:50:06Z</time><name>PT522</name></trkpt>
<trkpt lat="53.191922" lon="-2.040065"><ele>236</ele><time>2020-10-07T09:50:11Z</time><name>PT523</name></trkpt>
<trkpt lat="53.191920" lon="-2.040029"><ele>237</ele><time>2020-10-07T09:50:12Z</time><name>PT524</name></trkpt>
<trkpt lat="53.191920" lon="-2.040016"><ele>237</ele><time>2020-10-07T09:50:14Z</time><name>PT525</name></trkpt>
<trkpt lat="53.191919" lon="-2.040001"><ele>237</ele><time>2020-10-07T09:50:15Z</time><name>PT526</name></trkpt>
<trkpt lat="53.191918" lon="-2.039983"><ele>237</ele><time>2020-10-07T09:50:15Z</time><name>PT527</name></trkpt>
<trkpt lat="53.191915" lon="-2.039969"><ele>237</ele><time>2020-10-07T09:50:17Z</time><name>PT528</name></trkpt>
<trkpt lat="53.191912" lon="-2.039952"><ele>237</ele><time>2020-10-07T09:50:18Z</time><name>PT529</name></trkpt>
<trkpt lat="53.191910" lon="-2.039932"><ele>237</ele><time>2020-10-07T09:50:18Z</time><name>PT530</name></trkpt>
<trkpt lat="53.191908" lon="-2.039911"><ele>237</ele><time>2020-10-07T09:50:20Z</time><name>PT531</name></trkpt>
<trkpt lat="53.191905" lon="-2.039893"><ele>237</ele><time>2020-10-07T09:50:21Z</time><name>PT532</name></trkpt>
<trkpt lat="53.191902" lon="-2.039877"><ele>236</ele><time>2020-10-07T09:50:21Z</time><name>PT533</name></trkpt>
<trkpt lat="53.191901" lon="-2.039856"><ele>235</ele><time>2020-10-07T09:50:23Z</time><name>PT534</name></trkpt>
<trkpt lat="53.191898" lon="-2.039844"><ele>235</ele><time>2020-10-07T09:50:24Z</time><name>PT535</name></trkpt>
<trkpt lat="53.191896" lon="-2.039829"><ele>235</ele><time>2020-10-07T09:50:24Z</time><name>PT536</name></trkpt>
<trkpt lat="53.191893" lon="-2.039813"><ele>235</ele><time>2020-10-07T09:50:26Z</time><name>PT537</name></trkpt>
<trkpt lat="53.191892" lon="-2.039797"><ele>234</ele><time>2020-10-07T09:50:27Z</time><name>PT538</name></trkpt>
<trkpt lat="53.191890" lon="-2.039783"><ele>234</ele><time>2020-10-07T09:50:27Z</time><name>PT539</name></trkpt>
<trkpt lat="53.191887" lon="-2.039766"><ele>233</ele><time>2020-10-07T09:50:29Z</time><name>PT540</name></trkpt>
<trkpt lat="53.191884" lon="-2.039745"><ele>233</ele><time>2020-10-07T09:50:30Z</time><name>PT541</name></trkpt>
<trkpt lat="53.191882" lon="-2.039724"><ele>233</ele><time>2020-10-07T09:50:30Z</time><name>PT542</name></trkpt>
<trkpt lat="53.191880" lon="-2.039699"><ele>233</ele><time>2020-10-07T09:50:32Z</time><name>PT543</name></trkpt>
<trkpt lat="53.191881" lon="-2.039676"><ele>233</ele><time>2020-10-07T09:50:33Z</time><name>PT544</name></trkpt>
<trkpt lat="53.191882" lon="-2.039656"><ele>232</ele><time>2020-10-07T09:50:33Z</time><name>PT545</name></trkpt>
<trkpt lat="53.191881" lon="-2.039634"><ele>233</ele><time>2020-10-07T09:50:35Z</time><name>PT546</name></trkpt>
<trkpt lat="53.191880" lon="-2.039613"><ele>234</ele><time>2020-10-07T09:50:36Z</time><name>PT547</name></trkpt>
<trkpt lat="53.191881" lon="-2.039591"><ele>234</ele><time>2020-10-07T09:50:36Z</time><name>PT548</name></trkpt>
<trkpt lat="53.191879" lon="-2.039569"><ele>234</ele><time>2020-10-07T09:50:38Z</time><name>PT549</name></trkpt>
<trkpt lat="53.191879" lon="-2.039544"><ele>234</ele><time>2020-10-07T09:50:39Z</time><name>PT550</name></trkpt>
<trkpt lat="53.191878" lon="-2.039521"><ele>234</ele><time>2020-10-07T09:50:39Z</time><name>PT551</name></trkpt>
<trkpt lat="53.191878" lon="-2.039498"><ele>234</ele><time>2020-10-07T09:50:41Z</time><name>PT552</name></trkpt>
<trkpt lat="53.191878" lon="-2.039474"><ele>234</ele><time>2020-10-07T09:50:42Z</time><name>PT553</name></trkpt>
<trkpt lat="53.191876" lon="-2.039454"><ele>234</ele><time>2020-10-07T09:50:42Z</time><name>PT554</name></trkpt>
<trkpt lat="53.191875" lon="-2.039435"><ele>234</ele><time>2020-10-07T09:50:44Z</time><name>PT555</name></trkpt>
<trkpt lat="53.191875" lon="-2.039413"><ele>234</ele><time>2020-10-07T09:50:45Z</time><name>PT556</name></trkpt>
<trkpt lat="53.191875" lon="-2.039389"><ele>234</ele><time>2020-10-07T09:50:46Z</time><name>PT557</name></trkpt>
<trkpt lat="53.191876" lon="-2.039368"><ele>234</ele><time>2020-10-07T09:50:47Z</time><name>PT558</name></trkpt>
<trkpt lat="53.191877" lon="-2.039349"><ele>234</ele><time>2020-10-07T09:50:48Z</time><name>PT559</name></trkpt>
<trkpt lat="53.191880" lon="-2.039328"><ele>234</ele><time>2020-10-07T09:50:48Z</time><name>PT560</name></trkpt>
<trkpt lat="53.191883" lon="-2.039308"><ele>234</ele><time>2020-10-07T09:50:50Z</time><name>PT561</name></trkpt>
<trkpt lat="53.191885" lon="-2.039288"><ele>234</ele><time>2020-10-07T09:50:51Z</time><name>PT562</name></trkpt>
<trkpt lat="53.191889" lon="-2.039271"><ele>234</ele><time>2020-10-07T09:50:51Z</time><name>PT563</name></trkpt>
<trkpt lat="53.191893" lon="-2.039256"><ele>234</ele><time>2020-10-07T09:50:53Z</time><name>PT564</name></trkpt>
<trkpt lat="53.191896" lon="-2.039245"><ele>234</ele><time>2020-10-07T09:50:54Z</time><name>PT565</name></trkpt>
<trkpt lat="53.191896" lon="-2.039231"><ele>234</ele><time>2020-10-07T09:50:54Z</time><name>PT566</name></trkpt>
<trkpt lat="53.191894" lon="-2.039213"><ele>235</ele><time>2020-10-07T09:50:56Z</time><name>PT567</name></trkpt>
<trkpt lat="53.191895" lon="-2.039202"><ele>235</ele><time>2020-10-07T09:50:57Z</time><name>PT568</name></trkpt>
<trkpt lat="53.191898" lon="-2.039187"><ele>234</ele><time>2020-10-07T09:50:57Z</time><name>PT569</name></trkpt>
<trkpt lat="53.191901" lon="-2.039174"><ele>234</ele><time>2020-10-07T09:50:59Z</time><name>PT570</name></trkpt>
<trkpt lat="53.191901" lon="-2.039161"><ele>233</ele><time>2020-10-07T09:51:00Z</time><name>PT571</name></trkpt>
<trkpt lat="53.191906" lon="-2.039153"><ele>233</ele><time>2020-10-07T09:51:00Z</time><name>PT572</name></trkpt>
<trkpt lat="53.191908" lon="-2.039142"><ele>233</ele><time>2020-10-07T09:51:02Z</time><name>PT573</name></trkpt>
<trkpt lat="53.191912" lon="-2.039125"><ele>232</ele><time>2020-10-07T09:51:03Z</time><name>PT574</name></trkpt>
<trkpt lat="53.191915" lon="-2.039106"><ele>232</ele><time>2020-10-07T09:51:03Z</time><name>PT575</name></trkpt>
<trkpt lat="53.191915" lon="-2.039088"><ele>232</ele><time>2020-10-07T09:51:05Z</time><name>PT576</name></trkpt>
<trkpt lat="53.191917" lon="-2.039070"><ele>232</ele><time>2020-10-07T09:51:06Z</time><name>PT577</name></trkpt>
<trkpt lat="53.191918" lon="-2.039051"><ele>232</ele><time>2020-10-07T09:51:06Z</time><name>PT578</name></trkpt>
<trkpt lat="53.191919" lon="-2.039036"><ele>232</ele><time>2020-10-07T09:51:08Z</time><name>PT579</name></trkpt>
<trkpt lat="53.191923" lon="-2.039016"><ele>232</ele><time>2020-10-07T09:51:09Z</time><name>PT580</name></trkpt>
<trkpt lat="53.191928" lon="-2.038997"><ele>232</ele><time>2020-10-07T09:51:09Z</time><name>PT581</name></trkpt>
<trkpt lat="53.191932" lon="-2.038980"><ele>232</ele><time>2020-10-07T09:51:11Z</time><name>PT582</name></trkpt>
<trkpt lat="53.191939" lon="-2.038961"><ele>232</ele><time>2020-10-07T09:51:12Z</time><name>PT583</name></trkpt>
<trkpt lat="53.191946" lon="-2.038942"><ele>232</ele><time>2020-10-07T09:51:12Z</time><name>PT584</name></trkpt>
<trkpt lat="53.191953" lon="-2.038928"><ele>231</ele><time>2020-10-07T09:51:14Z</time><name>PT585</name></trkpt>
<trkpt lat="53.191960" lon="-2.038909"><ele>231</ele><time>2020-10-07T09:51:15Z</time><name>PT586</name></trkpt>
<trkpt lat="53.191966" lon="-2.038885"><ele>231</ele><time>2020-10-07T09:51:15Z</time><name>PT587</name></trkpt>
<trkpt lat="53.191971" lon="-2.038865"><ele>231</ele><time>2020-10-07T09:51:17Z</time><name>PT588</name></trkpt>
<trkpt lat="53.191976" lon="-2.038846"><ele>231</ele><time>2020-10-07T09:51:18Z</time><name>PT589</name></trkpt>
<trkpt lat="53.191980" lon="-2.038825"><ele>231</ele><time>2020-10-07T09:51:18Z</time><name>PT590</name></trkpt>
<trkpt lat="53.191986" lon="-2.038807"><ele>230</ele><time>2020-10-07T09:51:20Z</time><name>PT591</name></trkpt>
<trkpt lat="53.191992" lon="-2.038790"><ele>230</ele><time>2020-10-07T09:51:21Z</time><name>PT592</name></trkpt>
<trkpt lat="53.191997" lon="-2.038770"><ele>231</ele><time>2020-10-07T09:51:21Z</time><name>PT593</name></trkpt>
<trkpt lat="53.192002" lon="-2.038748"><ele>231</ele><time>2020-10-07T09:51:23Z</time><name>PT594</name></trkpt>
<trkpt lat="53.192007" lon="-2.038726"><ele>231</ele><time>2020-10-07T09:51:24Z</time><name>PT595</name></trkpt>
<trkpt lat="53.192010" lon="-2.038707"><ele>230</ele><time>2020-10-07T09:51:24Z</time><name>PT596</name></trkpt>
<trkpt lat="53.192015" lon="-2.038688"><ele>230</ele><time>2020-10-07T09:51:26Z</time><name>PT597</name></trkpt>
<trkpt lat="53.192020" lon="-2.038668"><ele>230</ele><time>2020-10-07T09:51:27Z</time><name>PT598</name></trkpt>
<trkpt lat="53.192022" lon="-2.038645"><ele>231</ele><time>2020-10-07T09:51:28Z</time><name>PT599</name></trkpt>
<trkpt lat="53.192023" lon="-2.038625"><ele>231</ele><time>2020-10-07T09:51:29Z</time><name>PT600</name></trkpt>
<trkpt lat="53.192026" lon="-2.038604"><ele>232</ele><time>2020-10-07T09:51:30Z</time><name>PT601</name></trkpt>
<trkpt lat="53.192029" lon="-2.038585"><ele>232</ele><time>2020-10-07T09:51:31Z</time><name>PT602</name></trkpt>
<trkpt lat="53.192031" lon="-2.038565"><ele>232</ele><time>2020-10-07T09:51:32Z</time><name>PT603</name></trkpt>
<trkpt lat="53.192033" lon="-2.038547"><ele>232</ele><time>2020-10-07T09:51:33Z</time><name>PT604</name></trkpt>
<trkpt lat="53.192037" lon="-2.038528"><ele>233</ele><time>2020-10-07T09:51:33Z</time><name>PT605</name></trkpt>
<trkpt lat="53.192038" lon="-2.038507"><ele>233</ele><time>2020-10-07T09:51:35Z</time><name>PT606</name></trkpt>
<trkpt lat="53.192039" lon="-2.038486"><ele>233</ele><time>2020-10-07T09:51:36Z</time><name>PT607</name></trkpt>
<trkpt lat="53.192040" lon="-2.038464"><ele>234</ele><time>2020-10-07T09:51:37Z</time><name>PT608</name></trkpt>
<trkpt lat="53.192040" lon="-2.038446"><ele>234</ele><time>2020-10-07T09:51:38Z</time><name>PT609</name></trkpt>
<trkpt lat="53.192040" lon="-2.038426"><ele>234</ele><time>2020-10-07T09:51:39Z</time><name>PT610</name></trkpt>
<trkpt lat="53.192050" lon="-2.038419"><ele>235</ele><time>2020-10-07T09:51:40Z</time><name>PT611</name></trkpt>
<trkpt lat="53.192049" lon="-2.038403"><ele>235</ele><time>2020-10-07T09:51:41Z</time><name>PT612</name></trkpt>
<trkpt lat="53.192046" lon="-2.038385"><ele>236</ele><time>2020-10-07T09:51:42Z</time><name>PT613</name></trkpt>
<trkpt lat="53.192044" lon="-2.038370"><ele>236</ele><time>2020-10-07T09:51:43Z</time><name>PT614</name></trkpt>
<trkpt lat="53.192042" lon="-2.038353"><ele>237</ele><time>2020-10-07T09:51:44Z</time><name>PT615</name></trkpt>
<trkpt lat="53.192041" lon="-2.038333"><ele>238</ele><time>2020-10-07T09:51:45Z</time><name>PT616</name></trkpt>
<trkpt lat="53.192039" lon="-2.038318"><ele>239</ele><time>2020-10-07T09:51:46Z</time><name>PT617</name></trkpt>
<trkpt lat="53.192037" lon="-2.038304"><ele>238</ele><time>2020-10-07T09:51:47Z</time><name>PT618</name></trkpt>
<trkpt lat="53.192033" lon="-2.038282"><ele>238</ele><time>2020-10-07T09:51:48Z</time><name>PT619</name></trkpt>
<trkpt lat="53.192030" lon="-2.038263"><ele>239</ele><time>2020-10-07T09:51:48Z</time><name>PT620</name></trkpt>
<trkpt lat="53.192028" lon="-2.038242"><ele>239</ele><time>2020-10-07T09:51:50Z</time><name>PT621</name></trkpt>
<trkpt lat="53.192025" lon="-2.038228"><ele>239</ele><time>2020-10-07T09:51:51Z</time><name>PT622</name></trkpt>
<trkpt lat="53.192020" lon="-2.038212"><ele>238</ele><time>2020-10-07T09:51:51Z</time><name>PT623</name></trkpt>
<trkpt lat="53.192013" lon="-2.038194"><ele>238</ele><time>2020-10-07T09:51:53Z</time><name>PT624</name></trkpt>
<trkpt lat="53.192009" lon="-2.038178"><ele>239</ele><time>2020-10-07T09:51:54Z</time><name>PT625</name></trkpt>
<trkpt lat="53.192004" lon="-2.038161"><ele>238</ele><time>2020-10-07T09:51:54Z</time><name>PT626</name></trkpt>
<trkpt lat="53.192000" lon="-2.038150"><ele>238</ele><time>2020-10-07T09:51:56Z</time><name>PT627</name></trkpt>
<trkpt lat="53.191994" lon="-2.038138"><ele>239</ele><time>2020-10-07T09:51:57Z</time><name>PT628</name></trkpt>
<trkpt lat="53.191990" lon="-2.038128"><ele>239</ele><time>2020-10-07T09:51:57Z</time><name>PT629</name></trkpt>
<trkpt lat="53.191985" lon="-2.038116"><ele>239</ele><time>2020-10-07T09:51:59Z</time><name>PT630</name></trkpt>
<trkpt lat="53.191983" lon="-2.038099"><ele>240</ele><time>2020-10-07T09:52:00Z</time><name>PT631</name></trkpt>
<trkpt lat="53.191986" lon="-2.038087"><ele>240</ele><time>2020-10-07T09:52:00Z</time><name>PT632</name></trkpt>
<trkpt lat="53.191984" lon="-2.038074"><ele>241</ele><time>2020-10-07T09:52:02Z</time><name>PT633</name></trkpt>
<trkpt lat="53.191988" lon="-2.038060"><ele>241</ele><time>2020-10-07T09:52:03Z</time><name>PT634</name></trkpt>
<trkpt lat="53.191993" lon="-2.038040"><ele>240</ele><time>2020-10-07T09:52:03Z</time><name>PT635</name></trkpt>
<trkpt lat="53.191998" lon="-2.038032"><ele>239</ele><time>2020-10-07T09:52:05Z</time><name>PT636</name></trkpt>
<trkpt lat="53.192005" lon="-2.038033"><ele>239</ele><time>2020-10-07T09:52:06Z</time><name>PT637</name></trkpt>
<trkpt lat="53.192012" lon="-2.038030"><ele>239</ele><time>2020-10-07T09:52:06Z</time><name>PT638</name></trkpt>
<trkpt lat="53.192013" lon="-2.038025"><ele>238</ele><time>2020-10-07T09:52:08Z</time><name>PT639</name></trkpt>
<trkpt lat="53.192020" lon="-2.038020"><ele>238</ele><time>2020-10-07T09:52:09Z</time><name>PT640</name></trkpt>
<trkpt lat="53.192026" lon="-2.038011"><ele>237</ele><time>2020-10-07T09:52:09Z</time><name>PT641</name></trkpt>
<trkpt lat="53.192029" lon="-2.038009"><ele>236</ele><time>2020-10-07T09:52:11Z</time><name>PT642</name></trkpt>
<trkpt lat="53.192031" lon="-2.037999"><ele>236</ele><time>2020-10-07T09:52:12Z</time><name>PT643</name></trkpt>
<trkpt lat="53.192033" lon="-2.037991"><ele>236</ele><time>2020-10-07T09:52:12Z</time><name>PT644</name></trkpt>
<trkpt lat="53.192040" lon="-2.037980"><ele>236</ele><time>2020-10-07T09:52:14Z</time><name>PT645</name></trkpt>
<trkpt lat="53.192050" lon="-2.037969"><ele>236</ele><time>2020-10-07T09:52:15Z</time><name>PT646</name></trkpt>
<trkpt lat="53.192055" lon="-2.037958"><ele>235</ele><time>2020-10-07T09:52:15Z</time><name>PT647</name></trkpt>
<trkpt lat="53.192058" lon="-2.037941"><ele>235</ele><time>2020-10-07T09:52:17Z</time><name>PT648</name></trkpt>
<trkpt lat="53.192065" lon="-2.037920"><ele>234</ele><time>2020-10-07T09:52:18Z</time><name>PT649</name></trkpt>
<trkpt lat="53.192074" lon="-2.037917"><ele>233</ele><time>2020-10-07T09:52:18Z</time><name>PT650</name></trkpt>
<trkpt lat="53.192078" lon="-2.037897"><ele>233</ele><time>2020-10-07T09:52:20Z</time><name>PT651</name></trkpt>
<trkpt lat="53.192084" lon="-2.037874"><ele>233</ele><time>2020-10-07T09:52:21Z</time><name>PT652</name></trkpt>
<trkpt lat="53.192093" lon="-2.037858"><ele>233</ele><time>2020-10-07T09:52:21Z</time><name>PT653</name></trkpt>
<trkpt lat="53.192098" lon="-2.037834"><ele>232</ele><time>2020-10-07T09:52:23Z</time><name>PT654</name></trkpt>
<trkpt lat="53.192101" lon="-2.037813"><ele>232</ele><time>2020-10-07T09:52:24Z</time><name>PT655</name></trkpt>
<trkpt lat="53.192103" lon="-2.037800"><ele>231</ele><time>2020-10-07T09:52:25Z</time><name>PT656</name></trkpt>
<trkpt lat="53.192104" lon="-2.037782"><ele>231</ele><time>2020-10-07T09:52:26Z</time><name>PT657</name></trkpt>
<trkpt lat="53.192103" lon="-2.037763"><ele>230</ele><time>2020-10-07T09:52:27Z</time><name>PT658</name></trkpt>
<trkpt lat="53.192099" lon="-2.037739"><ele>231</ele><time>2020-10-07T09:52:28Z</time><name>PT659</name></trkpt>
<trkpt lat="53.192098" lon="-2.037713"><ele>231</ele><time>2020-10-07T09:52:29Z</time><name>PT660</name></trkpt>
<trkpt lat="53.192094" lon="-2.037689"><ele>231</ele><time>2020-10-07T09:52:30Z</time><name>PT661</name></trkpt>
<trkpt lat="53.192092" lon="-2.037671"><ele>231</ele><time>2020-10-07T09:52:31Z</time><name>PT662</name></trkpt>
<trkpt lat="53.192086" lon="-2.037653"><ele>231</ele><time>2020-10-07T09:52:32Z</time><name>PT663</name></trkpt>
<trkpt lat="53.192078" lon="-2.037632"><ele>232</ele><time>2020-10-07T09:52:33Z</time><name>PT664</name></trkpt>
<trkpt lat="53.192070" lon="-2.037614"><ele>232</ele><time>2020-10-07T09:52:34Z</time><name>PT665</name></trkpt>
<trkpt lat="53.192065" lon="-2.037600"><ele>232</ele><time>2020-10-07T09:52:35Z</time><name>PT666</name></trkpt>
<trkpt lat="53.192060" lon="-2.037584"><ele>233</ele><time>2020-10-07T09:52:36Z</time><name>PT667</name></trkpt>
<trkpt lat="53.192056" lon="-2.037572"><ele>232</ele><time>2020-10-07T09:52:36Z</time><name>PT668</name></trkpt>
<trkpt lat="53.192049" lon="-2.037556"><ele>233</ele><time>2020-10-07T09:52:38Z</time><name>PT669</name></trkpt>
<trkpt lat="53.192043" lon="-2.037542"><ele>232</ele><time>2020-10-07T09:52:39Z</time><name>PT670</name></trkpt>
<trkpt lat="53.192038" lon="-2.037533"><ele>232</ele><time>2020-10-07T09:52:39Z</time><name>PT671</name></trkpt>
<trkpt lat="53.192034" lon="-2.037527"><ele>231</ele><time>2020-10-07T09:52:41Z</time><name>PT672</name></trkpt>
<trkpt lat="53.192032" lon="-2.037518"><ele>232</ele><time>2020-10-07T09:52:42Z</time><name>PT673</name></trkpt>
<trkpt lat="53.192024" lon="-2.037506"><ele>231</ele><time>2020-10-07T09:52:42Z</time><name>PT674</name></trkpt>
<trkpt lat="53.192019" lon="-2.037494"><ele>232</ele><time>2020-10-07T09:52:44Z</time><name>PT675</name></trkpt>
<trkpt lat="53.192014" lon="-2.037480"><ele>233</ele><time>2020-10-07T09:52:45Z</time><name>PT676</name></trkpt>
<trkpt lat="53.192012" lon="-2.037467"><ele>234</ele><time>2020-10-07T09:52:45Z</time><name>PT677</name></trkpt>
<trkpt lat="53.192010" lon="-2.037456"><ele>234</ele><time>2020-10-07T09:52:47Z</time><name>PT678</name></trkpt>
<trkpt lat="53.192007" lon="-2.037441"><ele>235</ele><time>2020-10-07T09:52:48Z</time><name>PT679</name></trkpt>
<trkpt lat="53.192002" lon="-2.037426"><ele>235</ele><time>2020-10-07T09:52:48Z</time><name>PT680</name></trkpt>
<trkpt lat="53.192002" lon="-2.037416"><ele>235</ele><time>2020-10-07T09:52:50Z</time><name>PT681</name></trkpt>
<trkpt lat="53.191999" lon="-2.037406"><ele>236</ele><time>2020-10-07T09:52:51Z</time><name>PT682</name></trkpt>
<trkpt lat="53.191998" lon="-2.037402"><ele>235</ele><time>2020-10-07T09:52:51Z</time><name>PT683</name></trkpt>
<trkpt lat="53.191998" lon="-2.037395"><ele>236</ele><time>2020-10-07T09:52:53Z</time><name>PT684</name></trkpt>
<trkpt lat="53.191997" lon="-2.037387"><ele>236</ele><time>2020-10-07T09:52:54Z</time><name>PT685</name></trkpt>
<trkpt lat="53.191998" lon="-2.037390"><ele>236</ele><time>2020-10-07T09:52:54Z</time><name>PT686</name></trkpt>
<trkpt lat="53.192001" lon="-2.037390"><ele>236</ele><time>2020-10-07T09:52:56Z</time><name>PT687</name></trkpt>
<trkpt lat="53.192004" lon="-2.037384"><ele>236</ele><time>2020-10-07T09:52:57Z</time><name>PT688</name></trkpt>
<trkpt lat="53.192005" lon="-2.037380"><ele>237</ele><time>2020-10-07T09:52:57Z</time><name>PT689</name></trkpt>
<trkpt lat="53.192000" lon="-2.037378"><ele>235</ele><time>2020-10-07T09:52:59Z</time><name>PT690</name></trkpt>
<trkpt lat="53.192003" lon="-2.037375"><ele>235</ele><time>2020-10-07T09:53:00Z</time><name>PT691</name></trkpt>
<trkpt lat="53.192000" lon="-2.037366"><ele>234</ele><time>2020-10-07T09:53:00Z</time><name>PT692</name></trkpt>
<trkpt lat="53.192005" lon="-2.037342"><ele>234</ele><time>2020-10-07T09:53:02Z</time><name>PT693</name></trkpt>
<trkpt lat="53.192007" lon="-2.037331"><ele>233</ele><time>2020-10-07T09:53:03Z</time><name>PT694</name></trkpt>
<trkpt lat="53.192015" lon="-2.037310"><ele>233</ele><time>2020-10-07T09:53:03Z</time><name>PT695</name></trkpt>
<trkpt lat="53.192019" lon="-2.037282"><ele>233</ele><time>2020-10-07T09:53:05Z</time><name>PT696</name></trkpt>
<trkpt lat="53.192027" lon="-2.037264"><ele>233</ele><time>2020-10-07T09:53:06Z</time><name>PT697</name></trkpt>
<trkpt lat="53.192034" lon="-2.037242"><ele>233</ele><time>2020-10-07T09:53:06Z</time><name>PT698</name></trkpt>
<trkpt lat="53.192040" lon="-2.037222"><ele>233</ele><time>2020-10-07T09:53:08Z</time><name>PT699</name></trkpt>
<trkpt lat="53.192049" lon="-2.037201"><ele>234</ele><time>2020-10-07T09:53:09Z</time><name>PT700</name></trkpt>
<trkpt lat="53.192054" lon="-2.037178"><ele>234</ele><time>2020-10-07T09:53:09Z</time><name>PT701</name></trkpt>
<trkpt lat="53.192057" lon="-2.037153"><ele>234</ele><time>2020-10-07T09:53:11Z</time><name>PT702</name></trkpt>
<trkpt lat="53.192058" lon="-2.037132"><ele>234</ele><time>2020-10-07T09:53:12Z</time><name>PT703</name></trkpt>
<trkpt lat="53.192058" lon="-2.037108"><ele>235</ele><time>2020-10-07T09:53:12Z</time><name>PT704</name></trkpt>
<trkpt lat="53.192060" lon="-2.037086"><ele>235</ele><time>2020-10-07T09:53:14Z</time><name>PT705</name></trkpt>
<trkpt lat="53.192078" lon="-2.037010"><ele>234</ele><time>2020-10-07T09:53:18Z</time><name>PT706</name></trkpt>
<trkpt lat="53.192092" lon="-2.036955"><ele>234</ele><time>2020-10-07T09:53:21Z</time><name>PT707</name></trkpt>
<trkpt lat="53.192111" lon="-2.036877"><ele>234</ele><time>2020-10-07T09:53:24Z</time><name>PT708</name></trkpt>
<trkpt lat="53.192120" lon="-2.036821"><ele>235</ele><time>2020-10-07T09:53:27Z</time><name>PT709</name></trkpt>
<trkpt lat="53.192130" lon="-2.036762"><ele>236</ele><time>2020-10-07T09:53:31Z</time><name>PT710</name></trkpt>
<trkpt lat="53.192140" lon="-2.036709"><ele>236</ele><time>2020-10-07T09:53:34Z</time><name>PT711</name></trkpt>
<trkpt lat="53.192153" lon="-2.036643"><ele>236</ele><time>2020-10-07T09:53:38Z</time><name>PT712</name></trkpt>
<trkpt lat="53.192172" lon="-2.036575"><ele>236</ele><time>2020-10-07T09:53:42Z</time><name>PT713</name></trkpt>
<trkpt lat="53.192187" lon="-2.036504"><ele>235</ele><time>2020-10-07T09:53:45Z</time><name>PT714</name></trkpt>
<trkpt lat="53.192197" lon="-2.036431"><ele>235</ele><time>2020-10-07T09:53:50Z</time><name>PT715</name></trkpt>
<trkpt lat="53.192207" lon="-2.036374"><ele>235</ele><time>2020-10-07T09:53:53Z</time><name>PT716</name></trkpt>
<trkpt lat="53.192213" lon="-2.036302"><ele>235</ele><time>2020-10-07T09:53:57Z</time><name>PT717</name></trkpt>
<trkpt lat="53.192215" lon="-2.036247"><ele>235</ele><time>2020-10-07T09:54:00Z</time><name>PT718</name></trkpt>
<trkpt lat="53.192221" lon="-2.036168"><ele>236</ele><time>2020-10-07T09:54:03Z</time><name>PT719</name></trkpt>
<trkpt lat="53.192223" lon="-2.036094"><ele>236</ele><time>2020-10-07T09:54:08Z</time><name>PT720</name></trkpt>
<trkpt lat="53.192222" lon="-2.036032"><ele>236</ele><time>2020-10-07T09:54:11Z</time><name>PT721</name></trkpt>
<trkpt lat="53.192220" lon="-2.035960"><ele>235</ele><time>2020-10-07T09:54:15Z</time><name>PT722</name></trkpt>
<trkpt lat="53.192219" lon="-2.035914"><ele>235</ele><time>2020-10-07T09:54:18Z</time><name>PT723</name></trkpt>
<trkpt lat="53.192220" lon="-2.035848"><ele>235</ele><time>2020-10-07T09:54:21Z</time><name>PT724</name></trkpt>
<trkpt lat="53.192222" lon="-2.035803"><ele>235</ele><time>2020-10-07T09:54:24Z</time><name>PT725</name></trkpt>
<trkpt lat="53.192225" lon="-2.035743"><ele>235</ele><time>2020-10-07T09:54:29Z</time><name>PT726</name></trkpt>
<trkpt lat="53.192229" lon="-2.035682"><ele>236</ele><time>2020-10-07T09:54:32Z</time><name>PT727</name></trkpt>
<trkpt lat="53.192231" lon="-2.035630"><ele>237</ele><time>2020-10-07T09:54:35Z</time><name>PT728</name></trkpt>
<trkpt lat="53.192234" lon="-2.035571"><ele>238</ele><time>2020-10-07T09:54:38Z</time><name>PT729</name></trkpt>
<trkpt lat="53.192235" lon="-2.035498"><ele>238</ele><time>2020-10-07T09:54:42Z</time><name>PT730</name></trkpt>
<trkpt lat="53.192239" lon="-2.035447"><ele>238</ele><time>2020-10-07T09:54:45Z</time><name>PT731</name></trkpt>
<trkpt lat="53.192244" lon="-2.035381"><ele>238</ele><time>2020-10-07T09:54:49Z</time><name>PT732</name></trkpt>
<trkpt lat="53.192247" lon="-2.035344"><ele>238</ele><time>2020-10-07T09:54:53Z</time><name>PT733</name></trkpt>
<trkpt lat="53.192253" lon="-2.035321"><ele>239</ele><time>2020-10-07T09:54:56Z</time><name>PT734</name></trkpt>
<trkpt lat="53.192258" lon="-2.035255"><ele>239</ele><time>2020-10-07T09:55:00Z</time><name>PT735</name></trkpt>
<trkpt lat="53.192264" lon="-2.035190"><ele>240</ele><time>2020-10-07T09:55:03Z</time><name>PT736</name></trkpt>
<trkpt lat="53.192277" lon="-2.035112"><ele>242</ele><time>2020-10-07T09:55:06Z</time><name>PT737</name></trkpt>
<trkpt lat="53.192289" lon="-2.035064"><ele>242</ele><time>2020-10-07T09:55:09Z</time><name>PT738</name></trkpt>
<trkpt lat="53.192298" lon="-2.035011"><ele>244</ele><time>2020-10-07T09:55:14Z</time><name>PT739</name></trkpt>
<trkpt lat="53.192307" lon="-2.034955"><ele>245</ele><time>2020-10-07T09:55:18Z</time><name>PT740</name></trkpt>
<trkpt lat="53.192317" lon="-2.034912"><ele>246</ele><time>2020-10-07T09:55:21Z</time><name>PT741</name></trkpt>
<trkpt lat="53.192341" lon="-2.034850"><ele>246</ele><time>2020-10-07T09:55:24Z</time><name>PT742</name></trkpt>
<trkpt lat="53.192362" lon="-2.034799"><ele>246</ele><time>2020-10-07T09:55:29Z</time><name>PT743</name></trkpt>
<trkpt lat="53.192374" lon="-2.034745"><ele>245</ele><time>2020-10-07T09:55:33Z</time><name>PT744</name></trkpt>
<trkpt lat="53.192386" lon="-2.034692"><ele>246</ele><time>2020-10-07T09:55:36Z</time><name>PT745</name></trkpt>
<trkpt lat="53.192399" lon="-2.034633"><ele>245</ele><time>2020-10-07T09:55:39Z</time><name>PT746</name></trkpt>
<trkpt lat="53.192420" lon="-2.034567"><ele>246</ele><time>2020-10-07T09:55:42Z</time><name>PT747</name></trkpt>
<trkpt lat="53.192440" lon="-2.034519"><ele>246</ele><time>2020-10-07T09:55:47Z</time><name>PT748</name></trkpt>
<trkpt lat="53.192461" lon="-2.034468"><ele>247</ele><time>2020-10-07T09:55:51Z</time><name>PT749</name></trkpt>
<trkpt lat="53.192474" lon="-2.034423"><ele>246</ele><time>2020-10-07T09:55:54Z</time><name>PT750</name></trkpt>
<trkpt lat="53.192482" lon="-2.034369"><ele>247</ele><time>2020-10-07T09:55:57Z</time><name>PT751</name></trkpt>
<trkpt lat="53.192498" lon="-2.034294"><ele>247</ele><time>2020-10-07T09:56:00Z</time><name>PT752</name></trkpt>
<trkpt lat="53.192506" lon="-2.034230"><ele>248</ele><time>2020-10-07T09:56:03Z</time><name>PT753</name></trkpt>
<trkpt lat="53.192516" lon="-2.034181"><ele>247</ele><time>2020-10-07T09:56:06Z</time><name>PT754</name></trkpt>
<trkpt lat="53.192523" lon="-2.034114"><ele>246</ele><time>2020-10-07T09:56:11Z</time><name>PT755</name></trkpt>
<trkpt lat="53.192530" lon="-2.034061"><ele>246</ele><time>2020-10-07T09:56:14Z</time><name>PT756</name></trkpt>
<trkpt lat="53.192544" lon="-2.034030"><ele>245</ele><time>2020-10-07T09:56:17Z</time><name>PT757</name></trkpt>
<trkpt lat="53.192562" lon="-2.033979"><ele>244</ele><time>2020-10-07T09:56:21Z</time><name>PT758</name></trkpt>
<trkpt lat="53.192580" lon="-2.033942"><ele>244</ele><time>2020-10-07T09:56:24Z</time><name>PT759</name></trkpt>
<trkpt lat="53.192599" lon="-2.033904"><ele>244</ele><time>2020-10-07T09:56:27Z</time><name>PT760</name></trkpt>
<trkpt lat="53.192618" lon="-2.033867"><ele>244</ele><time>2020-10-07T09:56:30Z</time><name>PT761</name></trkpt>
<trkpt lat="53.192646" lon="-2.033817"><ele>243</ele><time>2020-10-07T09:56:33Z</time><name>PT762</name></trkpt>
<trkpt lat="53.192673" lon="-2.033745"><ele>242</ele><time>2020-10-07T09:56:38Z</time><name>PT763</name></trkpt>
<trkpt lat="53.192695" lon="-2.033712"><ele>240</ele><time>2020-10-07T09:56:41Z</time><name>PT764</name></trkpt>
<trkpt lat="53.192720" lon="-2.033657"><ele>239</ele><time>2020-10-07T09:56:45Z</time><name>PT765</name></trkpt>
<trkpt lat="53.192755" lon="-2.033604"><ele>238</ele><time>2020-10-07T09:56:48Z</time><name>PT766</name></trkpt>
<trkpt lat="53.192773" lon="-2.033556"><ele>238</ele><time>2020-10-07T09:56:51Z</time><name>PT767</name></trkpt>
<trkpt lat="53.192800" lon="-2.033489"><ele>237</ele><time>2020-10-07T09:56:56Z</time><name>PT768</name></trkpt>
<trkpt lat="53.192811" lon="-2.033445"><ele>236</ele><time>2020-10-07T09:56:59Z</time><name>PT769</name></trkpt>
<trkpt lat="53.192830" lon="-2.033389"><ele>235</ele><time>2020-10-07T09:57:03Z</time><name>PT770</name></trkpt>
<trkpt lat="53.192842" lon="-2.033355"><ele>235</ele><time>2020-10-07T09:57:06Z</time><name>PT771</name></trkpt>
<trkpt lat="53.192858" lon="-2.033332"><ele>235</ele><time>2020-10-07T09:57:09Z</time><name>PT772</name></trkpt>
<trkpt lat="53.192861" lon="-2.033324"><ele>235</ele><time>2020-10-07T09:57:12Z</time><name>PT773</name></trkpt>
<trkpt lat="53.192860" lon="-2.033293"><ele>235</ele><time>2020-10-07T09:57:15Z</time><name>PT774</name></trkpt>
<trkpt lat="53.192883" lon="-2.033210"><ele>235</ele><time>2020-10-07T09:57:20Z</time><name>PT775</name></trkpt>
<trkpt lat="53.192903" lon="-2.033135"><ele>236</ele><time>2020-10-07T09:57:24Z</time><name>PT776</name></trkpt>
<trkpt lat="53.192921" lon="-2.033072"><ele>235</ele><time>2020-10-07T09:57:27Z</time><name>PT777</name></trkpt>
<trkpt lat="53.192931" lon="-2.033006"><ele>236</ele><time>2020-10-07T09:57:30Z</time><name>PT778</name></trkpt>
<trkpt lat="53.192945" lon="-2.032930"><ele>237</ele><time>2020-10-07T09:57:35Z</time><name>PT779</name></trkpt>
<trkpt lat="53.192962" lon="-2.032853"><ele>237</ele><time>2020-10-07T09:57:39Z</time><name>PT780</name></trkpt>
<trkpt lat="53.192970" lon="-2.032772"><ele>237</ele><time>2020-10-07T09:57:43Z</time><name>PT781</name></trkpt>
<trkpt lat="53.192978" lon="-2.032711"><ele>238</ele><time>2020-10-07T09:57:46Z</time><name>PT782</name></trkpt>
<trkpt lat="53.192988" lon="-2.032660"><ele>237</ele><time>2020-10-07T09:57:49Z</time><name>PT783</name></trkpt>
<trkpt lat="53.192996" lon="-2.032596"><ele>237</ele><time>2020-10-07T09:57:53Z</time><name>PT784</name></trkpt>
<trkpt lat="53.193014" lon="-2.032544"><ele>238</ele><time>2020-10-07T09:57:56Z</time><name>PT785</name></trkpt>
<trkpt lat="53.193026" lon="-2.032489"><ele>238</ele><time>2020-10-07T09:57:59Z</time><name>PT786</name></trkpt>
<trkpt lat="53.193043" lon="-2.032430"><ele>236</ele><time>2020-10-07T09:58:03Z</time><name>PT787</name></trkpt>
<trkpt lat="53.193076" lon="-2.032382"><ele>234</ele><time>2020-10-07T09:58:06Z</time><name>PT788</name></trkpt>
<trkpt lat="53.193085" lon="-2.032329"><ele>234</ele><time>2020-10-07T09:58:11Z</time><name>PT789</name></trkpt>
<trkpt lat="53.193089" lon="-2.032279"><ele>234</ele><time>2020-10-07T09:58:14Z</time><name>PT790</name></trkpt>
<trkpt lat="53.193104" lon="-2.032233"><ele>233</ele><time>2020-10-07T09:58:18Z</time><name>PT791</name></trkpt>
<trkpt lat="53.193115" lon="-2.032203"><ele>233</ele><time>2020-10-07T09:58:21Z</time><name>PT792</name></trkpt>
<trkpt lat="53.193116" lon="-2.032167"><ele>233</ele><time>2020-10-07T09:58:24Z</time><name>PT793</name></trkpt>
<trkpt lat="53.193111" lon="-2.032090"><ele>232</ele><time>2020-10-07T09:58:29Z</time><name>PT794</name></trkpt>
<trkpt lat="53.193111" lon="-2.032038"><ele>231</ele><time>2020-10-07T09:58:33Z</time><name>PT795</name></trkpt>
<trkpt lat="53.193125" lon="-2.032019"><ele>230</ele><time>2020-10-07T09:58:36Z</time><name>PT796</name></trkpt>
<trkpt lat="53.193137" lon="-2.031963"><ele>229</ele><time>2020-10-07T09:58:39Z</time><name>PT797</name></trkpt>
<trkpt lat="53.193145" lon="-2.031939"><ele>228</ele><time>2020-10-07T09:58:42Z</time><name>PT798</name></trkpt>
<trkpt lat="53.193156" lon="-2.031890"><ele>230</ele><time>2020-10-07T09:58:45Z</time><name>PT799</name></trkpt>
<trkpt lat="53.193174" lon="-2.031846"><ele>228</ele><time>2020-10-07T09:58:48Z</time><name>PT800</name></trkpt>
<trkpt lat="53.193185" lon="-2.031782"><ele>226</ele><time>2020-10-07T09:58:51Z</time><name>PT801</name></trkpt>
<trkpt lat="53.193192" lon="-2.031725"><ele>233</ele><time>2020-10-07T09:58:54Z</time><name>PT802</name></trkpt>
<trkpt lat="53.193207" lon="-2.031628"><ele>237</ele><time>2020-10-07T09:58:59Z</time><name>PT803</name></trkpt>
<trkpt lat="53.193210" lon="-2.031564"><ele>238</ele><time>2020-10-07T09:59:03Z</time><name>PT804</name></trkpt>
<trkpt lat="53.193220" lon="-2.031502"><ele>238</ele><time>2020-10-07T09:59:06Z</time><name>PT805</name></trkpt>
<trkpt lat="53.193224" lon="-2.031459"><ele>241</ele><time>2020-10-07T09:59:09Z</time><name>PT806</name></trkpt>
<trkpt lat="53.193218" lon="-2.031377"><ele>248</ele><time>2020-10-07T09:59:12Z</time><name>PT807</name></trkpt>
<trkpt lat="53.193204" lon="-2.031336"><ele>247</ele><time>2020-10-07T09:59:15Z</time><name>PT808</name></trkpt>
<trkpt lat="53.193191" lon="-2.031290"><ele>247</ele><time>2020-10-07T09:59:18Z</time><name>PT809</name></trkpt>
<trkpt lat="53.193190" lon="-2.031256"><ele>246</ele><time>2020-10-07T09:59:21Z</time><name>PT810</name></trkpt>
<trkpt lat="53.193184" lon="-2.031212"><ele>244</ele><time>2020-10-07T09:59:24Z</time><name>PT811</name></trkpt>
<trkpt lat="53.193177" lon="-2.031174"><ele>239</ele><time>2020-10-07T09:59:29Z</time><name>PT812</name></trkpt>
<trkpt lat="53.193172" lon="-2.031143"><ele>239</ele><time>2020-10-07T09:59:32Z</time><name>PT813</name></trkpt>
<trkpt lat="53.193163" lon="-2.031088"><ele>240</ele><time>2020-10-07T09:59:36Z</time><name>PT814</name></trkpt>
<trkpt lat="53.193157" lon="-2.031053"><ele>239</ele><time>2020-10-07T09:59:39Z</time><name>PT815</name></trkpt>
<trkpt lat="53.193145" lon="-2.031016"><ele>239</ele><time>2020-10-07T09:59:42Z</time><name>PT816</name></trkpt>
<trkpt lat="53.193134" lon="-2.030975"><ele>238</ele><time>2020-10-07T09:59:46Z</time><name>PT817</name></trkpt>
<trkpt lat="53.193115" lon="-2.030829"><ele>237</ele><time>2020-10-07T09:59:50Z</time><name>PT818</name></trkpt>
<trkpt lat="53.193094" lon="-2.030778"><ele>237</ele><time>2020-10-07T09:59:54Z</time><name>PT819</name></trkpt>
<trkpt lat="53.193078" lon="-2.030721"><ele>238</ele><time>2020-10-07T09:59:57Z</time><name>PT820</name></trkpt>
<trkpt lat="53.193069" lon="-2.030678"><ele>238</ele><time>2020-10-07T10:00:00Z</time><name>PT821</name></trkpt>
<trkpt lat="53.193058" lon="-2.030647"><ele>237</ele><time>2020-10-07T10:00:03Z</time><name>PT822</name></trkpt>
<trkpt lat="53.193056" lon="-2.030606"><ele>235</ele><time>2020-10-07T10:00:06Z</time><name>PT823</name></trkpt>
<trkpt lat="53.193062" lon="-2.030544"><ele>233</ele><time>2020-10-07T10:00:11Z</time><name>PT824</name></trkpt>
<trkpt lat="53.193057" lon="-2.030478"><ele>235</ele><time>2020-10-07T10:00:15Z</time><name>PT825</name></trkpt>
<trkpt lat="53.193060" lon="-2.030428"><ele>232</ele><time>2020-10-07T10:00:18Z</time><name>PT826</name></trkpt>
<trkpt lat="53.193064" lon="-2.030359"><ele>233</ele><time>2020-10-07T10:00:21Z</time><name>PT827</name></trkpt>
<trkpt lat="53.193085" lon="-2.030308"><ele>233</ele><time>2020-10-07T10:00:26Z</time><name>PT828</name></trkpt>
<trkpt lat="53.193091" lon="-2.030262"><ele>234</ele><time>2020-10-07T10:00:29Z</time><name>PT829</name></trkpt>
<trkpt lat="53.193092" lon="-2.030202"><ele>235</ele><time>2020-10-07T10:00:33Z</time><name>PT830</name></trkpt>
<trkpt lat="53.193096" lon="-2.030161"><ele>234</ele><time>2020-10-07T10:00:36Z</time><name>PT831</name></trkpt>
<trkpt lat="53.193103" lon="-2.030098"><ele>236</ele><time>2020-10-07T10:00:39Z</time><name>PT832</name></trkpt>
<trkpt lat="53.193100" lon="-2.030039"><ele>238</ele><time>2020-10-07T10:00:42Z</time><name>PT833</name></trkpt>
<trkpt lat="53.193112" lon="-2.029953"><ele>240</ele><time>2020-10-07T10:00:45Z</time><name>PT834</name></trkpt>
<trkpt lat="53.193125" lon="-2.029901"><ele>242</ele><time>2020-10-07T10:00:50Z</time><name>PT835</name></trkpt>
<trkpt lat="53.193146" lon="-2.029873"><ele>243</ele><time>2020-10-07T10:00:53Z</time><name>PT836</name></trkpt>
<trkpt lat="53.193156" lon="-2.029821"><ele>241</ele><time>2020-10-07T10:00:56Z</time><name>PT837</name></trkpt>
<trkpt lat="53.193158" lon="-2.029809"><ele>241</ele><time>2020-10-07T10:00:59Z</time><name>PT838</name></trkpt>
<trkpt lat="53.193166" lon="-2.029761"><ele>238</ele><time>2020-10-07T10:01:02Z</time><name>PT839</name></trkpt>
<trkpt lat="53.193186" lon="-2.029695"><ele>237</ele><time>2020-10-07T10:01:05Z</time><name>PT840</name></trkpt>
<trkpt lat="53.193194" lon="-2.029646"><ele>234</ele><time>2020-10-07T10:01:09Z</time><name>PT841</name></trkpt>
<trkpt lat="53.193201" lon="-2.029600"><ele>232</ele><time>2020-10-07T10:01:12Z</time><name>PT842</name></trkpt>
<trkpt lat="53.193213" lon="-2.029557"><ele>230</ele><time>2020-10-07T10:01:15Z</time><name>PT843</name></trkpt>
<trkpt lat="53.193224" lon="-2.029498"><ele>230</ele><time>2020-10-07T10:01:18Z</time><name>PT844</name></trkpt>
<trkpt lat="53.193234" lon="-2.029432"><ele>226</ele><time>2020-10-07T10:01:23Z</time><name>PT845</name></trkpt>
<trkpt lat="53.193248" lon="-2.029391"><ele>226</ele><time>2020-10-07T10:01:26Z</time><name>PT846</name></trkpt>
<trkpt lat="53.193253" lon="-2.029372"><ele>225</ele><time>2020-10-07T10:01:29Z</time><name>PT847</name></trkpt>
<trkpt lat="53.193255" lon="-2.029331"><ele>224</ele><time>2020-10-07T10:01:32Z</time><name>PT848</name></trkpt>
<trkpt lat="53.193264" lon="-2.029280"><ele>223</ele><time>2020-10-07T10:01:36Z</time><name>PT849</name></trkpt>
<trkpt lat="53.193265" lon="-2.029217"><ele>222</ele><time>2020-10-07T10:01:39Z</time><name>PT850</name></trkpt>
<trkpt lat="53.193272" lon="-2.029180"><ele>224</ele><time>2020-10-07T10:01:42Z</time><name>PT851</name></trkpt>
<trkpt lat="53.193274" lon="-2.029142"><ele>222</ele><time>2020-10-07T10:01:45Z</time><name>PT852</name></trkpt>
<trkpt lat="53.193276" lon="-2.029086"><ele>223</ele><time>2020-10-07T10:01:48Z</time><name>PT853</name></trkpt>
<trkpt lat="53.193277" lon="-2.029027"><ele>223</ele><time>2020-10-07T10:01:53Z</time><name>PT854</name></trkpt>
<trkpt lat="53.193293" lon="-2.028986"><ele>222</ele><time>2020-10-07T10:01:57Z</time><name>PT855</name></trkpt>
<trkpt lat="53.193294" lon="-2.028951"><ele>222</ele><time>2020-10-07T10:02:00Z</time><name>PT856</name></trkpt>
<trkpt lat="53.193292" lon="-2.028921"><ele>224</ele><time>2020-10-07T10:02:03Z</time><name>PT857</name></trkpt>
<trkpt lat="53.193276" lon="-2.028866"><ele>226</ele><time>2020-10-07T10:02:26Z</time><name>PT858</name></trkpt>
<trkpt lat="53.193254" lon="-2.028822"><ele>225</ele><time>2020-10-07T10:02:29Z</time><name>PT859</name></trkpt>
<trkpt lat="53.193236" lon="-2.028777"><ele>228</ele><time>2020-10-07T10:02:32Z</time><name>PT860</name></trkpt>
<trkpt lat="53.193229" lon="-2.028740"><ele>228</ele><time>2020-10-07T10:02:35Z</time><name>PT861</name></trkpt>
<trkpt lat="53.193220" lon="-2.028685"><ele>227</ele><time>2020-10-07T10:02:39Z</time><name>PT862</name></trkpt>
<trkpt lat="53.193219" lon="-2.028643"><ele>227</ele><time>2020-10-07T10:02:42Z</time><name>PT863</name></trkpt>
<trkpt lat="53.193212" lon="-2.028593"><ele>226</ele><time>2020-10-07T10:02:45Z</time><name>PT864</name></trkpt>
<trkpt lat="53.193195" lon="-2.028529"><ele>226</ele><time>2020-10-07T10:02:50Z</time><name>PT865</name></trkpt>
<trkpt lat="53.193187" lon="-2.028483"><ele>226</ele><time>2020-10-07T10:02:54Z</time><name>PT866</name></trkpt>
<trkpt lat="53.193174" lon="-2.028446"><ele>227</ele><time>2020-10-07T10:02:57Z</time><name>PT867</name></trkpt>
<trkpt lat="53.193166" lon="-2.028410"><ele>229</ele><time>2020-10-07T10:03:02Z</time><name>PT868</name></trkpt>
<trkpt lat="53.193163" lon="-2.028393"><ele>229</ele><time>2020-10-07T10:03:05Z</time><name>PT869</name></trkpt>
<trkpt lat="53.193149" lon="-2.028378"><ele>228</ele><time>2020-10-07T10:03:08Z</time><name>PT870</name></trkpt>
<trkpt lat="53.193129" lon="-2.028319"><ele>231</ele><time>2020-10-07T10:03:12Z</time><name>PT871</name></trkpt>
<trkpt lat="53.193096" lon="-2.028277"><ele>232</ele><time>2020-10-07T10:03:15Z</time><name>PT872</name></trkpt>
<trkpt lat="53.193075" lon="-2.028219"><ele>234</ele><time>2020-10-07T10:03:18Z</time><name>PT873</name></trkpt>
<trkpt lat="53.193042" lon="-2.028165"><ele>237</ele><time>2020-10-07T10:03:23Z</time><name>PT874</name></trkpt>
<trkpt lat="53.193038" lon="-2.028127"><ele>237</ele><time>2020-10-07T10:03:26Z</time><name>PT875</name></trkpt>
<trkpt lat="53.193033" lon="-2.028113"><ele>237</ele><time>2020-10-07T10:03:30Z</time><name>PT876</name></trkpt>
<trkpt lat="53.193029" lon="-2.028102"><ele>237</ele><time>2020-10-07T10:03:33Z</time><name>PT877</name></trkpt>
<trkpt lat="53.193013" lon="-2.028071"><ele>237</ele><time>2020-10-07T10:03:46Z</time><name>PT878</name></trkpt>
<trkpt lat="53.193008" lon="-2.028052"><ele>238</ele><time>2020-10-07T10:03:49Z</time><name>PT879</name></trkpt>
<trkpt lat="53.193009" lon="-2.028042"><ele>238</ele><time>2020-10-07T10:03:53Z</time><name>PT880</name></trkpt>
<trkpt lat="53.193009" lon="-2.028027"><ele>239</ele><time>2020-10-07T10:03:56Z</time><name>PT881</name></trkpt>
<trkpt lat="53.193012" lon="-2.028019"><ele>239</ele><time>2020-10-07T10:04:00Z</time><name>PT882</name></trkpt>
<trkpt lat="53.193012" lon="-2.028008"><ele>239</ele><time>2020-10-07T10:04:03Z</time><name>PT883</name></trkpt>
<trkpt lat="53.193018" lon="-2.027998"><ele>239</ele><time>2020-10-07T10:04:06Z</time><name>PT884</name></trkpt>
<trkpt lat="53.193023" lon="-2.027992"><ele>241</ele><time>2020-10-07T10:04:10Z</time><name>PT885</name></trkpt>
<trkpt lat="53.193021" lon="-2.027987"><ele>240</ele><time>2020-10-07T10:04:14Z</time><name>PT886</name></trkpt>
<trkpt lat="53.193013" lon="-2.027982"><ele>239</ele><time>2020-10-07T10:04:17Z</time><name>PT887</name></trkpt>
<trkpt lat="53.193011" lon="-2.027981"><ele>239</ele><time>2020-10-07T10:04:20Z</time><name>PT888</name></trkpt>
<trkpt lat="53.192999" lon="-2.028040"><ele>241</ele><time>2020-10-07T10:04:25Z</time><name>PT889</name></trkpt>
<trkpt lat="53.193030" lon="-2.028103"><ele>243</ele><time>2020-10-07T10:04:28Z</time><name>PT890</name></trkpt>
<trkpt lat="53.193028" lon="-2.028108"><ele>243</ele><time>2020-10-07T10:04:32Z</time><name>PT891</name></trkpt>
<trkpt lat="53.193012" lon="-2.028072"><ele>243</ele><time>2020-10-07T10:04:38Z</time><name>PT892</name></trkpt>
<trkpt lat="53.193014" lon="-2.028005"><ele>242</ele><time>2020-10-07T10:04:50Z</time><name>PT893</name></trkpt>
<trkpt lat="53.192998" lon="-2.027962"><ele>240</ele><time>2020-10-07T10:04:55Z</time><name>PT894</name></trkpt>
<trkpt lat="53.192997" lon="-2.027907"><ele>241</ele><time>2020-10-07T10:04:59Z</time><name>PT895</name></trkpt>
<trkpt lat="53.192985" lon="-2.027860"><ele>239</ele><time>2020-10-07T10:05:02Z</time><name>PT896</name></trkpt>
<trkpt lat="53.192968" lon="-2.027828"><ele>236</ele><time>2020-10-07T10:05:05Z</time><name>PT897</name></trkpt>
<trkpt lat="53.192951" lon="-2.027806"><ele>236</ele><time>2020-10-07T10:05:08Z</time><name>PT898</name></trkpt>
<trkpt lat="53.192943" lon="-2.027738"><ele>235</ele><time>2020-10-07T10:05:13Z</time><name>PT899</name></trkpt>
<trkpt lat="53.192926" lon="-2.027705"><ele>234</ele><time>2020-10-07T10:05:17Z</time><name>PT900</name></trkpt>
<trkpt lat="53.192912" lon="-2.027674"><ele>232</ele><time>2020-10-07T10:05:20Z</time><name>PT901</name></trkpt>
<trkpt lat="53.192887" lon="-2.027649"><ele>231</ele><time>2020-10-07T10:05:23Z</time><name>PT902</name></trkpt>
<trkpt lat="53.192880" lon="-2.027618"><ele>229</ele><time>2020-10-07T10:05:28Z</time><name>PT903</name></trkpt>
<trkpt lat="53.192866" lon="-2.027565"><ele>230</ele><time>2020-10-07T10:05:32Z</time><name>PT904</name></trkpt>
<trkpt lat="53.192846" lon="-2.027481"><ele>229</ele><time>2020-10-07T10:05:35Z</time><name>PT905</name></trkpt>
<trkpt lat="53.192838" lon="-2.027421"><ele>233</ele><time>2020-10-07T10:05:38Z</time><name>PT906</name></trkpt>
<trkpt lat="53.192814" lon="-2.027373"><ele>231</ele><time>2020-10-07T10:05:43Z</time><name>PT907</name></trkpt>
<trkpt lat="53.192816" lon="-2.027316"><ele>227</ele><time>2020-10-07T10:05:46Z</time><name>PT908</name></trkpt>
<trkpt lat="53.192802" lon="-2.027262"><ele>228</ele><time>2020-10-07T10:05:49Z</time><name>PT909</name></trkpt>
<trkpt lat="53.192792" lon="-2.027215"><ele>227</ele><time>2020-10-07T10:05:53Z</time><name>PT910</name></trkpt>
<trkpt lat="53.192770" lon="-2.027125"><ele>224</ele><time>2020-10-07T10:05:56Z</time><name>PT911</name></trkpt>
<trkpt lat="53.192732" lon="-2.027044"><ele>225</ele><time>2020-10-07T10:05:59Z</time><name>PT912</name></trkpt>
<trkpt lat="53.192706" lon="-2.026997"><ele>224</ele><time>2020-10-07T10:06:02Z</time><name>PT913</name></trkpt>
<trkpt lat="53.192693" lon="-2.026932"><ele>223</ele><time>2020-10-07T10:06:07Z</time><name>PT914</name></trkpt>
<trkpt lat="53.192664" lon="-2.026889"><ele>225</ele><time>2020-10-07T10:06:10Z</time><name>PT915</name></trkpt>
<trkpt lat="53.192632" lon="-2.026814"><ele>225</ele><time>2020-10-07T10:06:14Z</time><name>PT916</name></trkpt>
<trkpt lat="53.192616" lon="-2.026791"><ele>224</ele><time>2020-10-07T10:06:17Z</time><name>PT917</name></trkpt>
<trkpt lat="53.192585" lon="-2.026754"><ele>226</ele><time>2020-10-07T10:06:20Z</time><name>PT918</name></trkpt>
<trkpt lat="53.192580" lon="-2.026713"><ele>227</ele><time>2020-10-07T10:06:23Z</time><name>PT919</name></trkpt>
<trkpt lat="53.192558" lon="-2.026687"><ele>226</ele><time>2020-10-07T10:06:26Z</time><name>PT920</name></trkpt>
<trkpt lat="53.192548" lon="-2.026655"><ele>227</ele><time>2020-10-07T10:06:29Z</time><name>PT921</name></trkpt>
<trkpt lat="53.192527" lon="-2.026621"><ele>227</ele><time>2020-10-07T10:06:34Z</time><name>PT922</name></trkpt>
<trkpt lat="53.192517" lon="-2.026549"><ele>230</ele><time>2020-10-07T10:06:37Z</time><name>PT923</name></trkpt>
<trkpt lat="53.192503" lon="-2.026520"><ele>230</ele><time>2020-10-07T10:06:40Z</time><name>PT924</name></trkpt>
<trkpt lat="53.192469" lon="-2.026431"><ele>233</ele><time>2020-10-07T10:06:44Z</time><name>PT925</name></trkpt>
<trkpt lat="53.192448" lon="-2.026382"><ele>235</ele><time>2020-10-07T10:06:47Z</time><name>PT926</name></trkpt>
<trkpt lat="53.192410" lon="-2.026303"><ele>237</ele><time>2020-10-07T10:06:50Z</time><name>PT927</name></trkpt>
<trkpt lat="53.192392" lon="-2.026274"><ele>238</ele><time>2020-10-07T10:06:53Z</time><name>PT928</name></trkpt>
<trkpt lat="53.192366" lon="-2.026240"><ele>238</ele><time>2020-10-07T10:06:56Z</time><name>PT929</name></trkpt>
<trkpt lat="53.192344" lon="-2.026206"><ele>238</ele><time>2020-10-07T10:07:01Z</time><name>PT930</name></trkpt>
<trkpt lat="53.192328" lon="-2.026176"><ele>239</ele><time>2020-10-07T10:07:04Z</time><name>PT931</name></trkpt>
<trkpt lat="53.192316" lon="-2.026168"><ele>235</ele><time>2020-10-07T10:07:07Z</time><name>PT932</name></trkpt>
<trkpt lat="53.192300" lon="-2.026118"><ele>230</ele><time>2020-10-07T10:07:11Z</time><name>PT933</name></trkpt>
<trkpt lat="53.192278" lon="-2.026061"><ele>232</ele><time>2020-10-07T10:07:14Z</time><name>PT934</name></trkpt>
<trkpt lat="53.192255" lon="-2.026010"><ele>233</ele><time>2020-10-07T10:07:17Z</time><name>PT935</name></trkpt>
<trkpt lat="53.192216" lon="-2.025922"><ele>237</ele><time>2020-10-07T10:07:22Z</time><name>PT936</name></trkpt>
<trkpt lat="53.192202" lon="-2.025894"><ele>238</ele><time>2020-10-07T10:07:25Z</time><name>PT937</name></trkpt>
<trkpt lat="53.192188" lon="-2.025863"><ele>238</ele><time>2020-10-07T10:07:29Z</time><name>PT938</name></trkpt>
<trkpt lat="53.192168" lon="-2.025815"><ele>238</ele><time>2020-10-07T10:07:32Z</time><name>PT939</name></trkpt>
<trkpt lat="53.192152" lon="-2.025751"><ele>239</ele><time>2020-10-07T10:07:35Z</time><name>PT940</name></trkpt>
<trkpt lat="53.192136" lon="-2.025729"><ele>236</ele><time>2020-10-07T10:07:38Z</time><name>PT941</name></trkpt>
<trkpt lat="53.192115" lon="-2.025640"><ele>238</ele><time>2020-10-07T10:07:41Z</time><name>PT942</name></trkpt>
<trkpt lat="53.192100" lon="-2.025551"><ele>241</ele><time>2020-10-07T10:07:46Z</time><name>PT943</name></trkpt>
<trkpt lat="53.192113" lon="-2.025385"><ele>239</ele><time>2020-10-07T10:07:53Z</time><name>PT944</name></trkpt>
<trkpt lat="53.192100" lon="-2.025306"><ele>238</ele><time>2020-10-07T10:07:56Z</time><name>PT945</name></trkpt>
<trkpt lat="53.192080" lon="-2.025210"><ele>239</ele><time>2020-10-07T10:07:59Z</time><name>PT946</name></trkpt>
<trkpt lat="53.192068" lon="-2.025177"><ele>240</ele><time>2020-10-07T10:08:02Z</time><name>PT947</name></trkpt>
<trkpt lat="53.192068" lon="-2.025148"><ele>238</ele><time>2020-10-07T10:08:05Z</time><name>PT948</name></trkpt>
<trkpt lat="53.192050" lon="-2.025103"><ele>239</ele><time>2020-10-07T10:08:08Z</time><name>PT949</name></trkpt>
<trkpt lat="53.192009" lon="-2.025030"><ele>239</ele><time>2020-10-07T10:08:13Z</time><name>PT950</name></trkpt>
<trkpt lat="53.191991" lon="-2.024988"><ele>238</ele><time>2020-10-07T10:08:17Z</time><name>PT951</name></trkpt>
<trkpt lat="53.191951" lon="-2.024920"><ele>238</ele><time>2020-10-07T10:08:20Z</time><name>PT952</name></trkpt>
<trkpt lat="53.191923" lon="-2.024871"><ele>237</ele><time>2020-10-07T10:08:25Z</time><name>PT953</name></trkpt>
<trkpt lat="53.191903" lon="-2.024831"><ele>233</ele><time>2020-10-07T10:08:28Z</time><name>PT954</name></trkpt>
<trkpt lat="53.191882" lon="-2.024766"><ele>233</ele><time>2020-10-07T10:08:32Z</time><name>PT955</name></trkpt>
<trkpt lat="53.191862" lon="-2.024718"><ele>235</ele><time>2020-10-07T10:08:35Z</time><name>PT956</name></trkpt>
<trkpt lat="53.191841" lon="-2.024694"><ele>234</ele><time>2020-10-07T10:08:38Z</time><name>PT957</name></trkpt>
<trkpt lat="53.191823" lon="-2.024642"><ele>236</ele><time>2020-10-07T10:08:41Z</time><name>PT958</name></trkpt>
<trkpt lat="53.191794" lon="-2.024595"><ele>237</ele><time>2020-10-07T10:08:44Z</time><name>PT959</name></trkpt>
<trkpt lat="53.191755" lon="-2.024549"><ele>239</ele><time>2020-10-07T10:08:49Z</time><name>PT960</name></trkpt>
<trkpt lat="53.191739" lon="-2.024510"><ele>240</ele><time>2020-10-07T10:08:52Z</time><name>PT961</name></trkpt>
<trkpt lat="53.191696" lon="-2.024486"><ele>238</ele><time>2020-10-07T10:08:55Z</time><name>PT962</name></trkpt>
<trkpt lat="53.191677" lon="-2.024479"><ele>238</ele><time>2020-10-07T10:08:58Z</time><name>PT963</name></trkpt>
<trkpt lat="53.191647" lon="-2.024461"><ele>240</ele><time>2020-10-07T10:09:02Z</time><name>PT964</name></trkpt>
<trkpt lat="53.191621" lon="-2.024434"><ele>240</ele><time>2020-10-07T10:09:05Z</time><name>PT965</name></trkpt>
<trkpt lat="53.191597" lon="-2.024408"><ele>243</ele><time>2020-10-07T10:09:08Z</time><name>PT966</name></trkpt>
<trkpt lat="53.191569" lon="-2.024381"><ele>247</ele><time>2020-10-07T10:09:11Z</time><name>PT967</name></trkpt>
<trkpt lat="53.191554" lon="-2.024375"><ele>249</ele><time>2020-10-07T10:09:14Z</time><name>PT968</name></trkpt>
<trkpt lat="53.191532" lon="-2.024364"><ele>248</ele><time>2020-10-07T10:09:19Z</time><name>PT969</name></trkpt>
<trkpt lat="53.191518" lon="-2.024372"><ele>249</ele><time>2020-10-07T10:09:23Z</time><name>PT970</name></trkpt>
<trkpt lat="53.191501" lon="-2.024356"><ele>247</ele><time>2020-10-07T10:09:26Z</time><name>PT971</name></trkpt>
<trkpt lat="53.191479" lon="-2.024339"><ele>247</ele><time>2020-10-07T10:09:29Z</time><name>PT972</name></trkpt>
<trkpt lat="53.191458" lon="-2.024312"><ele>249</ele><time>2020-10-07T10:09:34Z</time><name>PT973</name></trkpt>
<trkpt lat="53.191443" lon="-2.024287"><ele>249</ele><time>2020-10-07T10:09:38Z</time><name>PT974</name></trkpt>
<trkpt lat="53.191428" lon="-2.024278"><ele>248</ele><time>2020-10-07T10:09:41Z</time><name>PT975</name></trkpt>
<trkpt lat="53.191410" lon="-2.024243"><ele>248</ele><time>2020-10-07T10:09:44Z</time><name>PT976</name></trkpt>
<trkpt lat="53.191392" lon="-2.024221"><ele>245</ele><time>2020-10-07T10:09:48Z</time><name>PT977</name></trkpt>
<trkpt lat="53.191372" lon="-2.024207"><ele>244</ele><time>2020-10-07T10:09:52Z</time><name>PT978</name></trkpt>
<trkpt lat="53.191357" lon="-2.024191"><ele>245</ele><time>2020-10-07T10:09:55Z</time><name>PT979</name></trkpt>
<trkpt lat="53.191344" lon="-2.024167"><ele>246</ele><time>2020-10-07T10:09:58Z</time><name>PT980</name></trkpt>
<trkpt lat="53.191318" lon="-2.024142"><ele>246</ele><time>2020-10-07T10:10:01Z</time><name>PT981</name></trkpt>
<trkpt lat="53.191296" lon="-2.024121"><ele>246</ele><time>2020-10-07T10:10:04Z</time><name>PT982</name></trkpt>
<trkpt lat="53.191270" lon="-2.024074"><ele>250</ele><time>2020-10-07T10:10:07Z</time><name>PT983</name></trkpt>
<trkpt lat="53.191247" lon="-2.024020"><ele>251</ele><time>2020-10-07T10:10:10Z</time><name>PT984</name></trkpt>
<trkpt lat="53.191227" lon="-2.023979"><ele>250</ele><time>2020-10-07T10:10:13Z</time><name>PT985</name></trkpt>
<trkpt lat="53.191193" lon="-2.023924"><ele>251</ele><time>2020-10-07T10:10:17Z</time><name>PT986</name></trkpt>
<trkpt lat="53.191184" lon="-2.023893"><ele>251</ele><time>2020-10-07T10:10:20Z</time><name>PT987</name></trkpt>
<trkpt lat="53.191169" lon="-2.023865"><ele>250</ele><time>2020-10-07T10:10:23Z</time><name>PT988</name></trkpt>
<trkpt lat="53.191155" lon="-2.023809"><ele>249</ele><time>2020-10-07T10:10:26Z</time><name>PT989</name></trkpt>
<trkpt lat="53.191140" lon="-2.023769"><ele>251</ele><time>2020-10-07T10:10:29Z</time><name>PT990</name></trkpt>
<trkpt lat="53.191109" lon="-2.023725"><ele>253</ele><time>2020-10-07T10:10:34Z</time><name>PT991</name></trkpt>
<trkpt lat="53.191077" lon="-2.023687"><ele>253</ele><time>2020-10-07T10:10:38Z</time><name>PT992</name></trkpt>
<trkpt lat="53.191033" lon="-2.023647"><ele>254</ele><time>2020-10-07T10:10:41Z</time><name>PT993</name></trkpt>
<trkpt lat="53.191005" lon="-2.023623"><ele>256</ele><time>2020-10-07T10:10:46Z</time><name>PT994</name></trkpt>
<trkpt lat="53.190981" lon="-2.023591"><ele>254</ele><time>2020-10-07T10:10:49Z</time><name>PT995</name></trkpt>
<trkpt lat="53.190953" lon="-2.023552"><ele>253</ele><time>2020-10-07T10:10:52Z</time><name>PT996</name></trkpt>
<trkpt lat="53.190931" lon="-2.023514"><ele>251</ele><time>2020-10-07T10:10:56Z</time><name>PT997</name></trkpt>
<trkpt lat="53.190914" lon="-2.023501"><ele>250</ele><time>2020-10-07T10:10:59Z</time><name>PT998</name></trkpt>
<trkpt lat="53.190894" lon="-2.023486"><ele>248</ele><time>2020-10-07T10:11:02Z</time><name>PT999</name></trkpt>
<trkpt lat="53.190868" lon="-2.023464"><ele>247</ele><time>2020-10-07T10:11:05Z</time><name>PT1000</name></trkpt>
<trkpt lat="53.190836" lon="-2.023422"><ele>247</ele><time>2020-10-07T10:11:10Z</time><name>PT1001</name></trkpt>
<trkpt lat="53.190809" lon="-2.023383"><ele>249</ele><time>2020-10-07T10:11:13Z</time><name>PT1002</name></trkpt>
<trkpt lat="53.190793" lon="-2.023334"><ele>250</ele><time>2020-10-07T10:11:16Z</time><name>PT1003</name></trkpt>
<trkpt lat="53.190766" lon="-2.023314"><ele>248</ele><time>2020-10-07T10:11:19Z</time><name>PT1004</name></trkpt>
<trkpt lat="53.190743" lon="-2.023302"><ele>246</ele><time>2020-10-07T10:11:23Z</time><name>PT1005</name></trkpt>
<trkpt lat="53.190723" lon="-2.023268"><ele>247</ele><time>2020-10-07T10:11:26Z</time><name>PT1006</name></trkpt>
<trkpt lat="53.190704" lon="-2.023222"><ele>248</ele><time>2020-10-07T10:11:29Z</time><name>PT1007</name></trkpt>
<trkpt lat="53.190681" lon="-2.023199"><ele>248</ele><time>2020-10-07T10:11:32Z</time><name>PT1008</name></trkpt>
<trkpt lat="53.190652" lon="-2.023159"><ele>248</ele><time>2020-10-07T10:11:37Z</time><name>PT1009</name></trkpt>
<trkpt lat="53.190628" lon="-2.023106"><ele>247</ele><time>2020-10-07T10:11:41Z</time><name>PT1010</name></trkpt>
<trkpt lat="53.190616" lon="-2.023067"><ele>249</ele><time>2020-10-07T10:11:44Z</time><name>PT1011</name></trkpt>
<trkpt lat="53.190589" lon="-2.023028"><ele>251</ele><time>2020-10-07T10:11:47Z</time><name>PT1012</name></trkpt>
<trkpt lat="53.190573" lon="-2.022998"><ele>252</ele><time>2020-10-07T10:11:50Z</time><name>PT1013</name></trkpt>
<trkpt lat="53.190552" lon="-2.022952"><ele>256</ele><time>2020-10-07T10:11:53Z</time><name>PT1014</name></trkpt>
<trkpt lat="53.190529" lon="-2.022907"><ele>254</ele><time>2020-10-07T10:11:56Z</time><name>PT1015</name></trkpt>
<trkpt lat="53.190498" lon="-2.022840"><ele>250</ele><time>2020-10-07T10:12:01Z</time><name>PT1016</name></trkpt>
<trkpt lat="53.190479" lon="-2.022780"><ele>250</ele><time>2020-10-07T10:12:05Z</time><name>PT1017</name></trkpt>
<trkpt lat="53.190459" lon="-2.022727"><ele>251</ele><time>2020-10-07T10:12:08Z</time><name>PT1018</name></trkpt>
<trkpt lat="53.190430" lon="-2.022662"><ele>252</ele><time>2020-10-07T10:12:11Z</time><name>PT1019</name></trkpt>
<trkpt lat="53.190415" lon="-2.022627"><ele>252</ele><time>2020-10-07T10:12:14Z</time><name>PT1020</name></trkpt>
<trkpt lat="53.190397" lon="-2.022579"><ele>253</ele><time>2020-10-07T10:12:17Z</time><name>PT1021</name></trkpt>
<trkpt lat="53.190374" lon="-2.022509"><ele>252</ele><time>2020-10-07T10:12:22Z</time><name>PT1022</name></trkpt>
<trkpt lat="53.190350" lon="-2.022459"><ele>252</ele><time>2020-10-07T10:12:25Z</time><name>PT1023</name></trkpt>
<trkpt lat="53.190336" lon="-2.022421"><ele>252</ele><time>2020-10-07T10:12:28Z</time><name>PT1024</name></trkpt>
<trkpt lat="53.190329" lon="-2.022397"><ele>250</ele><time>2020-10-07T10:12:32Z</time><name>PT1025</name></trkpt>
<trkpt lat="53.190322" lon="-2.022383"><ele>250</ele><time>2020-10-07T10:12:35Z</time><name>PT1026</name></trkpt>
<trkpt lat="53.190302" lon="-2.022350"><ele>250</ele><time>2020-10-07T10:12:38Z</time><name>PT1027</name></trkpt>
<trkpt lat="53.190279" lon="-2.022311"><ele>251</ele><time>2020-10-07T10:12:41Z</time><name>PT1028</name></trkpt>
<trkpt lat="53.190258" lon="-2.022255"><ele>253</ele><time>2020-10-07T10:12:44Z</time><name>PT1029</name></trkpt>
<trkpt lat="53.190239" lon="-2.022217"><ele>254</ele><time>2020-10-07T10:12:47Z</time><name>PT1030</name></trkpt>
<trkpt lat="53.190224" lon="-2.022161"><ele>254</ele><time>2020-10-07T10:12:50Z</time><name>PT1031</name></trkpt>
<trkpt lat="53.190206" lon="-2.022100"><ele>257</ele><time>2020-10-07T10:12:55Z</time><name>PT1032</name></trkpt>
<trkpt lat="53.190171" lon="-2.022046"><ele>253</ele><time>2020-10-07T10:12:58Z</time><name>PT1033</name></trkpt>
<trkpt lat="53.190149" lon="-2.022020"><ele>255</ele><time>2020-10-07T10:13:01Z</time><name>PT1034</name></trkpt>
<trkpt lat="53.190134" lon="-2.022000"><ele>257</ele><time>2020-10-07T10:13:04Z</time><name>PT1035</name></trkpt>
<trkpt lat="53.190117" lon="-2.021993"><ele>257</ele><time>2020-10-07T10:13:07Z</time><name>PT1036</name></trkpt>
<trkpt lat="53.190091" lon="-2.021954"><ele>257</ele><time>2020-10-07T10:13:11Z</time><name>PT1037</name></trkpt>
<trkpt lat="53.190068" lon="-2.021913"><ele>256</ele><time>2020-10-07T10:13:14Z</time><name>PT1038</name></trkpt>
<trkpt lat="53.190036" lon="-2.021872"><ele>257</ele><time>2020-10-07T10:13:17Z</time><name>PT1039</name></trkpt>
<trkpt lat="53.190009" lon="-2.021841"><ele>256</ele><time>2020-10-07T10:13:22Z</time><name>PT1040</name></trkpt>
<trkpt lat="53.189993" lon="-2.021813"><ele>257</ele><time>2020-10-07T10:13:25Z</time><name>PT1041</name></trkpt>
<trkpt lat="53.189997" lon="-2.021799"><ele>256</ele><time>2020-10-07T10:13:28Z</time><name>PT1042</name></trkpt>
<trkpt lat="53.189984" lon="-2.021785"><ele>257</ele><time>2020-10-07T10:13:31Z</time><name>PT1043</name></trkpt>
<trkpt lat="53.189965" lon="-2.021738"><ele>258</ele><time>2020-10-07T10:13:35Z</time><name>PT1044</name></trkpt>
<trkpt lat="53.189952" lon="-2.021706"><ele>258</ele><time>2020-10-07T10:13:38Z</time><name>PT1045</name></trkpt>
<trkpt lat="53.189923" lon="-2.021678"><ele>256</ele><time>2020-10-07T10:13:41Z</time><name>PT1046</name></trkpt>
<trkpt lat="53.189900" lon="-2.021634"><ele>257</ele><time>2020-10-07T10:13:44Z</time><name>PT1047</name></trkpt>
<trkpt lat="53.189877" lon="-2.021594"><ele>257</ele><time>2020-10-07T10:13:47Z</time><name>PT1048</name></trkpt>
<trkpt lat="53.189851" lon="-2.021566"><ele>256</ele><time>2020-10-07T10:13:52Z</time><name>PT1049</name></trkpt>
<trkpt lat="53.189828" lon="-2.021535"><ele>254</ele><time>2020-10-07T10:13:56Z</time><name>PT1050</name></trkpt>
<trkpt lat="53.189804" lon="-2.021484"><ele>256</ele><time>2020-10-07T10:14:00Z</time><name>PT1051</name></trkpt>
<trkpt lat="53.189787" lon="-2.021452"><ele>256</ele><time>2020-10-07T10:14:03Z</time><name>PT1052</name></trkpt>
<trkpt lat="53.189775" lon="-2.021403"><ele>258</ele><time>2020-10-07T10:14:06Z</time><name>PT1053</name></trkpt>
<trkpt lat="53.189757" lon="-2.021347"><ele>261</ele><time>2020-10-07T10:14:09Z</time><name>PT1054</name></trkpt>
<trkpt lat="53.189727" lon="-2.021298"><ele>264</ele><time>2020-10-07T10:14:12Z</time><name>PT1055</name></trkpt>
<trkpt lat="53.189707" lon="-2.021270"><ele>263</ele><time>2020-10-07T10:14:15Z</time><name>PT1056</name></trkpt>
<trkpt lat="53.189689" lon="-2.021208"><ele>262</ele><time>2020-10-07T10:14:19Z</time><name>PT1057</name></trkpt>
<trkpt lat="53.189675" lon="-2.021147"><ele>263</ele><time>2020-10-07T10:14:23Z</time><name>PT1058</name></trkpt>
<trkpt lat="53.189663" lon="-2.021103"><ele>263</ele><time>2020-10-07T10:14:26Z</time><name>PT1059</name></trkpt>
<trkpt lat="53.189647" lon="-2.021045"><ele>264</ele><time>2020-10-07T10:14:29Z</time><name>PT1060</name></trkpt>
<trkpt lat="53.189631" lon="-2.020966"><ele>265</ele><time>2020-10-07T10:14:32Z</time><name>PT1061</name></trkpt>
<trkpt lat="53.189626" lon="-2.020931"><ele>263</ele><time>2020-10-07T10:14:35Z</time><name>PT1062</name></trkpt>
<trkpt lat="53.189609" lon="-2.020865"><ele>263</ele><time>2020-10-07T10:14:40Z</time><name>PT1063</name></trkpt>
<trkpt lat="53.189592" lon="-2.020824"><ele>260</ele><time>2020-10-07T10:14:44Z</time><name>PT1064</name></trkpt>
<trkpt lat="53.189569" lon="-2.020797"><ele>257</ele><time>2020-10-07T10:14:47Z</time><name>PT1065</name></trkpt>
<trkpt lat="53.189557" lon="-2.020727"><ele>255</ele><time>2020-10-07T10:14:50Z</time><name>PT1066</name></trkpt>
<trkpt lat="53.189559" lon="-2.020674"><ele>253</ele><time>2020-10-07T10:14:55Z</time><name>PT1067</name></trkpt>
<trkpt lat="53.189538" lon="-2.020615"><ele>251</ele><time>2020-10-07T10:14:59Z</time><name>PT1068</name></trkpt>
<trkpt lat="53.189525" lon="-2.020596"><ele>250</ele><time>2020-10-07T10:15:02Z</time><name>PT1069</name></trkpt>
<trkpt lat="53.189517" lon="-2.020554"><ele>249</ele><time>2020-10-07T10:15:05Z</time><name>PT1070</name></trkpt>
<trkpt lat="53.189508" lon="-2.020509"><ele>249</ele><time>2020-10-07T10:15:08Z</time><name>PT1071</name></trkpt>
<trkpt lat="53.189490" lon="-2.020452"><ele>250</ele><time>2020-10-07T10:15:13Z</time><name>PT1072</name></trkpt>
<trkpt lat="53.189462" lon="-2.020400"><ele>249</ele><time>2020-10-07T10:15:17Z</time><name>PT1073</name></trkpt>
<trkpt lat="53.189447" lon="-2.020317"><ele>251</ele><time>2020-10-07T10:15:20Z</time><name>PT1074</name></trkpt>
<trkpt lat="53.189428" lon="-2.020261"><ele>252</ele><time>2020-10-07T10:15:25Z</time><name>PT1075</name></trkpt>
<trkpt lat="53.189404" lon="-2.020200"><ele>253</ele><time>2020-10-07T10:15:29Z</time><name>PT1076</name></trkpt>
<trkpt lat="53.189392" lon="-2.020154"><ele>254</ele><time>2020-10-07T10:15:32Z</time><name>PT1077</name></trkpt>
<trkpt lat="53.189381" lon="-2.020118"><ele>254</ele><time>2020-10-07T10:15:35Z</time><name>PT1078</name></trkpt>
<trkpt lat="53.189380" lon="-2.020058"><ele>257</ele><time>2020-10-07T10:15:40Z</time><name>PT1079</name></trkpt>
<trkpt lat="53.189366" lon="-2.019940"><ele>255</ele><time>2020-10-07T10:15:44Z</time><name>PT1080</name></trkpt>
<trkpt lat="53.189333" lon="-2.019894"><ele>252</ele><time>2020-10-07T10:15:47Z</time><name>PT1081</name></trkpt>
<trkpt lat="53.189332" lon="-2.019850"><ele>250</ele><time>2020-10-07T10:15:50Z</time><name>PT1082</name></trkpt>
<trkpt lat="53.189315" lon="-2.019808"><ele>248</ele><time>2020-10-07T10:15:53Z</time><name>PT1083</name></trkpt>
<trkpt lat="53.189309" lon="-2.019741"><ele>248</ele><time>2020-10-07T10:15:58Z</time><name>PT1084</name></trkpt>
<trkpt lat="53.189296" lon="-2.019699"><ele>248</ele><time>2020-10-07T10:16:02Z</time><name>PT1085</name></trkpt>
<trkpt lat="53.189280" lon="-2.019652"><ele>249</ele><time>2020-10-07T10:16:05Z</time><name>PT1086</name></trkpt>
<trkpt lat="53.189250" lon="-2.019625"><ele>246</ele><time>2020-10-07T10:16:08Z</time><name>PT1087</name></trkpt>
<trkpt lat="53.189238" lon="-2.019595"><ele>247</ele><time>2020-10-07T10:16:11Z</time><name>PT1088</name></trkpt>
<trkpt lat="53.189239" lon="-2.019575"><ele>245</ele><time>2020-10-07T10:16:14Z</time><name>PT1089</name></trkpt>
<trkpt lat="53.189218" lon="-2.019541"><ele>244</ele><time>2020-10-07T10:16:19Z</time><name>PT1090</name></trkpt>
<trkpt lat="53.189205" lon="-2.019470"><ele>245</ele><time>2020-10-07T10:16:23Z</time><name>PT1091</name></trkpt>
<trkpt lat="53.189186" lon="-2.019437"><ele>243</ele><time>2020-10-07T10:16:26Z</time><name>PT1092</name></trkpt>
<trkpt lat="53.189172" lon="-2.019360"><ele>244</ele><time>2020-10-07T10:16:29Z</time><name>PT1093</name></trkpt>
<trkpt lat="53.189166" lon="-2.019297"><ele>242</ele><time>2020-10-07T10:16:32Z</time><name>PT1094</name></trkpt>
<trkpt lat="53.189168" lon="-2.019250"><ele>245</ele><time>2020-10-07T10:16:35Z</time><name>PT1095</name></trkpt>
<trkpt lat="53.189174" lon="-2.019181"><ele>244</ele><time>2020-10-07T10:16:40Z</time><name>PT1096</name></trkpt>
<trkpt lat="53.189164" lon="-2.019141"><ele>244</ele><time>2020-10-07T10:16:44Z</time><name>PT1097</name></trkpt>
<trkpt lat="53.189151" lon="-2.019075"><ele>243</ele><time>2020-10-07T10:16:47Z</time><name>PT1098</name></trkpt>
<trkpt lat="53.189144" lon="-2.019051"><ele>242</ele><time>2020-10-07T10:16:50Z</time><name>PT1099</name></trkpt>
<trkpt lat="53.189116" lon="-2.018998"><ele>241</ele><time>2020-10-07T10:16:55Z</time><name>PT1100</name></trkpt>
<trkpt lat="53.189083" lon="-2.018956"><ele>238</ele><time>2020-10-07T10:16:58Z</time><name>PT1101</name></trkpt>
<trkpt lat="53.189074" lon="-2.018866"><ele>244</ele><time>2020-10-07T10:17:01Z</time><name>PT1102</name></trkpt>
<trkpt lat="53.189070" lon="-2.018823"><ele>244</ele><time>2020-10-07T10:17:05Z</time><name>PT1103</name></trkpt>
<trkpt lat="53.189058" lon="-2.018707"><ele>248</ele><time>2020-10-07T10:17:08Z</time><name>PT1104</name></trkpt>
<trkpt lat="53.189044" lon="-2.018656"><ele>250</ele><time>2020-10-07T10:17:11Z</time><name>PT1105</name></trkpt>
<trkpt lat="53.189027" lon="-2.018607"><ele>253</ele><time>2020-10-07T10:17:16Z</time><name>PT1106</name></trkpt>
<trkpt lat="53.189017" lon="-2.018535"><ele>255</ele><time>2020-10-07T10:17:19Z</time><name>PT1107</name></trkpt>
<trkpt lat="53.189006" lon="-2.018484"><ele>256</ele><time>2020-10-07T10:17:22Z</time><name>PT1108</name></trkpt>
<trkpt lat="53.188991" lon="-2.018425"><ele>259</ele><time>2020-10-07T10:17:26Z</time><name>PT1109</name></trkpt>
<trkpt lat="53.188982" lon="-2.018372"><ele>261</ele><time>2020-10-07T10:17:29Z</time><name>PT1110</name></trkpt>
<trkpt lat="53.188987" lon="-2.018321"><ele>263</ele><time>2020-10-07T10:17:32Z</time><name>PT1111</name></trkpt>
<trkpt lat="53.188991" lon="-2.018256"><ele>262</ele><time>2020-10-07T10:17:37Z</time><name>PT1112</name></trkpt>
<trkpt lat="53.188972" lon="-2.018177"><ele>260</ele><time>2020-10-07T10:17:41Z</time><name>PT1113</name></trkpt>
<trkpt lat="53.188950" lon="-2.018117"><ele>258</ele><time>2020-10-07T10:17:44Z</time><name>PT1114</name></trkpt>
<trkpt lat="53.188952" lon="-2.018044"><ele>255</ele><time>2020-10-07T10:17:47Z</time><name>PT1115</name></trkpt>
<trkpt lat="53.188943" lon="-2.017968"><ele>255</ele><time>2020-10-07T10:17:52Z</time><name>PT1116</name></trkpt>
<trkpt lat="53.188936" lon="-2.017892"><ele>253</ele><time>2020-10-07T10:17:56Z</time><name>PT1117</name></trkpt>
<trkpt lat="53.188937" lon="-2.017833"><ele>253</ele><time>2020-10-07T10:17:59Z</time><name>PT1118</name></trkpt>
<trkpt lat="53.188918" lon="-2.017769"><ele>251</ele><time>2020-10-07T10:18:04Z</time><name>PT1119</name></trkpt>
<trkpt lat="53.188921" lon="-2.017736"><ele>252</ele><time>2020-10-07T10:18:07Z</time><name>PT1120</name></trkpt>
<trkpt lat="53.188926" lon="-2.017696"><ele>251</ele><time>2020-10-07T10:18:10Z</time><name>PT1121</name></trkpt>
<trkpt lat="53.188924" lon="-2.017642"><ele>247</ele><time>2020-10-07T10:18:14Z</time><name>PT1122</name></trkpt>
<trkpt lat="53.188932" lon="-2.017584"><ele>247</ele><time>2020-10-07T10:18:17Z</time><name>PT1123</name></trkpt>
<trkpt lat="53.188934" lon="-2.017512"><ele>249</ele><time>2020-10-07T10:18:20Z</time><name>PT1124</name></trkpt>
<trkpt lat="53.188935" lon="-2.017465"><ele>248</ele><time>2020-10-07T10:18:23Z</time><name>PT1125</name></trkpt>
<trkpt lat="53.188934" lon="-2.017398"><ele>247</ele><time>2020-10-07T10:18:27Z</time><name>PT1126</name></trkpt>
<trkpt lat="53.188940" lon="-2.017319"><ele>249</ele><time>2020-10-07T10:18:31Z</time><name>PT1127</name></trkpt>
<trkpt lat="53.188954" lon="-2.017236"><ele>252</ele><time>2020-10-07T10:18:35Z</time><name>PT1128</name></trkpt>
<trkpt lat="53.188961" lon="-2.017140"><ele>259</ele><time>2020-10-07T10:18:38Z</time><name>PT1129</name></trkpt>
<trkpt lat="53.188965" lon="-2.017066"><ele>259</ele><time>2020-10-07T10:18:41Z</time><name>PT1130</name></trkpt>
<trkpt lat="53.188985" lon="-2.016972"><ele>263</ele><time>2020-10-07T10:18:44Z</time><name>PT1131</name></trkpt>
<trkpt lat="53.188988" lon="-2.016880"><ele>265</ele><time>2020-10-07T10:18:49Z</time><name>PT1132</name></trkpt>
<trkpt lat="53.188981" lon="-2.016809"><ele>265</ele><time>2020-10-07T10:18:53Z</time><name>PT1133</name></trkpt>
<trkpt lat="53.188984" lon="-2.016775"><ele>267</ele><time>2020-10-07T10:18:56Z</time><name>PT1134</name></trkpt>
<trkpt lat="53.188973" lon="-2.016733"><ele>267</ele><time>2020-10-07T10:18:59Z</time><name>PT1135</name></trkpt>
<trkpt lat="53.188974" lon="-2.016666"><ele>265</ele><time>2020-10-07T10:19:02Z</time><name>PT1136</name></trkpt>
<trkpt lat="53.188972" lon="-2.016624"><ele>265</ele><time>2020-10-07T10:19:07Z</time><name>PT1137</name></trkpt>
<trkpt lat="53.188955" lon="-2.016578"><ele>263</ele><time>2020-10-07T10:19:10Z</time><name>PT1138</name></trkpt>
<trkpt lat="53.188956" lon="-2.016517"><ele>263</ele><time>2020-10-07T10:19:14Z</time><name>PT1139</name></trkpt>
<trkpt lat="53.188944" lon="-2.016468"><ele>260</ele><time>2020-10-07T10:19:17Z</time><name>PT1140</name></trkpt>
<trkpt lat="53.188935" lon="-2.016413"><ele>259</ele><time>2020-10-07T10:19:20Z</time><name>PT1141</name></trkpt>
<trkpt lat="53.188929" lon="-2.016373"><ele>257</ele><time>2020-10-07T10:19:23Z</time><name>PT1142</name></trkpt>
<trkpt lat="53.188928" lon="-2.016266"><ele>262</ele><time>2020-10-07T10:19:26Z</time><name>PT1143</name></trkpt>
<trkpt lat="53.188929" lon="-2.016237"><ele>264</ele><time>2020-10-07T10:19:30Z</time><name>PT1144</name></trkpt>
<trkpt lat="53.188927" lon="-2.016159"><ele>263</ele><time>2020-10-07T10:19:33Z</time><name>PT1145</name></trkpt>
<trkpt lat="53.188942" lon="-2.016072"><ele>264</ele><time>2020-10-07T10:19:37Z</time><name>PT1146</name></trkpt>
<trkpt lat="53.188950" lon="-2.016002"><ele>263</ele><time>2020-10-07T10:19:40Z</time><name>PT1147</name></trkpt>
<trkpt lat="53.188942" lon="-2.015941"><ele>262</ele><time>2020-10-07T10:19:43Z</time><name>PT1148</name></trkpt>
<trkpt lat="53.188947" lon="-2.015899"><ele>259</ele><time>2020-10-07T10:19:47Z</time><name>PT1149</name></trkpt>
<trkpt lat="53.188942" lon="-2.015864"><ele>257</ele><time>2020-10-07T10:19:50Z</time><name>PT1150</name></trkpt>
<trkpt lat="53.188961" lon="-2.015840"><ele>255</ele><time>2020-10-07T10:19:53Z</time><name>PT1151</name></trkpt>
<trkpt lat="53.188973" lon="-2.015807"><ele>253</ele><time>2020-10-07T10:19:56Z</time><name>PT1152</name></trkpt>
<trkpt lat="53.188991" lon="-2.015746"><ele>255</ele><time>2020-10-07T10:20:01Z</time><name>PT1153</name></trkpt>
<trkpt lat="53.188999" lon="-2.015701"><ele>254</ele><time>2020-10-07T10:20:05Z</time><name>PT1154</name></trkpt>
<trkpt lat="53.188990" lon="-2.015649"><ele>254</ele><time>2020-10-07T10:20:08Z</time><name>PT1155</name></trkpt>
<trkpt lat="53.188956" lon="-2.015600"><ele>251</ele><time>2020-10-07T10:20:13Z</time><name>PT1156</name></trkpt>
<trkpt lat="53.188928" lon="-2.015564"><ele>252</ele><time>2020-10-07T10:20:16Z</time><name>PT1157</name></trkpt>
<trkpt lat="53.188891" lon="-2.015526"><ele>252</ele><time>2020-10-07T10:20:20Z</time><name>PT1158</name></trkpt>
<trkpt lat="53.188855" lon="-2.015501"><ele>252</ele><time>2020-10-07T10:20:23Z</time><name>PT1159</name></trkpt>
<trkpt lat="53.188830" lon="-2.015470"><ele>252</ele><time>2020-10-07T10:20:26Z</time><name>PT1160</name></trkpt>
<trkpt lat="53.188803" lon="-2.015443"><ele>251</ele><time>2020-10-07T10:20:29Z</time><name>PT1161</name></trkpt>
<trkpt lat="53.188778" lon="-2.015431"><ele>251</ele><time>2020-10-07T10:20:32Z</time><name>PT1162</name></trkpt>
<trkpt lat="53.188746" lon="-2.015422"><ele>250</ele><time>2020-10-07T10:20:35Z</time><name>PT1163</name></trkpt>
<trkpt lat="53.188695" lon="-2.015414"><ele>251</ele><time>2020-10-07T10:20:40Z</time><name>PT1164</name></trkpt>
<trkpt lat="53.188662" lon="-2.015404"><ele>250</ele><time>2020-10-07T10:20:43Z</time><name>PT1165</name></trkpt>
<trkpt lat="53.188631" lon="-2.015392"><ele>249</ele><time>2020-10-07T10:20:46Z</time><name>PT1166</name></trkpt>
<trkpt lat="53.188589" lon="-2.015367"><ele>248</ele><time>2020-10-07T10:20:49Z</time><name>PT1167</name></trkpt>
<trkpt lat="53.188552" lon="-2.015370"><ele>249</ele><time>2020-10-07T10:20:52Z</time><name>PT1168</name></trkpt>
<trkpt lat="53.188503" lon="-2.015352"><ele>250</ele><time>2020-10-07T10:20:56Z</time><name>PT1169</name></trkpt>
<trkpt lat="53.188470" lon="-2.015346"><ele>249</ele><time>2020-10-07T10:20:59Z</time><name>PT1170</name></trkpt>
<trkpt lat="53.188417" lon="-2.015314"><ele>251</ele><time>2020-10-07T10:21:02Z</time><name>PT1171</name></trkpt>
<trkpt lat="53.188385" lon="-2.015319"><ele>251</ele><time>2020-10-07T10:21:05Z</time><name>PT1172</name></trkpt>
<trkpt lat="53.188347" lon="-2.015333"><ele>252</ele><time>2020-10-07T10:21:10Z</time><name>PT1173</name></trkpt>
<trkpt lat="53.188303" lon="-2.015321"><ele>252</ele><time>2020-10-07T10:21:14Z</time><name>PT1174</name></trkpt>
<trkpt lat="53.188281" lon="-2.015305"><ele>252</ele><time>2020-10-07T10:21:17Z</time><name>PT1175</name></trkpt>
<trkpt lat="53.188249" lon="-2.015327"><ele>252</ele><time>2020-10-07T10:21:20Z</time><name>PT1176</name></trkpt>
<trkpt lat="53.188213" lon="-2.015325"><ele>253</ele><time>2020-10-07T10:21:23Z</time><name>PT1177</name></trkpt>
<trkpt lat="53.188195" lon="-2.015338"><ele>253</ele><time>2020-10-07T10:21:26Z</time><name>PT1178</name></trkpt>
<trkpt lat="53.188160" lon="-2.015360"><ele>252</ele><time>2020-10-07T10:21:31Z</time><name>PT1179</name></trkpt>
<trkpt lat="53.188135" lon="-2.015353"><ele>253</ele><time>2020-10-07T10:21:34Z</time><name>PT1180</name></trkpt>
<trkpt lat="53.188110" lon="-2.015376"><ele>254</ele><time>2020-10-07T10:21:37Z</time><name>PT1181</name></trkpt>
<trkpt lat="53.188072" lon="-2.015359"><ele>258</ele><time>2020-10-07T10:21:40Z</time><name>PT1182</name></trkpt>
<trkpt lat="53.188034" lon="-2.015368"><ele>258</ele><time>2020-10-07T10:21:44Z</time><name>PT1183</name></trkpt>
<trkpt lat="53.187978" lon="-2.015359"><ele>258</ele><time>2020-10-07T10:21:47Z</time><name>PT1184</name></trkpt>
<trkpt lat="53.187920" lon="-2.015324"><ele>260</ele><time>2020-10-07T10:21:50Z</time><name>PT1185</name></trkpt>
<trkpt lat="53.187887" lon="-2.015300"><ele>259</ele><time>2020-10-07T10:21:55Z</time><name>PT1186</name></trkpt>
<trkpt lat="53.187852" lon="-2.015285"><ele>257</ele><time>2020-10-07T10:21:59Z</time><name>PT1187</name></trkpt>
<trkpt lat="53.187824" lon="-2.015257"><ele>256</ele><time>2020-10-07T10:22:02Z</time><name>PT1188</name></trkpt>
<trkpt lat="53.187788" lon="-2.015239"><ele>257</ele><time>2020-10-07T10:22:05Z</time><name>PT1189</name></trkpt>
<trkpt lat="53.187754" lon="-2.015215"><ele>256</ele><time>2020-10-07T10:22:08Z</time><name>PT1190</name></trkpt>
<trkpt lat="53.187705" lon="-2.015169"><ele>259</ele><time>2020-10-07T10:22:11Z</time><name>PT1191</name></trkpt>
<trkpt lat="53.187680" lon="-2.015141"><ele>261</ele><time>2020-10-07T10:22:14Z</time><name>PT1192</name></trkpt>
<trkpt lat="53.187632" lon="-2.015074"><ele>260</ele><time>2020-10-07T10:22:19Z</time><name>PT1193</name></trkpt>
<trkpt lat="53.187592" lon="-2.015028"><ele>259</ele><time>2020-10-07T10:22:23Z</time><name>PT1194</name></trkpt>
<trkpt lat="53.187570" lon="-2.014989"><ele>261</ele><time>2020-10-07T10:22:26Z</time><name>PT1195</name></trkpt>
<trkpt lat="53.187550" lon="-2.014951"><ele>262</ele><time>2020-10-07T10:22:29Z</time><name>PT1196</name></trkpt>
<trkpt lat="53.187525" lon="-2.014939"><ele>262</ele><time>2020-10-07T10:22:32Z</time><name>PT1197</name></trkpt>
<trkpt lat="53.187509" lon="-2.014913"><ele>263</ele><time>2020-10-07T10:22:35Z</time><name>PT1198</name></trkpt>
<trkpt lat="53.187503" lon="-2.014907"><ele>263</ele><time>2020-10-07T10:22:38Z</time><name>PT1199</name></trkpt>
<trkpt lat="53.187449" lon="-2.014905"><ele>264</ele><time>2020-10-07T10:22:44Z</time><name>PT1200</name></trkpt>
<trkpt lat="53.187413" lon="-2.014890"><ele>264</ele><time>2020-10-07T10:22:47Z</time><name>PT1201</name></trkpt>
<trkpt lat="53.187386" lon="-2.014876"><ele>265</ele><time>2020-10-07T10:22:52Z</time><name>PT1202</name></trkpt>
<trkpt lat="53.187360" lon="-2.014852"><ele>265</ele><time>2020-10-07T10:22:56Z</time><name>PT1203</name></trkpt>
<trkpt lat="53.187347" lon="-2.014827"><ele>267</ele><time>2020-10-07T10:22:59Z</time><name>PT1204</name></trkpt>
<trkpt lat="53.187327" lon="-2.014805"><ele>274</ele><time>2020-10-07T10:23:02Z</time><name>PT1205</name></trkpt>
<trkpt lat="53.187314" lon="-2.014805"><ele>273</ele><time>2020-10-07T10:23:05Z</time><name>PT1206</name></trkpt>
<trkpt lat="53.187294" lon="-2.014839"><ele>272</ele><time>2020-10-07T10:23:10Z</time><name>PT1207</name></trkpt>
<trkpt lat="53.187275" lon="-2.014838"><ele>274</ele><time>2020-10-07T10:23:14Z</time><name>PT1208</name></trkpt>
<trkpt lat="53.187263" lon="-2.014851"><ele>276</ele><time>2020-10-07T10:23:17Z</time><name>PT1209</name></trkpt>
<trkpt lat="53.187241" lon="-2.014861"><ele>277</ele><time>2020-10-07T10:23:20Z</time><name>PT1210</name></trkpt>
<trkpt lat="53.187217" lon="-2.014874"><ele>276</ele><time>2020-10-07T10:23:23Z</time><name>PT1211</name></trkpt>
<trkpt lat="53.187195" lon="-2.014864"><ele>277</ele><time>2020-10-07T10:23:26Z</time><name>PT1212</name></trkpt>
<trkpt lat="53.187162" lon="-2.014862"><ele>277</ele><time>2020-10-07T10:23:29Z</time><name>PT1213</name></trkpt>
<trkpt lat="53.187130" lon="-2.014868"><ele>279</ele><time>2020-10-07T10:23:34Z</time><name>PT1214</name></trkpt>
<trkpt lat="53.187103" lon="-2.014861"><ele>279</ele><time>2020-10-07T10:23:38Z</time><name>PT1215</name></trkpt>
<trkpt lat="53.187063" lon="-2.014862"><ele>278</ele><time>2020-10-07T10:23:41Z</time><name>PT1216</name></trkpt>
<trkpt lat="53.187041" lon="-2.014866"><ele>279</ele><time>2020-10-07T10:23:44Z</time><name>PT1217</name></trkpt>
<trkpt lat="53.187018" lon="-2.014871"><ele>281</ele><time>2020-10-07T10:23:47Z</time><name>PT1218</name></trkpt>
<trkpt lat="53.187003" lon="-2.014868"><ele>284</ele><time>2020-10-07T10:23:50Z</time><name>PT1219</name></trkpt>
<trkpt lat="53.186988" lon="-2.014865"><ele>285</ele><time>2020-10-07T10:23:53Z</time><name>PT1220</name></trkpt>
<trkpt lat="53.186967" lon="-2.014875"><ele>288</ele><time>2020-10-07T10:23:58Z</time><name>PT1221</name></trkpt>
<trkpt lat="53.186946" lon="-2.014884"><ele>289</ele><time>2020-10-07T10:24:01Z</time><name>PT1222</name></trkpt>
<trkpt lat="53.186883" lon="-2.014865"><ele>292</ele><time>2020-10-07T10:24:05Z</time><name>PT1223</name></trkpt>
<trkpt lat="53.186819" lon="-2.014872"><ele>291</ele><time>2020-10-07T10:24:08Z</time><name>PT1224</name></trkpt>
<trkpt lat="53.186799" lon="-2.014863"><ele>294</ele><time>2020-10-07T10:24:13Z</time><name>PT1225</name></trkpt>
<trkpt lat="53.186759" lon="-2.014846"><ele>295</ele><time>2020-10-07T10:24:17Z</time><name>PT1226</name></trkpt>
<trkpt lat="53.186737" lon="-2.014834"><ele>294</ele><time>2020-10-07T10:24:20Z</time><name>PT1227</name></trkpt>
<trkpt lat="53.186711" lon="-2.014841"><ele>293</ele><time>2020-10-07T10:24:23Z</time><name>PT1228</name></trkpt>
<trkpt lat="53.186685" lon="-2.014845"><ele>293</ele><time>2020-10-07T10:24:26Z</time><name>PT1229</name></trkpt>
<trkpt lat="53.186657" lon="-2.014825"><ele>294</ele><time>2020-10-07T10:24:29Z</time><name>PT1230</name></trkpt>
<trkpt lat="53.186626" lon="-2.014809"><ele>295</ele><time>2020-10-07T10:24:34Z</time><name>PT1231</name></trkpt>
<trkpt lat="53.186610" lon="-2.014819"><ele>298</ele><time>2020-10-07T10:24:37Z</time><name>PT1232</name></trkpt>
<trkpt lat="53.186601" lon="-2.014791"><ele>298</ele><time>2020-10-07T10:24:40Z</time><name>PT1233</name></trkpt>
<trkpt lat="53.186549" lon="-2.014754"><ele>297</ele><time>2020-10-07T10:24:44Z</time><name>PT1234</name></trkpt>
<trkpt lat="53.186532" lon="-2.014707"><ele>300</ele><time>2020-10-07T10:24:47Z</time><name>PT1235</name></trkpt>
<trkpt lat="53.186501" lon="-2.014699"><ele>302</ele><time>2020-10-07T10:24:50Z</time><name>PT1236</name></trkpt>
<trkpt lat="53.186488" lon="-2.014695"><ele>301</ele><time>2020-10-07T10:24:53Z</time><name>PT1237</name></trkpt>
<trkpt lat="53.186458" lon="-2.014685"><ele>301</ele><time>2020-10-07T10:24:58Z</time><name>PT1238</name></trkpt>
<trkpt lat="53.186428" lon="-2.014637"><ele>302</ele><time>2020-10-07T10:25:01Z</time><name>PT1239</name></trkpt>
<trkpt lat="53.186398" lon="-2.014601"><ele>302</ele><time>2020-10-07T10:25:04Z</time><name>PT1240</name></trkpt>
<trkpt lat="53.186369" lon="-2.014564"><ele>303</ele><time>2020-10-07T10:25:08Z</time><name>PT1241</name></trkpt>
<trkpt lat="53.186332" lon="-2.014516"><ele>303</ele><time>2020-10-07T10:25:11Z</time><name>PT1242</name></trkpt>
<trkpt lat="53.186303" lon="-2.014476"><ele>302</ele><time>2020-10-07T10:25:14Z</time><name>PT1243</name></trkpt>
<trkpt lat="53.186254" lon="-2.014435"><ele>302</ele><time>2020-10-07T10:25:19Z</time><name>PT1244</name></trkpt>
<trkpt lat="53.186217" lon="-2.014429"><ele>299</ele><time>2020-10-07T10:25:23Z</time><name>PT1245</name></trkpt>
<trkpt lat="53.186183" lon="-2.014429"><ele>298</ele><time>2020-10-07T10:25:26Z</time><name>PT1246</name></trkpt>
<trkpt lat="53.186148" lon="-2.014405"><ele>298</ele><time>2020-10-07T10:25:29Z</time><name>PT1247</name></trkpt>
<trkpt lat="53.186110" lon="-2.014386"><ele>300</ele><time>2020-10-07T10:25:32Z</time><name>PT1248</name></trkpt>
<trkpt lat="53.186093" lon="-2.014362"><ele>299</ele><time>2020-10-07T10:25:35Z</time><name>PT1249</name></trkpt>
<trkpt lat="53.186050" lon="-2.014317"><ele>303</ele><time>2020-10-07T10:25:40Z</time><name>PT1250</name></trkpt>
<trkpt lat="53.186031" lon="-2.014290"><ele>305</ele><time>2020-10-07T10:25:43Z</time><name>PT1251</name></trkpt>
<trkpt lat="53.186016" lon="-2.014288"><ele>307</ele><time>2020-10-07T10:25:46Z</time><name>PT1252</name></trkpt>
<trkpt lat="53.185997" lon="-2.014282"><ele>307</ele><time>2020-10-07T10:25:49Z</time><name>PT1253</name></trkpt>
<trkpt lat="53.185966" lon="-2.014264"><ele>306</ele><time>2020-10-07T10:25:53Z</time><name>PT1254</name></trkpt>
<trkpt lat="53.185956" lon="-2.014270"><ele>305</ele><time>2020-10-07T10:25:56Z</time><name>PT1255</name></trkpt>
<trkpt lat="53.185946" lon="-2.014256"><ele>304</ele><time>2020-10-07T10:25:59Z</time><name>PT1256</name></trkpt>
<trkpt lat="53.185929" lon="-2.014243"><ele>306</ele><time>2020-10-07T10:26:02Z</time><name>PT1257</name></trkpt>
<trkpt lat="53.185900" lon="-2.014235"><ele>306</ele><time>2020-10-07T10:26:05Z</time><name>PT1258</name></trkpt>
<trkpt lat="53.185878" lon="-2.014207"><ele>306</ele><time>2020-10-07T10:26:10Z</time><name>PT1259</name></trkpt>
<trkpt lat="53.185855" lon="-2.014183"><ele>307</ele><time>2020-10-07T10:26:14Z</time><name>PT1260</name></trkpt>
<trkpt lat="53.185830" lon="-2.014155"><ele>306</ele><time>2020-10-07T10:26:17Z</time><name>PT1261</name></trkpt>
<trkpt lat="53.185805" lon="-2.014133"><ele>310</ele><time>2020-10-07T10:26:20Z</time><name>PT1262</name></trkpt>
<trkpt lat="53.185786" lon="-2.014107"><ele>310</ele><time>2020-10-07T10:26:23Z</time><name>PT1263</name></trkpt>
<trkpt lat="53.185791" lon="-2.014081"><ele>312</ele><time>2020-10-07T10:26:28Z</time><name>PT1264</name></trkpt>
<trkpt lat="53.185766" lon="-2.014063"><ele>312</ele><time>2020-10-07T10:26:32Z</time><name>PT1265</name></trkpt>
<trkpt lat="53.185737" lon="-2.014012"><ele>311</ele><time>2020-10-07T10:26:35Z</time><name>PT1266</name></trkpt>
<trkpt lat="53.185710" lon="-2.013961"><ele>314</ele><time>2020-10-07T10:26:40Z</time><name>PT1267</name></trkpt>
<trkpt lat="53.185683" lon="-2.013915"><ele>315</ele><time>2020-10-07T10:26:44Z</time><name>PT1268</name></trkpt>
<trkpt lat="53.185649" lon="-2.013867"><ele>315</ele><time>2020-10-07T10:26:47Z</time><name>PT1269</name></trkpt>
<trkpt lat="53.185631" lon="-2.013820"><ele>316</ele><time>2020-10-07T10:26:52Z</time><name>PT1270</name></trkpt>
<trkpt lat="53.185607" lon="-2.013797"><ele>317</ele><time>2020-10-07T10:26:55Z</time><name>PT1271</name></trkpt>
<trkpt lat="53.185582" lon="-2.013786"><ele>315</ele><time>2020-10-07T10:26:58Z</time><name>PT1272</name></trkpt>
<trkpt lat="53.185541" lon="-2.013778"><ele>314</ele><time>2020-10-07T10:27:02Z</time><name>PT1273</name></trkpt>
<trkpt lat="53.185506" lon="-2.013764"><ele>315</ele><time>2020-10-07T10:27:05Z</time><name>PT1274</name></trkpt>
<trkpt lat="53.185485" lon="-2.013736"><ele>316</ele><time>2020-10-07T10:27:08Z</time><name>PT1275</name></trkpt>
<trkpt lat="53.185454" lon="-2.013708"><ele>316</ele><time>2020-10-07T10:27:11Z</time><name>PT1276</name></trkpt>
<trkpt lat="53.185431" lon="-2.013666"><ele>317</ele><time>2020-10-07T10:27:14Z</time><name>PT1277</name></trkpt>
<trkpt lat="53.185408" lon="-2.013651"><ele>315</ele><time>2020-10-07T10:27:17Z</time><name>PT1278</name></trkpt>
<trkpt lat="53.185395" lon="-2.013619"><ele>318</ele><time>2020-10-07T10:27:20Z</time><name>PT1279</name></trkpt>
<trkpt lat="53.185365" lon="-2.013606"><ele>321</ele><time>2020-10-07T10:27:25Z</time><name>PT1280</name></trkpt>
<trkpt lat="53.185344" lon="-2.013609"><ele>320</ele><time>2020-10-07T10:27:29Z</time><name>PT1281</name></trkpt>
<trkpt lat="53.185315" lon="-2.013593"><ele>320</ele><time>2020-10-07T10:27:32Z</time><name>PT1282</name></trkpt>
<trkpt lat="53.185289" lon="-2.013576"><ele>320</ele><time>2020-10-07T10:27:35Z</time><name>PT1283</name></trkpt>
<trkpt lat="53.185258" lon="-2.013539"><ele>323</ele><time>2020-10-07T10:27:38Z</time><name>PT1284</name></trkpt>
<trkpt lat="53.185251" lon="-2.013513"><ele>325</ele><time>2020-10-07T10:27:41Z</time><name>PT1285</name></trkpt>
<trkpt lat="53.185226" lon="-2.013482"><ele>325</ele><time>2020-10-07T10:27:45Z</time><name>PT1286</name></trkpt>
<trkpt lat="53.185177" lon="-2.013438"><ele>322</ele><time>2020-10-07T10:27:49Z</time><name>PT1287</name></trkpt>
<trkpt lat="53.185155" lon="-2.013408"><ele>323</ele><time>2020-10-07T10:27:53Z</time><name>PT1288</name></trkpt>
<trkpt lat="53.185137" lon="-2.013377"><ele>324</ele><time>2020-10-07T10:27:56Z</time><name>PT1289</name></trkpt>
<trkpt lat="53.185110" lon="-2.013332"><ele>322</ele><time>2020-10-07T10:27:59Z</time><name>PT1290</name></trkpt>
<trkpt lat="53.185093" lon="-2.013292"><ele>323</ele><time>2020-10-07T10:28:02Z</time><name>PT1291</name></trkpt>
<trkpt lat="53.185078" lon="-2.013250"><ele>323</ele><time>2020-10-07T10:28:05Z</time><name>PT1292</name></trkpt>
<trkpt lat="53.185062" lon="-2.013195"><ele>325</ele><time>2020-10-07T10:28:10Z</time><name>PT1293</name></trkpt>
<trkpt lat="53.185047" lon="-2.013155"><ele>325</ele><time>2020-10-07T10:28:13Z</time><name>PT1294</name></trkpt>
<trkpt lat="53.185028" lon="-2.013087"><ele>325</ele><time>2020-10-07T10:28:17Z</time><name>PT1295</name></trkpt>
<trkpt lat="53.185005" lon="-2.013024"><ele>325</ele><time>2020-10-07T10:28:20Z</time><name>PT1296</name></trkpt>
<trkpt lat="53.184970" lon="-2.012982"><ele>326</ele><time>2020-10-07T10:28:23Z</time><name>PT1297</name></trkpt>
<trkpt lat="53.184938" lon="-2.012941"><ele>325</ele><time>2020-10-07T10:28:28Z</time><name>PT1298</name></trkpt>
<trkpt lat="53.184919" lon="-2.012908"><ele>324</ele><time>2020-10-07T10:28:31Z</time><name>PT1299</name></trkpt>
<trkpt lat="53.184881" lon="-2.012863"><ele>322</ele><time>2020-10-07T10:28:35Z</time><name>PT1300</name></trkpt>
<trkpt lat="53.184864" lon="-2.012819"><ele>322</ele><time>2020-10-07T10:28:38Z</time><name>PT1301</name></trkpt>
<trkpt lat="53.184827" lon="-2.012787"><ele>322</ele><time>2020-10-07T10:28:41Z</time><name>PT1302</name></trkpt>
<trkpt lat="53.184812" lon="-2.012764"><ele>322</ele><time>2020-10-07T10:28:44Z</time><name>PT1303</name></trkpt>
<trkpt lat="53.184783" lon="-2.012724"><ele>322</ele><time>2020-10-07T10:28:49Z</time><name>PT1304</name></trkpt>
<trkpt lat="53.184756" lon="-2.012701"><ele>321</ele><time>2020-10-07T10:28:52Z</time><name>PT1305</name></trkpt>
<trkpt lat="53.184730" lon="-2.012628"><ele>320</ele><time>2020-10-07T10:28:56Z</time><name>PT1306</name></trkpt>
<trkpt lat="53.184711" lon="-2.012593"><ele>319</ele><time>2020-10-07T10:28:59Z</time><name>PT1307</name></trkpt>
<trkpt lat="53.184674" lon="-2.012538"><ele>318</ele><time>2020-10-07T10:29:02Z</time><name>PT1308</name></trkpt>
<trkpt lat="53.184645" lon="-2.012509"><ele>318</ele><time>2020-10-07T10:29:05Z</time><name>PT1309</name></trkpt>
<trkpt lat="53.184623" lon="-2.012457"><ele>320</ele><time>2020-10-07T10:29:08Z</time><name>PT1310</name></trkpt>
<trkpt lat="53.184595" lon="-2.012414"><ele>321</ele><time>2020-10-07T10:29:13Z</time><name>PT1311</name></trkpt>
<trkpt lat="53.184577" lon="-2.012392"><ele>322</ele><time>2020-10-07T10:29:16Z</time><name>PT1312</name></trkpt>
<trkpt lat="53.184541" lon="-2.012324"><ele>321</ele><time>2020-10-07T10:29:20Z</time><name>PT1313</name></trkpt>
<trkpt lat="53.184527" lon="-2.012275"><ele>321</ele><time>2020-10-07T10:29:23Z</time><name>PT1314</name></trkpt>
<trkpt lat="53.184505" lon="-2.012242"><ele>318</ele><time>2020-10-07T10:29:26Z</time><name>PT1315</name></trkpt>
<trkpt lat="53.184483" lon="-2.012177"><ele>318</ele><time>2020-10-07T10:29:29Z</time><name>PT1316</name></trkpt>
<trkpt lat="53.184464" lon="-2.012116"><ele>317</ele><time>2020-10-07T10:29:32Z</time><name>PT1317</name></trkpt>
<trkpt lat="53.184450" lon="-2.012076"><ele>320</ele><time>2020-10-07T10:29:35Z</time><name>PT1318</name></trkpt>
<trkpt lat="53.184423" lon="-2.012027"><ele>323</ele><time>2020-10-07T10:29:40Z</time><name>PT1319</name></trkpt>
<trkpt lat="53.184405" lon="-2.011978"><ele>323</ele><time>2020-10-07T10:29:43Z</time><name>PT1320</name></trkpt>
<trkpt lat="53.184366" lon="-2.011898"><ele>322</ele><time>2020-10-07T10:29:47Z</time><name>PT1321</name></trkpt>
<trkpt lat="53.184352" lon="-2.011862"><ele>325</ele><time>2020-10-07T10:29:50Z</time><name>PT1322</name></trkpt>
<trkpt lat="53.184327" lon="-2.011820"><ele>324</ele><time>2020-10-07T10:29:53Z</time><name>PT1323</name></trkpt>
<trkpt lat="53.184293" lon="-2.011768"><ele>324</ele><time>2020-10-07T10:29:56Z</time><name>PT1324</name></trkpt>
<trkpt lat="53.184262" lon="-2.011701"><ele>324</ele><time>2020-10-07T10:30:01Z</time><name>PT1325</name></trkpt>
<trkpt lat="53.184226" lon="-2.011664"><ele>325</ele><time>2020-10-07T10:30:05Z</time><name>PT1326</name></trkpt>
<trkpt lat="53.184210" lon="-2.011615"><ele>324</ele><time>2020-10-07T10:30:08Z</time><name>PT1327</name></trkpt>
<trkpt lat="53.184194" lon="-2.011585"><ele>325</ele><time>2020-10-07T10:30:11Z</time><name>PT1328</name></trkpt>
<trkpt lat="53.184170" lon="-2.011547"><ele>326</ele><time>2020-10-07T10:30:14Z</time><name>PT1329</name></trkpt>
<trkpt lat="53.184147" lon="-2.011518"><ele>325</ele><time>2020-10-07T10:30:17Z</time><name>PT1330</name></trkpt>
<trkpt lat="53.184119" lon="-2.011472"><ele>325</ele><time>2020-10-07T10:30:22Z</time><name>PT1331</name></trkpt>
<trkpt lat="53.184091" lon="-2.011443"><ele>321</ele><time>2020-10-07T10:30:26Z</time><name>PT1332</name></trkpt>
<trkpt lat="53.184064" lon="-2.011416"><ele>321</ele><time>2020-10-07T10:30:29Z</time><name>PT1333</name></trkpt>
<trkpt lat="53.184042" lon="-2.011407"><ele>320</ele><time>2020-10-07T10:30:32Z</time><name>PT1334</name></trkpt>
<trkpt lat="53.184015" lon="-2.011336"><ele>322</ele><time>2020-10-07T10:30:35Z</time><name>PT1335</name></trkpt>
<trkpt lat="53.183988" lon="-2.011301"><ele>321</ele><time>2020-10-07T10:30:38Z</time><name>PT1336</name></trkpt>
<trkpt lat="53.183933" lon="-2.011240"><ele>320</ele><time>2020-10-07T10:30:43Z</time><name>PT1337</name></trkpt>
<trkpt lat="53.183906" lon="-2.011184"><ele>321</ele><time>2020-10-07T10:30:46Z</time><name>PT1338</name></trkpt>
<trkpt lat="53.183873" lon="-2.011121"><ele>322</ele><time>2020-10-07T10:30:50Z</time><name>PT1339</name></trkpt>
<trkpt lat="53.183830" lon="-2.011052"><ele>320</ele><time>2020-10-07T10:30:53Z</time><name>PT1340</name></trkpt>
<trkpt lat="53.183802" lon="-2.010997"><ele>320</ele><time>2020-10-07T10:30:58Z</time><name>PT1341</name></trkpt>
<trkpt lat="53.183787" lon="-2.010949"><ele>321</ele><time>2020-10-07T10:31:01Z</time><name>PT1342</name></trkpt>
<trkpt lat="53.183776" lon="-2.010909"><ele>322</ele><time>2020-10-07T10:31:05Z</time><name>PT1343</name></trkpt>
<trkpt lat="53.183754" lon="-2.010881"><ele>323</ele><time>2020-10-07T10:31:08Z</time><name>PT1344</name></trkpt>
<trkpt lat="53.183718" lon="-2.010860"><ele>321</ele><time>2020-10-07T10:31:11Z</time><name>PT1345</name></trkpt>
<trkpt lat="53.183678" lon="-2.010791"><ele>323</ele><time>2020-10-07T10:31:16Z</time><name>PT1346</name></trkpt>
<trkpt lat="53.183643" lon="-2.010768"><ele>323</ele><time>2020-10-07T10:31:19Z</time><name>PT1347</name></trkpt>
<trkpt lat="53.183621" lon="-2.010713"><ele>322</ele><time>2020-10-07T10:31:22Z</time><name>PT1348</name></trkpt>
<trkpt lat="53.183588" lon="-2.010665"><ele>322</ele><time>2020-10-07T10:31:26Z</time><name>PT1349</name></trkpt>
<trkpt lat="53.183547" lon="-2.010624"><ele>319</ele><time>2020-10-07T10:31:29Z</time><name>PT1350</name></trkpt>
<trkpt lat="53.183534" lon="-2.010568"><ele>322</ele><time>2020-10-07T10:31:32Z</time><name>PT1351</name></trkpt>
<trkpt lat="53.183516" lon="-2.010557"><ele>321</ele><time>2020-10-07T10:31:35Z</time><name>PT1352</name></trkpt>
<trkpt lat="53.183483" lon="-2.010511"><ele>320</ele><time>2020-10-07T10:31:40Z</time><name>PT1353</name></trkpt>
<trkpt lat="53.183449" lon="-2.010477"><ele>320</ele><time>2020-10-07T10:31:43Z</time><name>PT1354</name></trkpt>
<trkpt lat="53.183423" lon="-2.010436"><ele>319</ele><time>2020-10-07T10:31:46Z</time><name>PT1355</name></trkpt>
<trkpt lat="53.183390" lon="-2.010399"><ele>320</ele><time>2020-10-07T10:31:50Z</time><name>PT1356</name></trkpt>
<trkpt lat="53.183365" lon="-2.010405"><ele>317</ele><time>2020-10-07T10:31:53Z</time><name>PT1357</name></trkpt>
<trkpt lat="53.183327" lon="-2.010364"><ele>315</ele><time>2020-10-07T10:31:56Z</time><name>PT1358</name></trkpt>
<trkpt lat="53.183281" lon="-2.010335"><ele>312</ele><time>2020-10-07T10:32:01Z</time><name>PT1359</name></trkpt>
<trkpt lat="53.183259" lon="-2.010299"><ele>313</ele><time>2020-10-07T10:32:04Z</time><name>PT1360</name></trkpt>
<trkpt lat="53.183211" lon="-2.010236"><ele>315</ele><time>2020-10-07T10:32:08Z</time><name>PT1361</name></trkpt>
<trkpt lat="53.183185" lon="-2.010173"><ele>319</ele><time>2020-10-07T10:32:11Z</time><name>PT1362</name></trkpt>
<trkpt lat="53.183162" lon="-2.010110"><ele>319</ele><time>2020-10-07T10:32:16Z</time><name>PT1363</name></trkpt>
<trkpt lat="53.183145" lon="-2.010056"><ele>319</ele><time>2020-10-07T10:32:19Z</time><name>PT1364</name></trkpt>
<trkpt lat="53.183131" lon="-2.009993"><ele>321</ele><time>2020-10-07T10:32:23Z</time><name>PT1365</name></trkpt>
<trkpt lat="53.183107" lon="-2.009946"><ele>318</ele><time>2020-10-07T10:32:26Z</time><name>PT1366</name></trkpt>
<trkpt lat="53.183083" lon="-2.009863"><ele>318</ele><time>2020-10-07T10:32:29Z</time><name>PT1367</name></trkpt>
<trkpt lat="53.183062" lon="-2.009807"><ele>317</ele><time>2020-10-07T10:32:32Z</time><name>PT1368</name></trkpt>
<trkpt lat="53.183036" lon="-2.009750"><ele>318</ele><time>2020-10-07T10:32:37Z</time><name>PT1369</name></trkpt>
<trkpt lat="53.183010" lon="-2.009698"><ele>322</ele><time>2020-10-07T10:32:41Z</time><name>PT1370</name></trkpt>
<trkpt lat="53.182994" lon="-2.009645"><ele>323</ele><time>2020-10-07T10:32:44Z</time><name>PT1371</name></trkpt>
<trkpt lat="53.182954" lon="-2.009604"><ele>322</ele><time>2020-10-07T10:32:47Z</time><name>PT1372</name></trkpt>
<trkpt lat="53.182936" lon="-2.009599"><ele>323</ele><time>2020-10-07T10:32:50Z</time><name>PT1373</name></trkpt>
<trkpt lat="53.182908" lon="-2.009534"><ele>325</ele><time>2020-10-07T10:32:55Z</time><name>PT1374</name></trkpt>
<trkpt lat="53.182887" lon="-2.009494"><ele>326</ele><time>2020-10-07T10:32:58Z</time><name>PT1375</name></trkpt>
<trkpt lat="53.182860" lon="-2.009436"><ele>326</ele><time>2020-10-07T10:33:02Z</time><name>PT1376</name></trkpt>
<trkpt lat="53.182837" lon="-2.009403"><ele>325</ele><time>2020-10-07T10:33:05Z</time><name>PT1377</name></trkpt>
<trkpt lat="53.182817" lon="-2.009371"><ele>326</ele><time>2020-10-07T10:33:08Z</time><name>PT1378</name></trkpt>
<trkpt lat="53.182802" lon="-2.009353"><ele>329</ele><time>2020-10-07T10:33:11Z</time><name>PT1379</name></trkpt>
<trkpt lat="53.182781" lon="-2.009347"><ele>329</ele><time>2020-10-07T10:33:16Z</time><name>PT1380</name></trkpt>
<trkpt lat="53.182746" lon="-2.009326"><ele>327</ele><time>2020-10-07T10:33:20Z</time><name>PT1381</name></trkpt>
<trkpt lat="53.182715" lon="-2.009323"><ele>327</ele><time>2020-10-07T10:33:23Z</time><name>PT1382</name></trkpt>
<trkpt lat="53.182698" lon="-2.009326"><ele>328</ele><time>2020-10-07T10:33:26Z</time><name>PT1383</name></trkpt>
<trkpt lat="53.182673" lon="-2.009315"><ele>327</ele><time>2020-10-07T10:33:29Z</time><name>PT1384</name></trkpt>
<trkpt lat="53.182646" lon="-2.009287"><ele>329</ele><time>2020-10-07T10:33:32Z</time><name>PT1385</name></trkpt>
<trkpt lat="53.182602" lon="-2.009260"><ele>329</ele><time>2020-10-07T10:33:37Z</time><name>PT1386</name></trkpt>
<trkpt lat="53.182568" lon="-2.009233"><ele>325</ele><time>2020-10-07T10:33:40Z</time><name>PT1387</name></trkpt>
<trkpt lat="53.182531" lon="-2.009209"><ele>324</ele><time>2020-10-07T10:33:44Z</time><name>PT1388</name></trkpt>
<trkpt lat="53.182490" lon="-2.009177"><ele>319</ele><time>2020-10-07T10:33:47Z</time><name>PT1389</name></trkpt>
<trkpt lat="53.182458" lon="-2.009154"><ele>319</ele><time>2020-10-07T10:33:50Z</time><name>PT1390</name></trkpt>
<trkpt lat="53.182433" lon="-2.009131"><ele>319</ele><time>2020-10-07T10:33:53Z</time><name>PT1391</name></trkpt>
<trkpt lat="53.182408" lon="-2.009118"><ele>317</ele><time>2020-10-07T10:33:58Z</time><name>PT1392</name></trkpt>
<trkpt lat="53.182378" lon="-2.009110"><ele>317</ele><time>2020-10-07T10:34:02Z</time><name>PT1393</name></trkpt>
<trkpt lat="53.182334" lon="-2.009077"><ele>319</ele><time>2020-10-07T10:34:05Z</time><name>PT1394</name></trkpt>
<trkpt lat="53.182297" lon="-2.009095"><ele>319</ele><time>2020-10-07T10:34:10Z</time><name>PT1395</name></trkpt>
<trkpt lat="53.182264" lon="-2.009111"><ele>319</ele><time>2020-10-07T10:34:14Z</time><name>PT1396</name></trkpt>
<trkpt lat="53.182232" lon="-2.009122"><ele>317</ele><time>2020-10-07T10:34:17Z</time><name>PT1397</name></trkpt>
<trkpt lat="53.182206" lon="-2.009090"><ele>318</ele><time>2020-10-07T10:34:20Z</time><name>PT1398</name></trkpt>
<trkpt lat="53.182181" lon="-2.009150"><ele>319</ele><time>2020-10-07T10:34:23Z</time><name>PT1399</name></trkpt>
<trkpt lat="53.182158" lon="-2.009151"><ele>321</ele><time>2020-10-07T10:34:26Z</time><name>PT1400</name></trkpt>
<trkpt lat="53.182139" lon="-2.009135"><ele>324</ele><time>2020-10-07T10:34:31Z</time><name>PT1401</name></trkpt>
<trkpt lat="53.182129" lon="-2.009122"><ele>324</ele><time>2020-10-07T10:34:35Z</time><name>PT1402</name></trkpt>
<trkpt lat="53.182093" lon="-2.009113"><ele>326</ele><time>2020-10-07T10:34:38Z</time><name>PT1403</name></trkpt>
<trkpt lat="53.182070" lon="-2.009131"><ele>326</ele><time>2020-10-07T10:34:41Z</time><name>PT1404</name></trkpt>
<trkpt lat="53.182039" lon="-2.009122"><ele>327</ele><time>2020-10-07T10:34:44Z</time><name>PT1405</name></trkpt>
<trkpt lat="53.182007" lon="-2.009110"><ele>329</ele><time>2020-10-07T10:34:49Z</time><name>PT1406</name></trkpt>
<trkpt lat="53.181977" lon="-2.009104"><ele>328</ele><time>2020-10-07T10:34:53Z</time><name>PT1407</name></trkpt>
<trkpt lat="53.181962" lon="-2.009075"><ele>329</ele><time>2020-10-07T10:34:56Z</time><name>PT1408</name></trkpt>
<trkpt lat="53.181938" lon="-2.009030"><ele>331</ele><time>2020-10-07T10:34:59Z</time><name>PT1409</name></trkpt>
<trkpt lat="53.181923" lon="-2.008993"><ele>332</ele><time>2020-10-07T10:35:02Z</time><name>PT1410</name></trkpt>
<trkpt lat="53.181906" lon="-2.008961"><ele>331</ele><time>2020-10-07T10:35:07Z</time><name>PT1411</name></trkpt>
<trkpt lat="53.181891" lon="-2.008926"><ele>329</ele><time>2020-10-07T10:35:10Z</time><name>PT1412</name></trkpt>
<trkpt lat="53.181862" lon="-2.008879"><ele>330</ele><time>2020-10-07T10:35:14Z</time><name>PT1413</name></trkpt>
<trkpt lat="53.181845" lon="-2.008852"><ele>331</ele><time>2020-10-07T10:35:17Z</time><name>PT1414</name></trkpt>
<trkpt lat="53.181831" lon="-2.008877"><ele>331</ele><time>2020-10-07T10:35:20Z</time><name>PT1415</name></trkpt>
<trkpt lat="53.181795" lon="-2.008836"><ele>332</ele><time>2020-10-07T10:35:26Z</time><name>PT1416</name></trkpt>
<trkpt lat="53.181783" lon="-2.008818"><ele>333</ele><time>2020-10-07T10:35:31Z</time><name>PT1417</name></trkpt>
<trkpt lat="53.181772" lon="-2.008793"><ele>333</ele><time>2020-10-07T10:35:34Z</time><name>PT1418</name></trkpt>
<trkpt lat="53.181746" lon="-2.008791"><ele>334</ele><time>2020-10-07T10:35:38Z</time><name>PT1419</name></trkpt>
<trkpt lat="53.181733" lon="-2.008789"><ele>334</ele><time>2020-10-07T10:35:41Z</time><name>PT1420</name></trkpt>
<trkpt lat="53.181709" lon="-2.008767"><ele>335</ele><time>2020-10-07T10:35:44Z</time><name>PT1421</name></trkpt>
<trkpt lat="53.181722" lon="-2.008726"><ele>335</ele><time>2020-10-07T10:35:47Z</time><name>PT1422</name></trkpt>
<trkpt lat="53.181723" lon="-2.008684"><ele>338</ele><time>2020-10-07T10:35:52Z</time><name>PT1423</name></trkpt>
<trkpt lat="53.181726" lon="-2.008657"><ele>338</ele><time>2020-10-07T10:35:55Z</time><name>PT1424</name></trkpt>
<trkpt lat="53.181727" lon="-2.008627"><ele>338</ele><time>2020-10-07T10:35:58Z</time><name>PT1425</name></trkpt>
<trkpt lat="53.181719" lon="-2.008603"><ele>338</ele><time>2020-10-07T10:36:01Z</time><name>PT1426</name></trkpt>
<trkpt lat="53.181703" lon="-2.008543"><ele>336</ele><time>2020-10-07T10:36:05Z</time><name>PT1427</name></trkpt>
<trkpt lat="53.181698" lon="-2.008515"><ele>338</ele><time>2020-10-07T10:36:08Z</time><name>PT1428</name></trkpt>
<trkpt lat="53.181698" lon="-2.008490"><ele>338</ele><time>2020-10-07T10:36:11Z</time><name>PT1429</name></trkpt>
<trkpt lat="53.181697" lon="-2.008471"><ele>337</ele><time>2020-10-07T10:36:14Z</time><name>PT1430</name></trkpt>
<trkpt lat="53.181696" lon="-2.008460"><ele>337</ele><time>2020-10-07T10:36:17Z</time><name>PT1431</name></trkpt>
<trkpt lat="53.181683" lon="-2.008369"><ele>335</ele><time>2020-10-07T10:36:22Z</time><name>PT1432</name></trkpt>
<trkpt lat="53.181661" lon="-2.008343"><ele>334</ele><time>2020-10-07T10:36:25Z</time><name>PT1433</name></trkpt>
<trkpt lat="53.181632" lon="-2.008300"><ele>335</ele><time>2020-10-07T10:36:29Z</time><name>PT1434</name></trkpt>
<trkpt lat="53.181610" lon="-2.008264"><ele>335</ele><time>2020-10-07T10:36:32Z</time><name>PT1435</name></trkpt>
<trkpt lat="53.181575" lon="-2.008242"><ele>335</ele><time>2020-10-07T10:36:37Z</time><name>PT1436</name></trkpt>
<trkpt lat="53.181544" lon="-2.008247"><ele>334</ele><time>2020-10-07T10:36:41Z</time><name>PT1437</name></trkpt>
<trkpt lat="53.181527" lon="-2.008235"><ele>333</ele><time>2020-10-07T10:36:44Z</time><name>PT1438</name></trkpt>
<trkpt lat="53.181501" lon="-2.008224"><ele>332</ele><time>2020-10-07T10:36:47Z</time><name>PT1439</name></trkpt>
<trkpt lat="53.181476" lon="-2.008268"><ele>331</ele><time>2020-10-07T10:36:52Z</time><name>PT1440</name></trkpt>
<trkpt lat="53.181465" lon="-2.008309"><ele>330</ele><time>2020-10-07T10:36:56Z</time><name>PT1441</name></trkpt>
<trkpt lat="53.181441" lon="-2.008290"><ele>328</ele><time>2020-10-07T10:36:59Z</time><name>PT1442</name></trkpt>
<trkpt lat="53.181416" lon="-2.008265"><ele>331</ele><time>2020-10-07T10:37:02Z</time><name>PT1443</name></trkpt>
<trkpt lat="53.181376" lon="-2.008235"><ele>330</ele><time>2020-10-07T10:37:07Z</time><name>PT1444</name></trkpt>
<trkpt lat="53.181352" lon="-2.008193"><ele>333</ele><time>2020-10-07T10:37:10Z</time><name>PT1445</name></trkpt>
<trkpt lat="53.181325" lon="-2.008164"><ele>334</ele><time>2020-10-07T10:37:13Z</time><name>PT1446</name></trkpt>
<trkpt lat="53.181308" lon="-2.008131"><ele>335</ele><time>2020-10-07T10:37:16Z</time><name>PT1447</name></trkpt>
<trkpt lat="53.181278" lon="-2.008099"><ele>338</ele><time>2020-10-07T10:37:19Z</time><name>PT1448</name></trkpt>
<trkpt lat="53.181251" lon="-2.008064"><ele>339</ele><time>2020-10-07T10:37:23Z</time><name>PT1449</name></trkpt>
<trkpt lat="53.181246" lon="-2.008048"><ele>340</ele><time>2020-10-07T10:37:26Z</time><name>PT1450</name></trkpt>
<trkpt lat="53.181209" lon="-2.007998"><ele>340</ele><time>2020-10-07T10:37:31Z</time><name>PT1451</name></trkpt>
<trkpt lat="53.181177" lon="-2.007953"><ele>339</ele><time>2020-10-07T10:37:34Z</time><name>PT1452</name></trkpt>
<trkpt lat="53.181155" lon="-2.007906"><ele>338</ele><time>2020-10-07T10:37:37Z</time><name>PT1453</name></trkpt>
<trkpt lat="53.181138" lon="-2.007861"><ele>338</ele><time>2020-10-07T10:37:40Z</time><name>PT1454</name></trkpt>
<trkpt lat="53.181106" lon="-2.007828"><ele>339</ele><time>2020-10-07T10:37:44Z</time><name>PT1455</name></trkpt>
<trkpt lat="53.181092" lon="-2.007801"><ele>340</ele><time>2020-10-07T10:37:47Z</time><name>PT1456</name></trkpt>
<trkpt lat="53.181078" lon="-2.007783"><ele>340</ele><time>2020-10-07T10:37:50Z</time><name>PT1457</name></trkpt>
<trkpt lat="53.181062" lon="-2.007768"><ele>341</ele><time>2020-10-07T10:37:53Z</time><name>PT1458</name></trkpt>
<trkpt lat="53.181034" lon="-2.007759"><ele>341</ele><time>2020-10-07T10:37:56Z</time><name>PT1459</name></trkpt>
<trkpt lat="53.181018" lon="-2.007743"><ele>345</ele><time>2020-10-07T10:37:59Z</time><name>PT1460</name></trkpt>
<trkpt lat="53.181004" lon="-2.007720"><ele>345</ele><time>2020-10-07T10:38:02Z</time><name>PT1461</name></trkpt>
<trkpt lat="53.180989" lon="-2.007695"><ele>344</ele><time>2020-10-07T10:38:07Z</time><name>PT1462</name></trkpt>
<trkpt lat="53.180976" lon="-2.007685"><ele>344</ele><time>2020-10-07T10:38:10Z</time><name>PT1463</name></trkpt>
<trkpt lat="53.180960" lon="-2.007697"><ele>345</ele><time>2020-10-07T10:38:14Z</time><name>PT1464</name></trkpt>
<trkpt lat="53.180941" lon="-2.007681"><ele>348</ele><time>2020-10-07T10:38:17Z</time><name>PT1465</name></trkpt>
<trkpt lat="53.180923" lon="-2.007673"><ele>348</ele><time>2020-10-07T10:38:20Z</time><name>PT1466</name></trkpt>
<trkpt lat="53.180912" lon="-2.007673"><ele>348</ele><time>2020-10-07T10:38:24Z</time><name>PT1467</name></trkpt>
<trkpt lat="53.180890" lon="-2.007672"><ele>349</ele><time>2020-10-07T10:38:27Z</time><name>PT1468</name></trkpt>
<trkpt lat="53.180862" lon="-2.007677"><ele>351</ele><time>2020-10-07T10:38:30Z</time><name>PT1469</name></trkpt>
<trkpt lat="53.180823" lon="-2.007660"><ele>355</ele><time>2020-10-07T10:38:34Z</time><name>PT1470</name></trkpt>
<trkpt lat="53.180788" lon="-2.007655"><ele>351</ele><time>2020-10-07T10:38:38Z</time><name>PT1471</name></trkpt>
<trkpt lat="53.180759" lon="-2.007636"><ele>351</ele><time>2020-10-07T10:38:41Z</time><name>PT1472</name></trkpt>
<trkpt lat="53.180746" lon="-2.007619"><ele>353</ele><time>2020-10-07T10:38:44Z</time><name>PT1473</name></trkpt>
<trkpt lat="53.180725" lon="-2.007617"><ele>352</ele><time>2020-10-07T10:38:47Z</time><name>PT1474</name></trkpt>
<trkpt lat="53.180696" lon="-2.007604"><ele>353</ele><time>2020-10-07T10:38:52Z</time><name>PT1475</name></trkpt>
<trkpt lat="53.180682" lon="-2.007599"><ele>353</ele><time>2020-10-07T10:38:55Z</time><name>PT1476</name></trkpt>
<trkpt lat="53.180660" lon="-2.007589"><ele>353</ele><time>2020-10-07T10:38:58Z</time><name>PT1477</name></trkpt>
<trkpt lat="53.180645" lon="-2.007576"><ele>355</ele><time>2020-10-07T10:39:02Z</time><name>PT1478</name></trkpt>
<trkpt lat="53.180620" lon="-2.007582"><ele>355</ele><time>2020-10-07T10:39:05Z</time><name>PT1479</name></trkpt>
<trkpt lat="53.180603" lon="-2.007581"><ele>355</ele><time>2020-10-07T10:39:08Z</time><name>PT1480</name></trkpt>
<trkpt lat="53.180572" lon="-2.007581"><ele>356</ele><time>2020-10-07T10:39:13Z</time><name>PT1481</name></trkpt>
<trkpt lat="53.180543" lon="-2.007570"><ele>358</ele><time>2020-10-07T10:39:16Z</time><name>PT1482</name></trkpt>
<trkpt lat="53.180514" lon="-2.007572"><ele>357</ele><time>2020-10-07T10:39:19Z</time><name>PT1483</name></trkpt>
<trkpt lat="53.180472" lon="-2.007560"><ele>357</ele><time>2020-10-07T10:39:23Z</time><name>PT1484</name></trkpt>
<trkpt lat="53.180430" lon="-2.007532"><ele>356</ele><time>2020-10-07T10:39:26Z</time><name>PT1485</name></trkpt>
<trkpt lat="53.180395" lon="-2.007526"><ele>357</ele><time>2020-10-07T10:39:31Z</time><name>PT1486</name></trkpt>
<trkpt lat="53.180371" lon="-2.007522"><ele>360</ele><time>2020-10-07T10:39:34Z</time><name>PT1487</name></trkpt>
<trkpt lat="53.180332" lon="-2.007497"><ele>362</ele><time>2020-10-07T10:39:38Z</time><name>PT1488</name></trkpt>
<trkpt lat="53.180305" lon="-2.007479"><ele>362</ele><time>2020-10-07T10:39:41Z</time><name>PT1489</name></trkpt>
<trkpt lat="53.180282" lon="-2.007465"><ele>363</ele><time>2020-10-07T10:39:44Z</time><name>PT1490</name></trkpt>
<trkpt lat="53.180261" lon="-2.007469"><ele>364</ele><time>2020-10-07T10:39:47Z</time><name>PT1491</name></trkpt>
<trkpt lat="53.180236" lon="-2.007469"><ele>363</ele><time>2020-10-07T10:39:50Z</time><name>PT1492</name></trkpt>
<trkpt lat="53.180203" lon="-2.007462"><ele>363</ele><time>2020-10-07T10:39:55Z</time><name>PT1493</name></trkpt>
<trkpt lat="53.180182" lon="-2.007436"><ele>363</ele><time>2020-10-07T10:39:58Z</time><name>PT1494</name></trkpt>
<trkpt lat="53.180133" lon="-2.007409"><ele>364</ele><time>2020-10-07T10:40:02Z</time><name>PT1495</name></trkpt>
<trkpt lat="53.180106" lon="-2.007394"><ele>365</ele><time>2020-10-07T10:40:05Z</time><name>PT1496</name></trkpt>
<trkpt lat="53.180089" lon="-2.007387"><ele>364</ele><time>2020-10-07T10:40:08Z</time><name>PT1497</name></trkpt>
<trkpt lat="53.180059" lon="-2.007375"><ele>364</ele><time>2020-10-07T10:40:11Z</time><name>PT1498</name></trkpt>
<trkpt lat="53.180031" lon="-2.007385"><ele>366</ele><time>2020-10-07T10:40:14Z</time><name>PT1499</name></trkpt>
<trkpt lat="53.180010" lon="-2.007393"><ele>366</ele><time>2020-10-07T10:40:17Z</time><name>PT1500</name></trkpt>
<trkpt lat="53.179975" lon="-2.007376"><ele>368</ele><time>2020-10-07T10:40:20Z</time><name>PT1501</name></trkpt>
<trkpt lat="53.179940" lon="-2.007381"><ele>368</ele><time>2020-10-07T10:40:25Z</time><name>PT1502</name></trkpt>
<trkpt lat="53.179912" lon="-2.007397"><ele>368</ele><time>2020-10-07T10:40:29Z</time><name>PT1503</name></trkpt>
<trkpt lat="53.179888" lon="-2.007402"><ele>368</ele><time>2020-10-07T10:40:32Z</time><name>PT1504</name></trkpt>
<trkpt lat="53.179863" lon="-2.007411"><ele>368</ele><time>2020-10-07T10:40:35Z</time><name>PT1505</name></trkpt>
<trkpt lat="53.179841" lon="-2.007417"><ele>369</ele><time>2020-10-07T10:40:38Z</time><name>PT1506</name></trkpt>
<trkpt lat="53.179809" lon="-2.007434"><ele>370</ele><time>2020-10-07T10:40:41Z</time><name>PT1507</name></trkpt>
<trkpt lat="53.179782" lon="-2.007450"><ele>370</ele><time>2020-10-07T10:40:44Z</time><name>PT1508</name></trkpt>
<trkpt lat="53.179751" lon="-2.007481"><ele>370</ele><time>2020-10-07T10:40:49Z</time><name>PT1509</name></trkpt>
<trkpt lat="53.179723" lon="-2.007490"><ele>370</ele><time>2020-10-07T10:40:53Z</time><name>PT1510</name></trkpt>
<trkpt lat="53.179698" lon="-2.007515"><ele>370</ele><time>2020-10-07T10:40:56Z</time><name>PT1511</name></trkpt>
<trkpt lat="53.179672" lon="-2.007526"><ele>370</ele><time>2020-10-07T10:40:59Z</time><name>PT1512</name></trkpt>
<trkpt lat="53.179650" lon="-2.007536"><ele>370</ele><time>2020-10-07T10:41:02Z</time><name>PT1513</name></trkpt>
<trkpt lat="53.179615" lon="-2.007544"><ele>369</ele><time>2020-10-07T10:41:07Z</time><name>PT1514</name></trkpt>
<trkpt lat="53.179593" lon="-2.007568"><ele>369</ele><time>2020-10-07T10:41:10Z</time><name>PT1515</name></trkpt>
<trkpt lat="53.179552" lon="-2.007583"><ele>369</ele><time>2020-10-07T10:41:14Z</time><name>PT1516</name></trkpt>
<trkpt lat="53.179524" lon="-2.007594"><ele>370</ele><time>2020-10-07T10:41:17Z</time><name>PT1517</name></trkpt>
<trkpt lat="53.179489" lon="-2.007616"><ele>370</ele><time>2020-10-07T10:41:22Z</time><name>PT1518</name></trkpt>
<trkpt lat="53.179476" lon="-2.007621"><ele>370</ele><time>2020-10-07T10:41:25Z</time><name>PT1519</name></trkpt>
<trkpt lat="53.179456" lon="-2.007632"><ele>370</ele><time>2020-10-07T10:41:28Z</time><name>PT1520</name></trkpt>
<trkpt lat="53.179427" lon="-2.007651"><ele>370</ele><time>2020-10-07T10:41:32Z</time><name>PT1521</name></trkpt>
<trkpt lat="53.179408" lon="-2.007661"><ele>371</ele><time>2020-10-07T10:41:35Z</time><name>PT1522</name></trkpt>
<trkpt lat="53.179372" lon="-2.007682"><ele>371</ele><time>2020-10-07T10:41:38Z</time><name>PT1523</name></trkpt>
<trkpt lat="53.179337" lon="-2.007705"><ele>374</ele><time>2020-10-07T10:41:41Z</time><name>PT1524</name></trkpt>
<trkpt lat="53.179324" lon="-2.007749"><ele>376</ele><time>2020-10-07T10:41:44Z</time><name>PT1525</name></trkpt>
<trkpt lat="53.179292" lon="-2.007784"><ele>378</ele><time>2020-10-07T10:41:49Z</time><name>PT1526</name></trkpt>
<trkpt lat="53.179262" lon="-2.007806"><ele>379</ele><time>2020-10-07T10:41:52Z</time><name>PT1527</name></trkpt>
<trkpt lat="53.179227" lon="-2.007834"><ele>379</ele><time>2020-10-07T10:41:56Z</time><name>PT1528</name></trkpt>
<trkpt lat="53.179199" lon="-2.007843"><ele>380</ele><time>2020-10-07T10:41:59Z</time><name>PT1529</name></trkpt>
<trkpt lat="53.179159" lon="-2.007851"><ele>379</ele><time>2020-10-07T10:42:02Z</time><name>PT1530</name></trkpt>
<trkpt lat="53.179133" lon="-2.007864"><ele>380</ele><time>2020-10-07T10:42:05Z</time><name>PT1531</name></trkpt>
<trkpt lat="53.179103" lon="-2.007875"><ele>381</ele><time>2020-10-07T10:42:08Z</time><name>PT1532</name></trkpt>
<trkpt lat="53.179065" lon="-2.007887"><ele>383</ele><time>2020-10-07T10:42:13Z</time><name>PT1533</name></trkpt>
<trkpt lat="53.179029" lon="-2.007887"><ele>382</ele><time>2020-10-07T10:42:17Z</time><name>PT1534</name></trkpt>
<trkpt lat="53.178994" lon="-2.007887"><ele>383</ele><time>2020-10-07T10:42:20Z</time><name>PT1535</name></trkpt>
<trkpt lat="53.178969" lon="-2.007898"><ele>383</ele><time>2020-10-07T10:42:23Z</time><name>PT1536</name></trkpt>
<trkpt lat="53.178937" lon="-2.007906"><ele>385</ele><time>2020-10-07T10:42:26Z</time><name>PT1537</name></trkpt>
<trkpt lat="53.178894" lon="-2.007914"><ele>386</ele><time>2020-10-07T10:42:31Z</time><name>PT1538</name></trkpt>
<trkpt lat="53.178867" lon="-2.007931"><ele>385</ele><time>2020-10-07T10:42:34Z</time><name>PT1539</name></trkpt>
<trkpt lat="53.178836" lon="-2.007941"><ele>384</ele><time>2020-10-07T10:42:38Z</time><name>PT1540</name></trkpt>
<trkpt lat="53.178806" lon="-2.007942"><ele>385</ele><time>2020-10-07T10:42:41Z</time><name>PT1541</name></trkpt>
<trkpt lat="53.178767" lon="-2.007943"><ele>387</ele><time>2020-10-07T10:42:44Z</time><name>PT1542</name></trkpt>
<trkpt lat="53.178745" lon="-2.007950"><ele>389</ele><time>2020-10-07T10:42:47Z</time><name>PT1543</name></trkpt>
<trkpt lat="53.178721" lon="-2.007954"><ele>390</ele><time>2020-10-07T10:42:51Z</time><name>PT1544</name></trkpt>
<trkpt lat="53.178690" lon="-2.007959"><ele>391</ele><time>2020-10-07T10:42:55Z</time><name>PT1545</name></trkpt>
<trkpt lat="53.178662" lon="-2.007981"><ele>391</ele><time>2020-10-07T10:42:59Z</time><name>PT1546</name></trkpt>
<trkpt lat="53.178630" lon="-2.008001"><ele>392</ele><time>2020-10-07T10:43:03Z</time><name>PT1547</name></trkpt>
<trkpt lat="53.178606" lon="-2.008025"><ele>392</ele><time>2020-10-07T10:43:07Z</time><name>PT1548</name></trkpt>
<trkpt lat="53.178584" lon="-2.008030"><ele>390</ele><time>2020-10-07T10:43:10Z</time><name>PT1549</name></trkpt>
<trkpt lat="53.178553" lon="-2.008040"><ele>391</ele><time>2020-10-07T10:43:13Z</time><name>PT1550</name></trkpt>
<trkpt lat="53.178525" lon="-2.008057"><ele>392</ele><time>2020-10-07T10:43:16Z</time><name>PT1551</name></trkpt>
<trkpt lat="53.178498" lon="-2.008071"><ele>393</ele><time>2020-10-07T10:43:21Z</time><name>PT1552</name></trkpt>
<trkpt lat="53.178464" lon="-2.008076"><ele>394</ele><time>2020-10-07T10:43:25Z</time><name>PT1553</name></trkpt>
<trkpt lat="53.178453" lon="-2.008066"><ele>394</ele><time>2020-10-07T10:43:28Z</time><name>PT1554</name></trkpt>
<trkpt lat="53.178426" lon="-2.008073"><ele>394</ele><time>2020-10-07T10:43:31Z</time><name>PT1555</name></trkpt>
<trkpt lat="53.178396" lon="-2.008072"><ele>395</ele><time>2020-10-07T10:43:36Z</time><name>PT1556</name></trkpt>
<trkpt lat="53.178369" lon="-2.008102"><ele>397</ele><time>2020-10-07T10:43:40Z</time><name>PT1557</name></trkpt>
<trkpt lat="53.178340" lon="-2.008114"><ele>396</ele><time>2020-10-07T10:43:43Z</time><name>PT1558</name></trkpt>
<trkpt lat="53.178313" lon="-2.008118"><ele>397</ele><time>2020-10-07T10:43:46Z</time><name>PT1559</name></trkpt>
<trkpt lat="53.178282" lon="-2.008112"><ele>397</ele><time>2020-10-07T10:43:49Z</time><name>PT1560</name></trkpt>
<trkpt lat="53.178243" lon="-2.008094"><ele>397</ele><time>2020-10-07T10:43:52Z</time><name>PT1561</name></trkpt>
<trkpt lat="53.178208" lon="-2.008059"><ele>398</ele><time>2020-10-07T10:43:55Z</time><name>PT1562</name></trkpt>
<trkpt lat="53.178169" lon="-2.008037"><ele>398</ele><time>2020-10-07T10:44:00Z</time><name>PT1563</name></trkpt>
<trkpt lat="53.178138" lon="-2.008029"><ele>398</ele><time>2020-10-07T10:44:03Z</time><name>PT1564</name></trkpt>
<trkpt lat="53.178094" lon="-2.008045"><ele>399</ele><time>2020-10-07T10:44:07Z</time><name>PT1565</name></trkpt>
<trkpt lat="53.178059" lon="-2.008059"><ele>399</ele><time>2020-10-07T10:44:10Z</time><name>PT1566</name></trkpt>
<trkpt lat="53.178033" lon="-2.008075"><ele>400</ele><time>2020-10-07T10:44:15Z</time><name>PT1567</name></trkpt>
<trkpt lat="53.178015" lon="-2.008079"><ele>400</ele><time>2020-10-07T10:44:18Z</time><name>PT1568</name></trkpt>
<trkpt lat="53.177988" lon="-2.008049"><ele>400</ele><time>2020-10-07T10:44:21Z</time><name>PT1569</name></trkpt>
<trkpt lat="53.177962" lon="-2.008026"><ele>400</ele><time>2020-10-07T10:44:24Z</time><name>PT1570</name></trkpt>
<trkpt lat="53.177915" lon="-2.008012"><ele>401</ele><time>2020-10-07T10:44:28Z</time><name>PT1571</name></trkpt>
<trkpt lat="53.177889" lon="-2.008021"><ele>402</ele><time>2020-10-07T10:44:31Z</time><name>PT1572</name></trkpt>
<trkpt lat="53.177845" lon="-2.008013"><ele>403</ele><time>2020-10-07T10:44:34Z</time><name>PT1573</name></trkpt>
<trkpt lat="53.177806" lon="-2.008010"><ele>402</ele><time>2020-10-07T10:44:39Z</time><name>PT1574</name></trkpt>
<trkpt lat="53.177778" lon="-2.008015"><ele>402</ele><time>2020-10-07T10:44:42Z</time><name>PT1575</name></trkpt>
<trkpt lat="53.177743" lon="-2.008016"><ele>404</ele><time>2020-10-07T10:44:45Z</time><name>PT1576</name></trkpt>
<trkpt lat="53.177714" lon="-2.008015"><ele>404</ele><time>2020-10-07T10:44:48Z</time><name>PT1577</name></trkpt>
<trkpt lat="53.177676" lon="-2.008011"><ele>406</ele><time>2020-10-07T10:44:52Z</time><name>PT1578</name></trkpt>
<trkpt lat="53.177643" lon="-2.008003"><ele>407</ele><time>2020-10-07T10:44:55Z</time><name>PT1579</name></trkpt>
<trkpt lat="53.177628" lon="-2.008023"><ele>407</ele><time>2020-10-07T10:45:00Z</time><name>PT1580</name></trkpt>
<trkpt lat="53.177617" lon="-2.008017"><ele>407</ele><time>2020-10-07T10:45:04Z</time><name>PT1581</name></trkpt>
<trkpt lat="53.177602" lon="-2.008007"><ele>408</ele><time>2020-10-07T10:45:07Z</time><name>PT1582</name></trkpt>
<trkpt lat="53.177583" lon="-2.008004"><ele>408</ele><time>2020-10-07T10:45:15Z</time><name>PT1583</name></trkpt>
<trkpt lat="53.177577" lon="-2.007998"><ele>408</ele><time>2020-10-07T10:45:19Z</time><name>PT1584</name></trkpt>
<trkpt lat="53.177555" lon="-2.007990"><ele>408</ele><time>2020-10-07T10:45:22Z</time><name>PT1585</name></trkpt>
<trkpt lat="53.177526" lon="-2.007958"><ele>407</ele><time>2020-10-07T10:45:25Z</time><name>PT1586</name></trkpt>
<trkpt lat="53.177503" lon="-2.007903"><ele>408</ele><time>2020-10-07T10:45:28Z</time><name>PT1587</name></trkpt>
<trkpt lat="53.177495" lon="-2.007828"><ele>408</ele><time>2020-10-07T10:45:31Z</time><name>PT1588</name></trkpt>
<trkpt lat="53.177484" lon="-2.007775"><ele>409</ele><time>2020-10-07T10:45:34Z</time><name>PT1589</name></trkpt>
<trkpt lat="53.177455" lon="-2.007747"><ele>410</ele><time>2020-10-07T10:45:39Z</time><name>PT1590</name></trkpt>
<trkpt lat="53.177429" lon="-2.007687"><ele>410</ele><time>2020-10-07T10:45:43Z</time><name>PT1591</name></trkpt>
<trkpt lat="53.177411" lon="-2.007659"><ele>410</ele><time>2020-10-07T10:45:46Z</time><name>PT1592</name></trkpt>
<trkpt lat="53.177381" lon="-2.007610"><ele>412</ele><time>2020-10-07T10:45:49Z</time><name>PT1593</name></trkpt>
<trkpt lat="53.177358" lon="-2.007563"><ele>412</ele><time>2020-10-07T10:45:52Z</time><name>PT1594</name></trkpt>
<trkpt lat="53.177321" lon="-2.007503"><ele>412</ele><time>2020-10-07T10:45:57Z</time><name>PT1595</name></trkpt>
<trkpt lat="53.177303" lon="-2.007475"><ele>413</ele><time>2020-10-07T10:46:01Z</time><name>PT1596</name></trkpt>
<trkpt lat="53.177294" lon="-2.007433"><ele>413</ele><time>2020-10-07T10:46:04Z</time><name>PT1597</name></trkpt>
<trkpt lat="53.177274" lon="-2.007373"><ele>413</ele><time>2020-10-07T10:46:07Z</time><name>PT1598</name></trkpt>
<trkpt lat="53.177257" lon="-2.007333"><ele>413</ele><time>2020-10-07T10:46:10Z</time><name>PT1599</name></trkpt>
<trkpt lat="53.177240" lon="-2.007302"><ele>414</ele><time>2020-10-07T10:46:13Z</time><name>PT1600</name></trkpt>
<trkpt lat="53.177213" lon="-2.007258"><ele>416</ele><time>2020-10-07T10:46:18Z</time><name>PT1601</name></trkpt>
<trkpt lat="53.177185" lon="-2.007240"><ele>416</ele><time>2020-10-07T10:46:22Z</time><name>PT1602</name></trkpt>
<trkpt lat="53.177167" lon="-2.007207"><ele>417</ele><time>2020-10-07T10:46:25Z</time><name>PT1603</name></trkpt>
<trkpt lat="53.177143" lon="-2.007172"><ele>417</ele><time>2020-10-07T10:46:28Z</time><name>PT1604</name></trkpt>
<trkpt lat="53.177132" lon="-2.007143"><ele>417</ele><time>2020-10-07T10:46:31Z</time><name>PT1605</name></trkpt>
<trkpt lat="53.177117" lon="-2.007103"><ele>419</ele><time>2020-10-07T10:46:36Z</time><name>PT1606</name></trkpt>
<trkpt lat="53.177101" lon="-2.007069"><ele>419</ele><time>2020-10-07T10:46:39Z</time><name>PT1607</name></trkpt>
<trkpt lat="53.177086" lon="-2.007037"><ele>420</ele><time>2020-10-07T10:46:42Z</time><name>PT1608</name></trkpt>
<trkpt lat="53.177066" lon="-2.006995"><ele>419</ele><time>2020-10-07T10:46:46Z</time><name>PT1609</name></trkpt>
<trkpt lat="53.177052" lon="-2.006955"><ele>421</ele><time>2020-10-07T10:46:49Z</time><name>PT1610</name></trkpt>
<trkpt lat="53.177035" lon="-2.006913"><ele>421</ele><time>2020-10-07T10:46:52Z</time><name>PT1611</name></trkpt>
<trkpt lat="53.177016" lon="-2.006852"><ele>422</ele><time>2020-10-07T10:46:57Z</time><name>PT1612</name></trkpt>
<trkpt lat="53.177000" lon="-2.006807"><ele>423</ele><time>2020-10-07T10:47:00Z</time><name>PT1613</name></trkpt>
<trkpt lat="53.176988" lon="-2.006760"><ele>423</ele><time>2020-10-07T10:47:03Z</time><name>PT1614</name></trkpt>
<trkpt lat="53.176970" lon="-2.006714"><ele>424</ele><time>2020-10-07T10:47:07Z</time><name>PT1615</name></trkpt>
<trkpt lat="53.176955" lon="-2.006669"><ele>424</ele><time>2020-10-07T10:47:10Z</time><name>PT1616</name></trkpt>
<trkpt lat="53.176934" lon="-2.006625"><ele>426</ele><time>2020-10-07T10:47:15Z</time><name>PT1617</name></trkpt>
<trkpt lat="53.176919" lon="-2.006578"><ele>426</ele><time>2020-10-07T10:47:19Z</time><name>PT1618</name></trkpt>
<trkpt lat="53.176906" lon="-2.006538"><ele>427</ele><time>2020-10-07T10:47:22Z</time><name>PT1619</name></trkpt>
<trkpt lat="53.176880" lon="-2.006491"><ele>427</ele><time>2020-10-07T10:47:25Z</time><name>PT1620</name></trkpt>
<trkpt lat="53.176856" lon="-2.006467"><ele>427</ele><time>2020-10-07T10:47:30Z</time><name>PT1621</name></trkpt>
<trkpt lat="53.176846" lon="-2.006436"><ele>428</ele><time>2020-10-07T10:47:33Z</time><name>PT1622</name></trkpt>
<trkpt lat="53.176836" lon="-2.006369"><ele>429</ele><time>2020-10-07T10:47:37Z</time><name>PT1623</name></trkpt>
<trkpt lat="53.176827" lon="-2.006327"><ele>430</ele><time>2020-10-07T10:47:40Z</time><name>PT1624</name></trkpt>
<trkpt lat="53.176815" lon="-2.006286"><ele>430</ele><time>2020-10-07T10:47:43Z</time><name>PT1625</name></trkpt>
<trkpt lat="53.176801" lon="-2.006247"><ele>431</ele><time>2020-10-07T10:47:46Z</time><name>PT1626</name></trkpt>
<trkpt lat="53.176789" lon="-2.006188"><ele>432</ele><time>2020-10-07T10:47:51Z</time><name>PT1627</name></trkpt>
<trkpt lat="53.176777" lon="-2.006143"><ele>433</ele><time>2020-10-07T10:47:54Z</time><name>PT1628</name></trkpt>
<trkpt lat="53.176751" lon="-2.006097"><ele>434</ele><time>2020-10-07T10:47:58Z</time><name>PT1629</name></trkpt>
<trkpt lat="53.176730" lon="-2.006056"><ele>435</ele><time>2020-10-07T10:48:01Z</time><name>PT1630</name></trkpt>
<trkpt lat="53.176699" lon="-2.006036"><ele>436</ele><time>2020-10-07T10:48:06Z</time><name>PT1631</name></trkpt>
<trkpt lat="53.176677" lon="-2.006006"><ele>437</ele><time>2020-10-07T10:48:09Z</time><name>PT1632</name></trkpt>
<trkpt lat="53.176646" lon="-2.005950"><ele>438</ele><time>2020-10-07T10:48:13Z</time><name>PT1633</name></trkpt>
<trkpt lat="53.176626" lon="-2.005916"><ele>438</ele><time>2020-10-07T10:48:16Z</time><name>PT1634</name></trkpt>
<trkpt lat="53.176595" lon="-2.005868"><ele>439</ele><time>2020-10-07T10:48:19Z</time><name>PT1635</name></trkpt>
<trkpt lat="53.176571" lon="-2.005834"><ele>440</ele><time>2020-10-07T10:48:22Z</time><name>PT1636</name></trkpt>
<trkpt lat="53.176550" lon="-2.005808"><ele>440</ele><time>2020-10-07T10:48:25Z</time><name>PT1637</name></trkpt>
<trkpt lat="53.176516" lon="-2.005753"><ele>440</ele><time>2020-10-07T10:48:30Z</time><name>PT1638</name></trkpt>
<trkpt lat="53.176485" lon="-2.005696"><ele>440</ele><time>2020-10-07T10:48:34Z</time><name>PT1639</name></trkpt>
<trkpt lat="53.176460" lon="-2.005656"><ele>441</ele><time>2020-10-07T10:48:37Z</time><name>PT1640</name></trkpt>
<trkpt lat="53.176426" lon="-2.005603"><ele>442</ele><time>2020-10-07T10:48:41Z</time><name>PT1641</name></trkpt>
<trkpt lat="53.176403" lon="-2.005539"><ele>442</ele><time>2020-10-07T10:48:45Z</time><name>PT1642</name></trkpt>
<trkpt lat="53.176391" lon="-2.005500"><ele>442</ele><time>2020-10-07T10:48:48Z</time><name>PT1643</name></trkpt>
<trkpt lat="53.176370" lon="-2.005445"><ele>441</ele><time>2020-10-07T10:48:52Z</time><name>PT1644</name></trkpt>
<trkpt lat="53.176350" lon="-2.005375"><ele>441</ele><time>2020-10-07T10:48:55Z</time><name>PT1645</name></trkpt>
<trkpt lat="53.176335" lon="-2.005310"><ele>442</ele><time>2020-10-07T10:49:00Z</time><name>PT1646</name></trkpt>
<trkpt lat="53.176322" lon="-2.005238"><ele>442</ele><time>2020-10-07T10:49:04Z</time><name>PT1647</name></trkpt>
<trkpt lat="53.176307" lon="-2.005185"><ele>442</ele><time>2020-10-07T10:49:07Z</time><name>PT1648</name></trkpt>
<trkpt lat="53.176295" lon="-2.005137"><ele>442</ele><time>2020-10-07T10:49:10Z</time><name>PT1649</name></trkpt>
<trkpt lat="53.176274" lon="-2.005081"><ele>442</ele><time>2020-10-07T10:49:13Z</time><name>PT1650</name></trkpt>
<trkpt lat="53.176253" lon="-2.005015"><ele>443</ele><time>2020-10-07T10:49:16Z</time><name>PT1651</name></trkpt>
<trkpt lat="53.176235" lon="-2.004972"><ele>443</ele><time>2020-10-07T10:49:19Z</time><name>PT1652</name></trkpt>
<trkpt lat="53.176214" lon="-2.004913"><ele>442</ele><time>2020-10-07T10:49:22Z</time><name>PT1653</name></trkpt>
<trkpt lat="53.176196" lon="-2.004861"><ele>443</ele><time>2020-10-07T10:49:27Z</time><name>PT1654</name></trkpt>
<trkpt lat="53.176184" lon="-2.004793"><ele>443</ele><time>2020-10-07T10:49:31Z</time><name>PT1655</name></trkpt>
<trkpt lat="53.176178" lon="-2.004756"><ele>442</ele><time>2020-10-07T10:49:34Z</time><name>PT1656</name></trkpt>
<trkpt lat="53.176163" lon="-2.004688"><ele>443</ele><time>2020-10-07T10:49:37Z</time><name>PT1657</name></trkpt>
<trkpt lat="53.176142" lon="-2.004644"><ele>443</ele><time>2020-10-07T10:49:40Z</time><name>PT1658</name></trkpt>
<trkpt lat="53.176119" lon="-2.004613"><ele>444</ele><time>2020-10-07T10:49:43Z</time><name>PT1659</name></trkpt>
<trkpt lat="53.176088" lon="-2.004558"><ele>444</ele><time>2020-10-07T10:49:46Z</time><name>PT1660</name></trkpt>
<trkpt lat="53.176048" lon="-2.004531"><ele>444</ele><time>2020-10-07T10:49:51Z</time><name>PT1661</name></trkpt>
<trkpt lat="53.176010" lon="-2.004500"><ele>444</ele><time>2020-10-07T10:49:55Z</time><name>PT1662</name></trkpt>
<trkpt lat="53.175977" lon="-2.004474"><ele>445</ele><time>2020-10-07T10:49:58Z</time><name>PT1663</name></trkpt>
<trkpt lat="53.175955" lon="-2.004445"><ele>446</ele><time>2020-10-07T10:50:01Z</time><name>PT1664</name></trkpt>
<trkpt lat="53.175926" lon="-2.004416"><ele>446</ele><time>2020-10-07T10:50:06Z</time><name>PT1665</name></trkpt>
<trkpt lat="53.175890" lon="-2.004383"><ele>447</ele><time>2020-10-07T10:50:09Z</time><name>PT1666</name></trkpt>
<trkpt lat="53.175863" lon="-2.004336"><ele>448</ele><time>2020-10-07T10:50:13Z</time><name>PT1667</name></trkpt>
<trkpt lat="53.175841" lon="-2.004305"><ele>448</ele><time>2020-10-07T10:50:16Z</time><name>PT1668</name></trkpt>
<trkpt lat="53.175808" lon="-2.004250"><ele>449</ele><time>2020-10-07T10:50:19Z</time><name>PT1669</name></trkpt>
<trkpt lat="53.175777" lon="-2.004195"><ele>450</ele><time>2020-10-07T10:50:24Z</time><name>PT1670</name></trkpt>
<trkpt lat="53.175759" lon="-2.004139"><ele>450</ele><time>2020-10-07T10:50:28Z</time><name>PT1671</name></trkpt>
<trkpt lat="53.175740" lon="-2.004109"><ele>450</ele><time>2020-10-07T10:50:31Z</time><name>PT1672</name></trkpt>
<trkpt lat="53.175719" lon="-2.004064"><ele>452</ele><time>2020-10-07T10:50:34Z</time><name>PT1673</name></trkpt>
<trkpt lat="53.175693" lon="-2.004003"><ele>452</ele><time>2020-10-07T10:50:37Z</time><name>PT1674</name></trkpt>
<trkpt lat="53.175676" lon="-2.003971"><ele>452</ele><time>2020-10-07T10:50:40Z</time><name>PT1675</name></trkpt>
<trkpt lat="53.175645" lon="-2.003912"><ele>453</ele><time>2020-10-07T10:50:45Z</time><name>PT1676</name></trkpt>
<trkpt lat="53.175625" lon="-2.003868"><ele>454</ele><time>2020-10-07T10:50:48Z</time><name>PT1677</name></trkpt>
<trkpt lat="53.175603" lon="-2.003823"><ele>455</ele><time>2020-10-07T10:50:51Z</time><name>PT1678</name></trkpt>
<trkpt lat="53.175592" lon="-2.003773"><ele>454</ele><time>2020-10-07T10:50:54Z</time><name>PT1679</name></trkpt>
<trkpt lat="53.175577" lon="-2.003707"><ele>454</ele><time>2020-10-07T10:50:58Z</time><name>PT1680</name></trkpt>
<trkpt lat="53.175567" lon="-2.003663"><ele>455</ele><time>2020-10-07T10:51:01Z</time><name>PT1681</name></trkpt>
<trkpt lat="53.175550" lon="-2.003622"><ele>455</ele><time>2020-10-07T10:51:04Z</time><name>PT1682</name></trkpt>
<trkpt lat="53.175534" lon="-2.003575"><ele>456</ele><time>2020-10-07T10:51:07Z</time><name>PT1683</name></trkpt>
<trkpt lat="53.175504" lon="-2.003519"><ele>457</ele><time>2020-10-07T10:51:10Z</time><name>PT1684</name></trkpt>
<trkpt lat="53.175489" lon="-2.003493"><ele>457</ele><time>2020-10-07T10:51:13Z</time><name>PT1685</name></trkpt>
<trkpt lat="53.175473" lon="-2.003473"><ele>458</ele><time>2020-10-07T10:51:16Z</time><name>PT1686</name></trkpt>
<trkpt lat="53.175463" lon="-2.003423"><ele>458</ele><time>2020-10-07T10:51:21Z</time><name>PT1687</name></trkpt>
<trkpt lat="53.175454" lon="-2.003382"><ele>459</ele><time>2020-10-07T10:51:24Z</time><name>PT1688</name></trkpt>
<trkpt lat="53.175430" lon="-2.003346"><ele>459</ele><time>2020-10-07T10:51:27Z</time><name>PT1689</name></trkpt>
<trkpt lat="53.175396" lon="-2.003294"><ele>460</ele><time>2020-10-07T10:51:31Z</time><name>PT1690</name></trkpt>
<trkpt lat="53.175363" lon="-2.003264"><ele>460</ele><time>2020-10-07T10:51:34Z</time><name>PT1691</name></trkpt>
<trkpt lat="53.175338" lon="-2.003238"><ele>461</ele><time>2020-10-07T10:51:37Z</time><name>PT1692</name></trkpt>
<trkpt lat="53.175297" lon="-2.003182"><ele>462</ele><time>2020-10-07T10:51:40Z</time><name>PT1693</name></trkpt>
<trkpt lat="53.175270" lon="-2.003151"><ele>462</ele><time>2020-10-07T10:51:43Z</time><name>PT1694</name></trkpt>
<trkpt lat="53.175243" lon="-2.003116"><ele>462</ele><time>2020-10-07T10:51:47Z</time><name>PT1695</name></trkpt>
<trkpt lat="53.175210" lon="-2.003085"><ele>462</ele><time>2020-10-07T10:51:51Z</time><name>PT1696</name></trkpt>
<trkpt lat="53.175185" lon="-2.003042"><ele>462</ele><time>2020-10-07T10:51:54Z</time><name>PT1697</name></trkpt>
<trkpt lat="53.175152" lon="-2.002993"><ele>463</ele><time>2020-10-07T10:51:57Z</time><name>PT1698</name></trkpt>
<trkpt lat="53.175122" lon="-2.002938"><ele>463</ele><time>2020-10-07T10:52:01Z</time><name>PT1699</name></trkpt>
<trkpt lat="53.175084" lon="-2.002889"><ele>463</ele><time>2020-10-07T10:52:04Z</time><name>PT1700</name></trkpt>
<trkpt lat="53.175063" lon="-2.002853"><ele>464</ele><time>2020-10-07T10:52:07Z</time><name>PT1701</name></trkpt>
<trkpt lat="53.175045" lon="-2.002803"><ele>465</ele><time>2020-10-07T10:52:12Z</time><name>PT1702</name></trkpt>
<trkpt lat="53.175030" lon="-2.002765"><ele>465</ele><time>2020-10-07T10:52:16Z</time><name>PT1703</name></trkpt>
<trkpt lat="53.175010" lon="-2.002736"><ele>465</ele><time>2020-10-07T10:52:19Z</time><name>PT1704</name></trkpt>
<trkpt lat="53.174991" lon="-2.002692"><ele>465</ele><time>2020-10-07T10:52:22Z</time><name>PT1705</name></trkpt>
<trkpt lat="53.174967" lon="-2.002634"><ele>466</ele><time>2020-10-07T10:52:25Z</time><name>PT1706</name></trkpt>
<trkpt lat="53.174943" lon="-2.002598"><ele>466</ele><time>2020-10-07T10:52:28Z</time><name>PT1707</name></trkpt>
<trkpt lat="53.174905" lon="-2.002571"><ele>466</ele><time>2020-10-07T10:52:33Z</time><name>PT1708</name></trkpt>
<trkpt lat="53.174859" lon="-2.002540"><ele>466</ele><time>2020-10-07T10:52:37Z</time><name>PT1709</name></trkpt>
<trkpt lat="53.174827" lon="-2.002512"><ele>467</ele><time>2020-10-07T10:52:40Z</time><name>PT1710</name></trkpt>
<trkpt lat="53.174789" lon="-2.002490"><ele>467</ele><time>2020-10-07T10:52:43Z</time><name>PT1711</name></trkpt>
<trkpt lat="53.174763" lon="-2.002470"><ele>468</ele><time>2020-10-07T10:52:46Z</time><name>PT1712</name></trkpt>
<trkpt lat="53.174743" lon="-2.002452"><ele>469</ele><time>2020-10-07T10:52:49Z</time><name>PT1713</name></trkpt>
<trkpt lat="53.174722" lon="-2.002440"><ele>470</ele><time>2020-10-07T10:52:52Z</time><name>PT1714</name></trkpt>
<trkpt lat="53.174697" lon="-2.002416"><ele>470</ele><time>2020-10-07T10:52:57Z</time><name>PT1715</name></trkpt>
<trkpt lat="53.174678" lon="-2.002385"><ele>471</ele><time>2020-10-07T10:53:00Z</time><name>PT1716</name></trkpt>
<trkpt lat="53.174648" lon="-2.002376"><ele>471</ele><time>2020-10-07T10:53:04Z</time><name>PT1717</name></trkpt>
<trkpt lat="53.174613" lon="-2.002348"><ele>472</ele><time>2020-10-07T10:53:07Z</time><name>PT1718</name></trkpt>
<trkpt lat="53.174583" lon="-2.002309"><ele>473</ele><time>2020-10-07T10:53:12Z</time><name>PT1719</name></trkpt>
<trkpt lat="53.174563" lon="-2.002271"><ele>474</ele><time>2020-10-07T10:53:15Z</time><name>PT1720</name></trkpt>
<trkpt lat="53.174546" lon="-2.002229"><ele>475</ele><time>2020-10-07T10:53:19Z</time><name>PT1721</name></trkpt>
<trkpt lat="53.174530" lon="-2.002206"><ele>474</ele><time>2020-10-07T10:53:22Z</time><name>PT1722</name></trkpt>
<trkpt lat="53.174508" lon="-2.002168"><ele>474</ele><time>2020-10-07T10:53:25Z</time><name>PT1723</name></trkpt>
<trkpt lat="53.174474" lon="-2.002099"><ele>475</ele><time>2020-10-07T10:53:28Z</time><name>PT1724</name></trkpt>
<trkpt lat="53.174457" lon="-2.002059"><ele>475</ele><time>2020-10-07T10:53:31Z</time><name>PT1725</name></trkpt>
<trkpt lat="53.174434" lon="-2.002013"><ele>476</ele><time>2020-10-07T10:53:34Z</time><name>PT1726</name></trkpt>
<trkpt lat="53.174410" lon="-2.001966"><ele>475</ele><time>2020-10-07T10:53:39Z</time><name>PT1727</name></trkpt>
<trkpt lat="53.174377" lon="-2.001923"><ele>475</ele><time>2020-10-07T10:53:43Z</time><name>PT1728</name></trkpt>
<trkpt lat="53.174353" lon="-2.001901"><ele>476</ele><time>2020-10-07T10:53:46Z</time><name>PT1729</name></trkpt>
<trkpt lat="53.174316" lon="-2.001878"><ele>477</ele><time>2020-10-07T10:53:49Z</time><name>PT1730</name></trkpt>
<trkpt lat="53.174285" lon="-2.001892"><ele>476</ele><time>2020-10-07T10:53:52Z</time><name>PT1731</name></trkpt>
<trkpt lat="53.174249" lon="-2.001880"><ele>477</ele><time>2020-10-07T10:53:55Z</time><name>PT1732</name></trkpt>
<trkpt lat="53.174214" lon="-2.001862"><ele>477</ele><time>2020-10-07T10:53:58Z</time><name>PT1733</name></trkpt>
<trkpt lat="53.174183" lon="-2.001854"><ele>477</ele><time>2020-10-07T10:54:02Z</time><name>PT1734</name></trkpt>
<trkpt lat="53.174144" lon="-2.001803"><ele>477</ele><time>2020-10-07T10:54:06Z</time><name>PT1735</name></trkpt>
<trkpt lat="53.174110" lon="-2.001758"><ele>477</ele><time>2020-10-07T10:54:10Z</time><name>PT1736</name></trkpt>
<trkpt lat="53.174083" lon="-2.001733"><ele>478</ele><time>2020-10-07T10:54:13Z</time><name>PT1737</name></trkpt>
<trkpt lat="53.174064" lon="-2.001710"><ele>478</ele><time>2020-10-07T10:54:16Z</time><name>PT1738</name></trkpt>
<trkpt lat="53.174044" lon="-2.001688"><ele>479</ele><time>2020-10-07T10:54:19Z</time><name>PT1739</name></trkpt>
<trkpt lat="53.174023" lon="-2.001655"><ele>480</ele><time>2020-10-07T10:54:22Z</time><name>PT1740</name></trkpt>
<trkpt lat="53.173995" lon="-2.001626"><ele>481</ele><time>2020-10-07T10:54:27Z</time><name>PT1741</name></trkpt>
<trkpt lat="53.173965" lon="-2.001619"><ele>482</ele><time>2020-10-07T10:54:31Z</time><name>PT1742</name></trkpt>
<trkpt lat="53.173942" lon="-2.001599"><ele>482</ele><time>2020-10-07T10:54:34Z</time><name>PT1743</name></trkpt>
<trkpt lat="53.173910" lon="-2.001588"><ele>482</ele><time>2020-10-07T10:54:37Z</time><name>PT1744</name></trkpt>
<trkpt lat="53.173879" lon="-2.001596"><ele>482</ele><time>2020-10-07T10:54:40Z</time><name>PT1745</name></trkpt>
<trkpt lat="53.173846" lon="-2.001588"><ele>482</ele><time>2020-10-07T10:54:43Z</time><name>PT1746</name></trkpt>
<trkpt lat="53.173808" lon="-2.001559"><ele>482</ele><time>2020-10-07T10:54:48Z</time><name>PT1747</name></trkpt>
<trkpt lat="53.173776" lon="-2.001515"><ele>483</ele><time>2020-10-07T10:54:52Z</time><name>PT1748</name></trkpt>
<trkpt lat="53.173753" lon="-2.001507"><ele>483</ele><time>2020-10-07T10:54:55Z</time><name>PT1749</name></trkpt>
<trkpt lat="53.173715" lon="-2.001497"><ele>483</ele><time>2020-10-07T10:54:58Z</time><name>PT1750</name></trkpt>
<trkpt lat="53.173679" lon="-2.001480"><ele>483</ele><time>2020-10-07T10:55:03Z</time><name>PT1751</name></trkpt>
<trkpt lat="53.173644" lon="-2.001455"><ele>484</ele><time>2020-10-07T10:55:06Z</time><name>PT1752</name></trkpt>
<trkpt lat="53.173600" lon="-2.001424"><ele>484</ele><time>2020-10-07T10:55:10Z</time><name>PT1753</name></trkpt>
<trkpt lat="53.173572" lon="-2.001404"><ele>484</ele><time>2020-10-07T10:55:13Z</time><name>PT1754</name></trkpt>
<trkpt lat="53.173542" lon="-2.001385"><ele>484</ele><time>2020-10-07T10:55:16Z</time><name>PT1755</name></trkpt>
<trkpt lat="53.173512" lon="-2.001351"><ele>485</ele><time>2020-10-07T10:55:21Z</time><name>PT1756</name></trkpt>
<trkpt lat="53.173473" lon="-2.001300"><ele>486</ele><time>2020-10-07T10:55:25Z</time><name>PT1757</name></trkpt>
<trkpt lat="53.173435" lon="-2.001261"><ele>487</ele><time>2020-10-07T10:55:28Z</time><name>PT1758</name></trkpt>
<trkpt lat="53.173403" lon="-2.001225"><ele>487</ele><time>2020-10-07T10:55:33Z</time><name>PT1759</name></trkpt>
<trkpt lat="53.173383" lon="-2.001189"><ele>487</ele><time>2020-10-07T10:55:36Z</time><name>PT1760</name></trkpt>
<trkpt lat="53.173372" lon="-2.001157"><ele>487</ele><time>2020-10-07T10:55:39Z</time><name>PT1761</name></trkpt>
<trkpt lat="53.173351" lon="-2.001107"><ele>487</ele><time>2020-10-07T10:55:43Z</time><name>PT1762</name></trkpt>
<trkpt lat="53.173337" lon="-2.001067"><ele>487</ele><time>2020-10-07T10:55:46Z</time><name>PT1763</name></trkpt>
<trkpt lat="53.173315" lon="-2.001022"><ele>487</ele><time>2020-10-07T10:55:49Z</time><name>PT1764</name></trkpt>
<trkpt lat="53.173277" lon="-2.000962"><ele>488</ele><time>2020-10-07T10:55:54Z</time><name>PT1765</name></trkpt>
<trkpt lat="53.173260" lon="-2.000930"><ele>488</ele><time>2020-10-07T10:55:57Z</time><name>PT1766</name></trkpt>
<trkpt lat="53.173234" lon="-2.000866"><ele>488</ele><time>2020-10-07T10:56:01Z</time><name>PT1767</name></trkpt>
<trkpt lat="53.173214" lon="-2.000801"><ele>488</ele><time>2020-10-07T10:56:04Z</time><name>PT1768</name></trkpt>
<trkpt lat="53.173194" lon="-2.000747"><ele>489</ele><time>2020-10-07T10:56:09Z</time><name>PT1769</name></trkpt>
<trkpt lat="53.173177" lon="-2.000706"><ele>489</ele><time>2020-10-07T10:56:13Z</time><name>PT1770</name></trkpt>
<trkpt lat="53.173169" lon="-2.000675"><ele>490</ele><time>2020-10-07T10:56:16Z</time><name>PT1771</name></trkpt>
<trkpt lat="53.173143" lon="-2.000631"><ele>490</ele><time>2020-10-07T10:56:19Z</time><name>PT1772</name></trkpt>
<trkpt lat="53.173119" lon="-2.000588"><ele>491</ele><time>2020-10-07T10:56:23Z</time><name>PT1773</name></trkpt>
<trkpt lat="53.173100" lon="-2.000565"><ele>492</ele><time>2020-10-07T10:56:26Z</time><name>PT1774</name></trkpt>
<trkpt lat="53.173068" lon="-2.000528"><ele>493</ele><time>2020-10-07T10:56:30Z</time><name>PT1775</name></trkpt>
<trkpt lat="53.173047" lon="-2.000499"><ele>493</ele><time>2020-10-07T10:56:33Z</time><name>PT1776</name></trkpt>
<trkpt lat="53.173038" lon="-2.000468"><ele>494</ele><time>2020-10-07T10:56:36Z</time><name>PT1777</name></trkpt>
<trkpt lat="53.173030" lon="-2.000409"><ele>495</ele><time>2020-10-07T10:56:39Z</time><name>PT1778</name></trkpt>
<trkpt lat="53.172999" lon="-2.000356"><ele>495</ele><time>2020-10-07T10:56:44Z</time><name>PT1779</name></trkpt>
<trkpt lat="53.172973" lon="-2.000316"><ele>496</ele><time>2020-10-07T10:56:47Z</time><name>PT1780</name></trkpt>
<trkpt lat="53.172937" lon="-2.000261"><ele>496</ele><time>2020-10-07T10:56:51Z</time><name>PT1781</name></trkpt>
<trkpt lat="53.172911" lon="-2.000228"><ele>496</ele><time>2020-10-07T10:56:54Z</time><name>PT1782</name></trkpt>
<trkpt lat="53.172882" lon="-2.000194"><ele>496</ele><time>2020-10-07T10:56:57Z</time><name>PT1783</name></trkpt>
<trkpt lat="53.172863" lon="-2.000175"><ele>496</ele><time>2020-10-07T10:57:00Z</time><name>PT1784</name></trkpt>
<trkpt lat="53.172828" lon="-2.000163"><ele>496</ele><time>2020-10-07T10:57:05Z</time><name>PT1785</name></trkpt>
<trkpt lat="53.172808" lon="-2.000114"><ele>497</ele><time>2020-10-07T10:57:09Z</time><name>PT1786</name></trkpt>
<trkpt lat="53.172788" lon="-2.000071"><ele>498</ele><time>2020-10-07T10:57:12Z</time><name>PT1787</name></trkpt>
<trkpt lat="53.172773" lon="-2.000019"><ele>499</ele><time>2020-10-07T10:57:15Z</time><name>PT1788</name></trkpt>
<trkpt lat="53.172759" lon="-1.999992"><ele>499</ele><time>2020-10-07T10:57:18Z</time><name>PT1789</name></trkpt>
<trkpt lat="53.172733" lon="-1.999938"><ele>499</ele><time>2020-10-07T10:57:23Z</time><name>PT1790</name></trkpt>
<trkpt lat="53.172705" lon="-1.999900"><ele>500</ele><time>2020-10-07T10:57:26Z</time><name>PT1791</name></trkpt>
<trkpt lat="53.172669" lon="-1.999846"><ele>500</ele><time>2020-10-07T10:57:30Z</time><name>PT1792</name></trkpt>
<trkpt lat="53.172630" lon="-1.999811"><ele>501</ele><time>2020-10-07T10:57:33Z</time><name>PT1793</name></trkpt>
<trkpt lat="53.172591" lon="-1.999782"><ele>502</ele><time>2020-10-07T10:57:38Z</time><name>PT1794</name></trkpt>
<trkpt lat="53.172551" lon="-1.999784"><ele>501</ele><time>2020-10-07T10:57:42Z</time><name>PT1795</name></trkpt>
<trkpt lat="53.172525" lon="-1.999772"><ele>501</ele><time>2020-10-07T10:57:45Z</time><name>PT1796</name></trkpt>
<trkpt lat="53.172483" lon="-1.999764"><ele>501</ele><time>2020-10-07T10:57:48Z</time><name>PT1797</name></trkpt>
<trkpt lat="53.172452" lon="-1.999764"><ele>500</ele><time>2020-10-07T10:57:51Z</time><name>PT1798</name></trkpt>
<trkpt lat="53.172416" lon="-1.999781"><ele>500</ele><time>2020-10-07T10:57:56Z</time><name>PT1799</name></trkpt>
<trkpt lat="53.172387" lon="-1.999795"><ele>501</ele><time>2020-10-07T10:57:59Z</time><name>PT1800</name></trkpt>
<trkpt lat="53.172341" lon="-1.999820"><ele>501</ele><time>2020-10-07T10:58:03Z</time><name>PT1801</name></trkpt>
<trkpt lat="53.172320" lon="-1.999850"><ele>501</ele><time>2020-10-07T10:58:06Z</time><name>PT1802</name></trkpt>
<trkpt lat="53.172271" lon="-1.999853"><ele>501</ele><time>2020-10-07T10:58:09Z</time><name>PT1803</name></trkpt>
<trkpt lat="53.172233" lon="-1.999843"><ele>503</ele><time>2020-10-07T10:58:14Z</time><name>PT1804</name></trkpt>
<trkpt lat="53.172206" lon="-1.999841"><ele>503</ele><time>2020-10-07T10:58:17Z</time><name>PT1805</name></trkpt>
<trkpt lat="53.172190" lon="-1.999834"><ele>504</ele><time>2020-10-07T10:58:21Z</time><name>PT1806</name></trkpt>
<trkpt lat="53.172160" lon="-1.999807"><ele>504</ele><time>2020-10-07T10:58:24Z</time><name>PT1807</name></trkpt>
<trkpt lat="53.172160" lon="-1.999776"><ele>505</ele><time>2020-10-07T10:58:27Z</time><name>PT1808</name></trkpt>
<trkpt lat="53.172148" lon="-1.999738"><ele>504</ele><time>2020-10-07T10:58:30Z</time><name>PT1809</name></trkpt>
<trkpt lat="53.172142" lon="-1.999724"><ele>503</ele><time>2020-10-07T10:58:33Z</time><name>PT1810</name></trkpt>
<trkpt lat="53.172139" lon="-1.999731"><ele>502</ele><time>2020-10-07T10:58:36Z</time><name>PT1811</name></trkpt>
<trkpt lat="53.172138" lon="-1.999732"><ele>502</ele><time>2020-10-07T10:59:21Z</time><name>PT1812</name></trkpt>
<trkpt lat="53.172135" lon="-1.999730"><ele>502</ele><time>2020-10-07T10:59:24Z</time><name>PT1813</name></trkpt>
<trkpt lat="53.172133" lon="-1.999747"><ele>502</ele><time>2020-10-07T10:59:27Z</time><name>PT1814</name></trkpt>
<trkpt lat="53.172124" lon="-1.999848"><ele>502</ele><time>2020-10-07T10:59:30Z</time><name>PT1815</name></trkpt>
<trkpt lat="53.172136" lon="-1.999773"><ele>501</ele><time>2020-10-07T10:59:33Z</time><name>PT1816</name></trkpt>
<trkpt lat="53.172126" lon="-1.999735"><ele>501</ele><time>2020-10-07T10:59:36Z</time><name>PT1817</name></trkpt>
<trkpt lat="53.172088" lon="-1.999758"><ele>501</ele><time>2020-10-07T10:59:41Z</time><name>PT1818</name></trkpt>
<trkpt lat="53.172062" lon="-1.999749"><ele>501</ele><time>2020-10-07T10:59:44Z</time><name>PT1819</name></trkpt>
<trkpt lat="53.172023" lon="-1.999763"><ele>500</ele><time>2020-10-07T10:59:48Z</time><name>PT1820</name></trkpt>
<trkpt lat="53.171998" lon="-1.999800"><ele>500</ele><time>2020-10-07T10:59:51Z</time><name>PT1821</name></trkpt>
<trkpt lat="53.171944" lon="-1.999809"><ele>502</ele><time>2020-10-07T10:59:54Z</time><name>PT1822</name></trkpt>
<trkpt lat="53.171910" lon="-1.999794"><ele>502</ele><time>2020-10-07T10:59:57Z</time><name>PT1823</name></trkpt>
<trkpt lat="53.171875" lon="-1.999775"><ele>502</ele><time>2020-10-07T11:00:00Z</time><name>PT1824</name></trkpt>
<trkpt lat="53.171842" lon="-1.999753"><ele>503</ele><time>2020-10-07T11:00:03Z</time><name>PT1825</name></trkpt>
<trkpt lat="53.171796" lon="-1.999737"><ele>503</ele><time>2020-10-07T11:00:08Z</time><name>PT1826</name></trkpt>
<trkpt lat="53.171762" lon="-1.999742"><ele>504</ele><time>2020-10-07T11:00:11Z</time><name>PT1827</name></trkpt>
<trkpt lat="53.171737" lon="-1.999751"><ele>504</ele><time>2020-10-07T11:00:15Z</time><name>PT1828</name></trkpt>
<trkpt lat="53.171715" lon="-1.999771"><ele>504</ele><time>2020-10-07T11:00:18Z</time><name>PT1829</name></trkpt>
<trkpt lat="53.171689" lon="-1.999780"><ele>503</ele><time>2020-10-07T11:00:21Z</time><name>PT1830</name></trkpt>
<trkpt lat="53.171656" lon="-1.999790"><ele>503</ele><time>2020-10-07T11:00:25Z</time><name>PT1831</name></trkpt>
<trkpt lat="53.171634" lon="-1.999824"><ele>502</ele><time>2020-10-07T11:00:29Z</time><name>PT1832</name></trkpt>
<trkpt lat="53.171622" lon="-1.999847"><ele>501</ele><time>2020-10-07T11:00:32Z</time><name>PT1833</name></trkpt>
<trkpt lat="53.171609" lon="-1.999873"><ele>501</ele><time>2020-10-07T11:00:35Z</time><name>PT1834</name></trkpt>
<trkpt lat="53.171578" lon="-1.999927"><ele>501</ele><time>2020-10-07T11:00:39Z</time><name>PT1835</name></trkpt>
<trkpt lat="53.171559" lon="-1.999962"><ele>501</ele><time>2020-10-07T11:00:42Z</time><name>PT1836</name></trkpt>
<trkpt lat="53.171542" lon="-1.999969"><ele>501</ele><time>2020-10-07T11:00:45Z</time><name>PT1837</name></trkpt>
<trkpt lat="53.171540" lon="-1.999973"><ele>502</ele><time>2020-10-07T11:00:48Z</time><name>PT1838</name></trkpt>
<trkpt lat="53.171526" lon="-1.999982"><ele>502</ele><time>2020-10-07T11:00:54Z</time><name>PT1839</name></trkpt>
<trkpt lat="53.171491" lon="-1.999990"><ele>501</ele><time>2020-10-07T11:00:57Z</time><name>PT1840</name></trkpt>
<trkpt lat="53.171449" lon="-1.999984"><ele>499</ele><time>2020-10-07T11:01:02Z</time><name>PT1841</name></trkpt>
<trkpt lat="53.171402" lon="-1.999989"><ele>497</ele><time>2020-10-07T11:01:06Z</time><name>PT1842</name></trkpt>
<trkpt lat="53.171363" lon="-1.999983"><ele>497</ele><time>2020-10-07T11:01:09Z</time><name>PT1843</name></trkpt>
<trkpt lat="53.171328" lon="-1.999972"><ele>496</ele><time>2020-10-07T11:01:12Z</time><name>PT1844</name></trkpt>
<trkpt lat="53.171277" lon="-1.999978"><ele>495</ele><time>2020-10-07T11:01:15Z</time><name>PT1845</name></trkpt>
<trkpt lat="53.171242" lon="-2.000003"><ele>495</ele><time>2020-10-07T11:01:18Z</time><name>PT1846</name></trkpt>
<trkpt lat="53.171203" lon="-2.000036"><ele>496</ele><time>2020-10-07T11:01:23Z</time><name>PT1847</name></trkpt>
<trkpt lat="53.171163" lon="-2.000068"><ele>496</ele><time>2020-10-07T11:01:27Z</time><name>PT1848</name></trkpt>
<trkpt lat="53.171118" lon="-2.000066"><ele>496</ele><time>2020-10-07T11:01:30Z</time><name>PT1849</name></trkpt>
<trkpt lat="53.171097" lon="-2.000080"><ele>496</ele><time>2020-10-07T11:01:33Z</time><name>PT1850</name></trkpt>
<trkpt lat="53.171069" lon="-2.000101"><ele>496</ele><time>2020-10-07T11:01:38Z</time><name>PT1851</name></trkpt>
<trkpt lat="53.171030" lon="-2.000094"><ele>497</ele><time>2020-10-07T11:01:42Z</time><name>PT1852</name></trkpt>
<trkpt lat="53.171007" lon="-2.000088"><ele>497</ele><time>2020-10-07T11:01:45Z</time><name>PT1853</name></trkpt>
<trkpt lat="53.170983" lon="-2.000097"><ele>497</ele><time>2020-10-07T11:01:48Z</time><name>PT1854</name></trkpt>
<trkpt lat="53.170949" lon="-2.000090"><ele>497</ele><time>2020-10-07T11:01:51Z</time><name>PT1855</name></trkpt>
<trkpt lat="53.170919" lon="-2.000072"><ele>497</ele><time>2020-10-07T11:01:54Z</time><name>PT1856</name></trkpt>
<trkpt lat="53.170880" lon="-2.000068"><ele>495</ele><time>2020-10-07T11:01:59Z</time><name>PT1857</name></trkpt>
<trkpt lat="53.170844" lon="-2.000055"><ele>494</ele><time>2020-10-07T11:02:02Z</time><name>PT1858</name></trkpt>
<trkpt lat="53.170799" lon="-2.000044"><ele>494</ele><time>2020-10-07T11:02:06Z</time><name>PT1859</name></trkpt>
<trkpt lat="53.170771" lon="-2.000048"><ele>494</ele><time>2020-10-07T11:02:09Z</time><name>PT1860</name></trkpt>
<trkpt lat="53.170728" lon="-2.000034"><ele>494</ele><time>2020-10-07T11:02:12Z</time><name>PT1861</name></trkpt>
<trkpt lat="53.170689" lon="-2.000000"><ele>494</ele><time>2020-10-07T11:02:15Z</time><name>PT1862</name></trkpt>
<trkpt lat="53.170653" lon="-1.999989"><ele>494</ele><time>2020-10-07T11:02:18Z</time><name>PT1863</name></trkpt>
<trkpt lat="53.170617" lon="-2.000002"><ele>493</ele><time>2020-10-07T11:02:23Z</time><name>PT1864</name></trkpt>
<trkpt lat="53.170573" lon="-1.999977"><ele>493</ele><time>2020-10-07T11:02:27Z</time><name>PT1865</name></trkpt>
<trkpt lat="53.170533" lon="-1.999984"><ele>493</ele><time>2020-10-07T11:02:30Z</time><name>PT1866</name></trkpt>
<trkpt lat="53.170505" lon="-1.999969"><ele>493</ele><time>2020-10-07T11:02:33Z</time><name>PT1867</name></trkpt>
<trkpt lat="53.170472" lon="-1.999962"><ele>494</ele><time>2020-10-07T11:02:36Z</time><name>PT1868</name></trkpt>
<trkpt lat="53.170437" lon="-1.999970"><ele>494</ele><time>2020-10-07T11:02:39Z</time><name>PT1869</name></trkpt>
<trkpt lat="53.170404" lon="-1.999966"><ele>493</ele><time>2020-10-07T11:02:44Z</time><name>PT1870</name></trkpt>
<trkpt lat="53.170368" lon="-1.999966"><ele>493</ele><time>2020-10-07T11:02:48Z</time><name>PT1871</name></trkpt>
<trkpt lat="53.170329" lon="-1.999959"><ele>494</ele><time>2020-10-07T11:02:51Z</time><name>PT1872</name></trkpt>
<trkpt lat="53.170299" lon="-1.999938"><ele>493</ele><time>2020-10-07T11:02:54Z</time><name>PT1873</name></trkpt>
<trkpt lat="53.170250" lon="-1.999916"><ele>494</ele><time>2020-10-07T11:02:57Z</time><name>PT1874</name></trkpt>
<trkpt lat="53.170223" lon="-1.999885"><ele>494</ele><time>2020-10-07T11:03:00Z</time><name>PT1875</name></trkpt>
<trkpt lat="53.170189" lon="-1.999852"><ele>494</ele><time>2020-10-07T11:03:05Z</time><name>PT1876</name></trkpt>
<trkpt lat="53.170160" lon="-1.999838"><ele>494</ele><time>2020-10-07T11:03:08Z</time><name>PT1877</name></trkpt>
<trkpt lat="53.170124" lon="-1.999843"><ele>494</ele><time>2020-10-07T11:03:12Z</time><name>PT1878</name></trkpt>
<trkpt lat="53.170085" lon="-1.999865"><ele>494</ele><time>2020-10-07T11:03:15Z</time><name>PT1879</name></trkpt>
<trkpt lat="53.170059" lon="-1.999868"><ele>494</ele><time>2020-10-07T11:03:18Z</time><name>PT1880</name></trkpt>
<trkpt lat="53.170038" lon="-1.999885"><ele>493</ele><time>2020-10-07T11:03:21Z</time><name>PT1881</name></trkpt>
<trkpt lat="53.170001" lon="-1.999907"><ele>493</ele><time>2020-10-07T11:03:26Z</time><name>PT1882</name></trkpt>
<trkpt lat="53.169959" lon="-1.999887"><ele>492</ele><time>2020-10-07T11:03:30Z</time><name>PT1883</name></trkpt>
<trkpt lat="53.169917" lon="-1.999861"><ele>492</ele><time>2020-10-07T11:03:33Z</time><name>PT1884</name></trkpt>
<trkpt lat="53.169871" lon="-1.999855"><ele>491</ele><time>2020-10-07T11:03:38Z</time><name>PT1885</name></trkpt>
<trkpt lat="53.169838" lon="-1.999849"><ele>491</ele><time>2020-10-07T11:03:41Z</time><name>PT1886</name></trkpt>
<trkpt lat="53.169808" lon="-1.999835"><ele>490</ele><time>2020-10-07T11:03:44Z</time><name>PT1887</name></trkpt>
<trkpt lat="53.169772" lon="-1.999810"><ele>490</ele><time>2020-10-07T11:03:48Z</time><name>PT1888</name></trkpt>
<trkpt lat="53.169740" lon="-1.999796"><ele>490</ele><time>2020-10-07T11:03:51Z</time><name>PT1889</name></trkpt>
<trkpt lat="53.169708" lon="-1.999779"><ele>489</ele><time>2020-10-07T11:03:54Z</time><name>PT1890</name></trkpt>
<trkpt lat="53.169665" lon="-1.999798"><ele>489</ele><time>2020-10-07T11:03:59Z</time><name>PT1891</name></trkpt>
<trkpt lat="53.169634" lon="-1.999780"><ele>489</ele><time>2020-10-07T11:04:03Z</time><name>PT1892</name></trkpt>
<trkpt lat="53.169597" lon="-1.999780"><ele>487</ele><time>2020-10-07T11:04:06Z</time><name>PT1893</name></trkpt>
<trkpt lat="53.169566" lon="-1.999793"><ele>486</ele><time>2020-10-07T11:04:09Z</time><name>PT1894</name></trkpt>
<trkpt lat="53.169536" lon="-1.999793"><ele>487</ele><time>2020-10-07T11:04:12Z</time><name>PT1895</name></trkpt>
<trkpt lat="53.169507" lon="-1.999789"><ele>487</ele><time>2020-10-07T11:04:15Z</time><name>PT1896</name></trkpt>
<trkpt lat="53.169470" lon="-1.999780"><ele>487</ele><time>2020-10-07T11:04:18Z</time><name>PT1897</name></trkpt>
<trkpt lat="53.169436" lon="-1.999749"><ele>489</ele><time>2020-10-07T11:04:22Z</time><name>PT1898</name></trkpt>
<trkpt lat="53.169413" lon="-1.999718"><ele>490</ele><time>2020-10-07T11:04:25Z</time><name>PT1899</name></trkpt>
<trkpt lat="53.169400" lon="-1.999667"><ele>491</ele><time>2020-10-07T11:04:28Z</time><name>PT1900</name></trkpt>
<trkpt lat="53.169387" lon="-1.999625"><ele>491</ele><time>2020-10-07T11:04:31Z</time><name>PT1901</name></trkpt>
<trkpt lat="53.169351" lon="-1.999587"><ele>490</ele><time>2020-10-07T11:04:35Z</time><name>PT1902</name></trkpt>
<trkpt lat="53.169315" lon="-1.999561"><ele>489</ele><time>2020-10-07T11:04:38Z</time><name>PT1903</name></trkpt>
<trkpt lat="53.169264" lon="-1.999541"><ele>488</ele><time>2020-10-07T11:04:42Z</time><name>PT1904</name></trkpt>
<trkpt lat="53.169227" lon="-1.999537"><ele>488</ele><time>2020-10-07T11:04:45Z</time><name>PT1905</name></trkpt>
<trkpt lat="53.169192" lon="-1.999538"><ele>488</ele><time>2020-10-07T11:04:48Z</time><name>PT1906</name></trkpt>
<trkpt lat="53.169159" lon="-1.999552"><ele>488</ele><time>2020-10-07T11:04:51Z</time><name>PT1907</name></trkpt>
<trkpt lat="53.169128" lon="-1.999567"><ele>487</ele><time>2020-10-07T11:04:54Z</time><name>PT1908</name></trkpt>
<trkpt lat="53.169095" lon="-1.999564"><ele>487</ele><time>2020-10-07T11:04:57Z</time><name>PT1909</name></trkpt>
<trkpt lat="53.169066" lon="-1.999568"><ele>487</ele><time>2020-10-07T11:05:00Z</time><name>PT1910</name></trkpt>
<trkpt lat="53.169017" lon="-1.999595"><ele>487</ele><time>2020-10-07T11:05:03Z</time><name>PT1911</name></trkpt>
<trkpt lat="53.168985" lon="-1.999637"><ele>486</ele><time>2020-10-07T11:05:08Z</time><name>PT1912</name></trkpt>
<trkpt lat="53.168959" lon="-1.999677"><ele>486</ele><time>2020-10-07T11:05:11Z</time><name>PT1913</name></trkpt>
<trkpt lat="53.168932" lon="-1.999727"><ele>486</ele><time>2020-10-07T11:05:15Z</time><name>PT1914</name></trkpt>
<trkpt lat="53.168918" lon="-1.999779"><ele>486</ele><time>2020-10-07T11:05:18Z</time><name>PT1915</name></trkpt>
<trkpt lat="53.168895" lon="-1.999830"><ele>486</ele><time>2020-10-07T11:05:23Z</time><name>PT1916</name></trkpt>
<trkpt lat="53.168866" lon="-1.999886"><ele>486</ele><time>2020-10-07T11:05:27Z</time><name>PT1917</name></trkpt>
<trkpt lat="53.168830" lon="-1.999921"><ele>484</ele><time>2020-10-07T11:05:30Z</time><name>PT1918</name></trkpt>
<trkpt lat="53.168786" lon="-1.999952"><ele>485</ele><time>2020-10-07T11:05:35Z</time><name>PT1919</name></trkpt>
<trkpt lat="53.168755" lon="-1.999979"><ele>485</ele><time>2020-10-07T11:05:38Z</time><name>PT1920</name></trkpt>
<trkpt lat="53.168704" lon="-1.999990"><ele>483</ele><time>2020-10-07T11:05:42Z</time><name>PT1921</name></trkpt>
<trkpt lat="53.168656" lon="-2.000025"><ele>483</ele><time>2020-10-07T11:05:45Z</time><name>PT1922</name></trkpt>
<trkpt lat="53.168608" lon="-2.000045"><ele>482</ele><time>2020-10-07T11:05:50Z</time><name>PT1923</name></trkpt>
<trkpt lat="53.168574" lon="-2.000053"><ele>482</ele><time>2020-10-07T11:05:53Z</time><name>PT1924</name></trkpt>
<trkpt lat="53.168536" lon="-2.000063"><ele>482</ele><time>2020-10-07T11:05:56Z</time><name>PT1925</name></trkpt>
<trkpt lat="53.168488" lon="-2.000088"><ele>482</ele><time>2020-10-07T11:06:00Z</time><name>PT1926</name></trkpt>
<trkpt lat="53.168451" lon="-2.000085"><ele>482</ele><time>2020-10-07T11:06:03Z</time><name>PT1927</name></trkpt>
<trkpt lat="53.168398" lon="-2.000072"><ele>483</ele><time>2020-10-07T11:06:07Z</time><name>PT1928</name></trkpt>
<trkpt lat="53.168362" lon="-2.000077"><ele>483</ele><time>2020-10-07T11:06:10Z</time><name>PT1929</name></trkpt>
<trkpt lat="53.168328" lon="-2.000085"><ele>483</ele><time>2020-10-07T11:06:13Z</time><name>PT1930</name></trkpt>
<trkpt lat="53.168273" lon="-2.000069"><ele>483</ele><time>2020-10-07T11:06:17Z</time><name>PT1931</name></trkpt>
<trkpt lat="53.168233" lon="-2.000053"><ele>482</ele><time>2020-10-07T11:06:20Z</time><name>PT1932</name></trkpt>
<trkpt lat="53.168185" lon="-2.000027"><ele>482</ele><time>2020-10-07T11:06:24Z</time><name>PT1933</name></trkpt>
<trkpt lat="53.168149" lon="-2.000012"><ele>482</ele><time>2020-10-07T11:06:27Z</time><name>PT1934</name></trkpt>
<trkpt lat="53.168097" lon="-1.999999"><ele>482</ele><time>2020-10-07T11:06:30Z</time><name>PT1935</name></trkpt>
<trkpt lat="53.168059" lon="-1.999991"><ele>481</ele><time>2020-10-07T11:06:33Z</time><name>PT1936</name></trkpt>
<trkpt lat="53.168022" lon="-1.999979"><ele>481</ele><time>2020-10-07T11:06:36Z</time><name>PT1937</name></trkpt>
<trkpt lat="53.167972" lon="-1.999959"><ele>481</ele><time>2020-10-07T11:06:41Z</time><name>PT1938</name></trkpt>
<trkpt lat="53.167934" lon="-1.999940"><ele>482</ele><time>2020-10-07T11:06:44Z</time><name>PT1939</name></trkpt>
<trkpt lat="53.167898" lon="-1.999926"><ele>482</ele><time>2020-10-07T11:06:47Z</time><name>PT1940</name></trkpt>
<trkpt lat="53.167865" lon="-1.999919"><ele>481</ele><time>2020-10-07T11:06:50Z</time><name>PT1941</name></trkpt>
<trkpt lat="53.167817" lon="-1.999896"><ele>481</ele><time>2020-10-07T11:06:54Z</time><name>PT1942</name></trkpt>
<trkpt lat="53.167782" lon="-1.999882"><ele>481</ele><time>2020-10-07T11:06:57Z</time><name>PT1943</name></trkpt>
<trkpt lat="53.167748" lon="-1.999861"><ele>481</ele><time>2020-10-07T11:07:00Z</time><name>PT1944</name></trkpt>
<trkpt lat="53.167698" lon="-1.999842"><ele>481</ele><time>2020-10-07T11:07:03Z</time><name>PT1945</name></trkpt>
<trkpt lat="53.167655" lon="-1.999823"><ele>481</ele><time>2020-10-07T11:07:08Z</time><name>PT1946</name></trkpt>
<trkpt lat="53.167628" lon="-1.999798"><ele>481</ele><time>2020-10-07T11:07:11Z</time><name>PT1947</name></trkpt>
<trkpt lat="53.167581" lon="-1.999787"><ele>482</ele><time>2020-10-07T11:07:15Z</time><name>PT1948</name></trkpt>
<trkpt lat="53.167545" lon="-1.999782"><ele>482</ele><time>2020-10-07T11:07:18Z</time><name>PT1949</name></trkpt>
<trkpt lat="53.167501" lon="-1.999768"><ele>482</ele><time>2020-10-07T11:07:21Z</time><name>PT1950</name></trkpt>
<trkpt lat="53.167469" lon="-1.999748"><ele>482</ele><time>2020-10-07T11:07:24Z</time><name>PT1951</name></trkpt>
<trkpt lat="53.167425" lon="-1.999741"><ele>483</ele><time>2020-10-07T11:07:27Z</time><name>PT1952</name></trkpt>
<trkpt lat="53.167395" lon="-1.999747"><ele>483</ele><time>2020-10-07T11:07:30Z</time><name>PT1953</name></trkpt>
<trkpt lat="53.167354" lon="-1.999752"><ele>484</ele><time>2020-10-07T11:07:35Z</time><name>PT1954</name></trkpt>
<trkpt lat="53.167323" lon="-1.999757"><ele>484</ele><time>2020-10-07T11:07:38Z</time><name>PT1955</name></trkpt>
<trkpt lat="53.167291" lon="-1.999749"><ele>483</ele><time>2020-10-07T11:07:41Z</time><name>PT1956</name></trkpt>
<trkpt lat="53.167256" lon="-1.999739"><ele>483</ele><time>2020-10-07T11:07:44Z</time><name>PT1957</name></trkpt>
<trkpt lat="53.167213" lon="-1.999730"><ele>483</ele><time>2020-10-07T11:07:48Z</time><name>PT1958</name></trkpt>
<trkpt lat="53.167182" lon="-1.999722"><ele>483</ele><time>2020-10-07T11:07:51Z</time><name>PT1959</name></trkpt>
<trkpt lat="53.167137" lon="-1.999721"><ele>484</ele><time>2020-10-07T11:07:54Z</time><name>PT1960</name></trkpt>
<trkpt lat="53.167092" lon="-1.999705"><ele>483</ele><time>2020-10-07T11:07:59Z</time><name>PT1961</name></trkpt>
<trkpt lat="53.167058" lon="-1.999700"><ele>482</ele><time>2020-10-07T11:08:02Z</time><name>PT1962</name></trkpt>
<trkpt lat="53.167021" lon="-1.999653"><ele>482</ele><time>2020-10-07T11:08:06Z</time><name>PT1963</name></trkpt>
<trkpt lat="53.167003" lon="-1.999623"><ele>482</ele><time>2020-10-07T11:08:09Z</time><name>PT1964</name></trkpt>
<trkpt lat="53.166960" lon="-1.999613"><ele>482</ele><time>2020-10-07T11:08:12Z</time><name>PT1965</name></trkpt>
<trkpt lat="53.166923" lon="-1.999569"><ele>481</ele><time>2020-10-07T11:08:17Z</time><name>PT1966</name></trkpt>
<trkpt lat="53.166895" lon="-1.999521"><ele>480</ele><time>2020-10-07T11:08:20Z</time><name>PT1967</name></trkpt>
<trkpt lat="53.166858" lon="-1.999477"><ele>481</ele><time>2020-10-07T11:08:24Z</time><name>PT1968</name></trkpt>
<trkpt lat="53.166816" lon="-1.999439"><ele>482</ele><time>2020-10-07T11:08:27Z</time><name>PT1969</name></trkpt>
<trkpt lat="53.166781" lon="-1.999426"><ele>481</ele><time>2020-10-07T11:08:30Z</time><name>PT1970</name></trkpt>
<trkpt lat="53.166746" lon="-1.999425"><ele>481</ele><time>2020-10-07T11:08:33Z</time><name>PT1971</name></trkpt>
<trkpt lat="53.166709" lon="-1.999423"><ele>480</ele><time>2020-10-07T11:08:36Z</time><name>PT1972</name></trkpt>
<trkpt lat="53.166672" lon="-1.999409"><ele>481</ele><time>2020-10-07T11:08:39Z</time><name>PT1973</name></trkpt>
<trkpt lat="53.166625" lon="-1.999408"><ele>482</ele><time>2020-10-07T11:08:42Z</time><name>PT1974</name></trkpt>
<trkpt lat="53.166583" lon="-1.999411"><ele>482</ele><time>2020-10-07T11:08:47Z</time><name>PT1975</name></trkpt>
<trkpt lat="53.166550" lon="-1.999402"><ele>483</ele><time>2020-10-07T11:08:50Z</time><name>PT1976</name></trkpt>
<trkpt lat="53.166507" lon="-1.999378"><ele>482</ele><time>2020-10-07T11:08:54Z</time><name>PT1977</name></trkpt>
<trkpt lat="53.166477" lon="-1.999339"><ele>482</ele><time>2020-10-07T11:08:57Z</time><name>PT1978</name></trkpt>
<trkpt lat="53.166441" lon="-1.999301"><ele>482</ele><time>2020-10-07T11:09:00Z</time><name>PT1979</name></trkpt>
<trkpt lat="53.166405" lon="-1.999269"><ele>481</ele><time>2020-10-07T11:09:05Z</time><name>PT1980</name></trkpt>
<trkpt lat="53.166379" lon="-1.999238"><ele>481</ele><time>2020-10-07T11:09:08Z</time><name>PT1981</name></trkpt>
<trkpt lat="53.166355" lon="-1.999211"><ele>480</ele><time>2020-10-07T11:09:11Z</time><name>PT1982</name></trkpt>
<trkpt lat="53.166322" lon="-1.999160"><ele>480</ele><time>2020-10-07T11:09:15Z</time><name>PT1983</name></trkpt>
<trkpt lat="53.166289" lon="-1.999104"><ele>481</ele><time>2020-10-07T11:09:18Z</time><name>PT1984</name></trkpt>
<trkpt lat="53.166266" lon="-1.999076"><ele>481</ele><time>2020-10-07T11:09:21Z</time><name>PT1985</name></trkpt>
<trkpt lat="53.166249" lon="-1.999052"><ele>481</ele><time>2020-10-07T11:09:24Z</time><name>PT1986</name></trkpt>
<trkpt lat="53.166221" lon="-1.999018"><ele>481</ele><time>2020-10-07T11:09:27Z</time><name>PT1987</name></trkpt>
<trkpt lat="53.166174" lon="-1.998999"><ele>481</ele><time>2020-10-07T11:09:32Z</time><name>PT1988</name></trkpt>
<trkpt lat="53.166141" lon="-1.998987"><ele>480</ele><time>2020-10-07T11:09:35Z</time><name>PT1989</name></trkpt>
<trkpt lat="53.166117" lon="-1.998974"><ele>480</ele><time>2020-10-07T11:09:38Z</time><name>PT1990</name></trkpt>
<trkpt lat="53.166076" lon="-1.998947"><ele>480</ele><time>2020-10-07T11:09:42Z</time><name>PT1991</name></trkpt>
<trkpt lat="53.166037" lon="-1.998909"><ele>481</ele><time>2020-10-07T11:09:45Z</time><name>PT1992</name></trkpt>
<trkpt lat="53.166009" lon="-1.998913"><ele>481</ele><time>2020-10-07T11:09:48Z</time><name>PT1993</name></trkpt>
<trkpt lat="53.165970" lon="-1.998888"><ele>481</ele><time>2020-10-07T11:09:53Z</time><name>PT1994</name></trkpt>
<trkpt lat="53.165942" lon="-1.998867"><ele>480</ele><time>2020-10-07T11:09:56Z</time><name>PT1995</name></trkpt>
<trkpt lat="53.165905" lon="-1.998830"><ele>479</ele><time>2020-10-07T11:10:00Z</time><name>PT1996</name></trkpt>
<trkpt lat="53.165877" lon="-1.998803"><ele>478</ele><time>2020-10-07T11:10:03Z</time><name>PT1997</name></trkpt>
<trkpt lat="53.165842" lon="-1.998762"><ele>478</ele><time>2020-10-07T11:10:06Z</time><name>PT1998</name></trkpt>
<trkpt lat="53.165815" lon="-1.998701"><ele>477</ele><time>2020-10-07T11:10:11Z</time><name>PT1999</name></trkpt>
<trkpt lat="53.165791" lon="-1.998657"><ele>478</ele><time>2020-10-07T11:10:14Z</time><name>PT2000</name></trkpt>
<trkpt lat="53.165760" lon="-1.998606"><ele>479</ele><time>2020-10-07T11:10:18Z</time><name>PT2001</name></trkpt>
<trkpt lat="53.165732" lon="-1.998592"><ele>478</ele><time>2020-10-07T11:10:21Z</time><name>PT2002</name></trkpt>
<trkpt lat="53.165697" lon="-1.998549"><ele>479</ele><time>2020-10-07T11:10:26Z</time><name>PT2003</name></trkpt>
<trkpt lat="53.165650" lon="-1.998506"><ele>480</ele><time>2020-10-07T11:10:30Z</time><name>PT2004</name></trkpt>
<trkpt lat="53.165618" lon="-1.998491"><ele>481</ele><time>2020-10-07T11:10:33Z</time><name>PT2005</name></trkpt>
<trkpt lat="53.165587" lon="-1.998506"><ele>479</ele><time>2020-10-07T11:10:36Z</time><name>PT2006</name></trkpt>
<trkpt lat="53.165550" lon="-1.998476"><ele>480</ele><time>2020-10-07T11:10:39Z</time><name>PT2007</name></trkpt>
<trkpt lat="53.165519" lon="-1.998436"><ele>479</ele><time>2020-10-07T11:10:44Z</time><name>PT2008</name></trkpt>
<trkpt lat="53.165500" lon="-1.998397"><ele>479</ele><time>2020-10-07T11:10:47Z</time><name>PT2009</name></trkpt>
<trkpt lat="53.165469" lon="-1.998380"><ele>478</ele><time>2020-10-07T11:10:51Z</time><name>PT2010</name></trkpt>
<trkpt lat="53.165440" lon="-1.998361"><ele>477</ele><time>2020-10-07T11:10:54Z</time><name>PT2011</name></trkpt>
<trkpt lat="53.165407" lon="-1.998356"><ele>477</ele><time>2020-10-07T11:10:57Z</time><name>PT2012</name></trkpt>
<trkpt lat="53.165373" lon="-1.998319"><ele>477</ele><time>2020-10-07T11:11:02Z</time><name>PT2013</name></trkpt>
<trkpt lat="53.165347" lon="-1.998304"><ele>477</ele><time>2020-10-07T11:11:05Z</time><name>PT2014</name></trkpt>
<trkpt lat="53.165322" lon="-1.998284"><ele>476</ele><time>2020-10-07T11:11:08Z</time><name>PT2015</name></trkpt>
<trkpt lat="53.165295" lon="-1.998244"><ele>476</ele><time>2020-10-07T11:11:11Z</time><name>PT2016</name></trkpt>
<trkpt lat="53.165258" lon="-1.998194"><ele>476</ele><time>2020-10-07T11:11:15Z</time><name>PT2017</name></trkpt>
<trkpt lat="53.165244" lon="-1.998153"><ele>476</ele><time>2020-10-07T11:11:18Z</time><name>PT2018</name></trkpt>
<trkpt lat="53.165208" lon="-1.998099"><ele>476</ele><time>2020-10-07T11:11:21Z</time><name>PT2019</name></trkpt>
<trkpt lat="53.165174" lon="-1.998071"><ele>476</ele><time>2020-10-07T11:11:24Z</time><name>PT2020</name></trkpt>
<trkpt lat="53.165140" lon="-1.998068"><ele>475</ele><time>2020-10-07T11:11:29Z</time><name>PT2021</name></trkpt>
<trkpt lat="53.165101" lon="-1.998071"><ele>473</ele><time>2020-10-07T11:11:33Z</time><name>PT2022</name></trkpt>
<trkpt lat="53.165058" lon="-1.998043"><ele>473</ele><time>2020-10-07T11:11:36Z</time><name>PT2023</name></trkpt>
<trkpt lat="53.165015" lon="-1.998023"><ele>472</ele><time>2020-10-07T11:11:41Z</time><name>PT2024</name></trkpt>
<trkpt lat="53.164985" lon="-1.998022"><ele>471</ele><time>2020-10-07T11:11:45Z</time><name>PT2025</name></trkpt>
<trkpt lat="53.164964" lon="-1.998013"><ele>472</ele><time>2020-10-07T11:11:48Z</time><name>PT2026</name></trkpt>
<trkpt lat="53.164934" lon="-1.997980"><ele>472</ele><time>2020-10-07T11:11:51Z</time><name>PT2027</name></trkpt>
<trkpt lat="53.164902" lon="-1.997970"><ele>472</ele><time>2020-10-07T11:11:54Z</time><name>PT2028</name></trkpt>
<trkpt lat="53.164865" lon="-1.997900"><ele>472</ele><time>2020-10-07T11:11:57Z</time><name>PT2029</name></trkpt>
<trkpt lat="53.164841" lon="-1.997859"><ele>473</ele><time>2020-10-07T11:12:00Z</time><name>PT2030</name></trkpt>
<trkpt lat="53.164806" lon="-1.997817"><ele>475</ele><time>2020-10-07T11:12:05Z</time><name>PT2031</name></trkpt>
<trkpt lat="53.164773" lon="-1.997796"><ele>474</ele><time>2020-10-07T11:12:09Z</time><name>PT2032</name></trkpt>
<trkpt lat="53.164747" lon="-1.997772"><ele>474</ele><time>2020-10-07T11:12:12Z</time><name>PT2033</name></trkpt>
<trkpt lat="53.164713" lon="-1.997738"><ele>474</ele><time>2020-10-07T11:12:15Z</time><name>PT2034</name></trkpt>
<trkpt lat="53.164682" lon="-1.997683"><ele>474</ele><time>2020-10-07T11:12:18Z</time><name>PT2035</name></trkpt>
<trkpt lat="53.164648" lon="-1.997638"><ele>474</ele><time>2020-10-07T11:12:23Z</time><name>PT2036</name></trkpt>
<trkpt lat="53.164617" lon="-1.997628"><ele>475</ele><time>2020-10-07T11:12:26Z</time><name>PT2037</name></trkpt>
<trkpt lat="53.164589" lon="-1.997593"><ele>475</ele><time>2020-10-07T11:12:29Z</time><name>PT2038</name></trkpt>
<trkpt lat="53.164560" lon="-1.997568"><ele>475</ele><time>2020-10-07T11:12:32Z</time><name>PT2039</name></trkpt>
<trkpt lat="53.164522" lon="-1.997519"><ele>474</ele><time>2020-10-07T11:12:36Z</time><name>PT2040</name></trkpt>
<trkpt lat="53.164495" lon="-1.997504"><ele>474</ele><time>2020-10-07T11:12:39Z</time><name>PT2041</name></trkpt>
<trkpt lat="53.164452" lon="-1.997476"><ele>474</ele><time>2020-10-07T11:12:42Z</time><name>PT2042</name></trkpt>
<trkpt lat="53.164419" lon="-1.997452"><ele>473</ele><time>2020-10-07T11:12:45Z</time><name>PT2043</name></trkpt>
<trkpt lat="53.164370" lon="-1.997420"><ele>473</ele><time>2020-10-07T11:12:50Z</time><name>PT2044</name></trkpt>
<trkpt lat="53.164340" lon="-1.997401"><ele>473</ele><time>2020-10-07T11:12:53Z</time><name>PT2045</name></trkpt>
<trkpt lat="53.164316" lon="-1.997387"><ele>473</ele><time>2020-10-07T11:12:56Z</time><name>PT2046</name></trkpt>
<trkpt lat="53.164286" lon="-1.997362"><ele>473</ele><time>2020-10-07T11:12:59Z</time><name>PT2047</name></trkpt>
<trkpt lat="53.164251" lon="-1.997344"><ele>473</ele><time>2020-10-07T11:13:03Z</time><name>PT2048</name></trkpt>
<trkpt lat="53.164223" lon="-1.997346"><ele>472</ele><time>2020-10-07T11:13:06Z</time><name>PT2049</name></trkpt>
<trkpt lat="53.164182" lon="-1.997322"><ele>473</ele><time>2020-10-07T11:13:09Z</time><name>PT2050</name></trkpt>
<trkpt lat="53.164145" lon="-1.997308"><ele>473</ele><time>2020-10-07T11:13:14Z</time><name>PT2051</name></trkpt>
<trkpt lat="53.164115" lon="-1.997282"><ele>474</ele><time>2020-10-07T11:13:18Z</time><name>PT2052</name></trkpt>
<trkpt lat="53.164084" lon="-1.997241"><ele>474</ele><time>2020-10-07T11:13:21Z</time><name>PT2053</name></trkpt>
<trkpt lat="53.164054" lon="-1.997214"><ele>474</ele><time>2020-10-07T11:13:26Z</time><name>PT2054</name></trkpt>
<trkpt lat="53.164025" lon="-1.997190"><ele>474</ele><time>2020-10-07T11:13:29Z</time><name>PT2055</name></trkpt>
<trkpt lat="53.163998" lon="-1.997160"><ele>474</ele><time>2020-10-07T11:13:32Z</time><name>PT2056</name></trkpt>
<trkpt lat="53.163970" lon="-1.997122"><ele>474</ele><time>2020-10-07T11:13:35Z</time><name>PT2057</name></trkpt>
<trkpt lat="53.163930" lon="-1.997073"><ele>476</ele><time>2020-10-07T11:13:39Z</time><name>PT2058</name></trkpt>
<trkpt lat="53.163907" lon="-1.997053"><ele>477</ele><time>2020-10-07T11:13:42Z</time><name>PT2059</name></trkpt>
<trkpt lat="53.163874" lon="-1.997043"><ele>476</ele><time>2020-10-07T11:13:45Z</time><name>PT2060</name></trkpt>
<trkpt lat="53.163851" lon="-1.997017"><ele>475</ele><time>2020-10-07T11:13:48Z</time><name>PT2061</name></trkpt>
<trkpt lat="53.163816" lon="-1.996996"><ele>474</ele><time>2020-10-07T11:13:51Z</time><name>PT2062</name></trkpt>
<trkpt lat="53.163790" lon="-1.996967"><ele>474</ele><time>2020-10-07T11:13:54Z</time><name>PT2063</name></trkpt>
<trkpt lat="53.163742" lon="-1.996925"><ele>474</ele><time>2020-10-07T11:13:59Z</time><name>PT2064</name></trkpt>
<trkpt lat="53.163713" lon="-1.996900"><ele>474</ele><time>2020-10-07T11:14:02Z</time><name>PT2065</name></trkpt>
<trkpt lat="53.163669" lon="-1.996862"><ele>474</ele><time>2020-10-07T11:14:06Z</time><name>PT2066</name></trkpt>
<trkpt lat="53.163644" lon="-1.996839"><ele>473</ele><time>2020-10-07T11:14:09Z</time><name>PT2067</name></trkpt>
<trkpt lat="53.163616" lon="-1.996808"><ele>474</ele><time>2020-10-07T11:14:12Z</time><name>PT2068</name></trkpt>
<trkpt lat="53.163594" lon="-1.996759"><ele>474</ele><time>2020-10-07T11:14:17Z</time><name>PT2069</name></trkpt>
<trkpt lat="53.163571" lon="-1.996726"><ele>474</ele><time>2020-10-07T11:14:20Z</time><name>PT2070</name></trkpt>
<trkpt lat="53.163544" lon="-1.996705"><ele>473</ele><time>2020-10-07T11:14:23Z</time><name>PT2071</name></trkpt>
<trkpt lat="53.163511" lon="-1.996680"><ele>473</ele><time>2020-10-07T11:14:26Z</time><name>PT2072</name></trkpt>
<trkpt lat="53.163471" lon="-1.996650"><ele>472</ele><time>2020-10-07T11:14:30Z</time><name>PT2073</name></trkpt>
<trkpt lat="53.163444" lon="-1.996629"><ele>472</ele><time>2020-10-07T11:14:33Z</time><name>PT2074</name></trkpt>
<trkpt lat="53.163417" lon="-1.996599"><ele>472</ele><time>2020-10-07T11:14:36Z</time><name>PT2075</name></trkpt>
<trkpt lat="53.163388" lon="-1.996568"><ele>472</ele><time>2020-10-07T11:14:39Z</time><name>PT2076</name></trkpt>
<trkpt lat="53.163347" lon="-1.996559"><ele>471</ele><time>2020-10-07T11:14:42Z</time><name>PT2077</name></trkpt>
<trkpt lat="53.163323" lon="-1.996559"><ele>471</ele><time>2020-10-07T11:14:45Z</time><name>PT2078</name></trkpt>
<trkpt lat="53.163290" lon="-1.996548"><ele>470</ele><time>2020-10-07T11:14:48Z</time><name>PT2079</name></trkpt>
<trkpt lat="53.163254" lon="-1.996531"><ele>470</ele><time>2020-10-07T11:14:51Z</time><name>PT2080</name></trkpt>
<trkpt lat="53.163208" lon="-1.996524"><ele>470</ele><time>2020-10-07T11:14:56Z</time><name>PT2081</name></trkpt>
<trkpt lat="53.163162" lon="-1.996498"><ele>470</ele><time>2020-10-07T11:15:00Z</time><name>PT2082</name></trkpt>
<trkpt lat="53.163132" lon="-1.996479"><ele>470</ele><time>2020-10-07T11:15:03Z</time><name>PT2083</name></trkpt>
<trkpt lat="53.163094" lon="-1.996440"><ele>470</ele><time>2020-10-07T11:15:06Z</time><name>PT2084</name></trkpt>
<trkpt lat="53.163067" lon="-1.996421"><ele>470</ele><time>2020-10-07T11:15:09Z</time><name>PT2085</name></trkpt>
<trkpt lat="53.163029" lon="-1.996381"><ele>470</ele><time>2020-10-07T11:15:14Z</time><name>PT2086</name></trkpt>
<trkpt lat="53.163002" lon="-1.996341"><ele>470</ele><time>2020-10-07T11:15:17Z</time><name>PT2087</name></trkpt>
<trkpt lat="53.162970" lon="-1.996291"><ele>470</ele><time>2020-10-07T11:15:21Z</time><name>PT2088</name></trkpt>
<trkpt lat="53.162941" lon="-1.996267"><ele>470</ele><time>2020-10-07T11:15:24Z</time><name>PT2089</name></trkpt>
<trkpt lat="53.162912" lon="-1.996201"><ele>471</ele><time>2020-10-07T11:15:27Z</time><name>PT2090</name></trkpt>
<trkpt lat="53.162891" lon="-1.996141"><ele>471</ele><time>2020-10-07T11:15:32Z</time><name>PT2091</name></trkpt>
<trkpt lat="53.162868" lon="-1.996097"><ele>472</ele><time>2020-10-07T11:15:36Z</time><name>PT2092</name></trkpt>
<trkpt lat="53.162837" lon="-1.996043"><ele>474</ele><time>2020-10-07T11:15:39Z</time><name>PT2093</name></trkpt>
<trkpt lat="53.162816" lon="-1.996025"><ele>474</ele><time>2020-10-07T11:15:42Z</time><name>PT2094</name></trkpt>
<trkpt lat="53.162774" lon="-1.996028"><ele>471</ele><time>2020-10-07T11:15:45Z</time><name>PT2095</name></trkpt>
<trkpt lat="53.162726" lon="-1.996018"><ele>471</ele><time>2020-10-07T11:15:50Z</time><name>PT2096</name></trkpt>
<trkpt lat="53.162685" lon="-1.996009"><ele>471</ele><time>2020-10-07T11:15:53Z</time><name>PT2097</name></trkpt>
<trkpt lat="53.162655" lon="-1.995981"><ele>470</ele><time>2020-10-07T11:15:56Z</time><name>PT2098</name></trkpt>
<trkpt lat="53.162615" lon="-1.995946"><ele>471</ele><time>2020-10-07T11:16:00Z</time><name>PT2099</name></trkpt>
<trkpt lat="53.162586" lon="-1.995955"><ele>471</ele><time>2020-10-07T11:16:03Z</time><name>PT2100</name></trkpt>
<trkpt lat="53.162553" lon="-1.995956"><ele>471</ele><time>2020-10-07T11:16:06Z</time><name>PT2101</name></trkpt>
<trkpt lat="53.162516" lon="-1.995918"><ele>472</ele><time>2020-10-07T11:16:09Z</time><name>PT2102</name></trkpt>
<trkpt lat="53.162487" lon="-1.995877"><ele>472</ele><time>2020-10-07T11:16:12Z</time><name>PT2103</name></trkpt>
<trkpt lat="53.162466" lon="-1.995848"><ele>472</ele><time>2020-10-07T11:16:15Z</time><name>PT2104</name></trkpt>
<trkpt lat="53.162440" lon="-1.995802"><ele>472</ele><time>2020-10-07T11:16:20Z</time><name>PT2105</name></trkpt>
<trkpt lat="53.162405" lon="-1.995767"><ele>472</ele><time>2020-10-07T11:16:24Z</time><name>PT2106</name></trkpt>
<trkpt lat="53.162365" lon="-1.995721"><ele>473</ele><time>2020-10-07T11:16:27Z</time><name>PT2107</name></trkpt>
<trkpt lat="53.162338" lon="-1.995705"><ele>472</ele><time>2020-10-07T11:16:30Z</time><name>PT2108</name></trkpt>
<trkpt lat="53.162303" lon="-1.995663"><ele>472</ele><time>2020-10-07T11:16:35Z</time><name>PT2109</name></trkpt>
<trkpt lat="53.162265" lon="-1.995622"><ele>471</ele><time>2020-10-07T11:16:39Z</time><name>PT2110</name></trkpt>
<trkpt lat="53.162240" lon="-1.995584"><ele>471</ele><time>2020-10-07T11:16:42Z</time><name>PT2111</name></trkpt>
<trkpt lat="53.162216" lon="-1.995557"><ele>470</ele><time>2020-10-07T11:16:45Z</time><name>PT2112</name></trkpt>
<trkpt lat="53.162184" lon="-1.995523"><ele>470</ele><time>2020-10-07T11:16:48Z</time><name>PT2113</name></trkpt>
<trkpt lat="53.162166" lon="-1.995452"><ele>469</ele><time>2020-10-07T11:16:53Z</time><name>PT2114</name></trkpt>
<trkpt lat="53.162147" lon="-1.995374"><ele>469</ele><time>2020-10-07T11:16:57Z</time><name>PT2115</name></trkpt>
<trkpt lat="53.162110" lon="-1.995330"><ele>469</ele><time>2020-10-07T11:17:00Z</time><name>PT2116</name></trkpt>
<trkpt lat="53.162087" lon="-1.995280"><ele>468</ele><time>2020-10-07T11:17:03Z</time><name>PT2117</name></trkpt>
<trkpt lat="53.162053" lon="-1.995224"><ele>469</ele><time>2020-10-07T11:17:08Z</time><name>PT2118</name></trkpt>
<trkpt lat="53.162026" lon="-1.995175"><ele>469</ele><time>2020-10-07T11:17:11Z</time><name>PT2119</name></trkpt>
<trkpt lat="53.161988" lon="-1.995113"><ele>468</ele><time>2020-10-07T11:17:15Z</time><name>PT2120</name></trkpt>
<trkpt lat="53.161947" lon="-1.995071"><ele>467</ele><time>2020-10-07T11:17:18Z</time><name>PT2121</name></trkpt>
<trkpt lat="53.161906" lon="-1.995028"><ele>466</ele><time>2020-10-07T11:17:23Z</time><name>PT2122</name></trkpt>
<trkpt lat="53.161870" lon="-1.995003"><ele>466</ele><time>2020-10-07T11:17:26Z</time><name>PT2123</name></trkpt>
<trkpt lat="53.161826" lon="-1.994959"><ele>466</ele><time>2020-10-07T11:17:30Z</time><name>PT2124</name></trkpt>
<trkpt lat="53.161800" lon="-1.994933"><ele>465</ele><time>2020-10-07T11:17:33Z</time><name>PT2125</name></trkpt>
<trkpt lat="53.161776" lon="-1.994886"><ele>465</ele><time>2020-10-07T11:17:36Z</time><name>PT2126</name></trkpt>
<trkpt lat="53.161739" lon="-1.994835"><ele>465</ele><time>2020-10-07T11:17:39Z</time><name>PT2127</name></trkpt>
<trkpt lat="53.161695" lon="-1.994807"><ele>465</ele><time>2020-10-07T11:17:44Z</time><name>PT2128</name></trkpt>
<trkpt lat="53.161656" lon="-1.994782"><ele>465</ele><time>2020-10-07T11:17:47Z</time><name>PT2129</name></trkpt>
<trkpt lat="53.161620" lon="-1.994724"><ele>464</ele><time>2020-10-07T11:17:51Z</time><name>PT2130</name></trkpt>
<trkpt lat="53.161595" lon="-1.994675"><ele>464</ele><time>2020-10-07T11:17:54Z</time><name>PT2131</name></trkpt>
<trkpt lat="53.161568" lon="-1.994653"><ele>464</ele><time>2020-10-07T11:17:57Z</time><name>PT2132</name></trkpt>
<trkpt lat="53.161538" lon="-1.994639"><ele>463</ele><time>2020-10-07T11:18:00Z</time><name>PT2133</name></trkpt>
<trkpt lat="53.161497" lon="-1.994610"><ele>462</ele><time>2020-10-07T11:18:03Z</time><name>PT2134</name></trkpt>
<trkpt lat="53.161458" lon="-1.994600"><ele>461</ele><time>2020-10-07T11:18:08Z</time><name>PT2135</name></trkpt>
<trkpt lat="53.161423" lon="-1.994604"><ele>462</ele><time>2020-10-07T11:18:12Z</time><name>PT2136</name></trkpt>
<trkpt lat="53.161391" lon="-1.994583"><ele>463</ele><time>2020-10-07T11:18:15Z</time><name>PT2137</name></trkpt>
<trkpt lat="53.161391" lon="-1.994607"><ele>462</ele><time>2020-10-07T11:18:20Z</time><name>PT2138</name></trkpt>
<trkpt lat="53.161381" lon="-1.994635"><ele>462</ele><time>2020-10-07T11:18:23Z</time><name>PT2139</name></trkpt>
<trkpt lat="53.161366" lon="-1.994649"><ele>460</ele><time>2020-10-07T11:18:26Z</time><name>PT2140</name></trkpt>
<trkpt lat="53.161365" lon="-1.994657"><ele>461</ele><time>2020-10-07T11:18:29Z</time><name>PT2141</name></trkpt>
<trkpt lat="53.161368" lon="-1.994674"><ele>462</ele><time>2020-10-07T11:18:32Z</time><name>PT2142</name></trkpt>
<trkpt lat="53.161369" lon="-1.994676"><ele>462</ele><time>2020-10-07T11:18:36Z</time><name>PT2143</name></trkpt>
<trkpt lat="53.161369" lon="-1.994676"><ele>463</ele><time>2020-10-07T11:18:39Z</time><name>PT2144</name></trkpt>
<trkpt lat="53.161368" lon="-1.994674"><ele>463</ele><time>2020-10-07T11:18:42Z</time><name>PT2145</name></trkpt>
<trkpt lat="53.161367" lon="-1.994672"><ele>463</ele><time>2020-10-07T11:18:50Z</time><name>PT2146</name></trkpt>
<trkpt lat="53.161367" lon="-1.994670"><ele>463</ele><time>2020-10-07T11:18:54Z</time><name>PT2147</name></trkpt>
<trkpt lat="53.161365" lon="-1.994674"><ele>463</ele><time>2020-10-07T11:19:00Z</time><name>PT2148</name></trkpt>
<trkpt lat="53.161367" lon="-1.994674"><ele>463</ele><time>2020-10-07T11:19:03Z</time><name>PT2149</name></trkpt>
<trkpt lat="53.161367" lon="-1.994670"><ele>463</ele><time>2020-10-07T11:19:18Z</time><name>PT2150</name></trkpt>
<trkpt lat="53.161367" lon="-1.994659"><ele>463</ele><time>2020-10-07T11:19:21Z</time><name>PT2151</name></trkpt>
<trkpt lat="53.161367" lon="-1.994661"><ele>463</ele><time>2020-10-07T11:19:24Z</time><name>PT2152</name></trkpt>
<trkpt lat="53.161358" lon="-1.994667"><ele>463</ele><time>2020-10-07T11:19:32Z</time><name>PT2153</name></trkpt>
<trkpt lat="53.161359" lon="-1.994670"><ele>463</ele><time>2020-10-07T11:19:35Z</time><name>PT2154</name></trkpt>
<trkpt lat="53.161356" lon="-1.994662"><ele>463</ele><time>2020-10-07T11:19:50Z</time><name>PT2155</name></trkpt>
<trkpt lat="53.161359" lon="-1.994658"><ele>463</ele><time>2020-10-07T11:20:21Z</time><name>PT2156</name></trkpt>
<trkpt lat="53.161360" lon="-1.994658"><ele>463</ele><time>2020-10-07T11:20:24Z</time><name>PT2157</name></trkpt>
<trkpt lat="53.161380" lon="-1.994633"><ele>462</ele><time>2020-10-07T11:20:35Z</time><name>PT2158</name></trkpt>
<trkpt lat="53.161388" lon="-1.994638"><ele>461</ele><time>2020-10-07T11:20:38Z</time><name>PT2159</name></trkpt>
<trkpt lat="53.161386" lon="-1.994647"><ele>460</ele><time>2020-10-07T11:20:42Z</time><name>PT2160</name></trkpt>
<trkpt lat="53.161402" lon="-1.994614"><ele>458</ele><time>2020-10-07T11:20:45Z</time><name>PT2161</name></trkpt>
<trkpt lat="53.161406" lon="-1.994570"><ele>459</ele><time>2020-10-07T11:20:48Z</time><name>PT2162</name></trkpt>
<trkpt lat="53.161399" lon="-1.994599"><ele>461</ele><time>2020-10-07T11:20:53Z</time><name>PT2163</name></trkpt>
<trkpt lat="53.161394" lon="-1.994630"><ele>461</ele><time>2020-10-07T11:20:56Z</time><name>PT2164</name></trkpt>
<trkpt lat="53.161376" lon="-1.994656"><ele>461</ele><time>2020-10-07T11:25:24Z</time><name>PT2165</name></trkpt>
<trkpt lat="53.161377" lon="-1.994670"><ele>461</ele><time>2020-10-07T11:25:27Z</time><name>PT2166</name></trkpt>
<trkpt lat="53.161381" lon="-1.994690"><ele>462</ele><time>2020-10-07T11:25:30Z</time><name>PT2167</name></trkpt>
<trkpt lat="53.161372" lon="-1.994684"><ele>462</ele><time>2020-10-07T11:25:59Z</time><name>PT2168</name></trkpt>
<trkpt lat="53.161358" lon="-1.994668"><ele>462</ele><time>2020-10-07T11:26:02Z</time><name>PT2169</name></trkpt>
<trkpt lat="53.161353" lon="-1.994655"><ele>462</ele><time>2020-10-07T11:26:06Z</time><name>PT2170</name></trkpt>
<trkpt lat="53.161351" lon="-1.994660"><ele>462</ele><time>2020-10-07T11:26:15Z</time><name>PT2171</name></trkpt>
<trkpt lat="53.161340" lon="-1.994619"><ele>461</ele><time>2020-10-07T11:26:18Z</time><name>PT2172</name></trkpt>
<trkpt lat="53.161331" lon="-1.994552"><ele>462</ele><time>2020-10-07T11:26:23Z</time><name>PT2173</name></trkpt>
<trkpt lat="53.161312" lon="-1.994491"><ele>461</ele><time>2020-10-07T11:26:27Z</time><name>PT2174</name></trkpt>
<trkpt lat="53.161319" lon="-1.994459"><ele>461</ele><time>2020-10-07T11:26:30Z</time><name>PT2175</name></trkpt>
<trkpt lat="53.161300" lon="-1.994416"><ele>461</ele><time>2020-10-07T11:26:33Z</time><name>PT2176</name></trkpt>
<trkpt lat="53.161262" lon="-1.994369"><ele>461</ele><time>2020-10-07T11:26:38Z</time><name>PT2177</name></trkpt>
<trkpt lat="53.161238" lon="-1.994353"><ele>462</ele><time>2020-10-07T11:26:41Z</time><name>PT2178</name></trkpt>
<trkpt lat="53.161219" lon="-1.994292"><ele>461</ele><time>2020-10-07T11:26:45Z</time><name>PT2179</name></trkpt>
<trkpt lat="53.161180" lon="-1.994255"><ele>460</ele><time>2020-10-07T11:26:48Z</time><name>PT2180</name></trkpt>
<trkpt lat="53.161149" lon="-1.994221"><ele>460</ele><time>2020-10-07T11:26:51Z</time><name>PT2181</name></trkpt>
<trkpt lat="53.161110" lon="-1.994185"><ele>459</ele><time>2020-10-07T11:26:56Z</time><name>PT2182</name></trkpt>
<trkpt lat="53.161080" lon="-1.994137"><ele>458</ele><time>2020-10-07T11:27:00Z</time><name>PT2183</name></trkpt>
<trkpt lat="53.161058" lon="-1.994097"><ele>458</ele><time>2020-10-07T11:27:03Z</time><name>PT2184</name></trkpt>
<trkpt lat="53.161028" lon="-1.994021"><ele>458</ele><time>2020-10-07T11:27:06Z</time><name>PT2185</name></trkpt>
<trkpt lat="53.161002" lon="-1.993959"><ele>458</ele><time>2020-10-07T11:27:11Z</time><name>PT2186</name></trkpt>
<trkpt lat="53.160979" lon="-1.993916"><ele>457</ele><time>2020-10-07T11:27:14Z</time><name>PT2187</name></trkpt>
<trkpt lat="53.160949" lon="-1.993874"><ele>457</ele><time>2020-10-07T11:27:18Z</time><name>PT2188</name></trkpt>
<trkpt lat="53.160924" lon="-1.993848"><ele>456</ele><time>2020-10-07T11:27:21Z</time><name>PT2189</name></trkpt>
<trkpt lat="53.160885" lon="-1.993813"><ele>456</ele><time>2020-10-07T11:27:24Z</time><name>PT2190</name></trkpt>
<trkpt lat="53.160854" lon="-1.993792"><ele>455</ele><time>2020-10-07T11:27:27Z</time><name>PT2191</name></trkpt>
<trkpt lat="53.160820" lon="-1.993758"><ele>455</ele><time>2020-10-07T11:27:30Z</time><name>PT2192</name></trkpt>
<trkpt lat="53.160780" lon="-1.993728"><ele>455</ele><time>2020-10-07T11:27:35Z</time><name>PT2193</name></trkpt>
<trkpt lat="53.160748" lon="-1.993703"><ele>455</ele><time>2020-10-07T11:27:38Z</time><name>PT2194</name></trkpt>
<trkpt lat="53.160711" lon="-1.993709"><ele>453</ele><time>2020-10-07T11:27:41Z</time><name>PT2195</name></trkpt>
<trkpt lat="53.160664" lon="-1.993718"><ele>453</ele><time>2020-10-07T11:27:45Z</time><name>PT2196</name></trkpt>
<trkpt lat="53.160632" lon="-1.993702"><ele>453</ele><time>2020-10-07T11:27:48Z</time><name>PT2197</name></trkpt>
<trkpt lat="53.160575" lon="-1.993670"><ele>452</ele><time>2020-10-07T11:27:51Z</time><name>PT2198</name></trkpt>
<trkpt lat="53.160538" lon="-1.993638"><ele>453</ele><time>2020-10-07T11:27:56Z</time><name>PT2199</name></trkpt>
<trkpt lat="53.160513" lon="-1.993618"><ele>453</ele><time>2020-10-07T11:27:59Z</time><name>PT2200</name></trkpt>
<trkpt lat="53.160497" lon="-1.993596"><ele>453</ele><time>2020-10-07T11:28:02Z</time><name>PT2201</name></trkpt>
<trkpt lat="53.160483" lon="-1.993564"><ele>453</ele><time>2020-10-07T11:28:05Z</time><name>PT2202</name></trkpt>
<trkpt lat="53.160445" lon="-1.993531"><ele>453</ele><time>2020-10-07T11:28:09Z</time><name>PT2203</name></trkpt>
<trkpt lat="53.160405" lon="-1.993508"><ele>452</ele><time>2020-10-07T11:28:12Z</time><name>PT2204</name></trkpt>
<trkpt lat="53.160387" lon="-1.993488"><ele>452</ele><time>2020-10-07T11:28:15Z</time><name>PT2205</name></trkpt>
<trkpt lat="53.160363" lon="-1.993449"><ele>451</ele><time>2020-10-07T11:28:18Z</time><name>PT2206</name></trkpt>
<trkpt lat="53.160319" lon="-1.993440"><ele>451</ele><time>2020-10-07T11:28:23Z</time><name>PT2207</name></trkpt>
<trkpt lat="53.160290" lon="-1.993428"><ele>452</ele><time>2020-10-07T11:28:26Z</time><name>PT2208</name></trkpt>
<trkpt lat="53.160264" lon="-1.993419"><ele>451</ele><time>2020-10-07T11:28:29Z</time><name>PT2209</name></trkpt>
<trkpt lat="53.160237" lon="-1.993401"><ele>451</ele><time>2020-10-07T11:28:32Z</time><name>PT2210</name></trkpt>
<trkpt lat="53.160204" lon="-1.993371"><ele>449</ele><time>2020-10-07T11:28:36Z</time><name>PT2211</name></trkpt>
<trkpt lat="53.160175" lon="-1.993388"><ele>447</ele><time>2020-10-07T11:28:39Z</time><name>PT2212</name></trkpt>
<trkpt lat="53.160159" lon="-1.993401"><ele>446</ele><time>2020-10-07T11:28:44Z</time><name>PT2213</name></trkpt>
<trkpt lat="53.160135" lon="-1.993427"><ele>445</ele><time>2020-10-07T11:28:47Z</time><name>PT2214</name></trkpt>
<trkpt lat="53.160105" lon="-1.993429"><ele>444</ele><time>2020-10-07T11:28:51Z</time><name>PT2215</name></trkpt>
<trkpt lat="53.160072" lon="-1.993416"><ele>442</ele><time>2020-10-07T11:28:54Z</time><name>PT2216</name></trkpt>
<trkpt lat="53.160034" lon="-1.993408"><ele>441</ele><time>2020-10-07T11:28:57Z</time><name>PT2217</name></trkpt>
<trkpt lat="53.159979" lon="-1.993404"><ele>440</ele><time>2020-10-07T11:29:02Z</time><name>PT2218</name></trkpt>
<trkpt lat="53.159950" lon="-1.993402"><ele>440</ele><time>2020-10-07T11:29:05Z</time><name>PT2219</name></trkpt>
<trkpt lat="53.159915" lon="-1.993397"><ele>440</ele><time>2020-10-07T11:29:08Z</time><name>PT2220</name></trkpt>
<trkpt lat="53.159857" lon="-1.993374"><ele>440</ele><time>2020-10-07T11:29:12Z</time><name>PT2221</name></trkpt>
<trkpt lat="53.159808" lon="-1.993334"><ele>439</ele><time>2020-10-07T11:29:16Z</time><name>PT2222</name></trkpt>
<trkpt lat="53.159766" lon="-1.993287"><ele>439</ele><time>2020-10-07T11:29:20Z</time><name>PT2223</name></trkpt>
<trkpt lat="53.159736" lon="-1.993230"><ele>439</ele><time>2020-10-07T11:29:24Z</time><name>PT2224</name></trkpt>
<trkpt lat="53.159723" lon="-1.993185"><ele>439</ele><time>2020-10-07T11:29:27Z</time><name>PT2225</name></trkpt>
<trkpt lat="53.159690" lon="-1.993136"><ele>439</ele><time>2020-10-07T11:29:30Z</time><name>PT2226</name></trkpt>
<trkpt lat="53.159677" lon="-1.993128"><ele>440</ele><time>2020-10-07T11:29:33Z</time><name>PT2227</name></trkpt>
<trkpt lat="53.159659" lon="-1.993145"><ele>440</ele><time>2020-10-07T11:29:36Z</time><name>PT2228</name></trkpt>
<trkpt lat="53.159642" lon="-1.993180"><ele>438</ele><time>2020-10-07T11:29:41Z</time><name>PT2229</name></trkpt>
<trkpt lat="53.159647" lon="-1.993226"><ele>436</ele><time>2020-10-07T11:29:45Z</time><name>PT2230</name></trkpt>
<trkpt lat="53.159647" lon="-1.993251"><ele>434</ele><time>2020-10-07T11:29:48Z</time><name>PT2231</name></trkpt>
<trkpt lat="53.159650" lon="-1.993278"><ele>432</ele><time>2020-10-07T11:29:53Z</time><name>PT2232</name></trkpt>
<trkpt lat="53.159647" lon="-1.993306"><ele>430</ele><time>2020-10-07T11:29:56Z</time><name>PT2233</name></trkpt>
<trkpt lat="53.159635" lon="-1.993339"><ele>429</ele><time>2020-10-07T11:29:59Z</time><name>PT2234</name></trkpt>
<trkpt lat="53.159625" lon="-1.993391"><ele>428</ele><time>2020-10-07T11:30:03Z</time><name>PT2235</name></trkpt>
<trkpt lat="53.159628" lon="-1.993424"><ele>426</ele><time>2020-10-07T11:30:06Z</time><name>PT2236</name></trkpt>
<trkpt lat="53.159636" lon="-1.993430"><ele>426</ele><time>2020-10-07T11:30:09Z</time><name>PT2237</name></trkpt>
<trkpt lat="53.159647" lon="-1.993489"><ele>426</ele><time>2020-10-07T11:30:14Z</time><name>PT2238</name></trkpt>
<trkpt lat="53.159663" lon="-1.993549"><ele>425</ele><time>2020-10-07T11:30:18Z</time><name>PT2239</name></trkpt>
<trkpt lat="53.159675" lon="-1.993594"><ele>424</ele><time>2020-10-07T11:30:21Z</time><name>PT2240</name></trkpt>
<trkpt lat="53.159687" lon="-1.993629"><ele>422</ele><time>2020-10-07T11:30:24Z</time><name>PT2241</name></trkpt>
<trkpt lat="53.159699" lon="-1.993670"><ele>420</ele><time>2020-10-07T11:30:29Z</time><name>PT2242</name></trkpt>
<trkpt lat="53.159701" lon="-1.993742"><ele>419</ele><time>2020-10-07T11:30:32Z</time><name>PT2243</name></trkpt>
<trkpt lat="53.159702" lon="-1.993832"><ele>421</ele><time>2020-10-07T11:30:35Z</time><name>PT2244</name></trkpt>
<trkpt lat="53.159701" lon="-1.993875"><ele>419</ele><time>2020-10-07T11:30:38Z</time><name>PT2245</name></trkpt>
<trkpt lat="53.159696" lon="-1.993953"><ele>419</ele><time>2020-10-07T11:30:42Z</time><name>PT2246</name></trkpt>
<trkpt lat="53.159695" lon="-1.993971"><ele>418</ele><time>2020-10-07T11:30:45Z</time><name>PT2247</name></trkpt>
<trkpt lat="53.159669" lon="-1.993979"><ele>417</ele><time>2020-10-07T11:30:48Z</time><name>PT2248</name></trkpt>
<trkpt lat="53.159646" lon="-1.993962"><ele>416</ele><time>2020-10-07T11:30:51Z</time><name>PT2249</name></trkpt>
<trkpt lat="53.159626" lon="-1.993944"><ele>414</ele><time>2020-10-07T11:30:54Z</time><name>PT2250</name></trkpt>
<trkpt lat="53.159594" lon="-1.993911"><ele>412</ele><time>2020-10-07T11:30:59Z</time><name>PT2251</name></trkpt>
<trkpt lat="53.159567" lon="-1.993912"><ele>411</ele><time>2020-10-07T11:31:03Z</time><name>PT2252</name></trkpt>
<trkpt lat="53.159535" lon="-1.993911"><ele>412</ele><time>2020-10-07T11:31:06Z</time><name>PT2253</name></trkpt>
<trkpt lat="53.159506" lon="-1.993895"><ele>411</ele><time>2020-10-07T11:31:09Z</time><name>PT2254</name></trkpt>
<trkpt lat="53.159475" lon="-1.993867"><ele>409</ele><time>2020-10-07T11:31:12Z</time><name>PT2255</name></trkpt>
<trkpt lat="53.159433" lon="-1.993851"><ele>409</ele><time>2020-10-07T11:31:17Z</time><name>PT2256</name></trkpt>
<trkpt lat="53.159408" lon="-1.993823"><ele>408</ele><time>2020-10-07T11:31:20Z</time><name>PT2257</name></trkpt>
<trkpt lat="53.159337" lon="-1.993814"><ele>410</ele><time>2020-10-07T11:31:24Z</time><name>PT2258</name></trkpt>
<trkpt lat="53.159283" lon="-1.993793"><ele>413</ele><time>2020-10-07T11:31:27Z</time><name>PT2259</name></trkpt>
<trkpt lat="53.159238" lon="-1.993765"><ele>411</ele><time>2020-10-07T11:31:30Z</time><name>PT2260</name></trkpt>
<trkpt lat="53.159206" lon="-1.993739"><ele>409</ele><time>2020-10-07T11:31:33Z</time><name>PT2261</name></trkpt>
<trkpt lat="53.159176" lon="-1.993708"><ele>408</ele><time>2020-10-07T11:31:38Z</time><name>PT2262</name></trkpt>
<trkpt lat="53.159153" lon="-1.993702"><ele>407</ele><time>2020-10-07T11:31:41Z</time><name>PT2263</name></trkpt>
<trkpt lat="53.159120" lon="-1.993679"><ele>408</ele><time>2020-10-07T11:31:44Z</time><name>PT2264</name></trkpt>
<trkpt lat="53.159085" lon="-1.993632"><ele>410</ele><time>2020-10-07T11:31:47Z</time><name>PT2265</name></trkpt>
<trkpt lat="53.159045" lon="-1.993593"><ele>413</ele><time>2020-10-07T11:31:50Z</time><name>PT2266</name></trkpt>
<trkpt lat="53.158981" lon="-1.993568"><ele>415</ele><time>2020-10-07T11:31:54Z</time><name>PT2267</name></trkpt>
<trkpt lat="53.158952" lon="-1.993532"><ele>415</ele><time>2020-10-07T11:31:57Z</time><name>PT2268</name></trkpt>
<trkpt lat="53.158903" lon="-1.993510"><ele>415</ele><time>2020-10-07T11:32:00Z</time><name>PT2269</name></trkpt>
<trkpt lat="53.158872" lon="-1.993502"><ele>414</ele><time>2020-10-07T11:32:04Z</time><name>PT2270</name></trkpt>
<trkpt lat="53.158835" lon="-1.993485"><ele>414</ele><time>2020-10-07T11:32:07Z</time><name>PT2271</name></trkpt>
<trkpt lat="53.158801" lon="-1.993488"><ele>413</ele><time>2020-10-07T11:32:10Z</time><name>PT2272</name></trkpt>
<trkpt lat="53.158769" lon="-1.993456"><ele>412</ele><time>2020-10-07T11:32:14Z</time><name>PT2273</name></trkpt>
<trkpt lat="53.158742" lon="-1.993439"><ele>410</ele><time>2020-10-07T11:32:17Z</time><name>PT2274</name></trkpt>
<trkpt lat="53.158710" lon="-1.993428"><ele>406</ele><time>2020-10-07T11:32:20Z</time><name>PT2275</name></trkpt>
<trkpt lat="53.158663" lon="-1.993425"><ele>405</ele><time>2020-10-07T11:32:24Z</time><name>PT2276</name></trkpt>
<trkpt lat="53.158631" lon="-1.993371"><ele>404</ele><time>2020-10-07T11:32:27Z</time><name>PT2277</name></trkpt>
<trkpt lat="53.158600" lon="-1.993327"><ele>402</ele><time>2020-10-07T11:32:32Z</time><name>PT2278</name></trkpt>
<trkpt lat="53.158562" lon="-1.993298"><ele>403</ele><time>2020-10-07T11:32:35Z</time><name>PT2279</name></trkpt>
<trkpt lat="53.158522" lon="-1.993265"><ele>403</ele><time>2020-10-07T11:32:38Z</time><name>PT2280</name></trkpt>
<trkpt lat="53.158496" lon="-1.993239"><ele>402</ele><time>2020-10-07T11:32:41Z</time><name>PT2281</name></trkpt>
<trkpt lat="53.158445" lon="-1.993232"><ele>402</ele><time>2020-10-07T11:32:45Z</time><name>PT2282</name></trkpt>
<trkpt lat="53.158410" lon="-1.993193"><ele>403</ele><time>2020-10-07T11:32:48Z</time><name>PT2283</name></trkpt>
<trkpt lat="53.158349" lon="-1.993153"><ele>407</ele><time>2020-10-07T11:32:51Z</time><name>PT2284</name></trkpt>
<trkpt lat="53.158311" lon="-1.993131"><ele>409</ele><time>2020-10-07T11:32:54Z</time><name>PT2285</name></trkpt>
<trkpt lat="53.158300" lon="-1.993121"><ele>410</ele><time>2020-10-07T11:32:57Z</time><name>PT2286</name></trkpt>
<trkpt lat="53.158291" lon="-1.993109"><ele>409</ele><time>2020-10-07T11:33:02Z</time><name>PT2287</name></trkpt>
<trkpt lat="53.158266" lon="-1.993086"><ele>407</ele><time>2020-10-07T11:33:06Z</time><name>PT2288</name></trkpt>
<trkpt lat="53.158246" lon="-1.993058"><ele>406</ele><time>2020-10-07T11:33:09Z</time><name>PT2289</name></trkpt>
<trkpt lat="53.158240" lon="-1.993046"><ele>406</ele><time>2020-10-07T11:33:12Z</time><name>PT2290</name></trkpt>
<trkpt lat="53.158240" lon="-1.993028"><ele>405</ele><time>2020-10-07T11:33:15Z</time><name>PT2291</name></trkpt>
<trkpt lat="53.158234" lon="-1.993007"><ele>404</ele><time>2020-10-07T11:33:18Z</time><name>PT2292</name></trkpt>
<trkpt lat="53.158183" lon="-1.992983"><ele>404</ele><time>2020-10-07T11:33:35Z</time><name>PT2293</name></trkpt>
<trkpt lat="53.158139" lon="-1.992984"><ele>403</ele><time>2020-10-07T11:33:39Z</time><name>PT2294</name></trkpt>
<trkpt lat="53.158111" lon="-1.993011"><ele>407</ele><time>2020-10-07T11:33:42Z</time><name>PT2295</name></trkpt>
<trkpt lat="53.158107" lon="-1.993014"><ele>406</ele><time>2020-10-07T11:33:45Z</time><name>PT2296</name></trkpt>
<trkpt lat="53.158075" lon="-1.992973"><ele>407</ele><time>2020-10-07T11:33:50Z</time><name>PT2297</name></trkpt>
<trkpt lat="53.158055" lon="-1.992954"><ele>408</ele><time>2020-10-07T11:33:54Z</time><name>PT2298</name></trkpt>
<trkpt lat="53.158044" lon="-1.992942"><ele>408</ele><time>2020-10-07T11:33:57Z</time><name>PT2299</name></trkpt>
<trkpt lat="53.158038" lon="-1.992954"><ele>408</ele><time>2020-10-07T11:34:00Z</time><name>PT2300</name></trkpt>
<trkpt lat="53.158038" lon="-1.992954"><ele>408</ele><time>2020-10-07T11:34:03Z</time><name>PT2301</name></trkpt>
<trkpt lat="53.158029" lon="-1.992941"><ele>410</ele><time>2020-10-07T11:34:45Z</time><name>PT2302</name></trkpt>
<trkpt lat="53.158025" lon="-1.992935"><ele>410</ele><time>2020-10-07T11:34:48Z</time><name>PT2303</name></trkpt>
<trkpt lat="53.158010" lon="-1.992920"><ele>410</ele><time>2020-10-07T11:35:30Z</time><name>PT2304</name></trkpt>
<trkpt lat="53.157993" lon="-1.992895"><ele>410</ele><time>2020-10-07T11:35:33Z</time><name>PT2305</name></trkpt>
<trkpt lat="53.157975" lon="-1.992885"><ele>408</ele><time>2020-10-07T11:35:36Z</time><name>PT2306</name></trkpt>
<trkpt lat="53.157953" lon="-1.992851"><ele>407</ele><time>2020-10-07T11:35:41Z</time><name>PT2307</name></trkpt>
<trkpt lat="53.157922" lon="-1.992837"><ele>407</ele><time>2020-10-07T11:35:44Z</time><name>PT2308</name></trkpt>
<trkpt lat="53.157881" lon="-1.992825"><ele>407</ele><time>2020-10-07T11:35:47Z</time><name>PT2309</name></trkpt>
<trkpt lat="53.157850" lon="-1.992807"><ele>407</ele><time>2020-10-07T11:35:51Z</time><name>PT2310</name></trkpt>
<trkpt lat="53.157844" lon="-1.992799"><ele>407</ele><time>2020-10-07T11:35:54Z</time><name>PT2311</name></trkpt>
<trkpt lat="53.157841" lon="-1.992790"><ele>408</ele><time>2020-10-07T11:36:06Z</time><name>PT2312</name></trkpt>
<trkpt lat="53.157813" lon="-1.992770"><ele>407</ele><time>2020-10-07T11:36:11Z</time><name>PT2313</name></trkpt>
<trkpt lat="53.157808" lon="-1.992768"><ele>407</ele><time>2020-10-07T11:36:14Z</time><name>PT2314</name></trkpt>
<trkpt lat="53.157794" lon="-1.992739"><ele>406</ele><time>2020-10-07T11:36:21Z</time><name>PT2315</name></trkpt>
<trkpt lat="53.157762" lon="-1.992728"><ele>406</ele><time>2020-10-07T11:36:24Z</time><name>PT2316</name></trkpt>
<trkpt lat="53.157726" lon="-1.992716"><ele>405</ele><time>2020-10-07T11:36:27Z</time><name>PT2317</name></trkpt>
<trkpt lat="53.157699" lon="-1.992693"><ele>405</ele><time>2020-10-07T11:36:30Z</time><name>PT2318</name></trkpt>
<trkpt lat="53.157652" lon="-1.992686"><ele>404</ele><time>2020-10-07T11:36:34Z</time><name>PT2319</name></trkpt>
<trkpt lat="53.157623" lon="-1.992670"><ele>404</ele><time>2020-10-07T11:36:37Z</time><name>PT2320</name></trkpt>
<trkpt lat="53.157601" lon="-1.992641"><ele>403</ele><time>2020-10-07T11:36:41Z</time><name>PT2321</name></trkpt>
<trkpt lat="53.157595" lon="-1.992637"><ele>404</ele><time>2020-10-07T11:36:45Z</time><name>PT2322</name></trkpt>
<trkpt lat="53.157580" lon="-1.992603"><ele>404</ele><time>2020-10-07T11:37:24Z</time><name>PT2323</name></trkpt>
<trkpt lat="53.157551" lon="-1.992560"><ele>403</ele><time>2020-10-07T11:37:27Z</time><name>PT2324</name></trkpt>
<trkpt lat="53.157514" lon="-1.992503"><ele>402</ele><time>2020-10-07T11:37:30Z</time><name>PT2325</name></trkpt>
<trkpt lat="53.157481" lon="-1.992463"><ele>402</ele><time>2020-10-07T11:37:35Z</time><name>PT2326</name></trkpt>
<trkpt lat="53.157458" lon="-1.992438"><ele>401</ele><time>2020-10-07T11:37:38Z</time><name>PT2327</name></trkpt>
<trkpt lat="53.157437" lon="-1.992436"><ele>400</ele><time>2020-10-07T11:37:41Z</time><name>PT2328</name></trkpt>
<trkpt lat="53.157417" lon="-1.992417"><ele>399</ele><time>2020-10-07T11:37:44Z</time><name>PT2329</name></trkpt>
<trkpt lat="53.157392" lon="-1.992411"><ele>399</ele><time>2020-10-07T11:37:48Z</time><name>PT2330</name></trkpt>
<trkpt lat="53.157369" lon="-1.992434"><ele>399</ele><time>2020-10-07T11:37:51Z</time><name>PT2331</name></trkpt>
<trkpt lat="53.157365" lon="-1.992451"><ele>397</ele><time>2020-10-07T11:37:56Z</time><name>PT2332</name></trkpt>
<trkpt lat="53.157366" lon="-1.992453"><ele>395</ele><time>2020-10-07T11:37:59Z</time><name>PT2333</name></trkpt>
<trkpt lat="53.157368" lon="-1.992459"><ele>395</ele><time>2020-10-07T11:38:02Z</time><name>PT2334</name></trkpt>
<trkpt lat="53.157367" lon="-1.992466"><ele>392</ele><time>2020-10-07T11:38:06Z</time><name>PT2335</name></trkpt>
<trkpt lat="53.157368" lon="-1.992469"><ele>390</ele><time>2020-10-07T11:38:09Z</time><name>PT2336</name></trkpt>
<trkpt lat="53.157381" lon="-1.992482"><ele>390</ele><time>2020-10-07T11:38:12Z</time><name>PT2337</name></trkpt>
<trkpt lat="53.157392" lon="-1.992509"><ele>389</ele><time>2020-10-07T11:38:15Z</time><name>PT2338</name></trkpt>
<trkpt lat="53.157397" lon="-1.992542"><ele>387</ele><time>2020-10-07T11:38:20Z</time><name>PT2339</name></trkpt>
<trkpt lat="53.157387" lon="-1.992565"><ele>387</ele><time>2020-10-07T11:38:23Z</time><name>PT2340</name></trkpt>
<trkpt lat="53.157367" lon="-1.992585"><ele>385</ele><time>2020-10-07T11:38:27Z</time><name>PT2341</name></trkpt>
<trkpt lat="53.157351" lon="-1.992587"><ele>384</ele><time>2020-10-07T11:38:30Z</time><name>PT2342</name></trkpt>
<trkpt lat="53.157335" lon="-1.992592"><ele>383</ele><time>2020-10-07T11:38:33Z</time><name>PT2343</name></trkpt>
<trkpt lat="53.157310" lon="-1.992620"><ele>384</ele><time>2020-10-07T11:38:38Z</time><name>PT2344</name></trkpt>
<trkpt lat="53.157297" lon="-1.992628"><ele>384</ele><time>2020-10-07T11:38:42Z</time><name>PT2345</name></trkpt>
<trkpt lat="53.157276" lon="-1.992641"><ele>384</ele><time>2020-10-07T11:38:45Z</time><name>PT2346</name></trkpt>
<trkpt lat="53.157273" lon="-1.992618"><ele>382</ele><time>2020-10-07T11:38:48Z</time><name>PT2347</name></trkpt>
<trkpt lat="53.157267" lon="-1.992633"><ele>381</ele><time>2020-10-07T11:38:51Z</time><name>PT2348</name></trkpt>
<trkpt lat="53.157259" lon="-1.992664"><ele>380</ele><time>2020-10-07T11:38:54Z</time><name>PT2349</name></trkpt>
<trkpt lat="53.157234" lon="-1.992669"><ele>379</ele><time>2020-10-07T11:38:59Z</time><name>PT2350</name></trkpt>
<trkpt lat="53.157217" lon="-1.992676"><ele>379</ele><time>2020-10-07T11:39:02Z</time><name>PT2351</name></trkpt>
<trkpt lat="53.157186" lon="-1.992665"><ele>377</ele><time>2020-10-07T11:39:06Z</time><name>PT2352</name></trkpt>
<trkpt lat="53.157170" lon="-1.992663"><ele>375</ele><time>2020-10-07T11:39:09Z</time><name>PT2353</name></trkpt>
<trkpt lat="53.157125" lon="-1.992666"><ele>374</ele><time>2020-10-07T11:39:14Z</time><name>PT2354</name></trkpt>
<trkpt lat="53.157107" lon="-1.992673"><ele>373</ele><time>2020-10-07T11:39:17Z</time><name>PT2355</name></trkpt>
<trkpt lat="53.157073" lon="-1.992676"><ele>372</ele><time>2020-10-07T11:39:20Z</time><name>PT2356</name></trkpt>
<trkpt lat="53.157042" lon="-1.992658"><ele>371</ele><time>2020-10-07T11:39:24Z</time><name>PT2357</name></trkpt>
<trkpt lat="53.157011" lon="-1.992656"><ele>370</ele><time>2020-10-07T11:39:27Z</time><name>PT2358</name></trkpt>
<trkpt lat="53.156993" lon="-1.992649"><ele>368</ele><time>2020-10-07T11:39:30Z</time><name>PT2359</name></trkpt>
<trkpt lat="53.156966" lon="-1.992640"><ele>368</ele><time>2020-10-07T11:39:33Z</time><name>PT2360</name></trkpt>
<trkpt lat="53.156928" lon="-1.992610"><ele>370</ele><time>2020-10-07T11:39:36Z</time><name>PT2361</name></trkpt>
<trkpt lat="53.156915" lon="-1.992588"><ele>369</ele><time>2020-10-07T11:39:41Z</time><name>PT2362</name></trkpt>
<trkpt lat="53.156912" lon="-1.992575"><ele>370</ele><time>2020-10-07T11:39:44Z</time><name>PT2363</name></trkpt>
<trkpt lat="53.156894" lon="-1.992579"><ele>369</ele><time>2020-10-07T11:39:47Z</time><name>PT2364</name></trkpt>
<trkpt lat="53.156887" lon="-1.992576"><ele>369</ele><time>2020-10-07T11:39:50Z</time><name>PT2365</name></trkpt>
<trkpt lat="53.156881" lon="-1.992566"><ele>368</ele><time>2020-10-07T11:40:06Z</time><name>PT2366</name></trkpt>
<trkpt lat="53.156880" lon="-1.992554"><ele>369</ele><time>2020-10-07T11:40:11Z</time><name>PT2367</name></trkpt>
<trkpt lat="53.156869" lon="-1.992553"><ele>369</ele><time>2020-10-07T11:40:41Z</time><name>PT2368</name></trkpt>
<trkpt lat="53.156846" lon="-1.992545"><ele>369</ele><time>2020-10-07T11:40:45Z</time><name>PT2369</name></trkpt>
<trkpt lat="53.156834" lon="-1.992537"><ele>370</ele><time>2020-10-07T11:40:54Z</time><name>PT2370</name></trkpt>
<trkpt lat="53.156810" lon="-1.992503"><ele>370</ele><time>2020-10-07T11:40:58Z</time><name>PT2371</name></trkpt>
<trkpt lat="53.156793" lon="-1.992476"><ele>368</ele><time>2020-10-07T11:41:02Z</time><name>PT2372</name></trkpt>
<trkpt lat="53.156775" lon="-1.992470"><ele>368</ele><time>2020-10-07T11:41:06Z</time><name>PT2373</name></trkpt>
<trkpt lat="53.156758" lon="-1.992461"><ele>368</ele><time>2020-10-07T11:41:09Z</time><name>PT2374</name></trkpt>
<trkpt lat="53.156729" lon="-1.992459"><ele>369</ele><time>2020-10-07T11:41:14Z</time><name>PT2375</name></trkpt>
<trkpt lat="53.156719" lon="-1.992452"><ele>369</ele><time>2020-10-07T11:41:17Z</time><name>PT2376</name></trkpt>
<trkpt lat="53.156716" lon="-1.992439"><ele>369</ele><time>2020-10-07T11:41:21Z</time><name>PT2377</name></trkpt>
<trkpt lat="53.156715" lon="-1.992435"><ele>369</ele><time>2020-10-07T11:41:24Z</time><name>PT2378</name></trkpt>
<trkpt lat="53.156727" lon="-1.992451"><ele>368</ele><time>2020-10-07T11:41:29Z</time><name>PT2379</name></trkpt>
<trkpt lat="53.156725" lon="-1.992441"><ele>367</ele><time>2020-10-07T11:41:32Z</time><name>PT2380</name></trkpt>
<trkpt lat="53.156742" lon="-1.992456"><ele>366</ele><time>2020-10-07T11:41:36Z</time><name>PT2381</name></trkpt>
<trkpt lat="53.156710" lon="-1.992464"><ele>367</ele><time>2020-10-07T11:41:39Z</time><name>PT2382</name></trkpt>
<trkpt lat="53.156695" lon="-1.992439"><ele>367</ele><time>2020-10-07T11:41:44Z</time><name>PT2383</name></trkpt>
<trkpt lat="53.156691" lon="-1.992461"><ele>366</ele><time>2020-10-07T11:41:48Z</time><name>PT2384</name></trkpt>
<trkpt lat="53.156690" lon="-1.992474"><ele>365</ele><time>2020-10-07T11:41:51Z</time><name>PT2385</name></trkpt>
<trkpt lat="53.156695" lon="-1.992480"><ele>366</ele><time>2020-10-07T11:42:06Z</time><name>PT2386</name></trkpt>
<trkpt lat="53.156703" lon="-1.992473"><ele>367</ele><time>2020-10-07T11:42:09Z</time><name>PT2387</name></trkpt>
<trkpt lat="53.156686" lon="-1.992452"><ele>366</ele><time>2020-10-07T11:42:30Z</time><name>PT2388</name></trkpt>
<trkpt lat="53.156675" lon="-1.992440"><ele>366</ele><time>2020-10-07T11:42:35Z</time><name>PT2389</name></trkpt>
<trkpt lat="53.156667" lon="-1.992427"><ele>366</ele><time>2020-10-07T11:42:42Z</time><name>PT2390</name></trkpt>
<trkpt lat="53.156656" lon="-1.992413"><ele>364</ele><time>2020-10-07T11:42:47Z</time><name>PT2391</name></trkpt>
<trkpt lat="53.156655" lon="-1.992411"><ele>365</ele><time>2020-10-07T11:42:51Z</time><name>PT2392</name></trkpt>
<trkpt lat="53.156624" lon="-1.992387"><ele>365</ele><time>2020-10-07T11:43:14Z</time><name>PT2393</name></trkpt>
<trkpt lat="53.156607" lon="-1.992371"><ele>364</ele><time>2020-10-07T11:43:18Z</time><name>PT2394</name></trkpt>
<trkpt lat="53.156594" lon="-1.992356"><ele>363</ele><time>2020-10-07T11:43:21Z</time><name>PT2395</name></trkpt>
<trkpt lat="53.156578" lon="-1.992341"><ele>364</ele><time>2020-10-07T11:43:24Z</time><name>PT2396</name></trkpt>
<trkpt lat="53.156554" lon="-1.992351"><ele>362</ele><time>2020-10-07T11:43:29Z</time><name>PT2397</name></trkpt>
<trkpt lat="53.156529" lon="-1.992324"><ele>362</ele><time>2020-10-07T11:43:32Z</time><name>PT2398</name></trkpt>
<trkpt lat="53.156505" lon="-1.992304"><ele>362</ele><time>2020-10-07T11:43:35Z</time><name>PT2399</name></trkpt>
<trkpt lat="53.156473" lon="-1.992328"><ele>362</ele><time>2020-10-07T11:43:39Z</time><name>PT2400</name></trkpt>
<trkpt lat="53.156458" lon="-1.992376"><ele>361</ele><time>2020-10-07T11:43:42Z</time><name>PT2401</name></trkpt>
<trkpt lat="53.156450" lon="-1.992409"><ele>362</ele><time>2020-10-07T11:43:45Z</time><name>PT2402</name></trkpt>
<trkpt lat="53.156452" lon="-1.992468"><ele>362</ele><time>2020-10-07T11:43:50Z</time><name>PT2403</name></trkpt>
<trkpt lat="53.156442" lon="-1.992506"><ele>360</ele><time>2020-10-07T11:43:53Z</time><name>PT2404</name></trkpt>
<trkpt lat="53.156416" lon="-1.992553"><ele>358</ele><time>2020-10-07T11:43:57Z</time><name>PT2405</name></trkpt>
<trkpt lat="53.156415" lon="-1.992607"><ele>357</ele><time>2020-10-07T11:44:01Z</time><name>PT2406</name></trkpt>
<trkpt lat="53.156396" lon="-1.992672"><ele>356</ele><time>2020-10-07T11:44:05Z</time><name>PT2407</name></trkpt>
<trkpt lat="53.156374" lon="-1.992742"><ele>357</ele><time>2020-10-07T11:44:09Z</time><name>PT2408</name></trkpt>
<trkpt lat="53.156367" lon="-1.992792"><ele>356</ele><time>2020-10-07T11:44:12Z</time><name>PT2409</name></trkpt>
<trkpt lat="53.156359" lon="-1.992833"><ele>355</ele><time>2020-10-07T11:44:17Z</time><name>PT2410</name></trkpt>
<trkpt lat="53.156359" lon="-1.992833"><ele>355</ele><time>2020-10-07T11:44:21Z</time><name>PT2411</name></trkpt>
<trkpt lat="53.156365" lon="-1.992894"><ele>354</ele><time>2020-10-07T11:44:36Z</time><name>PT2412</name></trkpt>
<trkpt lat="53.156392" lon="-1.992928"><ele>354</ele><time>2020-10-07T11:44:39Z</time><name>PT2413</name></trkpt>
<trkpt lat="53.156423" lon="-1.992972"><ele>354</ele><time>2020-10-07T11:44:44Z</time><name>PT2414</name></trkpt>
<trkpt lat="53.156447" lon="-1.992995"><ele>355</ele><time>2020-10-07T11:44:47Z</time><name>PT2415</name></trkpt>
<trkpt lat="53.156473" lon="-1.993025"><ele>355</ele><time>2020-10-07T11:44:50Z</time><name>PT2416</name></trkpt>
<trkpt lat="53.156495" lon="-1.993050"><ele>355</ele><time>2020-10-07T11:44:53Z</time><name>PT2417</name></trkpt>
<trkpt lat="53.156536" lon="-1.993070"><ele>355</ele><time>2020-10-07T11:44:57Z</time><name>PT2418</name></trkpt>
<trkpt lat="53.156578" lon="-1.993076"><ele>355</ele><time>2020-10-07T11:45:00Z</time><name>PT2419</name></trkpt>
<trkpt lat="53.156612" lon="-1.993088"><ele>355</ele><time>2020-10-07T11:45:05Z</time><name>PT2420</name></trkpt>
<trkpt lat="53.156647" lon="-1.993098"><ele>357</ele><time>2020-10-07T11:45:09Z</time><name>PT2421</name></trkpt>
<trkpt lat="53.156674" lon="-1.993100"><ele>356</ele><time>2020-10-07T11:45:12Z</time><name>PT2422</name></trkpt>
<trkpt lat="53.156712" lon="-1.993123"><ele>358</ele><time>2020-10-07T11:45:15Z</time><name>PT2423</name></trkpt>
<trkpt lat="53.156731" lon="-1.993147"><ele>358</ele><time>2020-10-07T11:45:18Z</time><name>PT2424</name></trkpt>
<trkpt lat="53.156739" lon="-1.993157"><ele>359</ele><time>2020-10-07T11:45:20Z</time><name>PT2425</name></trkpt>
<trkpt lat="53.156748" lon="-1.993171"><ele>359</ele><time>2020-10-07T11:45:21Z</time><name>PT2426</name></trkpt>
<trkpt lat="53.156756" lon="-1.993188"><ele>359</ele><time>2020-10-07T11:45:21Z</time><name>PT2427</name></trkpt>
<trkpt lat="53.156763" lon="-1.993198"><ele>359</ele><time>2020-10-07T11:45:23Z</time><name>PT2428</name></trkpt>
<trkpt lat="53.156767" lon="-1.993218"><ele>360</ele><time>2020-10-07T11:45:24Z</time><name>PT2429</name></trkpt>
<trkpt lat="53.156775" lon="-1.993228"><ele>359</ele><time>2020-10-07T11:45:24Z</time><name>PT2430</name></trkpt>
<trkpt lat="53.156783" lon="-1.993236"><ele>359</ele><time>2020-10-07T11:45:26Z</time><name>PT2431</name></trkpt>
<trkpt lat="53.156791" lon="-1.993253"><ele>360</ele><time>2020-10-07T11:45:27Z</time><name>PT2432</name></trkpt>
<trkpt lat="53.156799" lon="-1.993268"><ele>361</ele><time>2020-10-07T11:45:27Z</time><name>PT2433</name></trkpt>
<trkpt lat="53.156809" lon="-1.993278"><ele>361</ele><time>2020-10-07T11:45:29Z</time><name>PT2434</name></trkpt>
<trkpt lat="53.156817" lon="-1.993288"><ele>361</ele><time>2020-10-07T11:45:30Z</time><name>PT2435</name></trkpt>
<trkpt lat="53.156826" lon="-1.993297"><ele>361</ele><time>2020-10-07T11:45:30Z</time><name>PT2436</name></trkpt>
<trkpt lat="53.156836" lon="-1.993307"><ele>361</ele><time>2020-10-07T11:45:32Z</time><name>PT2437</name></trkpt>
<trkpt lat="53.156844" lon="-1.993326"><ele>362</ele><time>2020-10-07T11:45:33Z</time><name>PT2438</name></trkpt>
<trkpt lat="53.156852" lon="-1.993339"><ele>362</ele><time>2020-10-07T11:45:33Z</time><name>PT2439</name></trkpt>
<trkpt lat="53.156863" lon="-1.993349"><ele>362</ele><time>2020-10-07T11:45:35Z</time><name>PT2440</name></trkpt>
<trkpt lat="53.156872" lon="-1.993362"><ele>362</ele><time>2020-10-07T11:45:36Z</time><name>PT2441</name></trkpt>
<trkpt lat="53.156884" lon="-1.993375"><ele>362</ele><time>2020-10-07T11:45:36Z</time><name>PT2442</name></trkpt>
<trkpt lat="53.156895" lon="-1.993386"><ele>362</ele><time>2020-10-07T11:45:38Z</time><name>PT2443</name></trkpt>
<trkpt lat="53.156905" lon="-1.993396"><ele>362</ele><time>2020-10-07T11:45:39Z</time><name>PT2444</name></trkpt>
<trkpt lat="53.156916" lon="-1.993403"><ele>362</ele><time>2020-10-07T11:45:39Z</time><name>PT2445</name></trkpt>
<trkpt lat="53.156927" lon="-1.993407"><ele>362</ele><time>2020-10-07T11:45:41Z</time><name>PT2446</name></trkpt>
<trkpt lat="53.156939" lon="-1.993410"><ele>362</ele><time>2020-10-07T11:45:42Z</time><name>PT2447</name></trkpt>
<trkpt lat="53.156949" lon="-1.993420"><ele>362</ele><time>2020-10-07T11:45:42Z</time><name>PT2448</name></trkpt>
<trkpt lat="53.156958" lon="-1.993430"><ele>362</ele><time>2020-10-07T11:45:44Z</time><name>PT2449</name></trkpt>
<trkpt lat="53.156966" lon="-1.993440"><ele>362</ele><time>2020-10-07T11:45:45Z</time><name>PT2450</name></trkpt>
<trkpt lat="53.156975" lon="-1.993446"><ele>362</ele><time>2020-10-07T11:45:45Z</time><name>PT2451</name></trkpt>
<trkpt lat="53.156987" lon="-1.993450"><ele>361</ele><time>2020-10-07T11:45:47Z</time><name>PT2452</name></trkpt>
<trkpt lat="53.156996" lon="-1.993455"><ele>362</ele><time>2020-10-07T11:45:48Z</time><name>PT2453</name></trkpt>
<trkpt lat="53.157007" lon="-1.993459"><ele>362</ele><time>2020-10-07T11:45:48Z</time><name>PT2454</name></trkpt>
<trkpt lat="53.157017" lon="-1.993463"><ele>362</ele><time>2020-10-07T11:45:50Z</time><name>PT2455</name></trkpt>
<trkpt lat="53.157027" lon="-1.993471"><ele>362</ele><time>2020-10-07T11:45:51Z</time><name>PT2456</name></trkpt>
<trkpt lat="53.157038" lon="-1.993475"><ele>362</ele><time>2020-10-07T11:45:51Z</time><name>PT2457</name></trkpt>
<trkpt lat="53.157046" lon="-1.993480"><ele>363</ele><time>2020-10-07T11:45:53Z</time><name>PT2458</name></trkpt>
<trkpt lat="53.157054" lon="-1.993490"><ele>362</ele><time>2020-10-07T11:45:54Z</time><name>PT2459</name></trkpt>
<trkpt lat="53.157063" lon="-1.993500"><ele>363</ele><time>2020-10-07T11:45:55Z</time><name>PT2460</name></trkpt>
<trkpt lat="53.157073" lon="-1.993509"><ele>363</ele><time>2020-10-07T11:45:56Z</time><name>PT2461</name></trkpt>
<trkpt lat="53.157087" lon="-1.993515"><ele>363</ele><time>2020-10-07T11:45:57Z</time><name>PT2462</name></trkpt>
<trkpt lat="53.157098" lon="-1.993521"><ele>363</ele><time>2020-10-07T11:45:57Z</time><name>PT2463</name></trkpt>
<trkpt lat="53.157107" lon="-1.993527"><ele>364</ele><time>2020-10-07T11:45:59Z</time><name>PT2464</name></trkpt>
<trkpt lat="53.157118" lon="-1.993532"><ele>364</ele><time>2020-10-07T11:46:00Z</time><name>PT2465</name></trkpt>
<trkpt lat="53.157128" lon="-1.993538"><ele>365</ele><time>2020-10-07T11:46:00Z</time><name>PT2466</name></trkpt>
<trkpt lat="53.157133" lon="-1.993551"><ele>365</ele><time>2020-10-07T11:46:02Z</time><name>PT2467</name></trkpt>
<trkpt lat="53.157141" lon="-1.993563"><ele>365</ele><time>2020-10-07T11:46:03Z</time><name>PT2468</name></trkpt>
<trkpt lat="53.157148" lon="-1.993574"><ele>366</ele><time>2020-10-07T11:46:03Z</time><name>PT2469</name></trkpt>
<trkpt lat="53.157158" lon="-1.993582"><ele>365</ele><time>2020-10-07T11:46:05Z</time><name>PT2470</name></trkpt>
<trkpt lat="53.157166" lon="-1.993594"><ele>365</ele><time>2020-10-07T11:46:06Z</time><name>PT2471</name></trkpt>
<trkpt lat="53.157174" lon="-1.993612"><ele>365</ele><time>2020-10-07T11:46:06Z</time><name>PT2472</name></trkpt>
<trkpt lat="53.157182" lon="-1.993632"><ele>365</ele><time>2020-10-07T11:46:08Z</time><name>PT2473</name></trkpt>
<trkpt lat="53.157189" lon="-1.993645"><ele>366</ele><time>2020-10-07T11:46:09Z</time><name>PT2474</name></trkpt>
<trkpt lat="53.157192" lon="-1.993661"><ele>366</ele><time>2020-10-07T11:46:09Z</time><name>PT2475</name></trkpt>
<trkpt lat="53.157199" lon="-1.993664"><ele>366</ele><time>2020-10-07T11:46:11Z</time><name>PT2476</name></trkpt>
<trkpt lat="53.157211" lon="-1.993677"><ele>366</ele><time>2020-10-07T11:46:12Z</time><name>PT2477</name></trkpt>
<trkpt lat="53.157219" lon="-1.993693"><ele>366</ele><time>2020-10-07T11:46:12Z</time><name>PT2478</name></trkpt>
<trkpt lat="53.157224" lon="-1.993708"><ele>366</ele><time>2020-10-07T11:46:14Z</time><name>PT2479</name></trkpt>
<trkpt lat="53.157228" lon="-1.993721"><ele>366</ele><time>2020-10-07T11:46:15Z</time><name>PT2480</name></trkpt>
<trkpt lat="53.157231" lon="-1.993732"><ele>366</ele><time>2020-10-07T11:46:15Z</time><name>PT2481</name></trkpt>
<trkpt lat="53.157236" lon="-1.993737"><ele>366</ele><time>2020-10-07T11:46:17Z</time><name>PT2482</name></trkpt>
<trkpt lat="53.157241" lon="-1.993747"><ele>366</ele><time>2020-10-07T11:46:18Z</time><name>PT2483</name></trkpt>
<trkpt lat="53.157249" lon="-1.993753"><ele>366</ele><time>2020-10-07T11:46:18Z</time><name>PT2484</name></trkpt>
<trkpt lat="53.157254" lon="-1.993763"><ele>366</ele><time>2020-10-07T11:46:20Z</time><name>PT2485</name></trkpt>
<trkpt lat="53.157257" lon="-1.993772"><ele>366</ele><time>2020-10-07T11:46:21Z</time><name>PT2486</name></trkpt>
<trkpt lat="53.157261" lon="-1.993783"><ele>367</ele><time>2020-10-07T11:46:21Z</time><name>PT2487</name></trkpt>
<trkpt lat="53.157270" lon="-1.993787"><ele>367</ele><time>2020-10-07T11:46:23Z</time><name>PT2488</name></trkpt>
<trkpt lat="53.157278" lon="-1.993791"><ele>367</ele><time>2020-10-07T11:46:24Z</time><name>PT2489</name></trkpt>
<trkpt lat="53.157286" lon="-1.993792"><ele>367</ele><time>2020-10-07T11:46:24Z</time><name>PT2490</name></trkpt>
<trkpt lat="53.157293" lon="-1.993800"><ele>367</ele><time>2020-10-07T11:46:26Z</time><name>PT2491</name></trkpt>
<trkpt lat="53.157302" lon="-1.993806"><ele>367</ele><time>2020-10-07T11:46:27Z</time><name>PT2492</name></trkpt>
<trkpt lat="53.157310" lon="-1.993802"><ele>367</ele><time>2020-10-07T11:46:27Z</time><name>PT2493</name></trkpt>
<trkpt lat="53.157318" lon="-1.993803"><ele>368</ele><time>2020-10-07T11:46:29Z</time><name>PT2494</name></trkpt>
<trkpt lat="53.157327" lon="-1.993804"><ele>368</ele><time>2020-10-07T11:46:30Z</time><name>PT2495</name></trkpt>
<trkpt lat="53.157336" lon="-1.993811"><ele>368</ele><time>2020-10-07T11:46:30Z</time><name>PT2496</name></trkpt>
<trkpt lat="53.157345" lon="-1.993816"><ele>368</ele><time>2020-10-07T11:46:32Z</time><name>PT2497</name></trkpt>
<trkpt lat="53.157355" lon="-1.993821"><ele>368</ele><time>2020-10-07T11:46:33Z</time><name>PT2498</name></trkpt>
<trkpt lat="53.157363" lon="-1.993821"><ele>368</ele><time>2020-10-07T11:46:33Z</time><name>PT2499</name></trkpt>
<trkpt lat="53.157372" lon="-1.993823"><ele>369</ele><time>2020-10-07T11:46:35Z</time><name>PT2500</name></trkpt>
<trkpt lat="53.157382" lon="-1.993824"><ele>370</ele><time>2020-10-07T11:46:36Z</time><name>PT2501</name></trkpt>
<trkpt lat="53.157391" lon="-1.993831"><ele>370</ele><time>2020-10-07T11:46:36Z</time><name>PT2502</name></trkpt>
<trkpt lat="53.157400" lon="-1.993840"><ele>370</ele><time>2020-10-07T11:46:38Z</time><name>PT2503</name></trkpt>
<trkpt lat="53.157408" lon="-1.993847"><ele>370</ele><time>2020-10-07T11:46:39Z</time><name>PT2504</name></trkpt>
<trkpt lat="53.157417" lon="-1.993854"><ele>370</ele><time>2020-10-07T11:46:39Z</time><name>PT2505</name></trkpt>
<trkpt lat="53.157425" lon="-1.993861"><ele>370</ele><time>2020-10-07T11:46:41Z</time><name>PT2506</name></trkpt>
<trkpt lat="53.157431" lon="-1.993862"><ele>370</ele><time>2020-10-07T11:46:42Z</time><name>PT2507</name></trkpt>
<trkpt lat="53.157436" lon="-1.993863"><ele>369</ele><time>2020-10-07T11:46:42Z</time><name>PT2508</name></trkpt>
<trkpt lat="53.157443" lon="-1.993869"><ele>370</ele><time>2020-10-07T11:46:44Z</time><name>PT2509</name></trkpt>
<trkpt lat="53.157452" lon="-1.993871"><ele>369</ele><time>2020-10-07T11:46:45Z</time><name>PT2510</name></trkpt>
<trkpt lat="53.157458" lon="-1.993881"><ele>370</ele><time>2020-10-07T11:46:45Z</time><name>PT2511</name></trkpt>
<trkpt lat="53.157465" lon="-1.993888"><ele>371</ele><time>2020-10-07T11:46:47Z</time><name>PT2512</name></trkpt>
<trkpt lat="53.157473" lon="-1.993887"><ele>371</ele><time>2020-10-07T11:46:48Z</time><name>PT2513</name></trkpt>
<trkpt lat="53.157483" lon="-1.993879"><ele>370</ele><time>2020-10-07T11:46:48Z</time><name>PT2514</name></trkpt>
<trkpt lat="53.157491" lon="-1.993880"><ele>370</ele><time>2020-10-07T11:46:50Z</time><name>PT2515</name></trkpt>
<trkpt lat="53.157499" lon="-1.993890"><ele>371</ele><time>2020-10-07T11:46:51Z</time><name>PT2516</name></trkpt>
<trkpt lat="53.157511" lon="-1.993892"><ele>371</ele><time>2020-10-07T11:46:51Z</time><name>PT2517</name></trkpt>
<trkpt lat="53.157523" lon="-1.993894"><ele>371</ele><time>2020-10-07T11:46:53Z</time><name>PT2518</name></trkpt>
<trkpt lat="53.157532" lon="-1.993897"><ele>371</ele><time>2020-10-07T11:46:54Z</time><name>PT2519</name></trkpt>
<trkpt lat="53.157541" lon="-1.993898"><ele>371</ele><time>2020-10-07T11:46:54Z</time><name>PT2520</name></trkpt>
<trkpt lat="53.157549" lon="-1.993901"><ele>371</ele><time>2020-10-07T11:46:56Z</time><name>PT2521</name></trkpt>
<trkpt lat="53.157556" lon="-1.993898"><ele>370</ele><time>2020-10-07T11:46:57Z</time><name>PT2522</name></trkpt>
<trkpt lat="53.157562" lon="-1.993904"><ele>370</ele><time>2020-10-07T11:46:58Z</time><name>PT2523</name></trkpt>
<trkpt lat="53.157565" lon="-1.993916"><ele>369</ele><time>2020-10-07T11:46:59Z</time><name>PT2524</name></trkpt>
<trkpt lat="53.157566" lon="-1.993931"><ele>369</ele><time>2020-10-07T11:47:00Z</time><name>PT2525</name></trkpt>
<trkpt lat="53.157567" lon="-1.993962"><ele>370</ele><time>2020-10-07T11:47:00Z</time><name>PT2526</name></trkpt>
<trkpt lat="53.157564" lon="-1.993983"><ele>371</ele><time>2020-10-07T11:47:02Z</time><name>PT2527</name></trkpt>
<trkpt lat="53.157562" lon="-1.993996"><ele>371</ele><time>2020-10-07T11:47:03Z</time><name>PT2528</name></trkpt>
<trkpt lat="53.157562" lon="-1.994004"><ele>372</ele><time>2020-10-07T11:47:03Z</time><name>PT2529</name></trkpt>
<trkpt lat="53.157558" lon="-1.994013"><ele>371</ele><time>2020-10-07T11:47:05Z</time><name>PT2530</name></trkpt>
<trkpt lat="53.157553" lon="-1.994030"><ele>372</ele><time>2020-10-07T11:47:06Z</time><name>PT2531</name></trkpt>
<trkpt lat="53.157549" lon="-1.994048"><ele>372</ele><time>2020-10-07T11:47:06Z</time><name>PT2532</name></trkpt>
<trkpt lat="53.157547" lon="-1.994067"><ele>372</ele><time>2020-10-07T11:47:08Z</time><name>PT2533</name></trkpt>
<trkpt lat="53.157542" lon="-1.994082"><ele>372</ele><time>2020-10-07T11:47:09Z</time><name>PT2534</name></trkpt>
<trkpt lat="53.157536" lon="-1.994098"><ele>372</ele><time>2020-10-07T11:47:09Z</time><name>PT2535</name></trkpt>
<trkpt lat="53.157532" lon="-1.994110"><ele>372</ele><time>2020-10-07T11:47:11Z</time><name>PT2536</name></trkpt>
<trkpt lat="53.157528" lon="-1.994122"><ele>372</ele><time>2020-10-07T11:47:12Z</time><name>PT2537</name></trkpt>
<trkpt lat="53.157524" lon="-1.994136"><ele>372</ele><time>2020-10-07T11:47:12Z</time><name>PT2538</name></trkpt>
<trkpt lat="53.157518" lon="-1.994150"><ele>372</ele><time>2020-10-07T11:47:14Z</time><name>PT2539</name></trkpt>
<trkpt lat="53.157509" lon="-1.994157"><ele>372</ele><time>2020-10-07T11:47:15Z</time><name>PT2540</name></trkpt>
<trkpt lat="53.157500" lon="-1.994162"><ele>372</ele><time>2020-10-07T11:47:15Z</time><name>PT2541</name></trkpt>
<trkpt lat="53.157491" lon="-1.994169"><ele>371</ele><time>2020-10-07T11:47:17Z</time><name>PT2542</name></trkpt>
<trkpt lat="53.157484" lon="-1.994178"><ele>371</ele><time>2020-10-07T11:47:18Z</time><name>PT2543</name></trkpt>
<trkpt lat="53.157477" lon="-1.994188"><ele>371</ele><time>2020-10-07T11:47:18Z</time><name>PT2544</name></trkpt>
<trkpt lat="53.157469" lon="-1.994200"><ele>372</ele><time>2020-10-07T11:47:20Z</time><name>PT2545</name></trkpt>
<trkpt lat="53.157463" lon="-1.994213"><ele>371</ele><time>2020-10-07T11:47:21Z</time><name>PT2546</name></trkpt>
<trkpt lat="53.157457" lon="-1.994227"><ele>371</ele><time>2020-10-07T11:47:21Z</time><name>PT2547</name></trkpt>
<trkpt lat="53.157452" lon="-1.994240"><ele>371</ele><time>2020-10-07T11:47:23Z</time><name>PT2548</name></trkpt>
<trkpt lat="53.157449" lon="-1.994253"><ele>371</ele><time>2020-10-07T11:47:24Z</time><name>PT2549</name></trkpt>
<trkpt lat="53.157445" lon="-1.994264"><ele>371</ele><time>2020-10-07T11:47:24Z</time><name>PT2550</name></trkpt>
<trkpt lat="53.157439" lon="-1.994277"><ele>371</ele><time>2020-10-07T11:47:26Z</time><name>PT2551</name></trkpt>
<trkpt lat="53.157432" lon="-1.994291"><ele>371</ele><time>2020-10-07T11:47:27Z</time><name>PT2552</name></trkpt>
<trkpt lat="53.157426" lon="-1.994304"><ele>370</ele><time>2020-10-07T11:47:27Z</time><name>PT2553</name></trkpt>
<trkpt lat="53.157420" lon="-1.994316"><ele>370</ele><time>2020-10-07T11:47:29Z</time><name>PT2554</name></trkpt>
<trkpt lat="53.157417" lon="-1.994326"><ele>370</ele><time>2020-10-07T11:47:30Z</time><name>PT2555</name></trkpt>
<trkpt lat="53.157413" lon="-1.994341"><ele>370</ele><time>2020-10-07T11:47:30Z</time><name>PT2556</name></trkpt>
<trkpt lat="53.157406" lon="-1.994364"><ele>371</ele><time>2020-10-07T11:47:32Z</time><name>PT2557</name></trkpt>
<trkpt lat="53.157406" lon="-1.994380"><ele>371</ele><time>2020-10-07T11:47:33Z</time><name>PT2558</name></trkpt>
<trkpt lat="53.157409" lon="-1.994390"><ele>371</ele><time>2020-10-07T11:47:34Z</time><name>PT2559</name></trkpt>
<trkpt lat="53.157415" lon="-1.994402"><ele>370</ele><time>2020-10-07T11:47:35Z</time><name>PT2560</name></trkpt>
<trkpt lat="53.157424" lon="-1.994421"><ele>370</ele><time>2020-10-07T11:47:36Z</time><name>PT2561</name></trkpt>
<trkpt lat="53.157433" lon="-1.994433"><ele>370</ele><time>2020-10-07T11:47:37Z</time><name>PT2562</name></trkpt>
<trkpt lat="53.157439" lon="-1.994448"><ele>370</ele><time>2020-10-07T11:47:38Z</time><name>PT2563</name></trkpt>
<trkpt lat="53.157443" lon="-1.994466"><ele>370</ele><time>2020-10-07T11:47:39Z</time><name>PT2564</name></trkpt>
<trkpt lat="53.157448" lon="-1.994479"><ele>370</ele><time>2020-10-07T11:47:39Z</time><name>PT2565</name></trkpt>
<trkpt lat="53.157452" lon="-1.994496"><ele>370</ele><time>2020-10-07T11:47:41Z</time><name>PT2566</name></trkpt>
<trkpt lat="53.157453" lon="-1.994514"><ele>370</ele><time>2020-10-07T11:47:42Z</time><name>PT2567</name></trkpt>
<trkpt lat="53.157456" lon="-1.994530"><ele>369</ele><time>2020-10-07T11:47:42Z</time><name>PT2568</name></trkpt>
<trkpt lat="53.157459" lon="-1.994549"><ele>369</ele><time>2020-10-07T11:47:44Z</time><name>PT2569</name></trkpt>
<trkpt lat="53.157460" lon="-1.994568"><ele>369</ele><time>2020-10-07T11:47:45Z</time><name>PT2570</name></trkpt>
<trkpt lat="53.157460" lon="-1.994588"><ele>369</ele><time>2020-10-07T11:47:45Z</time><name>PT2571</name></trkpt>
<trkpt lat="53.157460" lon="-1.994610"><ele>369</ele><time>2020-10-07T11:47:47Z</time><name>PT2572</name></trkpt>
<trkpt lat="53.157458" lon="-1.994635"><ele>370</ele><time>2020-10-07T11:47:48Z</time><name>PT2573</name></trkpt>
<trkpt lat="53.157457" lon="-1.994654"><ele>370</ele><time>2020-10-07T11:47:48Z</time><name>PT2574</name></trkpt>
<trkpt lat="53.157458" lon="-1.994672"><ele>369</ele><time>2020-10-07T11:47:50Z</time><name>PT2575</name></trkpt>
<trkpt lat="53.157458" lon="-1.994692"><ele>370</ele><time>2020-10-07T11:47:51Z</time><name>PT2576</name></trkpt>
<trkpt lat="53.157460" lon="-1.994708"><ele>370</ele><time>2020-10-07T11:47:51Z</time><name>PT2577</name></trkpt>
<trkpt lat="53.157461" lon="-1.994723"><ele>370</ele><time>2020-10-07T11:47:53Z</time><name>PT2578</name></trkpt>
<trkpt lat="53.157464" lon="-1.994739"><ele>370</ele><time>2020-10-07T11:47:54Z</time><name>PT2579</name></trkpt>
<trkpt lat="53.157469" lon="-1.994745"><ele>370</ele><time>2020-10-07T11:47:54Z</time><name>PT2580</name></trkpt>
<trkpt lat="53.157475" lon="-1.994755"><ele>370</ele><time>2020-10-07T11:47:56Z</time><name>PT2581</name></trkpt>
<trkpt lat="53.157482" lon="-1.994763"><ele>370</ele><time>2020-10-07T11:47:57Z</time><name>PT2582</name></trkpt>
<trkpt lat="53.157491" lon="-1.994773"><ele>370</ele><time>2020-10-07T11:47:57Z</time><name>PT2583</name></trkpt>
<trkpt lat="53.157501" lon="-1.994785"><ele>370</ele><time>2020-10-07T11:47:59Z</time><name>PT2584</name></trkpt>
<trkpt lat="53.157507" lon="-1.994798"><ele>370</ele><time>2020-10-07T11:48:00Z</time><name>PT2585</name></trkpt>
<trkpt lat="53.157512" lon="-1.994818"><ele>371</ele><time>2020-10-07T11:48:00Z</time><name>PT2586</name></trkpt>
<trkpt lat="53.157515" lon="-1.994836"><ele>371</ele><time>2020-10-07T11:48:02Z</time><name>PT2587</name></trkpt>
<trkpt lat="53.157519" lon="-1.994856"><ele>371</ele><time>2020-10-07T11:48:03Z</time><name>PT2588</name></trkpt>
<trkpt lat="53.157521" lon="-1.994874"><ele>371</ele><time>2020-10-07T11:48:03Z</time><name>PT2589</name></trkpt>
<trkpt lat="53.157525" lon="-1.994889"><ele>371</ele><time>2020-10-07T11:48:05Z</time><name>PT2590</name></trkpt>
<trkpt lat="53.157529" lon="-1.994905"><ele>371</ele><time>2020-10-07T11:48:06Z</time><name>PT2591</name></trkpt>
<trkpt lat="53.157533" lon="-1.994921"><ele>371</ele><time>2020-10-07T11:48:06Z</time><name>PT2592</name></trkpt>
<trkpt lat="53.157537" lon="-1.994940"><ele>371</ele><time>2020-10-07T11:48:08Z</time><name>PT2593</name></trkpt>
<trkpt lat="53.157542" lon="-1.994957"><ele>371</ele><time>2020-10-07T11:48:09Z</time><name>PT2594</name></trkpt>
<trkpt lat="53.157547" lon="-1.994969"><ele>371</ele><time>2020-10-07T11:48:09Z</time><name>PT2595</name></trkpt>
<trkpt lat="53.157550" lon="-1.994986"><ele>371</ele><time>2020-10-07T11:48:11Z</time><name>PT2596</name></trkpt>
<trkpt lat="53.157554" lon="-1.995005"><ele>371</ele><time>2020-10-07T11:48:12Z</time><name>PT2597</name></trkpt>
<trkpt lat="53.157556" lon="-1.995023"><ele>371</ele><time>2020-10-07T11:48:12Z</time><name>PT2598</name></trkpt>
<trkpt lat="53.157559" lon="-1.995039"><ele>370</ele><time>2020-10-07T11:48:14Z</time><name>PT2599</name></trkpt>
<trkpt lat="53.157560" lon="-1.995059"><ele>371</ele><time>2020-10-07T11:48:15Z</time><name>PT2600</name></trkpt>
<trkpt lat="53.157562" lon="-1.995076"><ele>371</ele><time>2020-10-07T11:48:15Z</time><name>PT2601</name></trkpt>
<trkpt lat="53.157563" lon="-1.995087"><ele>371</ele><time>2020-10-07T11:48:17Z</time><name>PT2602</name></trkpt>
<trkpt lat="53.157568" lon="-1.995094"><ele>370</ele><time>2020-10-07T11:48:18Z</time><name>PT2603</name></trkpt>
<trkpt lat="53.157575" lon="-1.995099"><ele>370</ele><time>2020-10-07T11:48:21Z</time><name>PT2604</name></trkpt>
<trkpt lat="53.157593" lon="-1.995092"><ele>370</ele><time>2020-10-07T11:48:24Z</time><name>PT2605</name></trkpt>
<trkpt lat="53.157620" lon="-1.995091"><ele>370</ele><time>2020-10-07T11:48:27Z</time><name>PT2606</name></trkpt>
<trkpt lat="53.157654" lon="-1.995098"><ele>371</ele><time>2020-10-07T11:48:30Z</time><name>PT2607</name></trkpt>
<trkpt lat="53.157682" lon="-1.995107"><ele>370</ele><time>2020-10-07T11:48:33Z</time><name>PT2608</name></trkpt>
<trkpt lat="53.157715" lon="-1.995116"><ele>371</ele><time>2020-10-07T11:48:38Z</time><name>PT2609</name></trkpt>
<trkpt lat="53.157743" lon="-1.995117"><ele>371</ele><time>2020-10-07T11:48:41Z</time><name>PT2610</name></trkpt>
<trkpt lat="53.157781" lon="-1.995152"><ele>372</ele><time>2020-10-07T11:48:45Z</time><name>PT2611</name></trkpt>
<trkpt lat="53.157819" lon="-1.995186"><ele>373</ele><time>2020-10-07T11:48:48Z</time><name>PT2612</name></trkpt>
<trkpt lat="53.157842" lon="-1.995208"><ele>374</ele><time>2020-10-07T11:48:51Z</time><name>PT2613</name></trkpt>
<trkpt lat="53.157861" lon="-1.995229"><ele>373</ele><time>2020-10-07T11:48:54Z</time><name>PT2614</name></trkpt>
<trkpt lat="53.157882" lon="-1.995265"><ele>373</ele><time>2020-10-07T11:48:59Z</time><name>PT2615</name></trkpt>
<trkpt lat="53.157903" lon="-1.995293"><ele>374</ele><time>2020-10-07T11:49:02Z</time><name>PT2616</name></trkpt>
<trkpt lat="53.157921" lon="-1.995319"><ele>374</ele><time>2020-10-07T11:49:05Z</time><name>PT2617</name></trkpt>
<trkpt lat="53.157951" lon="-1.995348"><ele>374</ele><time>2020-10-07T11:49:09Z</time><name>PT2618</name></trkpt>
<trkpt lat="53.157988" lon="-1.995371"><ele>375</ele><time>2020-10-07T11:49:12Z</time><name>PT2619</name></trkpt>
<trkpt lat="53.158019" lon="-1.995382"><ele>375</ele><time>2020-10-07T11:49:17Z</time><name>PT2620</name></trkpt>
<trkpt lat="53.158039" lon="-1.995403"><ele>375</ele><time>2020-10-07T11:49:20Z</time><name>PT2621</name></trkpt>
<trkpt lat="53.158066" lon="-1.995420"><ele>375</ele><time>2020-10-07T11:49:24Z</time><name>PT2622</name></trkpt>
<trkpt lat="53.158081" lon="-1.995440"><ele>375</ele><time>2020-10-07T11:49:27Z</time><name>PT2623</name></trkpt>
<trkpt lat="53.158104" lon="-1.995452"><ele>377</ele><time>2020-10-07T11:49:30Z</time><name>PT2624</name></trkpt>
<trkpt lat="53.158135" lon="-1.995472"><ele>377</ele><time>2020-10-07T11:49:33Z</time><name>PT2625</name></trkpt>
<trkpt lat="53.158167" lon="-1.995507"><ele>378</ele><time>2020-10-07T11:49:38Z</time><name>PT2626</name></trkpt>
<trkpt lat="53.158188" lon="-1.995550"><ele>379</ele><time>2020-10-07T11:49:42Z</time><name>PT2627</name></trkpt>
<trkpt lat="53.158209" lon="-1.995583"><ele>380</ele><time>2020-10-07T11:49:45Z</time><name>PT2628</name></trkpt>
<trkpt lat="53.158227" lon="-1.995599"><ele>380</ele><time>2020-10-07T11:49:48Z</time><name>PT2629</name></trkpt>
<trkpt lat="53.158260" lon="-1.995632"><ele>380</ele><time>2020-10-07T11:49:51Z</time><name>PT2630</name></trkpt>
<trkpt lat="53.158288" lon="-1.995664"><ele>381</ele><time>2020-10-07T11:49:54Z</time><name>PT2631</name></trkpt>
<trkpt lat="53.158319" lon="-1.995723"><ele>382</ele><time>2020-10-07T11:49:59Z</time><name>PT2632</name></trkpt>
<trkpt lat="53.158338" lon="-1.995763"><ele>382</ele><time>2020-10-07T11:50:02Z</time><name>PT2633</name></trkpt>
<trkpt lat="53.158363" lon="-1.995817"><ele>383</ele><time>2020-10-07T11:50:06Z</time><name>PT2634</name></trkpt>
<trkpt lat="53.158378" lon="-1.995851"><ele>384</ele><time>2020-10-07T11:50:09Z</time><name>PT2635</name></trkpt>
<trkpt lat="53.158399" lon="-1.995898"><ele>384</ele><time>2020-10-07T11:50:12Z</time><name>PT2636</name></trkpt>
<trkpt lat="53.158431" lon="-1.995923"><ele>385</ele><time>2020-10-07T11:50:17Z</time><name>PT2637</name></trkpt>
<trkpt lat="53.158457" lon="-1.995948"><ele>385</ele><time>2020-10-07T11:50:20Z</time><name>PT2638</name></trkpt>
<trkpt lat="53.158492" lon="-1.995979"><ele>387</ele><time>2020-10-07T11:50:24Z</time><name>PT2639</name></trkpt>
<trkpt lat="53.158522" lon="-1.996007"><ele>387</ele><time>2020-10-07T11:50:27Z</time><name>PT2640</name></trkpt>
<trkpt lat="53.158549" lon="-1.996039"><ele>387</ele><time>2020-10-07T11:50:30Z</time><name>PT2641</name></trkpt>
<trkpt lat="53.158572" lon="-1.996068"><ele>388</ele><time>2020-10-07T11:50:33Z</time><name>PT2642</name></trkpt>
<trkpt lat="53.158599" lon="-1.996123"><ele>388</ele><time>2020-10-07T11:50:36Z</time><name>PT2643</name></trkpt>
<trkpt lat="53.158627" lon="-1.996159"><ele>389</ele><time>2020-10-07T11:50:40Z</time><name>PT2644</name></trkpt>
<trkpt lat="53.158655" lon="-1.996194"><ele>390</ele><time>2020-10-07T11:50:43Z</time><name>PT2645</name></trkpt>
<trkpt lat="53.158677" lon="-1.996226"><ele>390</ele><time>2020-10-07T11:50:46Z</time><name>PT2646</name></trkpt>
<trkpt lat="53.158685" lon="-1.996293"><ele>390</ele><time>2020-10-07T11:50:50Z</time><name>PT2647</name></trkpt>
<trkpt lat="53.158705" lon="-1.996338"><ele>390</ele><time>2020-10-07T11:50:53Z</time><name>PT2648</name></trkpt>
<trkpt lat="53.158738" lon="-1.996380"><ele>390</ele><time>2020-10-07T11:50:56Z</time><name>PT2649</name></trkpt>
<trkpt lat="53.158774" lon="-1.996395"><ele>390</ele><time>2020-10-07T11:51:01Z</time><name>PT2650</name></trkpt>
<trkpt lat="53.158815" lon="-1.996400"><ele>390</ele><time>2020-10-07T11:51:05Z</time><name>PT2651</name></trkpt>
<trkpt lat="53.158846" lon="-1.996405"><ele>391</ele><time>2020-10-07T11:51:08Z</time><name>PT2652</name></trkpt>
<trkpt lat="53.158881" lon="-1.996437"><ele>391</ele><time>2020-10-07T11:51:11Z</time><name>PT2653</name></trkpt>
<trkpt lat="53.158908" lon="-1.996468"><ele>392</ele><time>2020-10-07T11:51:14Z</time><name>PT2654</name></trkpt>
<trkpt lat="53.158938" lon="-1.996495"><ele>392</ele><time>2020-10-07T11:51:17Z</time><name>PT2655</name></trkpt>
<trkpt lat="53.158966" lon="-1.996525"><ele>391</ele><time>2020-10-07T11:51:21Z</time><name>PT2656</name></trkpt>
<trkpt lat="53.158995" lon="-1.996565"><ele>391</ele><time>2020-10-07T11:51:24Z</time><name>PT2657</name></trkpt>
<trkpt lat="53.159026" lon="-1.996621"><ele>392</ele><time>2020-10-07T11:51:28Z</time><name>PT2658</name></trkpt>
<trkpt lat="53.159040" lon="-1.996661"><ele>392</ele><time>2020-10-07T11:51:31Z</time><name>PT2659</name></trkpt>
<trkpt lat="53.159058" lon="-1.996728"><ele>393</ele><time>2020-10-07T11:51:35Z</time><name>PT2660</name></trkpt>
<trkpt lat="53.159082" lon="-1.996754"><ele>393</ele><time>2020-10-07T11:51:38Z</time><name>PT2661</name></trkpt>
<trkpt lat="53.159096" lon="-1.996792"><ele>392</ele><time>2020-10-07T11:51:41Z</time><name>PT2662</name></trkpt>
<trkpt lat="53.159118" lon="-1.996821"><ele>393</ele><time>2020-10-07T11:51:46Z</time><name>PT2663</name></trkpt>
<trkpt lat="53.159148" lon="-1.996841"><ele>392</ele><time>2020-10-07T11:51:49Z</time><name>PT2664</name></trkpt>
<trkpt lat="53.159182" lon="-1.996878"><ele>392</ele><time>2020-10-07T11:51:53Z</time><name>PT2665</name></trkpt>
<trkpt lat="53.159213" lon="-1.996888"><ele>392</ele><time>2020-10-07T11:51:56Z</time><name>PT2666</name></trkpt>
<trkpt lat="53.159232" lon="-1.996874"><ele>391</ele><time>2020-10-07T11:52:01Z</time><name>PT2667</name></trkpt>
<trkpt lat="53.159257" lon="-1.996904"><ele>392</ele><time>2020-10-07T11:52:05Z</time><name>PT2668</name></trkpt>
<trkpt lat="53.159271" lon="-1.996938"><ele>392</ele><time>2020-10-07T11:52:08Z</time><name>PT2669</name></trkpt>
<trkpt lat="53.159293" lon="-1.996961"><ele>391</ele><time>2020-10-07T11:52:11Z</time><name>PT2670</name></trkpt>
<trkpt lat="53.159308" lon="-1.996968"><ele>391</ele><time>2020-10-07T11:52:14Z</time><name>PT2671</name></trkpt>
<trkpt lat="53.159337" lon="-1.996983"><ele>392</ele><time>2020-10-07T11:52:17Z</time><name>PT2672</name></trkpt>
<trkpt lat="53.159353" lon="-1.997011"><ele>393</ele><time>2020-10-07T11:52:20Z</time><name>PT2673</name></trkpt>
<trkpt lat="53.159374" lon="-1.997079"><ele>394</ele><time>2020-10-07T11:52:25Z</time><name>PT2674</name></trkpt>
<trkpt lat="53.159384" lon="-1.997133"><ele>395</ele><time>2020-10-07T11:52:28Z</time><name>PT2675</name></trkpt>
<trkpt lat="53.159403" lon="-1.997186"><ele>395</ele><time>2020-10-07T11:52:32Z</time><name>PT2676</name></trkpt>
<trkpt lat="53.159437" lon="-1.997224"><ele>395</ele><time>2020-10-07T11:52:35Z</time><name>PT2677</name></trkpt>
<trkpt lat="53.159453" lon="-1.997248"><ele>396</ele><time>2020-10-07T11:52:38Z</time><name>PT2678</name></trkpt>
<trkpt lat="53.159487" lon="-1.997286"><ele>397</ele><time>2020-10-07T11:52:43Z</time><name>PT2679</name></trkpt>
<trkpt lat="53.159525" lon="-1.997299"><ele>397</ele><time>2020-10-07T11:52:47Z</time><name>PT2680</name></trkpt>
<trkpt lat="53.159558" lon="-1.997339"><ele>397</ele><time>2020-10-07T11:52:50Z</time><name>PT2681</name></trkpt>
<trkpt lat="53.159578" lon="-1.997362"><ele>396</ele><time>2020-10-07T11:52:53Z</time><name>PT2682</name></trkpt>
<trkpt lat="53.159619" lon="-1.997378"><ele>396</ele><time>2020-10-07T11:52:58Z</time><name>PT2683</name></trkpt>
<trkpt lat="53.159663" lon="-1.997403"><ele>397</ele><time>2020-10-07T11:53:02Z</time><name>PT2684</name></trkpt>
<trkpt lat="53.159689" lon="-1.997441"><ele>397</ele><time>2020-10-07T11:53:05Z</time><name>PT2685</name></trkpt>
<trkpt lat="53.159725" lon="-1.997491"><ele>399</ele><time>2020-10-07T11:53:08Z</time><name>PT2686</name></trkpt>
<trkpt lat="53.159746" lon="-1.997523"><ele>399</ele><time>2020-10-07T11:53:11Z</time><name>PT2687</name></trkpt>
<trkpt lat="53.159759" lon="-1.997574"><ele>399</ele><time>2020-10-07T11:53:14Z</time><name>PT2688</name></trkpt>
<trkpt lat="53.159766" lon="-1.997646"><ele>399</ele><time>2020-10-07T11:53:19Z</time><name>PT2689</name></trkpt>
<trkpt lat="53.159780" lon="-1.997720"><ele>399</ele><time>2020-10-07T11:53:23Z</time><name>PT2690</name></trkpt>
<trkpt lat="53.159800" lon="-1.997767"><ele>399</ele><time>2020-10-07T11:53:26Z</time><name>PT2691</name></trkpt>
<trkpt lat="53.159826" lon="-1.997826"><ele>400</ele><time>2020-10-07T11:53:29Z</time><name>PT2692</name></trkpt>
<trkpt lat="53.159833" lon="-1.997874"><ele>400</ele><time>2020-10-07T11:53:32Z</time><name>PT2693</name></trkpt>
<trkpt lat="53.159858" lon="-1.997928"><ele>400</ele><time>2020-10-07T11:53:37Z</time><name>PT2694</name></trkpt>
<trkpt lat="53.159874" lon="-1.997953"><ele>400</ele><time>2020-10-07T11:53:40Z</time><name>PT2695</name></trkpt>
<trkpt lat="53.159886" lon="-1.997996"><ele>400</ele><time>2020-10-07T11:53:43Z</time><name>PT2696</name></trkpt>
<trkpt lat="53.159887" lon="-1.998072"><ele>400</ele><time>2020-10-07T11:53:47Z</time><name>PT2697</name></trkpt>
<trkpt lat="53.159907" lon="-1.998126"><ele>401</ele><time>2020-10-07T11:53:50Z</time><name>PT2698</name></trkpt>
<trkpt lat="53.159938" lon="-1.998156"><ele>401</ele><time>2020-10-07T11:53:53Z</time><name>PT2699</name></trkpt>
<trkpt lat="53.159962" lon="-1.998171"><ele>401</ele><time>2020-10-07T11:53:56Z</time><name>PT2700</name></trkpt>
<trkpt lat="53.160002" lon="-1.998197"><ele>400</ele><time>2020-10-07T11:54:01Z</time><name>PT2701</name></trkpt>
<trkpt lat="53.160031" lon="-1.998222"><ele>401</ele><time>2020-10-07T11:54:04Z</time><name>PT2702</name></trkpt>
<trkpt lat="53.160071" lon="-1.998273"><ele>401</ele><time>2020-10-07T11:54:08Z</time><name>PT2703</name></trkpt>
<trkpt lat="53.160112" lon="-1.998315"><ele>401</ele><time>2020-10-07T11:54:11Z</time><name>PT2704</name></trkpt>
<trkpt lat="53.160159" lon="-1.998341"><ele>401</ele><time>2020-10-07T11:54:16Z</time><name>PT2705</name></trkpt>
<trkpt lat="53.160205" lon="-1.998342"><ele>399</ele><time>2020-10-07T11:54:20Z</time><name>PT2706</name></trkpt>
<trkpt lat="53.160251" lon="-1.998352"><ele>399</ele><time>2020-10-07T11:54:23Z</time><name>PT2707</name></trkpt>
<trkpt lat="53.160283" lon="-1.998368"><ele>399</ele><time>2020-10-07T11:54:26Z</time><name>PT2708</name></trkpt>
<trkpt lat="53.160322" lon="-1.998381"><ele>399</ele><time>2020-10-07T11:54:31Z</time><name>PT2709</name></trkpt>
<trkpt lat="53.160354" lon="-1.998407"><ele>399</ele><time>2020-10-07T11:54:34Z</time><name>PT2710</name></trkpt>
<trkpt lat="53.160386" lon="-1.998432"><ele>400</ele><time>2020-10-07T11:54:37Z</time><name>PT2711</name></trkpt>
<trkpt lat="53.160413" lon="-1.998471"><ele>400</ele><time>2020-10-07T11:54:40Z</time><name>PT2712</name></trkpt>
<trkpt lat="53.160434" lon="-1.998516"><ele>400</ele><time>2020-10-07T11:54:43Z</time><name>PT2713</name></trkpt>
<trkpt lat="53.160458" lon="-1.998546"><ele>400</ele><time>2020-10-07T11:54:46Z</time><name>PT2714</name></trkpt>
<trkpt lat="53.160490" lon="-1.998597"><ele>400</ele><time>2020-10-07T11:54:49Z</time><name>PT2715</name></trkpt>
<trkpt lat="53.160513" lon="-1.998639"><ele>400</ele><time>2020-10-07T11:54:52Z</time><name>PT2716</name></trkpt>
<trkpt lat="53.160540" lon="-1.998676"><ele>400</ele><time>2020-10-07T11:54:55Z</time><name>PT2717</name></trkpt>
<trkpt lat="53.160574" lon="-1.998719"><ele>400</ele><time>2020-10-07T11:55:00Z</time><name>PT2718</name></trkpt>
<trkpt lat="53.160602" lon="-1.998758"><ele>400</ele><time>2020-10-07T11:55:03Z</time><name>PT2719</name></trkpt>
<trkpt lat="53.160641" lon="-1.998803"><ele>399</ele><time>2020-10-07T11:55:07Z</time><name>PT2720</name></trkpt>
<trkpt lat="53.160671" lon="-1.998843"><ele>399</ele><time>2020-10-07T11:55:10Z</time><name>PT2721</name></trkpt>
<trkpt lat="53.160705" lon="-1.998863"><ele>400</ele><time>2020-10-07T11:55:13Z</time><name>PT2722</name></trkpt>
<trkpt lat="53.160750" lon="-1.998881"><ele>402</ele><time>2020-10-07T11:55:16Z</time><name>PT2723</name></trkpt>
<trkpt lat="53.160777" lon="-1.998915"><ele>402</ele><time>2020-10-07T11:55:19Z</time><name>PT2724</name></trkpt>
<trkpt lat="53.160814" lon="-1.998968"><ele>403</ele><time>2020-10-07T11:55:24Z</time><name>PT2725</name></trkpt>
<trkpt lat="53.160847" lon="-1.999010"><ele>403</ele><time>2020-10-07T11:55:28Z</time><name>PT2726</name></trkpt>
<trkpt lat="53.160871" lon="-1.999068"><ele>403</ele><time>2020-10-07T11:55:31Z</time><name>PT2727</name></trkpt>
<trkpt lat="53.160893" lon="-1.999119"><ele>403</ele><time>2020-10-07T11:55:36Z</time><name>PT2728</name></trkpt>
<trkpt lat="53.160931" lon="-1.999153"><ele>403</ele><time>2020-10-07T11:55:40Z</time><name>PT2729</name></trkpt>
<trkpt lat="53.160957" lon="-1.999176"><ele>402</ele><time>2020-10-07T11:55:43Z</time><name>PT2730</name></trkpt>
<trkpt lat="53.160986" lon="-1.999207"><ele>402</ele><time>2020-10-07T11:55:46Z</time><name>PT2731</name></trkpt>
<trkpt lat="53.161017" lon="-1.999230"><ele>400</ele><time>2020-10-07T11:55:49Z</time><name>PT2732</name></trkpt>
<trkpt lat="53.161054" lon="-1.999262"><ele>400</ele><time>2020-10-07T11:55:52Z</time><name>PT2733</name></trkpt>
<trkpt lat="53.161085" lon="-1.999273"><ele>400</ele><time>2020-10-07T11:55:55Z</time><name>PT2734</name></trkpt>
<trkpt lat="53.161119" lon="-1.999272"><ele>400</ele><time>2020-10-07T11:55:58Z</time><name>PT2735</name></trkpt>
<trkpt lat="53.161160" lon="-1.999265"><ele>400</ele><time>2020-10-07T11:56:03Z</time><name>PT2736</name></trkpt>
<trkpt lat="53.161190" lon="-1.999282"><ele>400</ele><time>2020-10-07T11:56:06Z</time><name>PT2737</name></trkpt>
<trkpt lat="53.161223" lon="-1.999323"><ele>400</ele><time>2020-10-07T11:56:10Z</time><name>PT2738</name></trkpt>
<trkpt lat="53.161240" lon="-1.999367"><ele>400</ele><time>2020-10-07T11:56:13Z</time><name>PT2739</name></trkpt>
<trkpt lat="53.161259" lon="-1.999374"><ele>400</ele><time>2020-10-07T11:56:16Z</time><name>PT2740</name></trkpt>
<trkpt lat="53.161284" lon="-1.999405"><ele>400</ele><time>2020-10-07T11:56:19Z</time><name>PT2741</name></trkpt>
<trkpt lat="53.161323" lon="-1.999446"><ele>400</ele><time>2020-10-07T11:56:22Z</time><name>PT2742</name></trkpt>
<trkpt lat="53.161354" lon="-1.999458"><ele>400</ele><time>2020-10-07T11:56:25Z</time><name>PT2743</name></trkpt>
<trkpt lat="53.161396" lon="-1.999458"><ele>401</ele><time>2020-10-07T11:56:30Z</time><name>PT2744</name></trkpt>
<trkpt lat="53.161432" lon="-1.999487"><ele>399</ele><time>2020-10-07T11:56:34Z</time><name>PT2745</name></trkpt>
<trkpt lat="53.161459" lon="-1.999519"><ele>399</ele><time>2020-10-07T11:56:37Z</time><name>PT2746</name></trkpt>
<trkpt lat="53.161487" lon="-1.999559"><ele>399</ele><time>2020-10-07T11:56:40Z</time><name>PT2747</name></trkpt>
<trkpt lat="53.161526" lon="-1.999588"><ele>398</ele><time>2020-10-07T11:56:43Z</time><name>PT2748</name></trkpt>
<trkpt lat="53.161547" lon="-1.999609"><ele>397</ele><time>2020-10-07T11:56:46Z</time><name>PT2749</name></trkpt>
<trkpt lat="53.161568" lon="-1.999661"><ele>398</ele><time>2020-10-07T11:56:49Z</time><name>PT2750</name></trkpt>
<trkpt lat="53.161592" lon="-1.999708"><ele>398</ele><time>2020-10-07T11:56:52Z</time><name>PT2751</name></trkpt>
<trkpt lat="53.161605" lon="-1.999750"><ele>398</ele><time>2020-10-07T11:56:55Z</time><name>PT2752</name></trkpt>
<trkpt lat="53.161638" lon="-1.999796"><ele>399</ele><time>2020-10-07T11:57:00Z</time><name>PT2753</name></trkpt>
<trkpt lat="53.161657" lon="-1.999823"><ele>398</ele><time>2020-10-07T11:57:03Z</time><name>PT2754</name></trkpt>
<trkpt lat="53.161680" lon="-1.999849"><ele>398</ele><time>2020-10-07T11:57:07Z</time><name>PT2755</name></trkpt>
<trkpt lat="53.161704" lon="-1.999871"><ele>398</ele><time>2020-10-07T11:57:10Z</time><name>PT2756</name></trkpt>
<trkpt lat="53.161740" lon="-1.999886"><ele>398</ele><time>2020-10-07T11:57:13Z</time><name>PT2757</name></trkpt>
<trkpt lat="53.161763" lon="-1.999908"><ele>398</ele><time>2020-10-07T11:57:16Z</time><name>PT2758</name></trkpt>
<trkpt lat="53.161785" lon="-1.999928"><ele>398</ele><time>2020-10-07T11:57:19Z</time><name>PT2759</name></trkpt>
<trkpt lat="53.161796" lon="-1.999938"><ele>398</ele><time>2020-10-07T11:57:24Z</time><name>PT2760</name></trkpt>
<trkpt lat="53.161795" lon="-1.999963"><ele>398</ele><time>2020-10-07T11:57:27Z</time><name>PT2761</name></trkpt>
<trkpt lat="53.161789" lon="-1.999991"><ele>398</ele><time>2020-10-07T11:57:30Z</time><name>PT2762</name></trkpt>
<trkpt lat="53.161819" lon="-2.000052"><ele>397</ele><time>2020-10-07T11:57:34Z</time><name>PT2763</name></trkpt>
<trkpt lat="53.161849" lon="-2.000068"><ele>397</ele><time>2020-10-07T11:57:37Z</time><name>PT2764</name></trkpt>
<trkpt lat="53.161874" lon="-2.000078"><ele>397</ele><time>2020-10-07T11:57:40Z</time><name>PT2765</name></trkpt>
<trkpt lat="53.161887" lon="-2.000099"><ele>397</ele><time>2020-10-07T11:57:43Z</time><name>PT2766</name></trkpt>
<trkpt lat="53.161894" lon="-2.000124"><ele>397</ele><time>2020-10-07T11:57:46Z</time><name>PT2767</name></trkpt>
<trkpt lat="53.161914" lon="-2.000148"><ele>398</ele><time>2020-10-07T11:57:51Z</time><name>PT2768</name></trkpt>
<trkpt lat="53.161927" lon="-2.000175"><ele>397</ele><time>2020-10-07T11:57:54Z</time><name>PT2769</name></trkpt>
<trkpt lat="53.161941" lon="-2.000207"><ele>397</ele><time>2020-10-07T11:57:57Z</time><name>PT2770</name></trkpt>
<trkpt lat="53.161954" lon="-2.000239"><ele>397</ele><time>2020-10-07T11:58:00Z</time><name>PT2771</name></trkpt>
<trkpt lat="53.161977" lon="-2.000279"><ele>398</ele><time>2020-10-07T11:58:04Z</time><name>PT2772</name></trkpt>
<trkpt lat="53.161994" lon="-2.000304"><ele>397</ele><time>2020-10-07T11:58:07Z</time><name>PT2773</name></trkpt>
<trkpt lat="53.161994" lon="-2.000350"><ele>396</ele><time>2020-10-07T11:58:11Z</time><name>PT2774</name></trkpt>
<trkpt lat="53.161990" lon="-2.000403"><ele>396</ele><time>2020-10-07T11:58:15Z</time><name>PT2775</name></trkpt>
<trkpt lat="53.162017" lon="-2.000439"><ele>396</ele><time>2020-10-07T11:58:19Z</time><name>PT2776</name></trkpt>
<trkpt lat="53.162043" lon="-2.000487"><ele>396</ele><time>2020-10-07T11:58:22Z</time><name>PT2777</name></trkpt>
<trkpt lat="53.162071" lon="-2.000545"><ele>396</ele><time>2020-10-07T11:58:27Z</time><name>PT2778</name></trkpt>
<trkpt lat="53.162097" lon="-2.000582"><ele>396</ele><time>2020-10-07T11:58:31Z</time><name>PT2779</name></trkpt>
<trkpt lat="53.162118" lon="-2.000616"><ele>396</ele><time>2020-10-07T11:58:34Z</time><name>PT2780</name></trkpt>
<trkpt lat="53.162151" lon="-2.000667"><ele>396</ele><time>2020-10-07T11:58:37Z</time><name>PT2781</name></trkpt>
<trkpt lat="53.162184" lon="-2.000705"><ele>397</ele><time>2020-10-07T11:58:42Z</time><name>PT2782</name></trkpt>
<trkpt lat="53.162211" lon="-2.000730"><ele>396</ele><time>2020-10-07T11:58:45Z</time><name>PT2783</name></trkpt>
<trkpt lat="53.162244" lon="-2.000765"><ele>395</ele><time>2020-10-07T11:58:49Z</time><name>PT2784</name></trkpt>
<trkpt lat="53.162275" lon="-2.000775"><ele>394</ele><time>2020-10-07T11:58:52Z</time><name>PT2785</name></trkpt>
<trkpt lat="53.162310" lon="-2.000808"><ele>393</ele><time>2020-10-07T11:58:55Z</time><name>PT2786</name></trkpt>
<trkpt lat="53.162350" lon="-2.000831"><ele>392</ele><time>2020-10-07T11:59:00Z</time><name>PT2787</name></trkpt>
<trkpt lat="53.162375" lon="-2.000841"><ele>391</ele><time>2020-10-07T11:59:04Z</time><name>PT2788</name></trkpt>
<trkpt lat="53.162410" lon="-2.000857"><ele>391</ele><time>2020-10-07T11:59:07Z</time><name>PT2789</name></trkpt>
<trkpt lat="53.162445" lon="-2.000867"><ele>391</ele><time>2020-10-07T11:59:10Z</time><name>PT2790</name></trkpt>
<trkpt lat="53.162480" lon="-2.000907"><ele>391</ele><time>2020-10-07T11:59:13Z</time><name>PT2791</name></trkpt>
<trkpt lat="53.162515" lon="-2.000939"><ele>391</ele><time>2020-10-07T11:59:18Z</time><name>PT2792</name></trkpt>
<trkpt lat="53.162546" lon="-2.000956"><ele>392</ele><time>2020-10-07T11:59:21Z</time><name>PT2793</name></trkpt>
<trkpt lat="53.162575" lon="-2.001005"><ele>394</ele><time>2020-10-07T11:59:25Z</time><name>PT2794</name></trkpt>
<trkpt lat="53.162606" lon="-2.001053"><ele>394</ele><time>2020-10-07T11:59:28Z</time><name>PT2795</name></trkpt>
<trkpt lat="53.162623" lon="-2.001074"><ele>393</ele><time>2020-10-07T11:59:31Z</time><name>PT2796</name></trkpt>
<trkpt lat="53.162661" lon="-2.001107"><ele>394</ele><time>2020-10-07T11:59:36Z</time><name>PT2797</name></trkpt>
<trkpt lat="53.162699" lon="-2.001135"><ele>393</ele><time>2020-10-07T11:59:40Z</time><name>PT2798</name></trkpt>
<trkpt lat="53.162726" lon="-2.001157"><ele>391</ele><time>2020-10-07T11:59:43Z</time><name>PT2799</name></trkpt>
<trkpt lat="53.162765" lon="-2.001160"><ele>391</ele><time>2020-10-07T11:59:46Z</time><name>PT2800</name></trkpt>
<trkpt lat="53.162791" lon="-2.001148"><ele>391</ele><time>2020-10-07T11:59:49Z</time><name>PT2801</name></trkpt>
<trkpt lat="53.162826" lon="-2.001147"><ele>390</ele><time>2020-10-07T11:59:54Z</time><name>PT2802</name></trkpt>
<trkpt lat="53.162857" lon="-2.001150"><ele>390</ele><time>2020-10-07T11:59:57Z</time><name>PT2803</name></trkpt>
<trkpt lat="53.162884" lon="-2.001131"><ele>390</ele><time>2020-10-07T12:00:00Z</time><name>PT2804</name></trkpt>
<trkpt lat="53.162907" lon="-2.001130"><ele>389</ele><time>2020-10-07T12:00:03Z</time><name>PT2805</name></trkpt>
<trkpt lat="53.162948" lon="-2.001133"><ele>389</ele><time>2020-10-07T12:00:07Z</time><name>PT2806</name></trkpt>
<trkpt lat="53.162978" lon="-2.001141"><ele>388</ele><time>2020-10-07T12:00:10Z</time><name>PT2807</name></trkpt>
<trkpt lat="53.163004" lon="-2.001153"><ele>388</ele><time>2020-10-07T12:00:13Z</time><name>PT2808</name></trkpt>
<trkpt lat="53.163038" lon="-2.001153"><ele>388</ele><time>2020-10-07T12:00:16Z</time><name>PT2809</name></trkpt>
<trkpt lat="53.163061" lon="-2.001150"><ele>387</ele><time>2020-10-07T12:00:19Z</time><name>PT2810</name></trkpt>
<trkpt lat="53.163102" lon="-2.001146"><ele>388</ele><time>2020-10-07T12:00:24Z</time><name>PT2811</name></trkpt>
<trkpt lat="53.163142" lon="-2.001156"><ele>388</ele><time>2020-10-07T12:00:28Z</time><name>PT2812</name></trkpt>
<trkpt lat="53.163170" lon="-2.001157"><ele>387</ele><time>2020-10-07T12:00:31Z</time><name>PT2813</name></trkpt>
<trkpt lat="53.163201" lon="-2.001179"><ele>388</ele><time>2020-10-07T12:00:34Z</time><name>PT2814</name></trkpt>
<trkpt lat="53.163236" lon="-2.001223"><ele>389</ele><time>2020-10-07T12:00:37Z</time><name>PT2815</name></trkpt>
<trkpt lat="53.163259" lon="-2.001227"><ele>388</ele><time>2020-10-07T12:00:40Z</time><name>PT2816</name></trkpt>
<trkpt lat="53.163290" lon="-2.001246"><ele>387</ele><time>2020-10-07T12:00:43Z</time><name>PT2817</name></trkpt>
<trkpt lat="53.163321" lon="-2.001252"><ele>388</ele><time>2020-10-07T12:00:47Z</time><name>PT2818</name></trkpt>
<trkpt lat="53.163345" lon="-2.001274"><ele>387</ele><time>2020-10-07T12:00:51Z</time><name>PT2819</name></trkpt>
<trkpt lat="53.163367" lon="-2.001297"><ele>386</ele><time>2020-10-07T12:00:55Z</time><name>PT2820</name></trkpt>
<trkpt lat="53.163399" lon="-2.001312"><ele>386</ele><time>2020-10-07T12:00:58Z</time><name>PT2821</name></trkpt>
<trkpt lat="53.163433" lon="-2.001342"><ele>385</ele><time>2020-10-07T12:01:01Z</time><name>PT2822</name></trkpt>
<trkpt lat="53.163474" lon="-2.001355"><ele>385</ele><time>2020-10-07T12:01:06Z</time><name>PT2823</name></trkpt>
<trkpt lat="53.163499" lon="-2.001382"><ele>384</ele><time>2020-10-07T12:01:09Z</time><name>PT2824</name></trkpt>
<trkpt lat="53.163520" lon="-2.001415"><ele>385</ele><time>2020-10-07T12:01:12Z</time><name>PT2825</name></trkpt>
<trkpt lat="53.163539" lon="-2.001445"><ele>385</ele><time>2020-10-07T12:01:15Z</time><name>PT2826</name></trkpt>
<trkpt lat="53.163566" lon="-2.001471"><ele>385</ele><time>2020-10-07T12:01:19Z</time><name>PT2827</name></trkpt>
<trkpt lat="53.163592" lon="-2.001507"><ele>385</ele><time>2020-10-07T12:01:22Z</time><name>PT2828</name></trkpt>
<trkpt lat="53.163620" lon="-2.001527"><ele>384</ele><time>2020-10-07T12:01:25Z</time><name>PT2829</name></trkpt>
<trkpt lat="53.163658" lon="-2.001544"><ele>385</ele><time>2020-10-07T12:01:30Z</time><name>PT2830</name></trkpt>
<trkpt lat="53.163673" lon="-2.001559"><ele>384</ele><time>2020-10-07T12:01:34Z</time><name>PT2831</name></trkpt>
<trkpt lat="53.163697" lon="-2.001554"><ele>385</ele><time>2020-10-07T12:01:37Z</time><name>PT2832</name></trkpt>
<trkpt lat="53.163730" lon="-2.001584"><ele>385</ele><time>2020-10-07T12:01:40Z</time><name>PT2833</name></trkpt>
<trkpt lat="53.163760" lon="-2.001617"><ele>385</ele><time>2020-10-07T12:01:45Z</time><name>PT2834</name></trkpt>
<trkpt lat="53.163802" lon="-2.001650"><ele>385</ele><time>2020-10-07T12:01:49Z</time><name>PT2835</name></trkpt>
<trkpt lat="53.163824" lon="-2.001689"><ele>386</ele><time>2020-10-07T12:01:52Z</time><name>PT2836</name></trkpt>
<trkpt lat="53.163841" lon="-2.001732"><ele>386</ele><time>2020-10-07T12:01:55Z</time><name>PT2837</name></trkpt>
<trkpt lat="53.163871" lon="-2.001775"><ele>384</ele><time>2020-10-07T12:01:58Z</time><name>PT2838</name></trkpt>
<trkpt lat="53.163884" lon="-2.001796"><ele>385</ele><time>2020-10-07T12:02:01Z</time><name>PT2839</name></trkpt>
<trkpt lat="53.163913" lon="-2.001817"><ele>385</ele><time>2020-10-07T12:02:06Z</time><name>PT2840</name></trkpt>
<trkpt lat="53.163933" lon="-2.001840"><ele>384</ele><time>2020-10-07T12:02:09Z</time><name>PT2841</name></trkpt>
<trkpt lat="53.163953" lon="-2.001866"><ele>384</ele><time>2020-10-07T12:02:13Z</time><name>PT2842</name></trkpt>
<trkpt lat="53.163975" lon="-2.001883"><ele>385</ele><time>2020-10-07T12:02:16Z</time><name>PT2843</name></trkpt>
<trkpt lat="53.163994" lon="-2.001895"><ele>384</ele><time>2020-10-07T12:02:19Z</time><name>PT2844</name></trkpt>
<trkpt lat="53.164026" lon="-2.001916"><ele>385</ele><time>2020-10-07T12:02:24Z</time><name>PT2845</name></trkpt>
<trkpt lat="53.164053" lon="-2.001930"><ele>386</ele><time>2020-10-07T12:02:27Z</time><name>PT2846</name></trkpt>
<trkpt lat="53.164072" lon="-2.001943"><ele>386</ele><time>2020-10-07T12:02:30Z</time><name>PT2847</name></trkpt>
<trkpt lat="53.164083" lon="-2.001968"><ele>387</ele><time>2020-10-07T12:02:34Z</time><name>PT2848</name></trkpt>
<trkpt lat="53.164077" lon="-2.001961"><ele>387</ele><time>2020-10-07T12:02:37Z</time><name>PT2849</name></trkpt>
<trkpt lat="53.164078" lon="-2.001979"><ele>386</ele><time>2020-10-07T12:02:40Z</time><name>PT2850</name></trkpt>
<trkpt lat="53.164080" lon="-2.002033"><ele>387</ele><time>2020-10-07T12:02:45Z</time><name>PT2851</name></trkpt>
<trkpt lat="53.164078" lon="-2.002076"><ele>385</ele><time>2020-10-07T12:02:49Z</time><name>PT2852</name></trkpt>
<trkpt lat="53.164071" lon="-2.002099"><ele>384</ele><time>2020-10-07T12:02:52Z</time><name>PT2853</name></trkpt>
<trkpt lat="53.164075" lon="-2.002117"><ele>383</ele><time>2020-10-07T12:02:55Z</time><name>PT2854</name></trkpt>
<trkpt lat="53.164082" lon="-2.002144"><ele>383</ele><time>2020-10-07T12:02:58Z</time><name>PT2855</name></trkpt>
<trkpt lat="53.164093" lon="-2.002177"><ele>382</ele><time>2020-10-07T12:03:01Z</time><name>PT2856</name></trkpt>
<trkpt lat="53.164092" lon="-2.002192"><ele>382</ele><time>2020-10-07T12:03:06Z</time><name>PT2857</name></trkpt>
<trkpt lat="53.164101" lon="-2.002184"><ele>381</ele><time>2020-10-07T12:03:10Z</time><name>PT2858</name></trkpt>
<trkpt lat="53.164116" lon="-2.002203"><ele>382</ele><time>2020-10-07T12:03:13Z</time><name>PT2859</name></trkpt>
<trkpt lat="53.164134" lon="-2.002201"><ele>383</ele><time>2020-10-07T12:03:18Z</time><name>PT2860</name></trkpt>
<trkpt lat="53.164149" lon="-2.002205"><ele>384</ele><time>2020-10-07T12:03:21Z</time><name>PT2861</name></trkpt>
<trkpt lat="53.164169" lon="-2.002217"><ele>384</ele><time>2020-10-07T12:03:25Z</time><name>PT2862</name></trkpt>
<trkpt lat="53.164187" lon="-2.002236"><ele>384</ele><time>2020-10-07T12:03:28Z</time><name>PT2863</name></trkpt>
<trkpt lat="53.164200" lon="-2.002291"><ele>384</ele><time>2020-10-07T12:03:31Z</time><name>PT2864</name></trkpt>
<trkpt lat="53.164214" lon="-2.002334"><ele>383</ele><time>2020-10-07T12:03:36Z</time><name>PT2865</name></trkpt>
<trkpt lat="53.164226" lon="-2.002348"><ele>383</ele><time>2020-10-07T12:03:39Z</time><name>PT2866</name></trkpt>
<trkpt lat="53.164222" lon="-2.002354"><ele>382</ele><time>2020-10-07T12:03:42Z</time><name>PT2867</name></trkpt>
<trkpt lat="53.164237" lon="-2.002376"><ele>382</ele><time>2020-10-07T12:03:48Z</time><name>PT2868</name></trkpt>
<trkpt lat="53.164273" lon="-2.002395"><ele>382</ele><time>2020-10-07T12:03:52Z</time><name>PT2869</name></trkpt>
<trkpt lat="53.164308" lon="-2.002420"><ele>382</ele><time>2020-10-07T12:03:55Z</time><name>PT2870</name></trkpt>
<trkpt lat="53.164326" lon="-2.002466"><ele>382</ele><time>2020-10-07T12:03:58Z</time><name>PT2871</name></trkpt>
<trkpt lat="53.164354" lon="-2.002499"><ele>382</ele><time>2020-10-07T12:04:03Z</time><name>PT2872</name></trkpt>
<trkpt lat="53.164371" lon="-2.002526"><ele>381</ele><time>2020-10-07T12:04:06Z</time><name>PT2873</name></trkpt>
<trkpt lat="53.164401" lon="-2.002556"><ele>381</ele><time>2020-10-07T12:04:10Z</time><name>PT2874</name></trkpt>
<trkpt lat="53.164423" lon="-2.002565"><ele>381</ele><time>2020-10-07T12:04:13Z</time><name>PT2875</name></trkpt>
<trkpt lat="53.164454" lon="-2.002582"><ele>383</ele><time>2020-10-07T12:04:16Z</time><name>PT2876</name></trkpt>
<trkpt lat="53.164474" lon="-2.002599"><ele>383</ele><time>2020-10-07T12:04:19Z</time><name>PT2877</name></trkpt>
<trkpt lat="53.164506" lon="-2.002613"><ele>383</ele><time>2020-10-07T12:04:24Z</time><name>PT2878</name></trkpt>
<trkpt lat="53.164525" lon="-2.002636"><ele>383</ele><time>2020-10-07T12:04:27Z</time><name>PT2879</name></trkpt>
<trkpt lat="53.164532" lon="-2.002648"><ele>383</ele><time>2020-10-07T12:04:31Z</time><name>PT2880</name></trkpt>
<trkpt lat="53.164551" lon="-2.002682"><ele>382</ele><time>2020-10-07T12:04:40Z</time><name>PT2881</name></trkpt>
<trkpt lat="53.164577" lon="-2.002728"><ele>382</ele><time>2020-10-07T12:04:45Z</time><name>PT2882</name></trkpt>
<trkpt lat="53.164595" lon="-2.002756"><ele>382</ele><time>2020-10-07T12:04:48Z</time><name>PT2883</name></trkpt>
<trkpt lat="53.164618" lon="-2.002769"><ele>382</ele><time>2020-10-07T12:04:51Z</time><name>PT2884</name></trkpt>
<trkpt lat="53.164643" lon="-2.002780"><ele>381</ele><time>2020-10-07T12:04:55Z</time><name>PT2885</name></trkpt>
<trkpt lat="53.164651" lon="-2.002784"><ele>381</ele><time>2020-10-07T12:04:59Z</time><name>PT2886</name></trkpt>
<trkpt lat="53.164672" lon="-2.002799"><ele>380</ele><time>2020-10-07T12:05:02Z</time><name>PT2887</name></trkpt>
<trkpt lat="53.164691" lon="-2.002812"><ele>379</ele><time>2020-10-07T12:05:05Z</time><name>PT2888</name></trkpt>
<trkpt lat="53.164703" lon="-2.002846"><ele>379</ele><time>2020-10-07T12:05:09Z</time><name>PT2889</name></trkpt>
<trkpt lat="53.164694" lon="-2.002891"><ele>377</ele><time>2020-10-07T12:05:12Z</time><name>PT2890</name></trkpt>
<trkpt lat="53.164700" lon="-2.002944"><ele>377</ele><time>2020-10-07T12:05:17Z</time><name>PT2891</name></trkpt>
<trkpt lat="53.164716" lon="-2.002978"><ele>376</ele><time>2020-10-07T12:05:21Z</time><name>PT2892</name></trkpt>
<trkpt lat="53.164725" lon="-2.003002"><ele>376</ele><time>2020-10-07T12:05:24Z</time><name>PT2893</name></trkpt>
<trkpt lat="53.164738" lon="-2.003053"><ele>375</ele><time>2020-10-07T12:05:27Z</time><name>PT2894</name></trkpt>
<trkpt lat="53.164736" lon="-2.003112"><ele>373</ele><time>2020-10-07T12:05:32Z</time><name>PT2895</name></trkpt>
<trkpt lat="53.164728" lon="-2.003151"><ele>373</ele><time>2020-10-07T12:05:35Z</time><name>PT2896</name></trkpt>
<trkpt lat="53.164714" lon="-2.003192"><ele>371</ele><time>2020-10-07T12:05:39Z</time><name>PT2897</name></trkpt>
<trkpt lat="53.164693" lon="-2.003228"><ele>370</ele><time>2020-10-07T12:05:42Z</time><name>PT2898</name></trkpt>
<trkpt lat="53.164684" lon="-2.003285"><ele>369</ele><time>2020-10-07T12:05:45Z</time><name>PT2899</name></trkpt>
<trkpt lat="53.164670" lon="-2.003330"><ele>369</ele><time>2020-10-07T12:05:50Z</time><name>PT2900</name></trkpt>
<trkpt lat="53.164656" lon="-2.003352"><ele>368</ele><time>2020-10-07T12:05:53Z</time><name>PT2901</name></trkpt>
<trkpt lat="53.164639" lon="-2.003405"><ele>366</ele><time>2020-10-07T12:05:57Z</time><name>PT2902</name></trkpt>
<trkpt lat="53.164628" lon="-2.003437"><ele>364</ele><time>2020-10-07T12:06:00Z</time><name>PT2903</name></trkpt>
<trkpt lat="53.164613" lon="-2.003473"><ele>364</ele><time>2020-10-07T12:06:03Z</time><name>PT2904</name></trkpt>
<trkpt lat="53.164622" lon="-2.003524"><ele>363</ele><time>2020-10-07T12:06:08Z</time><name>PT2905</name></trkpt>
<trkpt lat="53.164629" lon="-2.003582"><ele>363</ele><time>2020-10-07T12:06:12Z</time><name>PT2906</name></trkpt>
<trkpt lat="53.164652" lon="-2.003615"><ele>362</ele><time>2020-10-07T12:06:15Z</time><name>PT2907</name></trkpt>
<trkpt lat="53.164679" lon="-2.003654"><ele>362</ele><time>2020-10-07T12:06:18Z</time><name>PT2908</name></trkpt>
<trkpt lat="53.164712" lon="-2.003719"><ele>362</ele><time>2020-10-07T12:06:21Z</time><name>PT2909</name></trkpt>
<trkpt lat="53.164745" lon="-2.003773"><ele>362</ele><time>2020-10-07T12:06:26Z</time><name>PT2910</name></trkpt>
<trkpt lat="53.164755" lon="-2.003811"><ele>362</ele><time>2020-10-07T12:06:29Z</time><name>PT2911</name></trkpt>
<trkpt lat="53.164778" lon="-2.003860"><ele>363</ele><time>2020-10-07T12:06:33Z</time><name>PT2912</name></trkpt>
<trkpt lat="53.164790" lon="-2.003925"><ele>362</ele><time>2020-10-07T12:06:36Z</time><name>PT2913</name></trkpt>
<trkpt lat="53.164810" lon="-2.003962"><ele>362</ele><time>2020-10-07T12:06:39Z</time><name>PT2914</name></trkpt>
<trkpt lat="53.164834" lon="-2.004003"><ele>363</ele><time>2020-10-07T12:06:42Z</time><name>PT2915</name></trkpt>
<trkpt lat="53.164863" lon="-2.004062"><ele>363</ele><time>2020-10-07T12:06:47Z</time><name>PT2916</name></trkpt>
<trkpt lat="53.164890" lon="-2.004107"><ele>363</ele><time>2020-10-07T12:06:50Z</time><name>PT2917</name></trkpt>
<trkpt lat="53.164916" lon="-2.004136"><ele>362</ele><time>2020-10-07T12:06:53Z</time><name>PT2918</name></trkpt>
<trkpt lat="53.164926" lon="-2.004196"><ele>361</ele><time>2020-10-07T12:06:57Z</time><name>PT2919</name></trkpt>
<trkpt lat="53.164944" lon="-2.004250"><ele>361</ele><time>2020-10-07T12:07:00Z</time><name>PT2920</name></trkpt>
<trkpt lat="53.164951" lon="-2.004288"><ele>361</ele><time>2020-10-07T12:07:03Z</time><name>PT2921</name></trkpt>
<trkpt lat="53.164983" lon="-2.004323"><ele>361</ele><time>2020-10-07T12:07:08Z</time><name>PT2922</name></trkpt>
<trkpt lat="53.165005" lon="-2.004360"><ele>360</ele><time>2020-10-07T12:07:11Z</time><name>PT2923</name></trkpt>
<trkpt lat="53.165030" lon="-2.004409"><ele>361</ele><time>2020-10-07T12:07:15Z</time><name>PT2924</name></trkpt>
<trkpt lat="53.165032" lon="-2.004462"><ele>360</ele><time>2020-10-07T12:07:18Z</time><name>PT2925</name></trkpt>
<trkpt lat="53.165049" lon="-2.004518"><ele>360</ele><time>2020-10-07T12:07:21Z</time><name>PT2926</name></trkpt>
<trkpt lat="53.165053" lon="-2.004563"><ele>360</ele><time>2020-10-07T12:07:24Z</time><name>PT2927</name></trkpt>
<trkpt lat="53.165065" lon="-2.004597"><ele>359</ele><time>2020-10-07T12:07:27Z</time><name>PT2928</name></trkpt>
<trkpt lat="53.165084" lon="-2.004629"><ele>358</ele><time>2020-10-07T12:07:30Z</time><name>PT2929</name></trkpt>
<trkpt lat="53.165100" lon="-2.004683"><ele>357</ele><time>2020-10-07T12:07:35Z</time><name>PT2930</name></trkpt>
<trkpt lat="53.165126" lon="-2.004729"><ele>357</ele><time>2020-10-07T12:07:39Z</time><name>PT2931</name></trkpt>
<trkpt lat="53.165149" lon="-2.004766"><ele>357</ele><time>2020-10-07T12:07:42Z</time><name>PT2932</name></trkpt>
<trkpt lat="53.165172" lon="-2.004810"><ele>357</ele><time>2020-10-07T12:07:45Z</time><name>PT2933</name></trkpt>
<trkpt lat="53.165187" lon="-2.004879"><ele>356</ele><time>2020-10-07T12:07:50Z</time><name>PT2934</name></trkpt>
<trkpt lat="53.165196" lon="-2.004927"><ele>355</ele><time>2020-10-07T12:07:53Z</time><name>PT2935</name></trkpt>
<trkpt lat="53.165228" lon="-2.004969"><ele>354</ele><time>2020-10-07T12:07:57Z</time><name>PT2936</name></trkpt>
<trkpt lat="53.165242" lon="-2.005005"><ele>353</ele><time>2020-10-07T12:08:00Z</time><name>PT2937</name></trkpt>
<trkpt lat="53.165253" lon="-2.005072"><ele>351</ele><time>2020-10-07T12:08:03Z</time><name>PT2938</name></trkpt>
<trkpt lat="53.165267" lon="-2.005129"><ele>351</ele><time>2020-10-07T12:08:08Z</time><name>PT2939</name></trkpt>
<trkpt lat="53.165286" lon="-2.005155"><ele>350</ele><time>2020-10-07T12:08:11Z</time><name>PT2940</name></trkpt>
<trkpt lat="53.165299" lon="-2.005201"><ele>350</ele><time>2020-10-07T12:08:15Z</time><name>PT2941</name></trkpt>
<trkpt lat="53.165327" lon="-2.005246"><ele>348</ele><time>2020-10-07T12:08:18Z</time><name>PT2942</name></trkpt>
<trkpt lat="53.165357" lon="-2.005283"><ele>349</ele><time>2020-10-07T12:08:21Z</time><name>PT2943</name></trkpt>
<trkpt lat="53.165384" lon="-2.005331"><ele>348</ele><time>2020-10-07T12:08:24Z</time><name>PT2944</name></trkpt>
<trkpt lat="53.165393" lon="-2.005379"><ele>347</ele><time>2020-10-07T12:08:29Z</time><name>PT2945</name></trkpt>
<trkpt lat="53.165398" lon="-2.005420"><ele>347</ele><time>2020-10-07T12:08:32Z</time><name>PT2946</name></trkpt>
<trkpt lat="53.165399" lon="-2.005430"><ele>347</ele><time>2020-10-07T12:08:35Z</time><name>PT2947</name></trkpt>
<trkpt lat="53.165385" lon="-2.005465"><ele>346</ele><time>2020-10-07T12:08:38Z</time><name>PT2948</name></trkpt>
<trkpt lat="53.165370" lon="-2.005524"><ele>345</ele><time>2020-10-07T12:08:42Z</time><name>PT2949</name></trkpt>
<trkpt lat="53.165372" lon="-2.005563"><ele>344</ele><time>2020-10-07T12:08:45Z</time><name>PT2950</name></trkpt>
<trkpt lat="53.165360" lon="-2.005604"><ele>343</ele><time>2020-10-07T12:08:48Z</time><name>PT2951</name></trkpt>
<trkpt lat="53.165378" lon="-2.005639"><ele>343</ele><time>2020-10-07T12:08:51Z</time><name>PT2952</name></trkpt>
<trkpt lat="53.165417" lon="-2.005673"><ele>343</ele><time>2020-10-07T12:08:54Z</time><name>PT2953</name></trkpt>
<trkpt lat="53.165450" lon="-2.005708"><ele>342</ele><time>2020-10-07T12:08:59Z</time><name>PT2954</name></trkpt>
<trkpt lat="53.165477" lon="-2.005732"><ele>341</ele><time>2020-10-07T12:09:02Z</time><name>PT2955</name></trkpt>
<trkpt lat="53.165502" lon="-2.005764"><ele>339</ele><time>2020-10-07T12:09:06Z</time><name>PT2956</name></trkpt>
<trkpt lat="53.165519" lon="-2.005792"><ele>338</ele><time>2020-10-07T12:09:09Z</time><name>PT2957</name></trkpt>
<trkpt lat="53.165531" lon="-2.005815"><ele>337</ele><time>2020-10-07T12:09:12Z</time><name>PT2958</name></trkpt>
<trkpt lat="53.165552" lon="-2.005814"><ele>339</ele><time>2020-10-07T12:09:15Z</time><name>PT2959</name></trkpt>
<trkpt lat="53.165568" lon="-2.005832"><ele>339</ele><time>2020-10-07T12:09:30Z</time><name>PT2960</name></trkpt>
<trkpt lat="53.165579" lon="-2.005859"><ele>339</ele><time>2020-10-07T12:09:35Z</time><name>PT2961</name></trkpt>
<trkpt lat="53.165578" lon="-2.005869"><ele>339</ele><time>2020-10-07T12:09:41Z</time><name>PT2962</name></trkpt>
<trkpt lat="53.165580" lon="-2.005878"><ele>340</ele><time>2020-10-07T12:09:44Z</time><name>PT2963</name></trkpt>
<trkpt lat="53.165581" lon="-2.005879"><ele>340</ele><time>2020-10-07T12:09:47Z</time><name>PT2964</name></trkpt>
<trkpt lat="53.165586" lon="-2.005883"><ele>340</ele><time>2020-10-07T12:09:57Z</time><name>PT2965</name></trkpt>
<trkpt lat="53.165591" lon="-2.005893"><ele>341</ele><time>2020-10-07T12:10:08Z</time><name>PT2966</name></trkpt>
<trkpt lat="53.165600" lon="-2.005886"><ele>341</ele><time>2020-10-07T12:10:11Z</time><name>PT2967</name></trkpt>
<trkpt lat="53.165605" lon="-2.005884"><ele>342</ele><time>2020-10-07T12:10:12Z</time><name>PT2968</name></trkpt>
<trkpt lat="53.165608" lon="-2.005889"><ele>342</ele><time>2020-10-07T12:10:12Z</time><name>PT2969</name></trkpt>
<trkpt lat="53.165615" lon="-2.005890"><ele>343</ele><time>2020-10-07T12:10:14Z</time><name>PT2970</name></trkpt>
<trkpt lat="53.165616" lon="-2.005890"><ele>343</ele><time>2020-10-07T12:10:15Z</time><name>PT2971</name></trkpt>
<trkpt lat="53.165606" lon="-2.005887"><ele>343</ele><time>2020-10-07T12:10:15Z</time><name>PT2972</name></trkpt>
<trkpt lat="53.165608" lon="-2.005890"><ele>342</ele><time>2020-10-07T12:10:17Z</time><name>PT2973</name></trkpt>
<trkpt lat="53.165614" lon="-2.005898"><ele>342</ele><time>2020-10-07T12:10:18Z</time><name>PT2974</name></trkpt>
<trkpt lat="53.165623" lon="-2.005908"><ele>342</ele><time>2020-10-07T12:10:18Z</time><name>PT2975</name></trkpt>
<trkpt lat="53.165632" lon="-2.005917"><ele>342</ele><time>2020-10-07T12:10:20Z</time><name>PT2976</name></trkpt>
<trkpt lat="53.165642" lon="-2.005928"><ele>342</ele><time>2020-10-07T12:10:21Z</time><name>PT2977</name></trkpt>
<trkpt lat="53.165654" lon="-2.005937"><ele>342</ele><time>2020-10-07T12:10:21Z</time><name>PT2978</name></trkpt>
<trkpt lat="53.165664" lon="-2.005946"><ele>342</ele><time>2020-10-07T12:10:23Z</time><name>PT2979</name></trkpt>
<trkpt lat="53.165674" lon="-2.005954"><ele>342</ele><time>2020-10-07T12:10:24Z</time><name>PT2980</name></trkpt>
<trkpt lat="53.165684" lon="-2.005962"><ele>342</ele><time>2020-10-07T12:10:24Z</time><name>PT2981</name></trkpt>
<trkpt lat="53.165692" lon="-2.005967"><ele>342</ele><time>2020-10-07T12:10:26Z</time><name>PT2982</name></trkpt>
<trkpt lat="53.165697" lon="-2.005964"><ele>342</ele><time>2020-10-07T12:10:27Z</time><name>PT2983</name></trkpt>
<trkpt lat="53.165699" lon="-2.005973"><ele>342</ele><time>2020-10-07T12:10:27Z</time><name>PT2984</name></trkpt>
<trkpt lat="53.165699" lon="-2.005972"><ele>341</ele><time>2020-10-07T12:10:29Z</time><name>PT2985</name></trkpt>
<trkpt lat="53.165697" lon="-2.005973"><ele>341</ele><time>2020-10-07T12:10:30Z</time><name>PT2986</name></trkpt>
<trkpt lat="53.165700" lon="-2.005977"><ele>342</ele><time>2020-10-07T12:10:30Z</time><name>PT2987</name></trkpt>
<trkpt lat="53.165705" lon="-2.005977"><ele>342</ele><time>2020-10-07T12:10:32Z</time><name>PT2988</name></trkpt>
<trkpt lat="53.165712" lon="-2.005978"><ele>342</ele><time>2020-10-07T12:10:33Z</time><name>PT2989</name></trkpt>
<trkpt lat="53.165722" lon="-2.005980"><ele>341</ele><time>2020-10-07T12:10:33Z</time><name>PT2990</name></trkpt>
<trkpt lat="53.165734" lon="-2.005985"><ele>341</ele><time>2020-10-07T12:10:35Z</time><name>PT2991</name></trkpt>
<trkpt lat="53.165745" lon="-2.005988"><ele>342</ele><time>2020-10-07T12:10:36Z</time><name>PT2992</name></trkpt>
<trkpt lat="53.165756" lon="-2.005994"><ele>341</ele><time>2020-10-07T12:10:36Z</time><name>PT2993</name></trkpt>
<trkpt lat="53.165767" lon="-2.005999"><ele>341</ele><time>2020-10-07T12:10:38Z</time><name>PT2994</name></trkpt>
<trkpt lat="53.165777" lon="-2.006005"><ele>342</ele><time>2020-10-07T12:10:39Z</time><name>PT2995</name></trkpt>
<trkpt lat="53.165788" lon="-2.006011"><ele>342</ele><time>2020-10-07T12:10:39Z</time><name>PT2996</name></trkpt>
<trkpt lat="53.165798" lon="-2.006014"><ele>342</ele><time>2020-10-07T12:10:41Z</time><name>PT2997</name></trkpt>
<trkpt lat="53.165803" lon="-2.006012"><ele>342</ele><time>2020-10-07T12:10:42Z</time><name>PT2998</name></trkpt>
<trkpt lat="53.165805" lon="-2.006007"><ele>342</ele><time>2020-10-07T12:10:42Z</time><name>PT2999</name></trkpt>
<trkpt lat="53.165805" lon="-2.006006"><ele>342</ele><time>2020-10-07T12:10:44Z</time><name>PT3000</name></trkpt>
<trkpt lat="53.165815" lon="-2.006004"><ele>342</ele><time>2020-10-07T12:10:53Z</time><name>PT3001</name></trkpt>
<trkpt lat="53.165826" lon="-2.006009"><ele>342</ele><time>2020-10-07T12:10:54Z</time><name>PT3002</name></trkpt>
<trkpt lat="53.165836" lon="-2.006028"><ele>342</ele><time>2020-10-07T12:10:54Z</time><name>PT3003</name></trkpt>
<trkpt lat="53.165841" lon="-2.006044"><ele>342</ele><time>2020-10-07T12:10:56Z</time><name>PT3004</name></trkpt>
<trkpt lat="53.165847" lon="-2.006050"><ele>342</ele><time>2020-10-07T12:10:57Z</time><name>PT3005</name></trkpt>
<trkpt lat="53.165855" lon="-2.006059"><ele>342</ele><time>2020-10-07T12:10:57Z</time><name>PT3006</name></trkpt>
<trkpt lat="53.165861" lon="-2.006066"><ele>342</ele><time>2020-10-07T12:10:59Z</time><name>PT3007</name></trkpt>
<trkpt lat="53.165865" lon="-2.006074"><ele>342</ele><time>2020-10-07T12:11:00Z</time><name>PT3008</name></trkpt>
<trkpt lat="53.165869" lon="-2.006085"><ele>341</ele><time>2020-10-07T12:11:00Z</time><name>PT3009</name></trkpt>
<trkpt lat="53.165876" lon="-2.006098"><ele>342</ele><time>2020-10-07T12:11:02Z</time><name>PT3010</name></trkpt>
<trkpt lat="53.165884" lon="-2.006109"><ele>342</ele><time>2020-10-07T12:11:03Z</time><name>PT3011</name></trkpt>
<trkpt lat="53.165895" lon="-2.006119"><ele>342</ele><time>2020-10-07T12:11:03Z</time><name>PT3012</name></trkpt>
<trkpt lat="53.165903" lon="-2.006131"><ele>342</ele><time>2020-10-07T12:11:05Z</time><name>PT3013</name></trkpt>
<trkpt lat="53.165909" lon="-2.006144"><ele>342</ele><time>2020-10-07T12:11:06Z</time><name>PT3014</name></trkpt>
<trkpt lat="53.165915" lon="-2.006158"><ele>342</ele><time>2020-10-07T12:11:06Z</time><name>PT3015</name></trkpt>
<trkpt lat="53.165922" lon="-2.006168"><ele>342</ele><time>2020-10-07T12:11:08Z</time><name>PT3016</name></trkpt>
<trkpt lat="53.165928" lon="-2.006181"><ele>342</ele><time>2020-10-07T12:11:09Z</time><name>PT3017</name></trkpt>
<trkpt lat="53.165936" lon="-2.006190"><ele>342</ele><time>2020-10-07T12:11:09Z</time><name>PT3018</name></trkpt>
<trkpt lat="53.165944" lon="-2.006194"><ele>342</ele><time>2020-10-07T12:11:11Z</time><name>PT3019</name></trkpt>
<trkpt lat="53.165955" lon="-2.006200"><ele>342</ele><time>2020-10-07T12:11:12Z</time><name>PT3020</name></trkpt>
<trkpt lat="53.165962" lon="-2.006208"><ele>342</ele><time>2020-10-07T12:11:12Z</time><name>PT3021</name></trkpt>
<trkpt lat="53.165967" lon="-2.006214"><ele>342</ele><time>2020-10-07T12:11:14Z</time><name>PT3022</name></trkpt>
<trkpt lat="53.165971" lon="-2.006220"><ele>342</ele><time>2020-10-07T12:11:15Z</time><name>PT3023</name></trkpt>
<trkpt lat="53.165976" lon="-2.006218"><ele>341</ele><time>2020-10-07T12:11:27Z</time><name>PT3024</name></trkpt>
<trkpt lat="53.165986" lon="-2.006243"><ele>341</ele><time>2020-10-07T12:11:29Z</time><name>PT3025</name></trkpt>
<trkpt lat="53.165991" lon="-2.006261"><ele>341</ele><time>2020-10-07T12:11:30Z</time><name>PT3026</name></trkpt>
<trkpt lat="53.165997" lon="-2.006282"><ele>341</ele><time>2020-10-07T12:11:30Z</time><name>PT3027</name></trkpt>
<trkpt lat="53.166001" lon="-2.006299"><ele>341</ele><time>2020-10-07T12:11:32Z</time><name>PT3028</name></trkpt>
<trkpt lat="53.166005" lon="-2.006318"><ele>340</ele><time>2020-10-07T12:11:33Z</time><name>PT3029</name></trkpt>
<trkpt lat="53.166009" lon="-2.006336"><ele>340</ele><time>2020-10-07T12:11:33Z</time><name>PT3030</name></trkpt>
<trkpt lat="53.166013" lon="-2.006353"><ele>339</ele><time>2020-10-07T12:11:35Z</time><name>PT3031</name></trkpt>
<trkpt lat="53.166020" lon="-2.006372"><ele>339</ele><time>2020-10-07T12:11:36Z</time><name>PT3032</name></trkpt>
<trkpt lat="53.166023" lon="-2.006389"><ele>339</ele><time>2020-10-07T12:11:36Z</time><name>PT3033</name></trkpt>
<trkpt lat="53.166025" lon="-2.006405"><ele>338</ele><time>2020-10-07T12:11:38Z</time><name>PT3034</name></trkpt>
<trkpt lat="53.166031" lon="-2.006420"><ele>338</ele><time>2020-10-07T12:11:39Z</time><name>PT3035</name></trkpt>
<trkpt lat="53.166039" lon="-2.006437"><ele>338</ele><time>2020-10-07T12:11:39Z</time><name>PT3036</name></trkpt>
<trkpt lat="53.166047" lon="-2.006453"><ele>338</ele><time>2020-10-07T12:11:41Z</time><name>PT3037</name></trkpt>
<trkpt lat="53.166057" lon="-2.006469"><ele>337</ele><time>2020-10-07T12:11:42Z</time><name>PT3038</name></trkpt>
<trkpt lat="53.166066" lon="-2.006484"><ele>337</ele><time>2020-10-07T12:11:42Z</time><name>PT3039</name></trkpt>
<trkpt lat="53.166077" lon="-2.006499"><ele>337</ele><time>2020-10-07T12:11:44Z</time><name>PT3040</name></trkpt>
<trkpt lat="53.166086" lon="-2.006517"><ele>337</ele><time>2020-10-07T12:11:45Z</time><name>PT3041</name></trkpt>
<trkpt lat="53.166095" lon="-2.006529"><ele>337</ele><time>2020-10-07T12:11:45Z</time><name>PT3042</name></trkpt>
<trkpt lat="53.166105" lon="-2.006538"><ele>337</ele><time>2020-10-07T12:11:47Z</time><name>PT3043</name></trkpt>
<trkpt lat="53.166116" lon="-2.006552"><ele>337</ele><time>2020-10-07T12:11:48Z</time><name>PT3044</name></trkpt>
<trkpt lat="53.166125" lon="-2.006568"><ele>336</ele><time>2020-10-07T12:11:48Z</time><name>PT3045</name></trkpt>
<trkpt lat="53.166136" lon="-2.006577"><ele>336</ele><time>2020-10-07T12:11:50Z</time><name>PT3046</name></trkpt>
<trkpt lat="53.166146" lon="-2.006587"><ele>336</ele><time>2020-10-07T12:11:51Z</time><name>PT3047</name></trkpt>
<trkpt lat="53.166157" lon="-2.006599"><ele>336</ele><time>2020-10-07T12:11:51Z</time><name>PT3048</name></trkpt>
<trkpt lat="53.166170" lon="-2.006613"><ele>336</ele><time>2020-10-07T12:11:53Z</time><name>PT3049</name></trkpt>
<trkpt lat="53.166183" lon="-2.006623"><ele>336</ele><time>2020-10-07T12:11:54Z</time><name>PT3050</name></trkpt>
<trkpt lat="53.166194" lon="-2.006632"><ele>336</ele><time>2020-10-07T12:11:55Z</time><name>PT3051</name></trkpt>
<trkpt lat="53.166206" lon="-2.006645"><ele>336</ele><time>2020-10-07T12:11:56Z</time><name>PT3052</name></trkpt>
<trkpt lat="53.166218" lon="-2.006658"><ele>336</ele><time>2020-10-07T12:11:57Z</time><name>PT3053</name></trkpt>
<trkpt lat="53.166229" lon="-2.006667"><ele>336</ele><time>2020-10-07T12:11:57Z</time><name>PT3054</name></trkpt>
<trkpt lat="53.166238" lon="-2.006679"><ele>336</ele><time>2020-10-07T12:11:59Z</time><name>PT3055</name></trkpt>
<trkpt lat="53.166248" lon="-2.006690"><ele>337</ele><time>2020-10-07T12:12:00Z</time><name>PT3056</name></trkpt>
<trkpt lat="53.166260" lon="-2.006702"><ele>337</ele><time>2020-10-07T12:12:00Z</time><name>PT3057</name></trkpt>
<trkpt lat="53.166271" lon="-2.006711"><ele>337</ele><time>2020-10-07T12:12:02Z</time><name>PT3058</name></trkpt>
<trkpt lat="53.166284" lon="-2.006716"><ele>337</ele><time>2020-10-07T12:12:03Z</time><name>PT3059</name></trkpt>
<trkpt lat="53.166297" lon="-2.006724"><ele>337</ele><time>2020-10-07T12:12:03Z</time><name>PT3060</name></trkpt>
<trkpt lat="53.166310" lon="-2.006733"><ele>337</ele><time>2020-10-07T12:12:05Z</time><name>PT3061</name></trkpt>
<trkpt lat="53.166323" lon="-2.006741"><ele>337</ele><time>2020-10-07T12:12:06Z</time><name>PT3062</name></trkpt>
<trkpt lat="53.166333" lon="-2.006752"><ele>337</ele><time>2020-10-07T12:12:06Z</time><name>PT3063</name></trkpt>
<trkpt lat="53.166343" lon="-2.006766"><ele>337</ele><time>2020-10-07T12:12:08Z</time><name>PT3064</name></trkpt>
<trkpt lat="53.166355" lon="-2.006783"><ele>337</ele><time>2020-10-07T12:12:08Z</time><name>PT3065</name></trkpt>
<trkpt lat="53.166367" lon="-2.006797"><ele>337</ele><time>2020-10-07T12:12:10Z</time><name>PT3066</name></trkpt>
<trkpt lat="53.166381" lon="-2.006805"><ele>337</ele><time>2020-10-07T12:12:11Z</time><name>PT3067</name></trkpt>
<trkpt lat="53.166393" lon="-2.006812"><ele>337</ele><time>2020-10-07T12:12:11Z</time><name>PT3068</name></trkpt>
<trkpt lat="53.166405" lon="-2.006823"><ele>337</ele><time>2020-10-07T12:12:13Z</time><name>PT3069</name></trkpt>
<trkpt lat="53.166417" lon="-2.006834"><ele>337</ele><time>2020-10-07T12:12:14Z</time><name>PT3070</name></trkpt>
<trkpt lat="53.166429" lon="-2.006842"><ele>337</ele><time>2020-10-07T12:12:14Z</time><name>PT3071</name></trkpt>
<trkpt lat="53.166441" lon="-2.006850"><ele>337</ele><time>2020-10-07T12:12:16Z</time><name>PT3072</name></trkpt>
<trkpt lat="53.166454" lon="-2.006857"><ele>337</ele><time>2020-10-07T12:12:17Z</time><name>PT3073</name></trkpt>
<trkpt lat="53.166470" lon="-2.006866"><ele>337</ele><time>2020-10-07T12:12:17Z</time><name>PT3074</name></trkpt>
<trkpt lat="53.166483" lon="-2.006875"><ele>337</ele><time>2020-10-07T12:12:19Z</time><name>PT3075</name></trkpt>
<trkpt lat="53.166496" lon="-2.006884"><ele>337</ele><time>2020-10-07T12:12:20Z</time><name>PT3076</name></trkpt>
<trkpt lat="53.166510" lon="-2.006893"><ele>338</ele><time>2020-10-07T12:12:20Z</time><name>PT3077</name></trkpt>
<trkpt lat="53.166522" lon="-2.006902"><ele>338</ele><time>2020-10-07T12:12:22Z</time><name>PT3078</name></trkpt>
<trkpt lat="53.166533" lon="-2.006912"><ele>338</ele><time>2020-10-07T12:12:23Z</time><name>PT3079</name></trkpt>
<trkpt lat="53.166544" lon="-2.006922"><ele>337</ele><time>2020-10-07T12:12:23Z</time><name>PT3080</name></trkpt>
<trkpt lat="53.166557" lon="-2.006933"><ele>338</ele><time>2020-10-07T12:12:25Z</time><name>PT3081</name></trkpt>
<trkpt lat="53.166569" lon="-2.006948"><ele>338</ele><time>2020-10-07T12:12:26Z</time><name>PT3082</name></trkpt>
<trkpt lat="53.166582" lon="-2.006960"><ele>338</ele><time>2020-10-07T12:12:26Z</time><name>PT3083</name></trkpt>
<trkpt lat="53.166592" lon="-2.006967"><ele>338</ele><time>2020-10-07T12:12:28Z</time><name>PT3084</name></trkpt>
<trkpt lat="53.166605" lon="-2.006975"><ele>338</ele><time>2020-10-07T12:12:29Z</time><name>PT3085</name></trkpt>
<trkpt lat="53.166617" lon="-2.006985"><ele>338</ele><time>2020-10-07T12:12:29Z</time><name>PT3086</name></trkpt>
<trkpt lat="53.166629" lon="-2.006995"><ele>337</ele><time>2020-10-07T12:12:31Z</time><name>PT3087</name></trkpt>
<trkpt lat="53.166640" lon="-2.007003"><ele>337</ele><time>2020-10-07T12:12:32Z</time><name>PT3088</name></trkpt>
<trkpt lat="53.166655" lon="-2.007012"><ele>338</ele><time>2020-10-07T12:12:32Z</time><name>PT3089</name></trkpt>
<trkpt lat="53.166666" lon="-2.007021"><ele>337</ele><time>2020-10-07T12:12:34Z</time><name>PT3090</name></trkpt>
<trkpt lat="53.166680" lon="-2.007032"><ele>337</ele><time>2020-10-07T12:12:35Z</time><name>PT3091</name></trkpt>
<trkpt lat="53.166693" lon="-2.007042"><ele>337</ele><time>2020-10-07T12:12:35Z</time><name>PT3092</name></trkpt>
<trkpt lat="53.166703" lon="-2.007049"><ele>337</ele><time>2020-10-07T12:12:37Z</time><name>PT3093</name></trkpt>
<trkpt lat="53.166717" lon="-2.007055"><ele>338</ele><time>2020-10-07T12:12:38Z</time><name>PT3094</name></trkpt>
<trkpt lat="53.166731" lon="-2.007064"><ele>338</ele><time>2020-10-07T12:12:38Z</time><name>PT3095</name></trkpt>
<trkpt lat="53.166744" lon="-2.007072"><ele>337</ele><time>2020-10-07T12:12:40Z</time><name>PT3096</name></trkpt>
<trkpt lat="53.166757" lon="-2.007080"><ele>337</ele><time>2020-10-07T12:12:41Z</time><name>PT3097</name></trkpt>
<trkpt lat="53.166770" lon="-2.007089"><ele>338</ele><time>2020-10-07T12:12:41Z</time><name>PT3098</name></trkpt>
<trkpt lat="53.166784" lon="-2.007099"><ele>338</ele><time>2020-10-07T12:12:43Z</time><name>PT3099</name></trkpt>
<trkpt lat="53.166800" lon="-2.007105"><ele>338</ele><time>2020-10-07T12:12:44Z</time><name>PT3100</name></trkpt>
<trkpt lat="53.166815" lon="-2.007111"><ele>338</ele><time>2020-10-07T12:12:44Z</time><name>PT3101</name></trkpt>
<trkpt lat="53.166828" lon="-2.007120"><ele>339</ele><time>2020-10-07T12:12:46Z</time><name>PT3102</name></trkpt>
<trkpt lat="53.166842" lon="-2.007130"><ele>339</ele><time>2020-10-07T12:12:47Z</time><name>PT3103</name></trkpt>
<trkpt lat="53.166856" lon="-2.007142"><ele>339</ele><time>2020-10-07T12:12:47Z</time><name>PT3104</name></trkpt>
<trkpt lat="53.166864" lon="-2.007157"><ele>339</ele><time>2020-10-07T12:12:49Z</time><name>PT3105</name></trkpt>
<trkpt lat="53.166873" lon="-2.007173"><ele>339</ele><time>2020-10-07T12:12:50Z</time><name>PT3106</name></trkpt>
<trkpt lat="53.166883" lon="-2.007189"><ele>339</ele><time>2020-10-07T12:12:50Z</time><name>PT3107</name></trkpt>
<trkpt lat="53.166896" lon="-2.007197"><ele>339</ele><time>2020-10-07T12:12:52Z</time><name>PT3108</name></trkpt>
<trkpt lat="53.166907" lon="-2.007203"><ele>339</ele><time>2020-10-07T12:12:53Z</time><name>PT3109</name></trkpt>
<trkpt lat="53.166921" lon="-2.007209"><ele>339</ele><time>2020-10-07T12:12:54Z</time><name>PT3110</name></trkpt>
<trkpt lat="53.166934" lon="-2.007217"><ele>339</ele><time>2020-10-07T12:12:55Z</time><name>PT3111</name></trkpt>
<trkpt lat="53.166947" lon="-2.007225"><ele>339</ele><time>2020-10-07T12:12:56Z</time><name>PT3112</name></trkpt>
<trkpt lat="53.166961" lon="-2.007234"><ele>339</ele><time>2020-10-07T12:12:56Z</time><name>PT3113</name></trkpt>
<trkpt lat="53.166973" lon="-2.007238"><ele>339</ele><time>2020-10-07T12:12:58Z</time><name>PT3114</name></trkpt>
<trkpt lat="53.166988" lon="-2.007241"><ele>339</ele><time>2020-10-07T12:12:59Z</time><name>PT3115</name></trkpt>
<trkpt lat="53.167004" lon="-2.007246"><ele>339</ele><time>2020-10-07T12:12:59Z</time><name>PT3116</name></trkpt>
<trkpt lat="53.167017" lon="-2.007253"><ele>339</ele><time>2020-10-07T12:13:01Z</time><name>PT3117</name></trkpt>
<trkpt lat="53.167032" lon="-2.007259"><ele>339</ele><time>2020-10-07T12:13:02Z</time><name>PT3118</name></trkpt>
<trkpt lat="53.167045" lon="-2.007264"><ele>339</ele><time>2020-10-07T12:13:02Z</time><name>PT3119</name></trkpt>
<trkpt lat="53.167059" lon="-2.007270"><ele>339</ele><time>2020-10-07T12:13:04Z</time><name>PT3120</name></trkpt>
<trkpt lat="53.167069" lon="-2.007278"><ele>339</ele><time>2020-10-07T12:13:05Z</time><name>PT3121</name></trkpt>
<trkpt lat="53.167081" lon="-2.007287"><ele>339</ele><time>2020-10-07T12:13:05Z</time><name>PT3122</name></trkpt>
<trkpt lat="53.167092" lon="-2.007297"><ele>339</ele><time>2020-10-07T12:13:07Z</time><name>PT3123</name></trkpt>
<trkpt lat="53.167106" lon="-2.007306"><ele>340</ele><time>2020-10-07T12:13:08Z</time><name>PT3124</name></trkpt>
<trkpt lat="53.167119" lon="-2.007318"><ele>340</ele><time>2020-10-07T12:13:08Z</time><name>PT3125</name></trkpt>
<trkpt lat="53.167131" lon="-2.007329"><ele>340</ele><time>2020-10-07T12:13:10Z</time><name>PT3126</name></trkpt>
<trkpt lat="53.167144" lon="-2.007338"><ele>340</ele><time>2020-10-07T12:13:11Z</time><name>PT3127</name></trkpt>
<trkpt lat="53.167159" lon="-2.007347"><ele>340</ele><time>2020-10-07T12:13:11Z</time><name>PT3128</name></trkpt>
<trkpt lat="53.167173" lon="-2.007354"><ele>340</ele><time>2020-10-07T12:13:13Z</time><name>PT3129</name></trkpt>
<trkpt lat="53.167188" lon="-2.007360"><ele>340</ele><time>2020-10-07T12:13:14Z</time><name>PT3130</name></trkpt>
<trkpt lat="53.167199" lon="-2.007367"><ele>340</ele><time>2020-10-07T12:13:14Z</time><name>PT3131</name></trkpt>
<trkpt lat="53.167208" lon="-2.007375"><ele>340</ele><time>2020-10-07T12:13:16Z</time><name>PT3132</name></trkpt>
<trkpt lat="53.167260" lon="-2.007420"><ele>340</ele><time>2020-10-07T12:13:20Z</time><name>PT3133</name></trkpt>
<trkpt lat="53.167293" lon="-2.007458"><ele>339</ele><time>2020-10-07T12:13:23Z</time><name>PT3134</name></trkpt>
<trkpt lat="53.167335" lon="-2.007507"><ele>338</ele><time>2020-10-07T12:13:26Z</time><name>PT3135</name></trkpt>
<trkpt lat="53.167365" lon="-2.007543"><ele>337</ele><time>2020-10-07T12:13:29Z</time><name>PT3136</name></trkpt>
<trkpt lat="53.167394" lon="-2.007576"><ele>336</ele><time>2020-10-07T12:13:32Z</time><name>PT3137</name></trkpt>
<trkpt lat="53.167438" lon="-2.007628"><ele>336</ele><time>2020-10-07T12:13:37Z</time><name>PT3138</name></trkpt>
<trkpt lat="53.167474" lon="-2.007666"><ele>336</ele><time>2020-10-07T12:13:40Z</time><name>PT3139</name></trkpt>
<trkpt lat="53.167514" lon="-2.007722"><ele>335</ele><time>2020-10-07T12:13:44Z</time><name>PT3140</name></trkpt>
<trkpt lat="53.167552" lon="-2.007774"><ele>335</ele><time>2020-10-07T12:13:47Z</time><name>PT3141</name></trkpt>
<trkpt lat="53.167595" lon="-2.007828"><ele>336</ele><time>2020-10-07T12:13:50Z</time><name>PT3142</name></trkpt>
<trkpt lat="53.167625" lon="-2.007869"><ele>335</ele><time>2020-10-07T12:13:53Z</time><name>PT3143</name></trkpt>
<trkpt lat="53.167659" lon="-2.007919"><ele>335</ele><time>2020-10-07T12:13:56Z</time><name>PT3144</name></trkpt>
<trkpt lat="53.167702" lon="-2.007978"><ele>335</ele><time>2020-10-07T12:14:01Z</time><name>PT3145</name></trkpt>
<trkpt lat="53.167739" lon="-2.008037"><ele>334</ele><time>2020-10-07T12:14:05Z</time><name>PT3146</name></trkpt>
<trkpt lat="53.167778" lon="-2.008078"><ele>334</ele><time>2020-10-07T12:14:08Z</time><name>PT3147</name></trkpt>
<trkpt lat="53.167825" lon="-2.008118"><ele>334</ele><time>2020-10-07T12:14:13Z</time><name>PT3148</name></trkpt>
<trkpt lat="53.167860" lon="-2.008156"><ele>333</ele><time>2020-10-07T12:14:16Z</time><name>PT3149</name></trkpt>
<trkpt lat="53.167917" lon="-2.008204"><ele>333</ele><time>2020-10-07T12:14:20Z</time><name>PT3150</name></trkpt>
<trkpt lat="53.167954" lon="-2.008228"><ele>332</ele><time>2020-10-07T12:14:23Z</time><name>PT3151</name></trkpt>
<trkpt lat="53.168000" lon="-2.008263"><ele>332</ele><time>2020-10-07T12:14:26Z</time><name>PT3152</name></trkpt>
<trkpt lat="53.168040" lon="-2.008290"><ele>332</ele><time>2020-10-07T12:14:29Z</time><name>PT3153</name></trkpt>
<trkpt lat="53.168080" lon="-2.008326"><ele>332</ele><time>2020-10-07T12:14:32Z</time><name>PT3154</name></trkpt>
<trkpt lat="53.168129" lon="-2.008374"><ele>332</ele><time>2020-10-07T12:14:35Z</time><name>PT3155</name></trkpt>
<trkpt lat="53.168168" lon="-2.008405"><ele>332</ele><time>2020-10-07T12:14:38Z</time><name>PT3156</name></trkpt>
<trkpt lat="53.168216" lon="-2.008445"><ele>331</ele><time>2020-10-07T12:14:43Z</time><name>PT3157</name></trkpt>
<trkpt lat="53.168270" lon="-2.008487"><ele>331</ele><time>2020-10-07T12:14:47Z</time><name>PT3158</name></trkpt>
<trkpt lat="53.168332" lon="-2.008524"><ele>333</ele><time>2020-10-07T12:14:50Z</time><name>PT3159</name></trkpt>
<trkpt lat="53.168380" lon="-2.008578"><ele>333</ele><time>2020-10-07T12:14:55Z</time><name>PT3160</name></trkpt>
<trkpt lat="53.168431" lon="-2.008624"><ele>333</ele><time>2020-10-07T12:14:59Z</time><name>PT3161</name></trkpt>
<trkpt lat="53.168464" lon="-2.008659"><ele>333</ele><time>2020-10-07T12:15:02Z</time><name>PT3162</name></trkpt>
<trkpt lat="53.168501" lon="-2.008686"><ele>334</ele><time>2020-10-07T12:15:05Z</time><name>PT3163</name></trkpt>
<trkpt lat="53.168541" lon="-2.008717"><ele>335</ele><time>2020-10-07T12:15:08Z</time><name>PT3164</name></trkpt>
<trkpt lat="53.168587" lon="-2.008759"><ele>335</ele><time>2020-10-07T12:15:11Z</time><name>PT3165</name></trkpt>
<trkpt lat="53.168623" lon="-2.008789"><ele>335</ele><time>2020-10-07T12:15:14Z</time><name>PT3166</name></trkpt>
<trkpt lat="53.168655" lon="-2.008821"><ele>334</ele><time>2020-10-07T12:15:17Z</time><name>PT3167</name></trkpt>
<trkpt lat="53.168694" lon="-2.008854"><ele>335</ele><time>2020-10-07T12:15:20Z</time><name>PT3168</name></trkpt>
<trkpt lat="53.168730" lon="-2.008888"><ele>335</ele><time>2020-10-07T12:15:24Z</time><name>PT3169</name></trkpt>
<trkpt lat="53.168770" lon="-2.008931"><ele>335</ele><time>2020-10-07T12:15:28Z</time><name>PT3170</name></trkpt>
<trkpt lat="53.168804" lon="-2.008955"><ele>334</ele><time>2020-10-07T12:15:31Z</time><name>PT3171</name></trkpt>
<trkpt lat="53.168837" lon="-2.008979"><ele>334</ele><time>2020-10-07T12:15:34Z</time><name>PT3172</name></trkpt>
<trkpt lat="53.168884" lon="-2.009016"><ele>333</ele><time>2020-10-07T12:15:38Z</time><name>PT3173</name></trkpt>
<trkpt lat="53.168915" lon="-2.009038"><ele>333</ele><time>2020-10-07T12:15:41Z</time><name>PT3174</name></trkpt>
<trkpt lat="53.168964" lon="-2.009068"><ele>333</ele><time>2020-10-07T12:15:44Z</time><name>PT3175</name></trkpt>
<trkpt lat="53.168999" lon="-2.009085"><ele>333</ele><time>2020-10-07T12:15:47Z</time><name>PT3176</name></trkpt>
<trkpt lat="53.169052" lon="-2.009107"><ele>333</ele><time>2020-10-07T12:15:52Z</time><name>PT3177</name></trkpt>
<trkpt lat="53.169107" lon="-2.009129"><ele>334</ele><time>2020-10-07T12:15:56Z</time><name>PT3178</name></trkpt>
<trkpt lat="53.169148" lon="-2.009142"><ele>335</ele><time>2020-10-07T12:15:59Z</time><name>PT3179</name></trkpt>
<trkpt lat="53.169197" lon="-2.009160"><ele>334</ele><time>2020-10-07T12:16:02Z</time><name>PT3180</name></trkpt>
<trkpt lat="53.169234" lon="-2.009165"><ele>334</ele><time>2020-10-07T12:16:05Z</time><name>PT3181</name></trkpt>
<trkpt lat="53.169272" lon="-2.009173"><ele>334</ele><time>2020-10-07T12:16:08Z</time><name>PT3182</name></trkpt>
<trkpt lat="53.169309" lon="-2.009163"><ele>334</ele><time>2020-10-07T12:16:11Z</time><name>PT3183</name></trkpt>
<trkpt lat="53.169355" lon="-2.009152"><ele>334</ele><time>2020-10-07T12:16:16Z</time><name>PT3184</name></trkpt>
<trkpt lat="53.169396" lon="-2.009152"><ele>334</ele><time>2020-10-07T12:16:19Z</time><name>PT3185</name></trkpt>
<trkpt lat="53.169455" lon="-2.009151"><ele>335</ele><time>2020-10-07T12:16:23Z</time><name>PT3186</name></trkpt>
<trkpt lat="53.169492" lon="-2.009129"><ele>336</ele><time>2020-10-07T12:16:26Z</time><name>PT3187</name></trkpt>
<trkpt lat="53.169508" lon="-2.009123"><ele>337</ele><time>2020-10-07T12:16:31Z</time><name>PT3188</name></trkpt>
<trkpt lat="53.169513" lon="-2.009125"><ele>337</ele><time>2020-10-07T12:16:34Z</time><name>PT3189</name></trkpt>
<trkpt lat="53.169537" lon="-2.009141"><ele>337</ele><time>2020-10-07T12:16:37Z</time><name>PT3190</name></trkpt>
<trkpt lat="53.169584" lon="-2.009122"><ele>337</ele><time>2020-10-07T12:16:41Z</time><name>PT3191</name></trkpt>
<trkpt lat="53.169619" lon="-2.009113"><ele>337</ele><time>2020-10-07T12:16:44Z</time><name>PT3192</name></trkpt>
<trkpt lat="53.169659" lon="-2.009112"><ele>336</ele><time>2020-10-07T12:16:47Z</time><name>PT3193</name></trkpt>
<trkpt lat="53.169699" lon="-2.009112"><ele>337</ele><time>2020-10-07T12:16:50Z</time><name>PT3194</name></trkpt>
<trkpt lat="53.169753" lon="-2.009112"><ele>337</ele><time>2020-10-07T12:16:53Z</time><name>PT3195</name></trkpt>
<trkpt lat="53.169793" lon="-2.009110"><ele>338</ele><time>2020-10-07T12:16:56Z</time><name>PT3196</name></trkpt>
<trkpt lat="53.169844" lon="-2.009129"><ele>338</ele><time>2020-10-07T12:17:01Z</time><name>PT3197</name></trkpt>
<trkpt lat="53.169888" lon="-2.009149"><ele>338</ele><time>2020-10-07T12:17:05Z</time><name>PT3198</name></trkpt>
<trkpt lat="53.169942" lon="-2.009161"><ele>339</ele><time>2020-10-07T12:17:08Z</time><name>PT3199</name></trkpt>
<trkpt lat="53.169977" lon="-2.009170"><ele>339</ele><time>2020-10-07T12:17:11Z</time><name>PT3200</name></trkpt>
<trkpt lat="53.170025" lon="-2.009181"><ele>339</ele><time>2020-10-07T12:17:16Z</time><name>PT3201</name></trkpt>
<trkpt lat="53.170068" lon="-2.009190"><ele>339</ele><time>2020-10-07T12:17:20Z</time><name>PT3202</name></trkpt>
<trkpt lat="53.170101" lon="-2.009189"><ele>338</ele><time>2020-10-07T12:17:23Z</time><name>PT3203</name></trkpt>
<trkpt lat="53.170129" lon="-2.009194"><ele>336</ele><time>2020-10-07T12:17:26Z</time><name>PT3204</name></trkpt>
<trkpt lat="53.170172" lon="-2.009199"><ele>337</ele><time>2020-10-07T12:17:29Z</time><name>PT3205</name></trkpt>
<trkpt lat="53.170218" lon="-2.009206"><ele>338</ele><time>2020-10-07T12:17:32Z</time><name>PT3206</name></trkpt>
<trkpt lat="53.170274" lon="-2.009216"><ele>338</ele><time>2020-10-07T12:17:35Z</time><name>PT3207</name></trkpt>
<trkpt lat="53.170328" lon="-2.009213"><ele>338</ele><time>2020-10-07T12:17:40Z</time><name>PT3208</name></trkpt>
<trkpt lat="53.170390" lon="-2.009216"><ele>339</ele><time>2020-10-07T12:17:44Z</time><name>PT3209</name></trkpt>
<trkpt lat="53.170439" lon="-2.009215"><ele>339</ele><time>2020-10-07T12:17:47Z</time><name>PT3210</name></trkpt>
<trkpt lat="53.170489" lon="-2.009206"><ele>339</ele><time>2020-10-07T12:17:52Z</time><name>PT3211</name></trkpt>
<trkpt lat="53.170541" lon="-2.009196"><ele>339</ele><time>2020-10-07T12:17:56Z</time><name>PT3212</name></trkpt>
<trkpt lat="53.170584" lon="-2.009195"><ele>340</ele><time>2020-10-07T12:17:59Z</time><name>PT3213</name></trkpt>
<trkpt lat="53.170622" lon="-2.009188"><ele>340</ele><time>2020-10-07T12:18:02Z</time><name>PT3214</name></trkpt>
<trkpt lat="53.170664" lon="-2.009187"><ele>341</ele><time>2020-10-07T12:18:05Z</time><name>PT3215</name></trkpt>
<trkpt lat="53.170717" lon="-2.009169"><ele>342</ele><time>2020-10-07T12:18:08Z</time><name>PT3216</name></trkpt>
<trkpt lat="53.170758" lon="-2.009161"><ele>343</ele><time>2020-10-07T12:18:11Z</time><name>PT3217</name></trkpt>
<trkpt lat="53.170808" lon="-2.009147"><ele>343</ele><time>2020-10-07T12:18:16Z</time><name>PT3218</name></trkpt>
<trkpt lat="53.170860" lon="-2.009138"><ele>343</ele><time>2020-10-07T12:18:20Z</time><name>PT3219</name></trkpt>
<trkpt lat="53.170900" lon="-2.009130"><ele>343</ele><time>2020-10-07T12:18:23Z</time><name>PT3220</name></trkpt>
<trkpt lat="53.170953" lon="-2.009120"><ele>343</ele><time>2020-10-07T12:18:26Z</time><name>PT3221</name></trkpt>
<trkpt lat="53.171008" lon="-2.009113"><ele>344</ele><time>2020-10-07T12:18:31Z</time><name>PT3222</name></trkpt>
<trkpt lat="53.171063" lon="-2.009102"><ele>344</ele><time>2020-10-07T12:18:35Z</time><name>PT3223</name></trkpt>
<trkpt lat="53.171099" lon="-2.009099"><ele>344</ele><time>2020-10-07T12:18:38Z</time><name>PT3224</name></trkpt>
<trkpt lat="53.171141" lon="-2.009089"><ele>344</ele><time>2020-10-07T12:18:41Z</time><name>PT3225</name></trkpt>
<trkpt lat="53.171202" lon="-2.009073"><ele>345</ele><time>2020-10-07T12:18:46Z</time><name>PT3226</name></trkpt>
<trkpt lat="53.171256" lon="-2.009066"><ele>344</ele><time>2020-10-07T12:18:50Z</time><name>PT3227</name></trkpt>
<trkpt lat="53.171301" lon="-2.009054"><ele>343</ele><time>2020-10-07T12:18:53Z</time><name>PT3228</name></trkpt>
<trkpt lat="53.171351" lon="-2.009045"><ele>342</ele><time>2020-10-07T12:18:58Z</time><name>PT3229</name></trkpt>
<trkpt lat="53.171406" lon="-2.009032"><ele>342</ele><time>2020-10-07T12:19:02Z</time><name>PT3230</name></trkpt>
<trkpt lat="53.171447" lon="-2.009030"><ele>342</ele><time>2020-10-07T12:19:05Z</time><name>PT3231</name></trkpt>
<trkpt lat="53.171486" lon="-2.009023"><ele>342</ele><time>2020-10-07T12:19:08Z</time><name>PT3232</name></trkpt>
<trkpt lat="53.171540" lon="-2.009012"><ele>342</ele><time>2020-10-07T12:19:11Z</time><name>PT3233</name></trkpt>
<trkpt lat="53.171584" lon="-2.009011"><ele>343</ele><time>2020-10-07T12:19:14Z</time><name>PT3234</name></trkpt>
<trkpt lat="53.171625" lon="-2.009002"><ele>343</ele><time>2020-10-07T12:19:17Z</time><name>PT3235</name></trkpt>
<trkpt lat="53.171677" lon="-2.008995"><ele>342</ele><time>2020-10-07T12:19:22Z</time><name>PT3236</name></trkpt>
<trkpt lat="53.171729" lon="-2.008986"><ele>342</ele><time>2020-10-07T12:19:26Z</time><name>PT3237</name></trkpt>
<trkpt lat="53.171770" lon="-2.008985"><ele>343</ele><time>2020-10-07T12:19:29Z</time><name>PT3238</name></trkpt>
<trkpt lat="53.171822" lon="-2.008977"><ele>343</ele><time>2020-10-07T12:19:32Z</time><name>PT3239</name></trkpt>
<trkpt lat="53.171864" lon="-2.008971"><ele>342</ele><time>2020-10-07T12:19:35Z</time><name>PT3240</name></trkpt>
<trkpt lat="53.171918" lon="-2.008967"><ele>344</ele><time>2020-10-07T12:19:40Z</time><name>PT3241</name></trkpt>
<trkpt lat="53.171977" lon="-2.008954"><ele>345</ele><time>2020-10-07T12:19:44Z</time><name>PT3242</name></trkpt>
<trkpt lat="53.172020" lon="-2.008945"><ele>346</ele><time>2020-10-07T12:19:47Z</time><name>PT3243</name></trkpt>
<trkpt lat="53.172077" lon="-2.008940"><ele>346</ele><time>2020-10-07T12:19:50Z</time><name>PT3244</name></trkpt>
<trkpt lat="53.172130" lon="-2.008929"><ele>346</ele><time>2020-10-07T12:19:55Z</time><name>PT3245</name></trkpt>
<trkpt lat="53.172167" lon="-2.008921"><ele>345</ele><time>2020-10-07T12:19:58Z</time><name>PT3246</name></trkpt>
<trkpt lat="53.172208" lon="-2.008915"><ele>346</ele><time>2020-10-07T12:20:01Z</time><name>PT3247</name></trkpt>
<trkpt lat="53.172241" lon="-2.008910"><ele>345</ele><time>2020-10-07T12:20:04Z</time><name>PT3248</name></trkpt>
<trkpt lat="53.172290" lon="-2.008901"><ele>345</ele><time>2020-10-07T12:20:08Z</time><name>PT3249</name></trkpt>
<trkpt lat="53.172325" lon="-2.008891"><ele>345</ele><time>2020-10-07T12:20:11Z</time><name>PT3250</name></trkpt>
<trkpt lat="53.172381" lon="-2.008883"><ele>346</ele><time>2020-10-07T12:20:14Z</time><name>PT3251</name></trkpt>
<trkpt lat="53.172436" lon="-2.008874"><ele>346</ele><time>2020-10-07T12:20:19Z</time><name>PT3252</name></trkpt>
<trkpt lat="53.172491" lon="-2.008856"><ele>345</ele><time>2020-10-07T12:20:23Z</time><name>PT3253</name></trkpt>
<trkpt lat="53.172540" lon="-2.008846"><ele>345</ele><time>2020-10-07T12:20:26Z</time><name>PT3254</name></trkpt>
<trkpt lat="53.172595" lon="-2.008836"><ele>346</ele><time>2020-10-07T12:20:31Z</time><name>PT3255</name></trkpt>
<trkpt lat="53.172635" lon="-2.008831"><ele>346</ele><time>2020-10-07T12:20:34Z</time><name>PT3256</name></trkpt>
<trkpt lat="53.172689" lon="-2.008821"><ele>347</ele><time>2020-10-07T12:20:38Z</time><name>PT3257</name></trkpt>
<trkpt lat="53.172729" lon="-2.008818"><ele>347</ele><time>2020-10-07T12:20:41Z</time><name>PT3258</name></trkpt>
<trkpt lat="53.172783" lon="-2.008810"><ele>348</ele><time>2020-10-07T12:20:44Z</time><name>PT3259</name></trkpt>
<trkpt lat="53.172821" lon="-2.008811"><ele>348</ele><time>2020-10-07T12:20:47Z</time><name>PT3260</name></trkpt>
<trkpt lat="53.172864" lon="-2.008805"><ele>349</ele><time>2020-10-07T12:20:50Z</time><name>PT3261</name></trkpt>
<trkpt lat="53.172917" lon="-2.008809"><ele>349</ele><time>2020-10-07T12:20:55Z</time><name>PT3262</name></trkpt>
<trkpt lat="53.172953" lon="-2.008806"><ele>348</ele><time>2020-10-07T12:20:58Z</time><name>PT3263</name></trkpt>
<trkpt lat="53.172989" lon="-2.008814"><ele>348</ele><time>2020-10-07T12:21:01Z</time><name>PT3264</name></trkpt>
<trkpt lat="53.173034" lon="-2.008818"><ele>348</ele><time>2020-10-07T12:21:05Z</time><name>PT3265</name></trkpt>
<trkpt lat="53.173067" lon="-2.008819"><ele>348</ele><time>2020-10-07T12:21:08Z</time><name>PT3266</name></trkpt>
<trkpt lat="53.173114" lon="-2.008819"><ele>348</ele><time>2020-10-07T12:21:11Z</time><name>PT3267</name></trkpt>
<trkpt lat="53.173163" lon="-2.008828"><ele>348</ele><time>2020-10-07T12:21:16Z</time><name>PT3268</name></trkpt>
<trkpt lat="53.173200" lon="-2.008831"><ele>348</ele><time>2020-10-07T12:21:19Z</time><name>PT3269</name></trkpt>
<trkpt lat="53.173237" lon="-2.008833"><ele>348</ele><time>2020-10-07T12:21:22Z</time><name>PT3270</name></trkpt>
<trkpt lat="53.173283" lon="-2.008828"><ele>348</ele><time>2020-10-07T12:21:25Z</time><name>PT3271</name></trkpt>
<trkpt lat="53.173312" lon="-2.008834"><ele>348</ele><time>2020-10-07T12:21:28Z</time><name>PT3272</name></trkpt>
<trkpt lat="53.173360" lon="-2.008840"><ele>348</ele><time>2020-10-07T12:21:33Z</time><name>PT3273</name></trkpt>
<trkpt lat="53.173398" lon="-2.008845"><ele>349</ele><time>2020-10-07T12:21:36Z</time><name>PT3274</name></trkpt>
<trkpt lat="53.173436" lon="-2.008849"><ele>349</ele><time>2020-10-07T12:21:39Z</time><name>PT3275</name></trkpt>
<trkpt lat="53.173482" lon="-2.008847"><ele>349</ele><time>2020-10-07T12:21:43Z</time><name>PT3276</name></trkpt>
<trkpt lat="53.173522" lon="-2.008843"><ele>349</ele><time>2020-10-07T12:21:46Z</time><name>PT3277</name></trkpt>
<trkpt lat="53.173567" lon="-2.008850"><ele>350</ele><time>2020-10-07T12:21:51Z</time><name>PT3278</name></trkpt>
<trkpt lat="53.173601" lon="-2.008850"><ele>350</ele><time>2020-10-07T12:21:54Z</time><name>PT3279</name></trkpt>
<trkpt lat="53.173650" lon="-2.008849"><ele>351</ele><time>2020-10-07T12:21:58Z</time><name>PT3280</name></trkpt>
<trkpt lat="53.173693" lon="-2.008852"><ele>351</ele><time>2020-10-07T12:22:01Z</time><name>PT3281</name></trkpt>
<trkpt lat="53.173728" lon="-2.008856"><ele>351</ele><time>2020-10-07T12:22:04Z</time><name>PT3282</name></trkpt>
<trkpt lat="53.173776" lon="-2.008865"><ele>353</ele><time>2020-10-07T12:22:09Z</time><name>PT3283</name></trkpt>
<trkpt lat="53.173807" lon="-2.008867"><ele>353</ele><time>2020-10-07T12:22:12Z</time><name>PT3284</name></trkpt>
<trkpt lat="53.173838" lon="-2.008872"><ele>352</ele><time>2020-10-07T12:22:15Z</time><name>PT3285</name></trkpt>
<trkpt lat="53.173860" lon="-2.008872"><ele>352</ele><time>2020-10-07T12:22:18Z</time><name>PT3286</name></trkpt>
<trkpt lat="53.173890" lon="-2.008870"><ele>352</ele><time>2020-10-07T12:22:21Z</time><name>PT3287</name></trkpt>
<trkpt lat="53.173937" lon="-2.008871"><ele>353</ele><time>2020-10-07T12:22:25Z</time><name>PT3288</name></trkpt>
<trkpt lat="53.173972" lon="-2.008869"><ele>353</ele><time>2020-10-07T12:22:28Z</time><name>PT3289</name></trkpt>
<trkpt lat="53.174010" lon="-2.008874"><ele>354</ele><time>2020-10-07T12:22:31Z</time><name>PT3290</name></trkpt>
<trkpt lat="53.174059" lon="-2.008878"><ele>356</ele><time>2020-10-07T12:22:34Z</time><name>PT3291</name></trkpt>
<trkpt lat="53.174090" lon="-2.008870"><ele>356</ele><time>2020-10-07T12:22:37Z</time><name>PT3292</name></trkpt>
<trkpt lat="53.174129" lon="-2.008869"><ele>357</ele><time>2020-10-07T12:22:42Z</time><name>PT3293</name></trkpt>
<trkpt lat="53.174180" lon="-2.008871"><ele>358</ele><time>2020-10-07T12:22:46Z</time><name>PT3294</name></trkpt>
<trkpt lat="53.174227" lon="-2.008870"><ele>359</ele><time>2020-10-07T12:22:49Z</time><name>PT3295</name></trkpt>
<trkpt lat="53.174258" lon="-2.008868"><ele>360</ele><time>2020-10-07T12:22:52Z</time><name>PT3296</name></trkpt>
<trkpt lat="53.174285" lon="-2.008861"><ele>359</ele><time>2020-10-07T12:22:55Z</time><name>PT3297</name></trkpt>
<trkpt lat="53.174313" lon="-2.008851"><ele>359</ele><time>2020-10-07T12:22:58Z</time><name>PT3298</name></trkpt>
<trkpt lat="53.174349" lon="-2.008844"><ele>358</ele><time>2020-10-07T12:23:03Z</time><name>PT3299</name></trkpt>
<trkpt lat="53.174391" lon="-2.008837"><ele>359</ele><time>2020-10-07T12:23:07Z</time><name>PT3300</name></trkpt>
<trkpt lat="53.174429" lon="-2.008828"><ele>360</ele><time>2020-10-07T12:23:10Z</time><name>PT3301</name></trkpt>
<trkpt lat="53.174458" lon="-2.008820"><ele>361</ele><time>2020-10-07T12:23:13Z</time><name>PT3302</name></trkpt>
<trkpt lat="53.174491" lon="-2.008811"><ele>360</ele><time>2020-10-07T12:23:18Z</time><name>PT3303</name></trkpt>
<trkpt lat="53.174526" lon="-2.008800"><ele>360</ele><time>2020-10-07T12:23:22Z</time><name>PT3304</name></trkpt>
<trkpt lat="53.174564" lon="-2.008796"><ele>361</ele><time>2020-10-07T12:23:25Z</time><name>PT3305</name></trkpt>
<trkpt lat="53.174593" lon="-2.008804"><ele>361</ele><time>2020-10-07T12:23:28Z</time><name>PT3306</name></trkpt>
<trkpt lat="53.174624" lon="-2.008809"><ele>361</ele><time>2020-10-07T12:23:31Z</time><name>PT3307</name></trkpt>
<trkpt lat="53.174671" lon="-2.008827"><ele>363</ele><time>2020-10-07T12:23:36Z</time><name>PT3308</name></trkpt>
<trkpt lat="53.174707" lon="-2.008839"><ele>364</ele><time>2020-10-07T12:23:39Z</time><name>PT3309</name></trkpt>
<trkpt lat="53.174741" lon="-2.008855"><ele>365</ele><time>2020-10-07T12:23:42Z</time><name>PT3310</name></trkpt>
<trkpt lat="53.174773" lon="-2.008867"><ele>365</ele><time>2020-10-07T12:23:45Z</time><name>PT3311</name></trkpt>
<trkpt lat="53.174815" lon="-2.008882"><ele>365</ele><time>2020-10-07T12:23:49Z</time><name>PT3312</name></trkpt>
<trkpt lat="53.174851" lon="-2.008898"><ele>366</ele><time>2020-10-07T12:23:52Z</time><name>PT3313</name></trkpt>
<trkpt lat="53.174885" lon="-2.008903"><ele>367</ele><time>2020-10-07T12:23:55Z</time><name>PT3314</name></trkpt>
<trkpt lat="53.174924" lon="-2.008905"><ele>368</ele><time>2020-10-07T12:23:58Z</time><name>PT3315</name></trkpt>
<trkpt lat="53.174971" lon="-2.008912"><ele>369</ele><time>2020-10-07T12:24:01Z</time><name>PT3316</name></trkpt>
<trkpt lat="53.175019" lon="-2.008916"><ele>371</ele><time>2020-10-07T12:24:06Z</time><name>PT3317</name></trkpt>
<trkpt lat="53.175051" lon="-2.008917"><ele>371</ele><time>2020-10-07T12:24:09Z</time><name>PT3318</name></trkpt>
<trkpt lat="53.175086" lon="-2.008919"><ele>372</ele><time>2020-10-07T12:24:12Z</time><name>PT3319</name></trkpt>
<trkpt lat="53.175130" lon="-2.008910"><ele>373</ele><time>2020-10-07T12:24:16Z</time><name>PT3320</name></trkpt>
<trkpt lat="53.175174" lon="-2.008905"><ele>374</ele><time>2020-10-07T12:24:19Z</time><name>PT3321</name></trkpt>
<trkpt lat="53.175205" lon="-2.008895"><ele>375</ele><time>2020-10-07T12:24:22Z</time><name>PT3322</name></trkpt>
<trkpt lat="53.175243" lon="-2.008877"><ele>375</ele><time>2020-10-07T12:24:27Z</time><name>PT3323</name></trkpt>
<trkpt lat="53.175288" lon="-2.008868"><ele>376</ele><time>2020-10-07T12:24:31Z</time><name>PT3324</name></trkpt>
<trkpt lat="53.175330" lon="-2.008832"><ele>378</ele><time>2020-10-07T12:24:34Z</time><name>PT3325</name></trkpt>
<trkpt lat="53.175362" lon="-2.008807"><ele>379</ele><time>2020-10-07T12:24:37Z</time><name>PT3326</name></trkpt>
<trkpt lat="53.175398" lon="-2.008777"><ele>380</ele><time>2020-10-07T12:24:42Z</time><name>PT3327</name></trkpt>
<trkpt lat="53.175430" lon="-2.008744"><ele>380</ele><time>2020-10-07T12:24:46Z</time><name>PT3328</name></trkpt>
<trkpt lat="53.175455" lon="-2.008717"><ele>381</ele><time>2020-10-07T12:24:49Z</time><name>PT3329</name></trkpt>
<trkpt lat="53.175488" lon="-2.008677"><ele>381</ele><time>2020-10-07T12:24:52Z</time><name>PT3330</name></trkpt>
<trkpt lat="53.175511" lon="-2.008652"><ele>381</ele><time>2020-10-07T12:24:55Z</time><name>PT3331</name></trkpt>
<trkpt lat="53.175538" lon="-2.008620"><ele>381</ele><time>2020-10-07T12:25:00Z</time><name>PT3332</name></trkpt>
<trkpt lat="53.175575" lon="-2.008600"><ele>382</ele><time>2020-10-07T12:25:04Z</time><name>PT3333</name></trkpt>
<trkpt lat="53.175609" lon="-2.008595"><ele>382</ele><time>2020-10-07T12:25:07Z</time><name>PT3334</name></trkpt>
<trkpt lat="53.175653" lon="-2.008593"><ele>383</ele><time>2020-10-07T12:25:10Z</time><name>PT3335</name></trkpt>
<trkpt lat="53.175692" lon="-2.008604"><ele>383</ele><time>2020-10-07T12:25:15Z</time><name>PT3336</name></trkpt>
<trkpt lat="53.175725" lon="-2.008610"><ele>384</ele><time>2020-10-07T12:25:18Z</time><name>PT3337</name></trkpt>
<trkpt lat="53.175756" lon="-2.008621"><ele>385</ele><time>2020-10-07T12:25:21Z</time><name>PT3338</name></trkpt>
<trkpt lat="53.175805" lon="-2.008643"><ele>386</ele><time>2020-10-07T12:25:25Z</time><name>PT3339</name></trkpt>
<trkpt lat="53.175847" lon="-2.008661"><ele>386</ele><time>2020-10-07T12:25:28Z</time><name>PT3340</name></trkpt>
<trkpt lat="53.175879" lon="-2.008673"><ele>387</ele><time>2020-10-07T12:25:31Z</time><name>PT3341</name></trkpt>
<trkpt lat="53.175911" lon="-2.008679"><ele>387</ele><time>2020-10-07T12:25:34Z</time><name>PT3342</name></trkpt>
<trkpt lat="53.175952" lon="-2.008689"><ele>387</ele><time>2020-10-07T12:25:39Z</time><name>PT3343</name></trkpt>
<trkpt lat="53.175998" lon="-2.008697"><ele>388</ele><time>2020-10-07T12:25:43Z</time><name>PT3344</name></trkpt>
<trkpt lat="53.176035" lon="-2.008692"><ele>389</ele><time>2020-10-07T12:25:46Z</time><name>PT3345</name></trkpt>
<trkpt lat="53.176066" lon="-2.008689"><ele>389</ele><time>2020-10-07T12:25:49Z</time><name>PT3346</name></trkpt>
<trkpt lat="53.176101" lon="-2.008688"><ele>390</ele><time>2020-10-07T12:25:52Z</time><name>PT3347</name></trkpt>
<trkpt lat="53.176150" lon="-2.008675"><ele>392</ele><time>2020-10-07T12:25:55Z</time><name>PT3348</name></trkpt>
<trkpt lat="53.176182" lon="-2.008670"><ele>392</ele><time>2020-10-07T12:25:58Z</time><name>PT3349</name></trkpt>
<trkpt lat="53.176218" lon="-2.008670"><ele>393</ele><time>2020-10-07T12:26:01Z</time><name>PT3350</name></trkpt>
<trkpt lat="53.176241" lon="-2.008680"><ele>393</ele><time>2020-10-07T12:26:04Z</time><name>PT3351</name></trkpt>
<trkpt lat="53.176283" lon="-2.008684"><ele>394</ele><time>2020-10-07T12:26:09Z</time><name>PT3352</name></trkpt>
<trkpt lat="53.176316" lon="-2.008673"><ele>395</ele><time>2020-10-07T12:26:12Z</time><name>PT3353</name></trkpt>
<trkpt lat="53.176360" lon="-2.008641"><ele>396</ele><time>2020-10-07T12:26:16Z</time><name>PT3354</name></trkpt>
<trkpt lat="53.176405" lon="-2.008630"><ele>396</ele><time>2020-10-07T12:26:19Z</time><name>PT3355</name></trkpt>
<trkpt lat="53.176439" lon="-2.008615"><ele>397</ele><time>2020-10-07T12:26:22Z</time><name>PT3356</name></trkpt>
<trkpt lat="53.176472" lon="-2.008606"><ele>397</ele><time>2020-10-07T12:26:26Z</time><name>PT3357</name></trkpt>
<trkpt lat="53.176504" lon="-2.008583"><ele>397</ele><time>2020-10-07T12:26:29Z</time><name>PT3358</name></trkpt>
<trkpt lat="53.176538" lon="-2.008565"><ele>398</ele><time>2020-10-07T12:26:32Z</time><name>PT3359</name></trkpt>
<trkpt lat="53.176569" lon="-2.008552"><ele>398</ele><time>2020-10-07T12:26:35Z</time><name>PT3360</name></trkpt>
<trkpt lat="53.176602" lon="-2.008541"><ele>399</ele><time>2020-10-07T12:26:38Z</time><name>PT3361</name></trkpt>
<trkpt lat="53.176648" lon="-2.008521"><ele>400</ele><time>2020-10-07T12:26:42Z</time><name>PT3362</name></trkpt>
<trkpt lat="53.176695" lon="-2.008499"><ele>400</ele><time>2020-10-07T12:26:45Z</time><name>PT3363</name></trkpt>
<trkpt lat="53.176737" lon="-2.008480"><ele>401</ele><time>2020-10-07T12:26:50Z</time><name>PT3364</name></trkpt>
<trkpt lat="53.176777" lon="-2.008454"><ele>401</ele><time>2020-10-07T12:26:54Z</time><name>PT3365</name></trkpt>
<trkpt lat="53.176820" lon="-2.008427"><ele>402</ele><time>2020-10-07T12:26:57Z</time><name>PT3366</name></trkpt>
<trkpt lat="53.176857" lon="-2.008397"><ele>402</ele><time>2020-10-07T12:27:02Z</time><name>PT3367</name></trkpt>
<trkpt lat="53.176898" lon="-2.008378"><ele>402</ele><time>2020-10-07T12:27:06Z</time><name>PT3368</name></trkpt>
<trkpt lat="53.176927" lon="-2.008354"><ele>402</ele><time>2020-10-07T12:27:09Z</time><name>PT3369</name></trkpt>
<trkpt lat="53.176965" lon="-2.008329"><ele>403</ele><time>2020-10-07T12:27:12Z</time><name>PT3370</name></trkpt>
<trkpt lat="53.177006" lon="-2.008295"><ele>404</ele><time>2020-10-07T12:27:15Z</time><name>PT3371</name></trkpt>
<trkpt lat="53.177027" lon="-2.008273"><ele>403</ele><time>2020-10-07T12:27:20Z</time><name>PT3372</name></trkpt>
<trkpt lat="53.177067" lon="-2.008282"><ele>403</ele><time>2020-10-07T12:27:24Z</time><name>PT3373</name></trkpt>
<trkpt lat="53.177100" lon="-2.008307"><ele>403</ele><time>2020-10-07T12:27:27Z</time><name>PT3374</name></trkpt>
<trkpt lat="53.177131" lon="-2.008324"><ele>403</ele><time>2020-10-07T12:27:30Z</time><name>PT3375</name></trkpt>
<trkpt lat="53.177162" lon="-2.008335"><ele>403</ele><time>2020-10-07T12:27:33Z</time><name>PT3376</name></trkpt>
<trkpt lat="53.177207" lon="-2.008334"><ele>404</ele><time>2020-10-07T12:27:36Z</time><name>PT3377</name></trkpt>
<trkpt lat="53.177251" lon="-2.008333"><ele>404</ele><time>2020-10-07T12:27:41Z</time><name>PT3378</name></trkpt>
<trkpt lat="53.177289" lon="-2.008336"><ele>405</ele><time>2020-10-07T12:27:45Z</time><name>PT3379</name></trkpt>
<trkpt lat="53.177315" lon="-2.008333"><ele>405</ele><time>2020-10-07T12:27:48Z</time><name>PT3380</name></trkpt>
<trkpt lat="53.177336" lon="-2.008341"><ele>406</ele><time>2020-10-07T12:27:51Z</time><name>PT3381</name></trkpt>
<trkpt lat="53.177373" lon="-2.008331"><ele>406</ele><time>2020-10-07T12:27:56Z</time><name>PT3382</name></trkpt>
<trkpt lat="53.177416" lon="-2.008326"><ele>407</ele><time>2020-10-07T12:28:00Z</time><name>PT3383</name></trkpt>
<trkpt lat="53.177458" lon="-2.008335"><ele>407</ele><time>2020-10-07T12:28:03Z</time><name>PT3384</name></trkpt>
<trkpt lat="53.177493" lon="-2.008345"><ele>407</ele><time>2020-10-07T12:28:06Z</time><name>PT3385</name></trkpt>
<trkpt lat="53.177519" lon="-2.008367"><ele>407</ele><time>2020-10-07T12:28:09Z</time><name>PT3386</name></trkpt>
<trkpt lat="53.177542" lon="-2.008390"><ele>407</ele><time>2020-10-07T12:28:14Z</time><name>PT3387</name></trkpt>
<trkpt lat="53.177558" lon="-2.008402"><ele>408</ele><time>2020-10-07T12:28:18Z</time><name>PT3388</name></trkpt>
<trkpt lat="53.177559" lon="-2.008415"><ele>408</ele><time>2020-10-07T12:28:21Z</time><name>PT3389</name></trkpt>
<trkpt lat="53.177584" lon="-2.008494"><ele>409</ele><time>2020-10-07T12:28:26Z</time><name>PT3390</name></trkpt>
<trkpt lat="53.177598" lon="-2.008536"><ele>409</ele><time>2020-10-07T12:28:29Z</time><name>PT3391</name></trkpt>
<trkpt lat="53.177623" lon="-2.008607"><ele>409</ele><time>2020-10-07T12:28:33Z</time><name>PT3392</name></trkpt>
<trkpt lat="53.177636" lon="-2.008655"><ele>409</ele><time>2020-10-07T12:28:36Z</time><name>PT3393</name></trkpt>
<trkpt lat="53.177661" lon="-2.008738"><ele>410</ele><time>2020-10-07T12:28:39Z</time><name>PT3394</name></trkpt>
<trkpt lat="53.177678" lon="-2.008825"><ele>409</ele><time>2020-10-07T12:28:44Z</time><name>PT3395</name></trkpt>
<trkpt lat="53.177697" lon="-2.008884"><ele>409</ele><time>2020-10-07T12:28:47Z</time><name>PT3396</name></trkpt>
<trkpt lat="53.177722" lon="-2.008939"><ele>409</ele><time>2020-10-07T12:28:50Z</time><name>PT3397</name></trkpt>
<trkpt lat="53.177749" lon="-2.008989"><ele>409</ele><time>2020-10-07T12:28:53Z</time><name>PT3398</name></trkpt>
<trkpt lat="53.177777" lon="-2.009064"><ele>410</ele><time>2020-10-07T12:28:57Z</time><name>PT3399</name></trkpt>
<trkpt lat="53.177794" lon="-2.009121"><ele>410</ele><time>2020-10-07T12:29:00Z</time><name>PT3400</name></trkpt>
<trkpt lat="53.177823" lon="-2.009196"><ele>410</ele><time>2020-10-07T12:29:03Z</time><name>PT3401</name></trkpt>
<trkpt lat="53.177846" lon="-2.009271"><ele>410</ele><time>2020-10-07T12:29:07Z</time><name>PT3402</name></trkpt>
<trkpt lat="53.177869" lon="-2.009325"><ele>410</ele><time>2020-10-07T12:29:11Z</time><name>PT3403</name></trkpt>
<trkpt lat="53.177890" lon="-2.009383"><ele>410</ele><time>2020-10-07T12:29:13Z</time><name>PT3404</name></trkpt>
<trkpt lat="53.177924" lon="-2.009456"><ele>410</ele><time>2020-10-07T12:29:18Z</time><name>PT3405</name></trkpt>
<trkpt lat="53.177944" lon="-2.009508"><ele>410</ele><time>2020-10-07T12:29:21Z</time><name>PT3406</name></trkpt>
<trkpt lat="53.177971" lon="-2.009577"><ele>410</ele><time>2020-10-07T12:29:24Z</time><name>PT3407</name></trkpt>
<trkpt lat="53.177991" lon="-2.009628"><ele>410</ele><time>2020-10-07T12:29:27Z</time><name>PT3408</name></trkpt>
<trkpt lat="53.178015" lon="-2.009714"><ele>411</ele><time>2020-10-07T12:29:32Z</time><name>PT3409</name></trkpt>
<trkpt lat="53.178041" lon="-2.009760"><ele>411</ele><time>2020-10-07T12:29:35Z</time><name>PT3410</name></trkpt>
<trkpt lat="53.178061" lon="-2.009815"><ele>411</ele><time>2020-10-07T12:29:38Z</time><name>PT3411</name></trkpt>
<trkpt lat="53.178077" lon="-2.009870"><ele>410</ele><time>2020-10-07T12:29:41Z</time><name>PT3412</name></trkpt>
<trkpt lat="53.178100" lon="-2.009931"><ele>410</ele><time>2020-10-07T12:29:44Z</time><name>PT3413</name></trkpt>
<trkpt lat="53.178126" lon="-2.009988"><ele>410</ele><time>2020-10-07T12:29:47Z</time><name>PT3414</name></trkpt>
<trkpt lat="53.178148" lon="-2.010072"><ele>409</ele><time>2020-10-07T12:29:51Z</time><name>PT3415</name></trkpt>
<trkpt lat="53.178186" lon="-2.010154"><ele>410</ele><time>2020-10-07T12:29:54Z</time><name>PT3416</name></trkpt>
<trkpt lat="53.178208" lon="-2.010213"><ele>410</ele><time>2020-10-07T12:29:57Z</time><name>PT3417</name></trkpt>
<trkpt lat="53.178233" lon="-2.010268"><ele>410</ele><time>2020-10-07T12:30:00Z</time><name>PT3418</name></trkpt>
<trkpt lat="53.178265" lon="-2.010347"><ele>411</ele><time>2020-10-07T12:30:05Z</time><name>PT3419</name></trkpt>
<trkpt lat="53.178285" lon="-2.010404"><ele>411</ele><time>2020-10-07T12:30:08Z</time><name>PT3420</name></trkpt>
<trkpt lat="53.178319" lon="-2.010476"><ele>411</ele><time>2020-10-07T12:30:12Z</time><name>PT3421</name></trkpt>
<trkpt lat="53.178333" lon="-2.010531"><ele>411</ele><time>2020-10-07T12:30:15Z</time><name>PT3422</name></trkpt>
<trkpt lat="53.178350" lon="-2.010586"><ele>411</ele><time>2020-10-07T12:30:18Z</time><name>PT3423</name></trkpt>
<trkpt lat="53.178372" lon="-2.010658"><ele>411</ele><time>2020-10-07T12:30:21Z</time><name>PT3424</name></trkpt>
<trkpt lat="53.178398" lon="-2.010732"><ele>411</ele><time>2020-10-07T12:30:26Z</time><name>PT3425</name></trkpt>
<trkpt lat="53.178415" lon="-2.010789"><ele>411</ele><time>2020-10-07T12:30:29Z</time><name>PT3426</name></trkpt>
<trkpt lat="53.178446" lon="-2.010864"><ele>411</ele><time>2020-10-07T12:30:33Z</time><name>PT3427</name></trkpt>
<trkpt lat="53.178460" lon="-2.010922"><ele>411</ele><time>2020-10-07T12:30:36Z</time><name>PT3428</name></trkpt>
<trkpt lat="53.178477" lon="-2.010983"><ele>411</ele><time>2020-10-07T12:30:39Z</time><name>PT3429</name></trkpt>
<trkpt lat="53.178493" lon="-2.011042"><ele>411</ele><time>2020-10-07T12:30:42Z</time><name>PT3430</name></trkpt>
<trkpt lat="53.178514" lon="-2.011122"><ele>411</ele><time>2020-10-07T12:30:45Z</time><name>PT3431</name></trkpt>
<trkpt lat="53.178533" lon="-2.011182"><ele>411</ele><time>2020-10-07T12:30:48Z</time><name>PT3432</name></trkpt>
<trkpt lat="53.178564" lon="-2.011258"><ele>410</ele><time>2020-10-07T12:30:53Z</time><name>PT3433</name></trkpt>
<trkpt lat="53.178587" lon="-2.011307"><ele>410</ele><time>2020-10-07T12:30:56Z</time><name>PT3434</name></trkpt>
<trkpt lat="53.178615" lon="-2.011377"><ele>411</ele><time>2020-10-07T12:31:00Z</time><name>PT3435</name></trkpt>
<trkpt lat="53.178634" lon="-2.011432"><ele>410</ele><time>2020-10-07T12:31:03Z</time><name>PT3436</name></trkpt>
<trkpt lat="53.178655" lon="-2.011483"><ele>410</ele><time>2020-10-07T12:31:06Z</time><name>PT3437</name></trkpt>
<trkpt lat="53.178680" lon="-2.011562"><ele>410</ele><time>2020-10-07T12:31:09Z</time><name>PT3438</name></trkpt>
<trkpt lat="53.178704" lon="-2.011618"><ele>410</ele><time>2020-10-07T12:31:12Z</time><name>PT3439</name></trkpt>
<trkpt lat="53.178730" lon="-2.011693"><ele>410</ele><time>2020-10-07T12:31:17Z</time><name>PT3440</name></trkpt>
<trkpt lat="53.178749" lon="-2.011747"><ele>410</ele><time>2020-10-07T12:31:20Z</time><name>PT3441</name></trkpt>
<trkpt lat="53.178774" lon="-2.011817"><ele>410</ele><time>2020-10-07T12:31:24Z</time><name>PT3442</name></trkpt>
<trkpt lat="53.178797" lon="-2.011871"><ele>411</ele><time>2020-10-07T12:31:27Z</time><name>PT3443</name></trkpt>
<trkpt lat="53.178827" lon="-2.011946"><ele>410</ele><time>2020-10-07T12:31:30Z</time><name>PT3444</name></trkpt>
<trkpt lat="53.178862" lon="-2.012013"><ele>410</ele><time>2020-10-07T12:31:35Z</time><name>PT3445</name></trkpt>
<trkpt lat="53.178891" lon="-2.012086"><ele>410</ele><time>2020-10-07T12:31:39Z</time><name>PT3446</name></trkpt>
<trkpt lat="53.178921" lon="-2.012159"><ele>409</ele><time>2020-10-07T12:31:42Z</time><name>PT3447</name></trkpt>
<trkpt lat="53.178945" lon="-2.012211"><ele>410</ele><time>2020-10-07T12:31:45Z</time><name>PT3448</name></trkpt>
<trkpt lat="53.178973" lon="-2.012259"><ele>409</ele><time>2020-10-07T12:31:49Z</time><name>PT3449</name></trkpt>
<trkpt lat="53.179000" lon="-2.012311"><ele>409</ele><time>2020-10-07T12:31:51Z</time><name>PT3450</name></trkpt>
<trkpt lat="53.179041" lon="-2.012365"><ele>408</ele><time>2020-10-07T12:31:56Z</time><name>PT3451</name></trkpt>
<trkpt lat="53.179067" lon="-2.012418"><ele>408</ele><time>2020-10-07T12:31:59Z</time><name>PT3452</name></trkpt>
<trkpt lat="53.179106" lon="-2.012475"><ele>408</ele><time>2020-10-07T12:32:03Z</time><name>PT3453</name></trkpt>
<trkpt lat="53.179128" lon="-2.012531"><ele>409</ele><time>2020-10-07T12:32:06Z</time><name>PT3454</name></trkpt>
<trkpt lat="53.179160" lon="-2.012594"><ele>409</ele><time>2020-10-07T12:32:09Z</time><name>PT3455</name></trkpt>
<trkpt lat="53.179193" lon="-2.012661"><ele>409</ele><time>2020-10-07T12:32:14Z</time><name>PT3456</name></trkpt>
<trkpt lat="53.179222" lon="-2.012708"><ele>409</ele><time>2020-10-07T12:32:17Z</time><name>PT3457</name></trkpt>
<trkpt lat="53.179259" lon="-2.012780"><ele>409</ele><time>2020-10-07T12:32:21Z</time><name>PT3458</name></trkpt>
<trkpt lat="53.179286" lon="-2.012829"><ele>408</ele><time>2020-10-07T12:32:24Z</time><name>PT3459</name></trkpt>
<trkpt lat="53.179313" lon="-2.012878"><ele>408</ele><time>2020-10-07T12:32:27Z</time><name>PT3460</name></trkpt>
<trkpt lat="53.179353" lon="-2.012940"><ele>408</ele><time>2020-10-07T12:32:30Z</time><name>PT3461</name></trkpt>
<trkpt lat="53.179388" lon="-2.013001"><ele>408</ele><time>2020-10-07T12:32:35Z</time><name>PT3462</name></trkpt>
<trkpt lat="53.179422" lon="-2.013061"><ele>406</ele><time>2020-10-07T12:32:39Z</time><name>PT3463</name></trkpt>
<trkpt lat="53.179445" lon="-2.013121"><ele>405</ele><time>2020-10-07T12:32:42Z</time><name>PT3464</name></trkpt>
<trkpt lat="53.179488" lon="-2.013181"><ele>404</ele><time>2020-10-07T12:32:47Z</time><name>PT3465</name></trkpt>
<trkpt lat="53.179518" lon="-2.013228"><ele>405</ele><time>2020-10-07T12:32:50Z</time><name>PT3466</name></trkpt>
<trkpt lat="53.179561" lon="-2.013290"><ele>405</ele><time>2020-10-07T12:32:53Z</time><name>PT3467</name></trkpt>
<trkpt lat="53.179589" lon="-2.013345"><ele>406</ele><time>2020-10-07T12:32:56Z</time><name>PT3468</name></trkpt>
<trkpt lat="53.179616" lon="-2.013399"><ele>406</ele><time>2020-10-07T12:33:00Z</time><name>PT3469</name></trkpt>
<trkpt lat="53.179639" lon="-2.013445"><ele>405</ele><time>2020-10-07T12:33:03Z</time><name>PT3470</name></trkpt>
<trkpt lat="53.179677" lon="-2.013510"><ele>404</ele><time>2020-10-07T12:33:06Z</time><name>PT3471</name></trkpt>
<trkpt lat="53.179703" lon="-2.013560"><ele>404</ele><time>2020-10-07T12:33:09Z</time><name>PT3472</name></trkpt>
<trkpt lat="53.179733" lon="-2.013606"><ele>404</ele><time>2020-10-07T12:33:12Z</time><name>PT3473</name></trkpt>
<trkpt lat="53.179772" lon="-2.013684"><ele>404</ele><time>2020-10-07T12:33:16Z</time><name>PT3474</name></trkpt>
<trkpt lat="53.179802" lon="-2.013728"><ele>404</ele><time>2020-10-07T12:33:20Z</time><name>PT3475</name></trkpt>
<trkpt lat="53.179829" lon="-2.013777"><ele>404</ele><time>2020-10-07T12:33:23Z</time><name>PT3476</name></trkpt>
<trkpt lat="53.179853" lon="-2.013816"><ele>404</ele><time>2020-10-07T12:33:26Z</time><name>PT3477</name></trkpt>
<trkpt lat="53.179884" lon="-2.013883"><ele>404</ele><time>2020-10-07T12:33:30Z</time><name>PT3478</name></trkpt>
<trkpt lat="53.179919" lon="-2.013947"><ele>403</ele><time>2020-10-07T12:33:33Z</time><name>PT3479</name></trkpt>
<trkpt lat="53.179947" lon="-2.013990"><ele>403</ele><time>2020-10-07T12:33:37Z</time><name>PT3480</name></trkpt>
<trkpt lat="53.179986" lon="-2.014053"><ele>403</ele><time>2020-10-07T12:33:41Z</time><name>PT3481</name></trkpt>
<trkpt lat="53.180016" lon="-2.014090"><ele>402</ele><time>2020-10-07T12:33:44Z</time><name>PT3482</name></trkpt>
<trkpt lat="53.180043" lon="-2.014139"><ele>402</ele><time>2020-10-07T12:33:47Z</time><name>PT3483</name></trkpt>
<trkpt lat="53.180069" lon="-2.014180"><ele>402</ele><time>2020-10-07T12:33:50Z</time><name>PT3484</name></trkpt>
<trkpt lat="53.180100" lon="-2.014219"><ele>401</ele><time>2020-10-07T12:33:53Z</time><name>PT3485</name></trkpt>
<trkpt lat="53.180132" lon="-2.014265"><ele>402</ele><time>2020-10-07T12:33:56Z</time><name>PT3486</name></trkpt>
<trkpt lat="53.180178" lon="-2.014319"><ele>402</ele><time>2020-10-07T12:34:00Z</time><name>PT3487</name></trkpt>
<trkpt lat="53.180208" lon="-2.014362"><ele>402</ele><time>2020-10-07T12:34:03Z</time><name>PT3488</name></trkpt>
<trkpt lat="53.180247" lon="-2.014419"><ele>402</ele><time>2020-10-07T12:34:06Z</time><name>PT3489</name></trkpt>
<trkpt lat="53.180284" lon="-2.014474"><ele>402</ele><time>2020-10-07T12:34:10Z</time><name>PT3490</name></trkpt>
<trkpt lat="53.180315" lon="-2.014522"><ele>402</ele><time>2020-10-07T12:34:14Z</time><name>PT3491</name></trkpt>
<trkpt lat="53.180344" lon="-2.014569"><ele>402</ele><time>2020-10-07T12:34:17Z</time><name>PT3492</name></trkpt>
<trkpt lat="53.180390" lon="-2.014631"><ele>403</ele><time>2020-10-07T12:34:21Z</time><name>PT3493</name></trkpt>
<trkpt lat="53.180429" lon="-2.014682"><ele>403</ele><time>2020-10-07T12:34:24Z</time><name>PT3494</name></trkpt>
<trkpt lat="53.180458" lon="-2.014724"><ele>402</ele><time>2020-10-07T12:34:27Z</time><name>PT3495</name></trkpt>
<trkpt lat="53.180495" lon="-2.014787"><ele>402</ele><time>2020-10-07T12:34:32Z</time><name>PT3496</name></trkpt>
<trkpt lat="53.180526" lon="-2.014828"><ele>402</ele><time>2020-10-07T12:34:35Z</time><name>PT3497</name></trkpt>
<trkpt lat="53.180553" lon="-2.014861"><ele>401</ele><time>2020-10-07T12:34:38Z</time><name>PT3498</name></trkpt>
<trkpt lat="53.180581" lon="-2.014890"><ele>400</ele><time>2020-10-07T12:34:41Z</time><name>PT3499</name></trkpt>
<trkpt lat="53.180622" lon="-2.014932"><ele>399</ele><time>2020-10-07T12:34:45Z</time><name>PT3500</name></trkpt>
<trkpt lat="53.180666" lon="-2.014990"><ele>399</ele><time>2020-10-07T12:34:48Z</time><name>PT3501</name></trkpt>
<trkpt lat="53.180701" lon="-2.015055"><ele>399</ele><time>2020-10-07T12:34:53Z</time><name>PT3502</name></trkpt>
<trkpt lat="53.180735" lon="-2.015115"><ele>398</ele><time>2020-10-07T12:34:57Z</time><name>PT3503</name></trkpt>
<trkpt lat="53.180760" lon="-2.015166"><ele>398</ele><time>2020-10-07T12:35:00Z</time><name>PT3504</name></trkpt>
<trkpt lat="53.180796" lon="-2.015222"><ele>397</ele><time>2020-10-07T12:35:03Z</time><name>PT3505</name></trkpt>
<trkpt lat="53.180824" lon="-2.015264"><ele>396</ele><time>2020-10-07T12:35:06Z</time><name>PT3506</name></trkpt>
<trkpt lat="53.180868" lon="-2.015317"><ele>396</ele><time>2020-10-07T12:35:10Z</time><name>PT3507</name></trkpt>
<trkpt lat="53.180911" lon="-2.015376"><ele>395</ele><time>2020-10-07T12:35:15Z</time><name>PT3508</name></trkpt>
<trkpt lat="53.180939" lon="-2.015420"><ele>394</ele><time>2020-10-07T12:35:18Z</time><name>PT3509</name></trkpt>
<trkpt lat="53.180978" lon="-2.015474"><ele>394</ele><time>2020-10-07T12:35:21Z</time><name>PT3510</name></trkpt>
<trkpt lat="53.181020" lon="-2.015525"><ele>393</ele><time>2020-10-07T12:35:25Z</time><name>PT3511</name></trkpt>
<trkpt lat="53.181054" lon="-2.015551"><ele>393</ele><time>2020-10-07T12:35:29Z</time><name>PT3512</name></trkpt>
<trkpt lat="53.181086" lon="-2.015596"><ele>392</ele><time>2020-10-07T12:35:32Z</time><name>PT3513</name></trkpt>
<trkpt lat="53.181118" lon="-2.015637"><ele>392</ele><time>2020-10-07T12:35:35Z</time><name>PT3514</name></trkpt>
<trkpt lat="53.181149" lon="-2.015672"><ele>391</ele><time>2020-10-07T12:35:38Z</time><name>PT3515</name></trkpt>
<trkpt lat="53.181181" lon="-2.015713"><ele>391</ele><time>2020-10-07T12:35:41Z</time><name>PT3516</name></trkpt>
<trkpt lat="53.181206" lon="-2.015758"><ele>390</ele><time>2020-10-07T12:35:44Z</time><name>PT3517</name></trkpt>
<trkpt lat="53.181251" lon="-2.015821"><ele>390</ele><time>2020-10-07T12:35:48Z</time><name>PT3518</name></trkpt>
<trkpt lat="53.181290" lon="-2.015887"><ele>389</ele><time>2020-10-07T12:35:51Z</time><name>PT3519</name></trkpt>
<trkpt lat="53.181331" lon="-2.015938"><ele>389</ele><time>2020-10-07T12:35:55Z</time><name>PT3520</name></trkpt>
<trkpt lat="53.181364" lon="-2.015981"><ele>389</ele><time>2020-10-07T12:35:59Z</time><name>PT3521</name></trkpt>
<trkpt lat="53.181399" lon="-2.016021"><ele>389</ele><time>2020-10-07T12:36:02Z</time><name>PT3522</name></trkpt>
<trkpt lat="53.181442" lon="-2.016077"><ele>389</ele><time>2020-10-07T12:36:06Z</time><name>PT3523</name></trkpt>
<trkpt lat="53.181472" lon="-2.016124"><ele>388</ele><time>2020-10-07T12:36:09Z</time><name>PT3524</name></trkpt>
<trkpt lat="53.181501" lon="-2.016164"><ele>388</ele><time>2020-10-07T12:36:12Z</time><name>PT3525</name></trkpt>
<trkpt lat="53.181543" lon="-2.016211"><ele>387</ele><time>2020-10-07T12:36:15Z</time><name>PT3526</name></trkpt>
<trkpt lat="53.181570" lon="-2.016250"><ele>387</ele><time>2020-10-07T12:36:18Z</time><name>PT3527</name></trkpt>
<trkpt lat="53.181603" lon="-2.016278"><ele>387</ele><time>2020-10-07T12:36:21Z</time><name>PT3528</name></trkpt>
<trkpt lat="53.181638" lon="-2.016326"><ele>388</ele><time>2020-10-07T12:36:26Z</time><name>PT3529</name></trkpt>
<trkpt lat="53.181678" lon="-2.016369"><ele>389</ele><time>2020-10-07T12:36:30Z</time><name>PT3530</name></trkpt>
<trkpt lat="53.181718" lon="-2.016412"><ele>389</ele><time>2020-10-07T12:36:33Z</time><name>PT3531</name></trkpt>
<trkpt lat="53.181754" lon="-2.016461"><ele>390</ele><time>2020-10-07T12:36:38Z</time><name>PT3532</name></trkpt>
<trkpt lat="53.181791" lon="-2.016502"><ele>390</ele><time>2020-10-07T12:36:42Z</time><name>PT3533</name></trkpt>
<trkpt lat="53.181822" lon="-2.016541"><ele>391</ele><time>2020-10-07T12:36:45Z</time><name>PT3534</name></trkpt>
<trkpt lat="53.181852" lon="-2.016583"><ele>392</ele><time>2020-10-07T12:36:48Z</time><name>PT3535</name></trkpt>
<trkpt lat="53.181879" lon="-2.016623"><ele>392</ele><time>2020-10-07T12:36:51Z</time><name>PT3536</name></trkpt>
<trkpt lat="53.181883" lon="-2.016643"><ele>393</ele><time>2020-10-07T12:36:54Z</time><name>PT3537</name></trkpt>
<trkpt lat="53.181899" lon="-2.016652"><ele>393</ele><time>2020-10-07T12:36:59Z</time><name>PT3538</name></trkpt>
<trkpt lat="53.181927" lon="-2.016673"><ele>393</ele><time>2020-10-07T12:37:02Z</time><name>PT3539</name></trkpt>
<trkpt lat="53.181944" lon="-2.016682"><ele>394</ele><time>2020-10-07T12:37:06Z</time><name>PT3540</name></trkpt>
<trkpt lat="53.181972" lon="-2.016699"><ele>394</ele><time>2020-10-07T12:37:12Z</time><name>PT3541</name></trkpt>
<trkpt lat="53.182017" lon="-2.016737"><ele>393</ele><time>2020-10-07T12:37:15Z</time><name>PT3542</name></trkpt>
<trkpt lat="53.182053" lon="-2.016768"><ele>394</ele><time>2020-10-07T12:37:18Z</time><name>PT3543</name></trkpt>
<trkpt lat="53.182085" lon="-2.016800"><ele>394</ele><time>2020-10-07T12:37:21Z</time><name>PT3544</name></trkpt>
<trkpt lat="53.182126" lon="-2.016841"><ele>393</ele><time>2020-10-07T12:37:26Z</time><name>PT3545</name></trkpt>
<trkpt lat="53.182168" lon="-2.016882"><ele>394</ele><time>2020-10-07T12:37:30Z</time><name>PT3546</name></trkpt>
<trkpt lat="53.182198" lon="-2.016922"><ele>394</ele><time>2020-10-07T12:37:33Z</time><name>PT3547</name></trkpt>
<trkpt lat="53.182237" lon="-2.016970"><ele>394</ele><time>2020-10-07T12:37:36Z</time><name>PT3548</name></trkpt>
<trkpt lat="53.182284" lon="-2.017015"><ele>395</ele><time>2020-10-07T12:37:40Z</time><name>PT3549</name></trkpt>
<trkpt lat="53.182322" lon="-2.017036"><ele>394</ele><time>2020-10-07T12:37:44Z</time><name>PT3550</name></trkpt>
<trkpt lat="53.182354" lon="-2.017055"><ele>394</ele><time>2020-10-07T12:37:47Z</time><name>PT3551</name></trkpt>
<trkpt lat="53.182392" lon="-2.017078"><ele>393</ele><time>2020-10-07T12:37:50Z</time><name>PT3552</name></trkpt>
<trkpt lat="53.182437" lon="-2.017101"><ele>393</ele><time>2020-10-07T12:37:54Z</time><name>PT3553</name></trkpt>
<trkpt lat="53.182484" lon="-2.017123"><ele>394</ele><time>2020-10-07T12:37:57Z</time><name>PT3554</name></trkpt>
<trkpt lat="53.182519" lon="-2.017158"><ele>393</ele><time>2020-10-07T12:38:01Z</time><name>PT3555</name></trkpt>
<trkpt lat="53.182549" lon="-2.017175"><ele>392</ele><time>2020-10-07T12:38:04Z</time><name>PT3556</name></trkpt>
<trkpt lat="53.182598" lon="-2.017209"><ele>393</ele><time>2020-10-07T12:38:09Z</time><name>PT3557</name></trkpt>
<trkpt lat="53.182647" lon="-2.017248"><ele>394</ele><time>2020-10-07T12:38:12Z</time><name>PT3558</name></trkpt>
<trkpt lat="53.182684" lon="-2.017296"><ele>394</ele><time>2020-10-07T12:38:16Z</time><name>PT3559</name></trkpt>
<trkpt lat="53.182714" lon="-2.017327"><ele>395</ele><time>2020-10-07T12:38:19Z</time><name>PT3560</name></trkpt>
<trkpt lat="53.182739" lon="-2.017373"><ele>396</ele><time>2020-10-07T12:38:22Z</time><name>PT3561</name></trkpt>
<trkpt lat="53.182772" lon="-2.017413"><ele>396</ele><time>2020-10-07T12:38:26Z</time><name>PT3562</name></trkpt>
<trkpt lat="53.182801" lon="-2.017466"><ele>396</ele><time>2020-10-07T12:38:29Z</time><name>PT3563</name></trkpt>
<trkpt lat="53.182841" lon="-2.017526"><ele>396</ele><time>2020-10-07T12:38:33Z</time><name>PT3564</name></trkpt>
<trkpt lat="53.182874" lon="-2.017575"><ele>396</ele><time>2020-10-07T12:38:36Z</time><name>PT3565</name></trkpt>
<trkpt lat="53.182902" lon="-2.017622"><ele>396</ele><time>2020-10-07T12:38:39Z</time><name>PT3566</name></trkpt>
<trkpt lat="53.182925" lon="-2.017672"><ele>396</ele><time>2020-10-07T12:38:42Z</time><name>PT3567</name></trkpt>
<trkpt lat="53.182956" lon="-2.017711"><ele>395</ele><time>2020-10-07T12:38:45Z</time><name>PT3568</name></trkpt>
<trkpt lat="53.182990" lon="-2.017752"><ele>396</ele><time>2020-10-07T12:38:48Z</time><name>PT3569</name></trkpt>
<trkpt lat="53.183036" lon="-2.017799"><ele>396</ele><time>2020-10-07T12:38:51Z</time><name>PT3570</name></trkpt>
<trkpt lat="53.183072" lon="-2.017857"><ele>396</ele><time>2020-10-07T12:38:55Z</time><name>PT3571</name></trkpt>
<trkpt lat="53.183093" lon="-2.017903"><ele>395</ele><time>2020-10-07T12:38:59Z</time><name>PT3572</name></trkpt>
<trkpt lat="53.183127" lon="-2.017965"><ele>394</ele><time>2020-10-07T12:39:03Z</time><name>PT3573</name></trkpt>
<trkpt lat="53.183160" lon="-2.018001"><ele>394</ele><time>2020-10-07T12:39:06Z</time><name>PT3574</name></trkpt>
<trkpt lat="53.183205" lon="-2.018057"><ele>393</ele><time>2020-10-07T12:39:09Z</time><name>PT3575</name></trkpt>
<trkpt lat="53.183238" lon="-2.018104"><ele>393</ele><time>2020-10-07T12:39:12Z</time><name>PT3576</name></trkpt>
<trkpt lat="53.183281" lon="-2.018170"><ele>393</ele><time>2020-10-07T12:39:16Z</time><name>PT3577</name></trkpt>
<trkpt lat="53.183313" lon="-2.018217"><ele>392</ele><time>2020-10-07T12:39:19Z</time><name>PT3578</name></trkpt>
<trkpt lat="53.183343" lon="-2.018264"><ele>392</ele><time>2020-10-07T12:39:23Z</time><name>PT3579</name></trkpt>
<trkpt lat="53.183369" lon="-2.018316"><ele>392</ele><time>2020-10-07T12:39:26Z</time><name>PT3580</name></trkpt>
<trkpt lat="53.183398" lon="-2.018379"><ele>391</ele><time>2020-10-07T12:39:30Z</time><name>PT3581</name></trkpt>
<trkpt lat="53.183434" lon="-2.018421"><ele>391</ele><time>2020-10-07T12:39:33Z</time><name>PT3582</name></trkpt>
<trkpt lat="53.183468" lon="-2.018447"><ele>390</ele><time>2020-10-07T12:39:36Z</time><name>PT3583</name></trkpt>
<trkpt lat="53.183502" lon="-2.018475"><ele>390</ele><time>2020-10-07T12:39:39Z</time><name>PT3584</name></trkpt>
<trkpt lat="53.183531" lon="-2.018505"><ele>389</ele><time>2020-10-07T12:39:42Z</time><name>PT3585</name></trkpt>
<trkpt lat="53.183564" lon="-2.018550"><ele>389</ele><time>2020-10-07T12:39:46Z</time><name>PT3586</name></trkpt>
<trkpt lat="53.183591" lon="-2.018565"><ele>388</ele><time>2020-10-07T12:39:50Z</time><name>PT3587</name></trkpt>
<trkpt lat="53.183631" lon="-2.018592"><ele>387</ele><time>2020-10-07T12:39:54Z</time><name>PT3588</name></trkpt>
<trkpt lat="53.183662" lon="-2.018624"><ele>388</ele><time>2020-10-07T12:39:57Z</time><name>PT3589</name></trkpt>
<trkpt lat="53.183696" lon="-2.018676"><ele>387</ele><time>2020-10-07T12:40:00Z</time><name>PT3590</name></trkpt>
<trkpt lat="53.183720" lon="-2.018710"><ele>387</ele><time>2020-10-07T12:40:03Z</time><name>PT3591</name></trkpt>
<trkpt lat="53.183756" lon="-2.018757"><ele>385</ele><time>2020-10-07T12:40:07Z</time><name>PT3592</name></trkpt>
<trkpt lat="53.183785" lon="-2.018793"><ele>385</ele><time>2020-10-07T12:40:10Z</time><name>PT3593</name></trkpt>
<trkpt lat="53.183821" lon="-2.018843"><ele>384</ele><time>2020-10-07T12:40:15Z</time><name>PT3594</name></trkpt>
<trkpt lat="53.183848" lon="-2.018876"><ele>384</ele><time>2020-10-07T12:40:18Z</time><name>PT3595</name></trkpt>
<trkpt lat="53.183873" lon="-2.018908"><ele>384</ele><time>2020-10-07T12:40:21Z</time><name>PT3596</name></trkpt>
<trkpt lat="53.183910" lon="-2.018953"><ele>382</ele><time>2020-10-07T12:40:24Z</time><name>PT3597</name></trkpt>
<trkpt lat="53.183936" lon="-2.018992"><ele>382</ele><time>2020-10-07T12:40:28Z</time><name>PT3598</name></trkpt>
<trkpt lat="53.183967" lon="-2.019023"><ele>381</ele><time>2020-10-07T12:40:31Z</time><name>PT3599</name></trkpt>
<trkpt lat="53.183997" lon="-2.019068"><ele>380</ele><time>2020-10-07T12:40:34Z</time><name>PT3600</name></trkpt>
<trkpt lat="53.184028" lon="-2.019095"><ele>379</ele><time>2020-10-07T12:40:38Z</time><name>PT3601</name></trkpt>
<trkpt lat="53.184070" lon="-2.019145"><ele>378</ele><time>2020-10-07T12:40:42Z</time><name>PT3602</name></trkpt>
<trkpt lat="53.184109" lon="-2.019222"><ele>377</ele><time>2020-10-07T12:40:45Z</time><name>PT3603</name></trkpt>
<trkpt lat="53.184150" lon="-2.019284"><ele>377</ele><time>2020-10-07T12:40:50Z</time><name>PT3604</name></trkpt>
<trkpt lat="53.184188" lon="-2.019351"><ele>377</ele><time>2020-10-07T12:40:54Z</time><name>PT3605</name></trkpt>
<trkpt lat="53.184226" lon="-2.019424"><ele>377</ele><time>2020-10-07T12:40:57Z</time><name>PT3606</name></trkpt>
<trkpt lat="53.184249" lon="-2.019470"><ele>378</ele><time>2020-10-07T12:41:00Z</time><name>PT3607</name></trkpt>
<trkpt lat="53.184259" lon="-2.019515"><ele>378</ele><time>2020-10-07T12:41:03Z</time><name>PT3608</name></trkpt>
<trkpt lat="53.184277" lon="-2.019556"><ele>379</ele><time>2020-10-07T12:41:06Z</time><name>PT3609</name></trkpt>
<trkpt lat="53.184304" lon="-2.019598"><ele>380</ele><time>2020-10-07T12:41:11Z</time><name>PT3610</name></trkpt>
<trkpt lat="53.184320" lon="-2.019629"><ele>380</ele><time>2020-10-07T12:41:14Z</time><name>PT3611</name></trkpt>
<trkpt lat="53.184357" lon="-2.019676"><ele>381</ele><time>2020-10-07T12:41:18Z</time><name>PT3612</name></trkpt>
<trkpt lat="53.184371" lon="-2.019721"><ele>381</ele><time>2020-10-07T12:41:21Z</time><name>PT3613</name></trkpt>
<trkpt lat="53.184377" lon="-2.019762"><ele>381</ele><time>2020-10-07T12:41:24Z</time><name>PT3614</name></trkpt>
<trkpt lat="53.184389" lon="-2.019818"><ele>382</ele><time>2020-10-07T12:41:27Z</time><name>PT3615</name></trkpt>
<trkpt lat="53.184402" lon="-2.019863"><ele>383</ele><time>2020-10-07T12:41:30Z</time><name>PT3616</name></trkpt>
<trkpt lat="53.184417" lon="-2.019902"><ele>383</ele><time>2020-10-07T12:41:33Z</time><name>PT3617</name></trkpt>
<trkpt lat="53.184428" lon="-2.019940"><ele>383</ele><time>2020-10-07T12:41:36Z</time><name>PT3618</name></trkpt>
<trkpt lat="53.184429" lon="-2.019997"><ele>384</ele><time>2020-10-07T12:41:41Z</time><name>PT3619</name></trkpt>
<trkpt lat="53.184445" lon="-2.020070"><ele>385</ele><time>2020-10-07T12:41:45Z</time><name>PT3620</name></trkpt>
<trkpt lat="53.184461" lon="-2.020113"><ele>385</ele><time>2020-10-07T12:41:48Z</time><name>PT3621</name></trkpt>
<trkpt lat="53.184479" lon="-2.020171"><ele>385</ele><time>2020-10-07T12:41:51Z</time><name>PT3622</name></trkpt>
<trkpt lat="53.184499" lon="-2.020248"><ele>386</ele><time>2020-10-07T12:41:55Z</time><name>PT3623</name></trkpt>
<trkpt lat="53.184529" lon="-2.020309"><ele>386</ele><time>2020-10-07T12:42:00Z</time><name>PT3624</name></trkpt>
<trkpt lat="53.184543" lon="-2.020362"><ele>386</ele><time>2020-10-07T12:42:03Z</time><name>PT3625</name></trkpt>
<trkpt lat="53.184573" lon="-2.020422"><ele>386</ele><time>2020-10-07T12:42:06Z</time><name>PT3626</name></trkpt>
<trkpt lat="53.184595" lon="-2.020469"><ele>386</ele><time>2020-10-07T12:42:09Z</time><name>PT3627</name></trkpt>
<trkpt lat="53.184624" lon="-2.020535"><ele>387</ele><time>2020-10-07T12:42:14Z</time><name>PT3628</name></trkpt>
<trkpt lat="53.184651" lon="-2.020582"><ele>387</ele><time>2020-10-07T12:42:17Z</time><name>PT3629</name></trkpt>
<trkpt lat="53.184681" lon="-2.020638"><ele>387</ele><time>2020-10-07T12:42:21Z</time><name>PT3630</name></trkpt>
<trkpt lat="53.184712" lon="-2.020705"><ele>387</ele><time>2020-10-07T12:42:24Z</time><name>PT3631</name></trkpt>
<trkpt lat="53.184744" lon="-2.020769"><ele>387</ele><time>2020-10-07T12:42:28Z</time><name>PT3632</name></trkpt>
<trkpt lat="53.184769" lon="-2.020820"><ele>387</ele><time>2020-10-07T12:42:32Z</time><name>PT3633</name></trkpt>
<trkpt lat="53.184803" lon="-2.020874"><ele>388</ele><time>2020-10-07T12:42:36Z</time><name>PT3634</name></trkpt>
<trkpt lat="53.184830" lon="-2.020917"><ele>388</ele><time>2020-10-07T12:42:39Z</time><name>PT3635</name></trkpt>
<trkpt lat="53.184866" lon="-2.020978"><ele>387</ele><time>2020-10-07T12:42:42Z</time><name>PT3636</name></trkpt>
<trkpt lat="53.184896" lon="-2.021052"><ele>387</ele><time>2020-10-07T12:42:46Z</time><name>PT3637</name></trkpt>
<trkpt lat="53.184912" lon="-2.021098"><ele>387</ele><time>2020-10-07T12:42:49Z</time><name>PT3638</name></trkpt>
<trkpt lat="53.184931" lon="-2.021142"><ele>388</ele><time>2020-10-07T12:42:53Z</time><name>PT3639</name></trkpt>
<trkpt lat="53.184953" lon="-2.021165"><ele>388</ele><time>2020-10-07T12:42:57Z</time><name>PT3640</name></trkpt>
<trkpt lat="53.184973" lon="-2.021232"><ele>389</ele><time>2020-10-07T12:43:00Z</time><name>PT3641</name></trkpt>
<trkpt lat="53.184988" lon="-2.021307"><ele>390</ele><time>2020-10-07T12:43:05Z</time><name>PT3642</name></trkpt>
<trkpt lat="53.184995" lon="-2.021368"><ele>391</ele><time>2020-10-07T12:43:09Z</time><name>PT3643</name></trkpt>
<trkpt lat="53.184975" lon="-2.021430"><ele>390</ele><time>2020-10-07T12:43:12Z</time><name>PT3644</name></trkpt>
<trkpt lat="53.184972" lon="-2.021493"><ele>389</ele><time>2020-10-07T12:43:16Z</time><name>PT3645</name></trkpt>
<trkpt lat="53.184977" lon="-2.021514"><ele>389</ele><time>2020-10-07T12:43:19Z</time><name>PT3646</name></trkpt>
<trkpt lat="53.184989" lon="-2.021514"><ele>389</ele><time>2020-10-07T12:43:22Z</time><name>PT3647</name></trkpt>
<trkpt lat="53.185000" lon="-2.021532"><ele>389</ele><time>2020-10-07T12:43:27Z</time><name>PT3648</name></trkpt>
<trkpt lat="53.184999" lon="-2.021556"><ele>390</ele><time>2020-10-07T12:43:30Z</time><name>PT3649</name></trkpt>
<trkpt lat="53.185005" lon="-2.021579"><ele>390</ele><time>2020-10-07T12:43:33Z</time><name>PT3650</name></trkpt>
<trkpt lat="53.185004" lon="-2.021582"><ele>390</ele><time>2020-10-07T12:43:37Z</time><name>PT3651</name></trkpt>
<trkpt lat="53.185003" lon="-2.021585"><ele>390</ele><time>2020-10-07T12:44:48Z</time><name>PT3652</name></trkpt>
<trkpt lat="53.185010" lon="-2.021589"><ele>390</ele><time>2020-10-07T12:44:51Z</time><name>PT3653</name></trkpt>
<trkpt lat="53.185004" lon="-2.021596"><ele>390</ele><time>2020-10-07T12:45:19Z</time><name>PT3654</name></trkpt>
<trkpt lat="53.185004" lon="-2.021598"><ele>390</ele><time>2020-10-07T12:45:24Z</time><name>PT3655</name></trkpt>
<trkpt lat="53.185001" lon="-2.021599"><ele>390</ele><time>2020-10-07T12:46:16Z</time><name>PT3656</name></trkpt>
<trkpt lat="53.184999" lon="-2.021597"><ele>391</ele><time>2020-10-07T12:46:51Z</time><name>PT3657</name></trkpt>
<trkpt lat="53.185005" lon="-2.021606"><ele>390</ele><time>2020-10-07T12:47:30Z</time><name>PT3658</name></trkpt>
<trkpt lat="53.185007" lon="-2.021616"><ele>390</ele><time>2020-10-07T12:47:35Z</time><name>PT3659</name></trkpt>
<trkpt lat="53.185002" lon="-2.021623"><ele>391</ele><time>2020-10-07T12:48:09Z</time><name>PT3660</name></trkpt>
<trkpt lat="53.184994" lon="-2.021639"><ele>390</ele><time>2020-10-07T12:48:14Z</time><name>PT3661</name></trkpt>
<trkpt lat="53.184992" lon="-2.021639"><ele>390</ele><time>2020-10-07T12:48:17Z</time><name>PT3662</name></trkpt>
<trkpt lat="53.184998" lon="-2.021640"><ele>390</ele><time>2020-10-07T12:48:20Z</time><name>PT3663</name></trkpt>
<trkpt lat="53.185006" lon="-2.021624"><ele>390</ele><time>2020-10-07T12:48:23Z</time><name>PT3664</name></trkpt>
<trkpt lat="53.185017" lon="-2.021654"><ele>389</ele><time>2020-10-07T12:48:27Z</time><name>PT3665</name></trkpt>
<trkpt lat="53.185024" lon="-2.021672"><ele>387</ele><time>2020-10-07T12:48:32Z</time><name>PT3666</name></trkpt>
<trkpt lat="53.185025" lon="-2.021667"><ele>387</ele><time>2020-10-07T12:48:35Z</time><name>PT3667</name></trkpt>
<trkpt lat="53.185018" lon="-2.021660"><ele>387</ele><time>2020-10-07T12:48:38Z</time><name>PT3668</name></trkpt>
<trkpt lat="53.185003" lon="-2.021667"><ele>387</ele><time>2020-10-07T12:48:41Z</time><name>PT3669</name></trkpt>
<trkpt lat="53.185004" lon="-2.021656"><ele>386</ele><time>2020-10-07T12:48:46Z</time><name>PT3670</name></trkpt>
<trkpt lat="53.184998" lon="-2.021644"><ele>386</ele><time>2020-10-07T12:48:50Z</time><name>PT3671</name></trkpt>
<trkpt lat="53.184997" lon="-2.021623"><ele>385</ele><time>2020-10-07T12:48:53Z</time><name>PT3672</name></trkpt>
<trkpt lat="53.185005" lon="-2.021618"><ele>386</ele><time>2020-10-07T12:48:56Z</time><name>PT3673</name></trkpt>
<trkpt lat="53.185000" lon="-2.021625"><ele>387</ele><time>2020-10-07T12:49:14Z</time><name>PT3674</name></trkpt>
<trkpt lat="53.185005" lon="-2.021638"><ele>389</ele><time>2020-10-07T12:49:17Z</time><name>PT3675</name></trkpt>
<trkpt lat="53.185005" lon="-2.021628"><ele>390</ele><time>2020-10-07T12:49:22Z</time><name>PT3676</name></trkpt>
<trkpt lat="53.185000" lon="-2.021624"><ele>389</ele><time>2020-10-07T12:49:26Z</time><name>PT3677</name></trkpt>
<trkpt lat="53.185010" lon="-2.021624"><ele>390</ele><time>2020-10-07T12:49:29Z</time><name>PT3678</name></trkpt>
<trkpt lat="53.185010" lon="-2.021632"><ele>390</ele><time>2020-10-07T12:49:32Z</time><name>PT3679</name></trkpt>
<trkpt lat="53.185012" lon="-2.021623"><ele>391</ele><time>2020-10-07T12:54:44Z</time><name>PT3680</name></trkpt>
<trkpt lat="53.185016" lon="-2.021630"><ele>391</ele><time>2020-10-07T12:54:47Z</time><name>PT3681</name></trkpt>
<trkpt lat="53.185012" lon="-2.021625"><ele>391</ele><time>2020-10-07T12:55:05Z</time><name>PT3682</name></trkpt>
<trkpt lat="53.185008" lon="-2.021623"><ele>392</ele><time>2020-10-07T12:55:08Z</time><name>PT3683</name></trkpt>
<trkpt lat="53.184999" lon="-2.021628"><ele>393</ele><time>2020-10-07T12:55:14Z</time><name>PT3684</name></trkpt>
<trkpt lat="53.184998" lon="-2.021628"><ele>393</ele><time>2020-10-07T12:55:17Z</time><name>PT3685</name></trkpt>
<trkpt lat="53.185017" lon="-2.021599"><ele>395</ele><time>2020-10-07T12:55:33Z</time><name>PT3686</name></trkpt>
<trkpt lat="53.185016" lon="-2.021603"><ele>395</ele><time>2020-10-07T12:55:38Z</time><name>PT3687</name></trkpt>
<trkpt lat="53.185016" lon="-2.021593"><ele>396</ele><time>2020-10-07T12:55:41Z</time><name>PT3688</name></trkpt>
<trkpt lat="53.185015" lon="-2.021592"><ele>395</ele><time>2020-10-07T12:55:44Z</time><name>PT3689</name></trkpt>
<trkpt lat="53.185018" lon="-2.021569"><ele>394</ele><time>2020-10-07T12:55:48Z</time><name>PT3690</name></trkpt>
<trkpt lat="53.185018" lon="-2.021579"><ele>394</ele><time>2020-10-07T12:56:23Z</time><name>PT3691</name></trkpt>
<trkpt lat="53.185030" lon="-2.021577"><ele>395</ele><time>2020-10-07T12:56:26Z</time><name>PT3692</name></trkpt>
<trkpt lat="53.185046" lon="-2.021595"><ele>397</ele><time>2020-10-07T12:56:29Z</time><name>PT3693</name></trkpt>
<trkpt lat="53.185050" lon="-2.021618"><ele>400</ele><time>2020-10-07T12:56:32Z</time><name>PT3694</name></trkpt>
<trkpt lat="53.185077" lon="-2.021679"><ele>403</ele><time>2020-10-07T12:56:35Z</time><name>PT3695</name></trkpt>
<trkpt lat="53.185068" lon="-2.021687"><ele>405</ele><time>2020-10-07T12:56:39Z</time><name>PT3696</name></trkpt>
<trkpt lat="53.184990" lon="-2.021614"><ele>398</ele><time>2020-10-07T12:56:42Z</time><name>PT3697</name></trkpt>
<trkpt lat="53.184998" lon="-2.021614"><ele>397</ele><time>2020-10-07T12:56:45Z</time><name>PT3698</name></trkpt>
<trkpt lat="53.185014" lon="-2.021600"><ele>396</ele><time>2020-10-07T12:56:50Z</time><name>PT3699</name></trkpt>
<trkpt lat="53.185013" lon="-2.021600"><ele>396</ele><time>2020-10-07T12:58:05Z</time><name>PT3700</name></trkpt>
<trkpt lat="53.185014" lon="-2.021607"><ele>396</ele><time>2020-10-07T12:58:06Z</time><name>PT3701</name></trkpt>
<trkpt lat="53.185013" lon="-2.021607"><ele>396</ele><time>2020-10-07T12:58:08Z</time><name>PT3702</name></trkpt>
<trkpt lat="53.185012" lon="-2.021602"><ele>396</ele><time>2020-10-07T12:58:10Z</time><name>PT3703</name></trkpt>
<trkpt lat="53.185012" lon="-2.021603"><ele>397</ele><time>2020-10-07T12:58:11Z</time><name>PT3704</name></trkpt>
<trkpt lat="53.185015" lon="-2.021600"><ele>396</ele><time>2020-10-07T12:58:11Z</time><name>PT3705</name></trkpt>
<trkpt lat="53.185017" lon="-2.021605"><ele>396</ele><time>2020-10-07T12:58:12Z</time><name>PT3706</name></trkpt>
<trkpt lat="53.185018" lon="-2.021614"><ele>395</ele><time>2020-10-07T12:58:14Z</time><name>PT3707</name></trkpt>
<trkpt lat="53.185021" lon="-2.021617"><ele>395</ele><time>2020-10-07T12:58:14Z</time><name>PT3708</name></trkpt>
<trkpt lat="53.185025" lon="-2.021625"><ele>395</ele><time>2020-10-07T12:58:15Z</time><name>PT3709</name></trkpt>
<trkpt lat="53.185029" lon="-2.021626"><ele>394</ele><time>2020-10-07T12:58:17Z</time><name>PT3710</name></trkpt>
<trkpt lat="53.185032" lon="-2.021633"><ele>393</ele><time>2020-10-07T12:58:17Z</time><name>PT3711</name></trkpt>
<trkpt lat="53.185034" lon="-2.021649"><ele>392</ele><time>2020-10-07T12:58:18Z</time><name>PT3712</name></trkpt>
<trkpt lat="53.185036" lon="-2.021653"><ele>392</ele><time>2020-10-07T12:58:20Z</time><name>PT3713</name></trkpt>
<trkpt lat="53.185034" lon="-2.021660"><ele>392</ele><time>2020-10-07T12:58:20Z</time><name>PT3714</name></trkpt>
<trkpt lat="53.185034" lon="-2.021650"><ele>392</ele><time>2020-10-07T12:58:21Z</time><name>PT3715</name></trkpt>
<trkpt lat="53.185034" lon="-2.021653"><ele>391</ele><time>2020-10-07T12:58:23Z</time><name>PT3716</name></trkpt>
<trkpt lat="53.185034" lon="-2.021662"><ele>390</ele><time>2020-10-07T12:58:23Z</time><name>PT3717</name></trkpt>
<trkpt lat="53.185040" lon="-2.021692"><ele>390</ele><time>2020-10-07T12:58:24Z</time><name>PT3718</name></trkpt>
<trkpt lat="53.185038" lon="-2.021667"><ele>391</ele><time>2020-10-07T12:58:26Z</time><name>PT3719</name></trkpt>
<trkpt lat="53.185037" lon="-2.021664"><ele>391</ele><time>2020-10-07T12:58:26Z</time><name>PT3720</name></trkpt>
<trkpt lat="53.185036" lon="-2.021659"><ele>391</ele><time>2020-10-07T12:58:27Z</time><name>PT3721</name></trkpt>
<trkpt lat="53.185035" lon="-2.021654"><ele>391</ele><time>2020-10-07T12:58:32Z</time><name>PT3722</name></trkpt>
<trkpt lat="53.185033" lon="-2.021651"><ele>391</ele><time>2020-10-07T12:58:32Z</time><name>PT3723</name></trkpt>
<trkpt lat="53.185031" lon="-2.021649"><ele>391</ele><time>2020-10-07T12:58:33Z</time><name>PT3724</name></trkpt>
<trkpt lat="53.185029" lon="-2.021650"><ele>391</ele><time>2020-10-07T12:58:35Z</time><name>PT3725</name></trkpt>
<trkpt lat="53.185027" lon="-2.021651"><ele>390</ele><time>2020-10-07T12:58:35Z</time><name>PT3726</name></trkpt>
<trkpt lat="53.185026" lon="-2.021652"><ele>390</ele><time>2020-10-07T12:58:36Z</time><name>PT3727</name></trkpt>
<trkpt lat="53.185018" lon="-2.021639"><ele>391</ele><time>2020-10-07T12:58:41Z</time><name>PT3728</name></trkpt>
<trkpt lat="53.185016" lon="-2.021644"><ele>391</ele><time>2020-10-07T12:58:43Z</time><name>PT3729</name></trkpt>
<trkpt lat="53.185011" lon="-2.021639"><ele>391</ele><time>2020-10-07T12:58:44Z</time><name>PT3730</name></trkpt>
<trkpt lat="53.185014" lon="-2.021627"><ele>392</ele><time>2020-10-07T12:59:05Z</time><name>PT3731</name></trkpt>
<trkpt lat="53.185018" lon="-2.021611"><ele>393</ele><time>2020-10-07T12:59:05Z</time><name>PT3732</name></trkpt>
<trkpt lat="53.185020" lon="-2.021615"><ele>393</ele><time>2020-10-07T12:59:06Z</time><name>PT3733</name></trkpt>
<trkpt lat="53.185020" lon="-2.021612"><ele>393</ele><time>2020-10-07T12:59:08Z</time><name>PT3734</name></trkpt>
<trkpt lat="53.185022" lon="-2.021608"><ele>393</ele><time>2020-10-07T12:59:08Z</time><name>PT3735</name></trkpt>
<trkpt lat="53.185021" lon="-2.021606"><ele>394</ele><time>2020-10-07T12:59:09Z</time><name>PT3736</name></trkpt>
<trkpt lat="53.185024" lon="-2.021608"><ele>394</ele><time>2020-10-07T12:59:11Z</time><name>PT3737</name></trkpt>
<trkpt lat="53.185032" lon="-2.021605"><ele>394</ele><time>2020-10-07T12:59:11Z</time><name>PT3738</name></trkpt>
<trkpt lat="53.185040" lon="-2.021612"><ele>394</ele><time>2020-10-07T12:59:12Z</time><name>PT3739</name></trkpt>
<trkpt lat="53.185045" lon="-2.021625"><ele>394</ele><time>2020-10-07T12:59:14Z</time><name>PT3740</name></trkpt>
<trkpt lat="53.185051" lon="-2.021636"><ele>394</ele><time>2020-10-07T12:59:14Z</time><name>PT3741</name></trkpt>
<trkpt lat="53.185054" lon="-2.021649"><ele>394</ele><time>2020-10-07T12:59:15Z</time><name>PT3742</name></trkpt>
<trkpt lat="53.185060" lon="-2.021662"><ele>394</ele><time>2020-10-07T12:59:17Z</time><name>PT3743</name></trkpt>
<trkpt lat="53.185066" lon="-2.021678"><ele>394</ele><time>2020-10-07T12:59:17Z</time><name>PT3744</name></trkpt>
<trkpt lat="53.185070" lon="-2.021689"><ele>394</ele><time>2020-10-07T12:59:18Z</time><name>PT3745</name></trkpt>
<trkpt lat="53.185075" lon="-2.021694"><ele>394</ele><time>2020-10-07T12:59:20Z</time><name>PT3746</name></trkpt>
<trkpt lat="53.185082" lon="-2.021699"><ele>394</ele><time>2020-10-07T12:59:20Z</time><name>PT3747</name></trkpt>
<trkpt lat="53.185087" lon="-2.021708"><ele>395</ele><time>2020-10-07T12:59:21Z</time><name>PT3748</name></trkpt>
<trkpt lat="53.185092" lon="-2.021719"><ele>395</ele><time>2020-10-07T12:59:23Z</time><name>PT3749</name></trkpt>
<trkpt lat="53.185098" lon="-2.021734"><ele>395</ele><time>2020-10-07T12:59:23Z</time><name>PT3750</name></trkpt>
<trkpt lat="53.185105" lon="-2.021753"><ele>395</ele><time>2020-10-07T12:59:24Z</time><name>PT3751</name></trkpt>
<trkpt lat="53.185112" lon="-2.021767"><ele>395</ele><time>2020-10-07T12:59:26Z</time><name>PT3752</name></trkpt>
<trkpt lat="53.185119" lon="-2.021782"><ele>395</ele><time>2020-10-07T12:59:26Z</time><name>PT3753</name></trkpt>
<trkpt lat="53.185129" lon="-2.021799"><ele>396</ele><time>2020-10-07T12:59:27Z</time><name>PT3754</name></trkpt>
<trkpt lat="53.185138" lon="-2.021814"><ele>396</ele><time>2020-10-07T12:59:29Z</time><name>PT3755</name></trkpt>
<trkpt lat="53.185146" lon="-2.021832"><ele>396</ele><time>2020-10-07T12:59:29Z</time><name>PT3756</name></trkpt>
<trkpt lat="53.185154" lon="-2.021852"><ele>396</ele><time>2020-10-07T12:59:30Z</time><name>PT3757</name></trkpt>
<trkpt lat="53.185163" lon="-2.021870"><ele>395</ele><time>2020-10-07T12:59:32Z</time><name>PT3758</name></trkpt>
<trkpt lat="53.185172" lon="-2.021888"><ele>396</ele><time>2020-10-07T12:59:32Z</time><name>PT3759</name></trkpt>
<trkpt lat="53.185180" lon="-2.021902"><ele>395</ele><time>2020-10-07T12:59:33Z</time><name>PT3760</name></trkpt>
<trkpt lat="53.185190" lon="-2.021918"><ele>395</ele><time>2020-10-07T12:59:35Z</time><name>PT3761</name></trkpt>
<trkpt lat="53.185198" lon="-2.021935"><ele>395</ele><time>2020-10-07T12:59:35Z</time><name>PT3762</name></trkpt>
<trkpt lat="53.185204" lon="-2.021950"><ele>395</ele><time>2020-10-07T12:59:37Z</time><name>PT3763</name></trkpt>
<trkpt lat="53.185211" lon="-2.021960"><ele>395</ele><time>2020-10-07T12:59:38Z</time><name>PT3764</name></trkpt>
<trkpt lat="53.185220" lon="-2.021967"><ele>394</ele><time>2020-10-07T12:59:38Z</time><name>PT3765</name></trkpt>
<trkpt lat="53.185232" lon="-2.021972"><ele>394</ele><time>2020-10-07T12:59:40Z</time><name>PT3766</name></trkpt>
<trkpt lat="53.185245" lon="-2.021979"><ele>394</ele><time>2020-10-07T12:59:41Z</time><name>PT3767</name></trkpt>
<trkpt lat="53.185256" lon="-2.021989"><ele>394</ele><time>2020-10-07T12:59:41Z</time><name>PT3768</name></trkpt>
<trkpt lat="53.185265" lon="-2.022006"><ele>394</ele><time>2020-10-07T12:59:42Z</time><name>PT3769</name></trkpt>
<trkpt lat="53.185277" lon="-2.022027"><ele>394</ele><time>2020-10-07T12:59:44Z</time><name>PT3770</name></trkpt>
<trkpt lat="53.185284" lon="-2.022047"><ele>394</ele><time>2020-10-07T12:59:44Z</time><name>PT3771</name></trkpt>
<trkpt lat="53.185287" lon="-2.022066"><ele>394</ele><time>2020-10-07T12:59:45Z</time><name>PT3772</name></trkpt>
<trkpt lat="53.185293" lon="-2.022084"><ele>394</ele><time>2020-10-07T12:59:47Z</time><name>PT3773</name></trkpt>
<trkpt lat="53.185299" lon="-2.022104"><ele>394</ele><time>2020-10-07T12:59:47Z</time><name>PT3774</name></trkpt>
<trkpt lat="53.185307" lon="-2.022124"><ele>393</ele><time>2020-10-07T12:59:48Z</time><name>PT3775</name></trkpt>
<trkpt lat="53.185314" lon="-2.022142"><ele>393</ele><time>2020-10-07T12:59:50Z</time><name>PT3776</name></trkpt>
<trkpt lat="53.185322" lon="-2.022163"><ele>393</ele><time>2020-10-07T12:59:50Z</time><name>PT3777</name></trkpt>
<trkpt lat="53.185327" lon="-2.022180"><ele>393</ele><time>2020-10-07T12:59:51Z</time><name>PT3778</name></trkpt>
<trkpt lat="53.185334" lon="-2.022196"><ele>393</ele><time>2020-10-07T12:59:53Z</time><name>PT3779</name></trkpt>
<trkpt lat="53.185343" lon="-2.022215"><ele>393</ele><time>2020-10-07T12:59:53Z</time><name>PT3780</name></trkpt>
<trkpt lat="53.185351" lon="-2.022232"><ele>393</ele><time>2020-10-07T12:59:54Z</time><name>PT3781</name></trkpt>
<trkpt lat="53.185360" lon="-2.022250"><ele>393</ele><time>2020-10-07T12:59:56Z</time><name>PT3782</name></trkpt>
<trkpt lat="53.185369" lon="-2.022268"><ele>393</ele><time>2020-10-07T12:59:56Z</time><name>PT3783</name></trkpt>
<trkpt lat="53.185380" lon="-2.022284"><ele>393</ele><time>2020-10-07T12:59:57Z</time><name>PT3784</name></trkpt>
<trkpt lat="53.185391" lon="-2.022298"><ele>393</ele><time>2020-10-07T12:59:59Z</time><name>PT3785</name></trkpt>
<trkpt lat="53.185401" lon="-2.022312"><ele>393</ele><time>2020-10-07T12:59:59Z</time><name>PT3786</name></trkpt>
<trkpt lat="53.185409" lon="-2.022327"><ele>393</ele><time>2020-10-07T13:00:00Z</time><name>PT3787</name></trkpt>
<trkpt lat="53.185417" lon="-2.022343"><ele>393</ele><time>2020-10-07T13:00:02Z</time><name>PT3788</name></trkpt>
<trkpt lat="53.185424" lon="-2.022362"><ele>394</ele><time>2020-10-07T13:00:02Z</time><name>PT3789</name></trkpt>
<trkpt lat="53.185430" lon="-2.022378"><ele>394</ele><time>2020-10-07T13:00:03Z</time><name>PT3790</name></trkpt>
<trkpt lat="53.185439" lon="-2.022390"><ele>394</ele><time>2020-10-07T13:00:05Z</time><name>PT3791</name></trkpt>
<trkpt lat="53.185449" lon="-2.022401"><ele>394</ele><time>2020-10-07T13:00:05Z</time><name>PT3792</name></trkpt>
<trkpt lat="53.185458" lon="-2.022414"><ele>394</ele><time>2020-10-07T13:00:06Z</time><name>PT3793</name></trkpt>
<trkpt lat="53.185467" lon="-2.022432"><ele>394</ele><time>2020-10-07T13:00:08Z</time><name>PT3794</name></trkpt>
<trkpt lat="53.185476" lon="-2.022450"><ele>394</ele><time>2020-10-07T13:00:08Z</time><name>PT3795</name></trkpt>
<trkpt lat="53.185485" lon="-2.022466"><ele>394</ele><time>2020-10-07T13:00:09Z</time><name>PT3796</name></trkpt>
<trkpt lat="53.185495" lon="-2.022480"><ele>394</ele><time>2020-10-07T13:00:11Z</time><name>PT3797</name></trkpt>
<trkpt lat="53.185506" lon="-2.022496"><ele>393</ele><time>2020-10-07T13:00:11Z</time><name>PT3798</name></trkpt>
<trkpt lat="53.185518" lon="-2.022511"><ele>393</ele><time>2020-10-07T13:00:12Z</time><name>PT3799</name></trkpt>
<trkpt lat="53.185529" lon="-2.022523"><ele>393</ele><time>2020-10-07T13:00:13Z</time><name>PT3800</name></trkpt>
<trkpt lat="53.185541" lon="-2.022536"><ele>393</ele><time>2020-10-07T13:00:14Z</time><name>PT3801</name></trkpt>
<trkpt lat="53.185552" lon="-2.022548"><ele>393</ele><time>2020-10-07T13:00:16Z</time><name>PT3802</name></trkpt>
<trkpt lat="53.185563" lon="-2.022561"><ele>393</ele><time>2020-10-07T13:00:16Z</time><name>PT3803</name></trkpt>
<trkpt lat="53.185573" lon="-2.022574"><ele>393</ele><time>2020-10-07T13:00:17Z</time><name>PT3804</name></trkpt>
<trkpt lat="53.185582" lon="-2.022587"><ele>394</ele><time>2020-10-07T13:00:19Z</time><name>PT3805</name></trkpt>
<trkpt lat="53.185592" lon="-2.022597"><ele>394</ele><time>2020-10-07T13:00:19Z</time><name>PT3806</name></trkpt>
<trkpt lat="53.185602" lon="-2.022604"><ele>394</ele><time>2020-10-07T13:00:20Z</time><name>PT3807</name></trkpt>
<trkpt lat="53.185616" lon="-2.022609"><ele>394</ele><time>2020-10-07T13:00:22Z</time><name>PT3808</name></trkpt>
<trkpt lat="53.185627" lon="-2.022617"><ele>394</ele><time>2020-10-07T13:00:22Z</time><name>PT3809</name></trkpt>
<trkpt lat="53.185637" lon="-2.022629"><ele>394</ele><time>2020-10-07T13:00:23Z</time><name>PT3810</name></trkpt>
<trkpt lat="53.185650" lon="-2.022643"><ele>394</ele><time>2020-10-07T13:00:25Z</time><name>PT3811</name></trkpt>
<trkpt lat="53.185662" lon="-2.022655"><ele>394</ele><time>2020-10-07T13:00:25Z</time><name>PT3812</name></trkpt>
<trkpt lat="53.185672" lon="-2.022669"><ele>394</ele><time>2020-10-07T13:00:26Z</time><name>PT3813</name></trkpt>
<trkpt lat="53.185681" lon="-2.022687"><ele>394</ele><time>2020-10-07T13:00:28Z</time><name>PT3814</name></trkpt>
<trkpt lat="53.185691" lon="-2.022705"><ele>394</ele><time>2020-10-07T13:00:28Z</time><name>PT3815</name></trkpt>
<trkpt lat="53.185700" lon="-2.022721"><ele>394</ele><time>2020-10-07T13:00:29Z</time><name>PT3816</name></trkpt>
<trkpt lat="53.185709" lon="-2.022733"><ele>394</ele><time>2020-10-07T13:00:31Z</time><name>PT3817</name></trkpt>
<trkpt lat="53.185719" lon="-2.022744"><ele>394</ele><time>2020-10-07T13:00:31Z</time><name>PT3818</name></trkpt>
<trkpt lat="53.185730" lon="-2.022756"><ele>394</ele><time>2020-10-07T13:00:32Z</time><name>PT3819</name></trkpt>
<trkpt lat="53.185739" lon="-2.022768"><ele>394</ele><time>2020-10-07T13:00:34Z</time><name>PT3820</name></trkpt>
<trkpt lat="53.185747" lon="-2.022784"><ele>394</ele><time>2020-10-07T13:00:34Z</time><name>PT3821</name></trkpt>
<trkpt lat="53.185758" lon="-2.022799"><ele>394</ele><time>2020-10-07T13:00:35Z</time><name>PT3822</name></trkpt>
<trkpt lat="53.185766" lon="-2.022815"><ele>394</ele><time>2020-10-07T13:00:37Z</time><name>PT3823</name></trkpt>
<trkpt lat="53.185772" lon="-2.022832"><ele>395</ele><time>2020-10-07T13:00:37Z</time><name>PT3824</name></trkpt>
<trkpt lat="53.185778" lon="-2.022852"><ele>394</ele><time>2020-10-07T13:00:38Z</time><name>PT3825</name></trkpt>
<trkpt lat="53.185784" lon="-2.022868"><ele>394</ele><time>2020-10-07T13:00:40Z</time><name>PT3826</name></trkpt>
<trkpt lat="53.185791" lon="-2.022884"><ele>394</ele><time>2020-10-07T13:00:40Z</time><name>PT3827</name></trkpt>
<trkpt lat="53.185800" lon="-2.022901"><ele>394</ele><time>2020-10-07T13:00:41Z</time><name>PT3828</name></trkpt>
<trkpt lat="53.185807" lon="-2.022920"><ele>394</ele><time>2020-10-07T13:00:43Z</time><name>PT3829</name></trkpt>
<trkpt lat="53.185815" lon="-2.022938"><ele>394</ele><time>2020-10-07T13:00:43Z</time><name>PT3830</name></trkpt>
<trkpt lat="53.185844" lon="-2.022973"><ele>395</ele><time>2020-10-07T13:00:46Z</time><name>PT3831</name></trkpt>
<trkpt lat="53.185881" lon="-2.023031"><ele>395</ele><time>2020-10-07T13:00:50Z</time><name>PT3832</name></trkpt>
<trkpt lat="53.185913" lon="-2.023100"><ele>395</ele><time>2020-10-07T13:00:55Z</time><name>PT3833</name></trkpt>
<trkpt lat="53.185946" lon="-2.023145"><ele>396</ele><time>2020-10-07T13:00:58Z</time><name>PT3834</name></trkpt>
<trkpt lat="53.185994" lon="-2.023198"><ele>396</ele><time>2020-10-07T13:01:01Z</time><name>PT3835</name></trkpt>
<trkpt lat="53.186023" lon="-2.023268"><ele>395</ele><time>2020-10-07T13:01:05Z</time><name>PT3836</name></trkpt>
<trkpt lat="53.186045" lon="-2.023323"><ele>394</ele><time>2020-10-07T13:01:09Z</time><name>PT3837</name></trkpt>
<trkpt lat="53.186075" lon="-2.023393"><ele>393</ele><time>2020-10-07T13:01:13Z</time><name>PT3838</name></trkpt>
<trkpt lat="53.186113" lon="-2.023459"><ele>392</ele><time>2020-10-07T13:01:16Z</time><name>PT3839</name></trkpt>
<trkpt lat="53.186150" lon="-2.023521"><ele>392</ele><time>2020-10-07T13:01:20Z</time><name>PT3840</name></trkpt>
<trkpt lat="53.186175" lon="-2.023577"><ele>392</ele><time>2020-10-07T13:01:23Z</time><name>PT3841</name></trkpt>
<trkpt lat="53.186200" lon="-2.023649"><ele>392</ele><time>2020-10-07T13:01:28Z</time><name>PT3842</name></trkpt>
<trkpt lat="53.186231" lon="-2.023702"><ele>391</ele><time>2020-10-07T13:01:31Z</time><name>PT3843</name></trkpt>
<trkpt lat="53.186261" lon="-2.023748"><ele>391</ele><time>2020-10-07T13:01:34Z</time><name>PT3844</name></trkpt>
<trkpt lat="53.186302" lon="-2.023802"><ele>391</ele><time>2020-10-07T13:01:37Z</time><name>PT3845</name></trkpt>
<trkpt lat="53.186332" lon="-2.023858"><ele>391</ele><time>2020-10-07T13:01:40Z</time><name>PT3846</name></trkpt>
<trkpt lat="53.186363" lon="-2.023933"><ele>390</ele><time>2020-10-07T13:01:44Z</time><name>PT3847</name></trkpt>
<trkpt lat="53.186377" lon="-2.024013"><ele>389</ele><time>2020-10-07T13:01:49Z</time><name>PT3848</name></trkpt>
<trkpt lat="53.186400" lon="-2.024073"><ele>389</ele><time>2020-10-07T13:01:52Z</time><name>PT3849</name></trkpt>
<trkpt lat="53.186424" lon="-2.024131"><ele>389</ele><time>2020-10-07T13:01:55Z</time><name>PT3850</name></trkpt>
<trkpt lat="53.186443" lon="-2.024210"><ele>388</ele><time>2020-10-07T13:01:58Z</time><name>PT3851</name></trkpt>
<trkpt lat="53.186463" lon="-2.024283"><ele>388</ele><time>2020-10-07T13:02:02Z</time><name>PT3852</name></trkpt>
<trkpt lat="53.186472" lon="-2.024357"><ele>387</ele><time>2020-10-07T13:02:07Z</time><name>PT3853</name></trkpt>
<trkpt lat="53.186476" lon="-2.024406"><ele>386</ele><time>2020-10-07T13:02:10Z</time><name>PT3854</name></trkpt>
<trkpt lat="53.186484" lon="-2.024448"><ele>386</ele><time>2020-10-07T13:02:13Z</time><name>PT3855</name></trkpt>
<trkpt lat="53.186485" lon="-2.024451"><ele>386</ele><time>2020-10-07T13:02:16Z</time><name>PT3856</name></trkpt>
<trkpt lat="53.186492" lon="-2.024490"><ele>386</ele><time>2020-10-07T13:02:20Z</time><name>PT3857</name></trkpt>
<trkpt lat="53.186501" lon="-2.024590"><ele>385</ele><time>2020-10-07T13:02:25Z</time><name>PT3858</name></trkpt>
<trkpt lat="53.186513" lon="-2.024678"><ele>384</ele><time>2020-10-07T13:02:28Z</time><name>PT3859</name></trkpt>
<trkpt lat="53.186522" lon="-2.024735"><ele>384</ele><time>2020-10-07T13:02:31Z</time><name>PT3860</name></trkpt>
<trkpt lat="53.186525" lon="-2.024832"><ele>384</ele><time>2020-10-07T13:02:35Z</time><name>PT3861</name></trkpt>
<trkpt lat="53.186519" lon="-2.024910"><ele>383</ele><time>2020-10-07T13:02:40Z</time><name>PT3862</name></trkpt>
<trkpt lat="53.186529" lon="-2.024971"><ele>383</ele><time>2020-10-07T13:02:43Z</time><name>PT3863</name></trkpt>
<trkpt lat="53.186546" lon="-2.025055"><ele>382</ele><time>2020-10-07T13:02:46Z</time><name>PT3864</name></trkpt>
<trkpt lat="53.186554" lon="-2.025131"><ele>381</ele><time>2020-10-07T13:02:50Z</time><name>PT3865</name></trkpt>
<trkpt lat="53.186572" lon="-2.025194"><ele>380</ele><time>2020-10-07T13:02:53Z</time><name>PT3866</name></trkpt>
<trkpt lat="53.186585" lon="-2.025257"><ele>380</ele><time>2020-10-07T13:02:57Z</time><name>PT3867</name></trkpt>
<trkpt lat="53.186591" lon="-2.025344"><ele>378</ele><time>2020-10-07T13:03:01Z</time><name>PT3868</name></trkpt>
<trkpt lat="53.186599" lon="-2.025417"><ele>377</ele><time>2020-10-07T13:03:04Z</time><name>PT3869</name></trkpt>
<trkpt lat="53.186603" lon="-2.025501"><ele>376</ele><time>2020-10-07T13:03:07Z</time><name>PT3870</name></trkpt>
<trkpt lat="53.186609" lon="-2.025562"><ele>376</ele><time>2020-10-07T13:03:10Z</time><name>PT3871</name></trkpt>
<trkpt lat="53.186613" lon="-2.025627"><ele>375</ele><time>2020-10-07T13:03:13Z</time><name>PT3872</name></trkpt>
<trkpt lat="53.186632" lon="-2.025709"><ele>375</ele><time>2020-10-07T13:03:17Z</time><name>PT3873</name></trkpt>
<trkpt lat="53.186646" lon="-2.025762"><ele>375</ele><time>2020-10-07T13:03:20Z</time><name>PT3874</name></trkpt>
<trkpt lat="53.186650" lon="-2.025807"><ele>374</ele><time>2020-10-07T13:03:23Z</time><name>PT3875</name></trkpt>
<trkpt lat="53.186662" lon="-2.025853"><ele>374</ele><time>2020-10-07T13:03:26Z</time><name>PT3876</name></trkpt>
<trkpt lat="53.186675" lon="-2.025940"><ele>374</ele><time>2020-10-07T13:03:31Z</time><name>PT3877</name></trkpt>
<trkpt lat="53.186686" lon="-2.026005"><ele>374</ele><time>2020-10-07T13:03:34Z</time><name>PT3878</name></trkpt>
<trkpt lat="53.186706" lon="-2.026082"><ele>374</ele><time>2020-10-07T13:03:37Z</time><name>PT3879</name></trkpt>
<trkpt lat="53.186730" lon="-2.026152"><ele>374</ele><time>2020-10-07T13:03:41Z</time><name>PT3880</name></trkpt>
<trkpt lat="53.186744" lon="-2.026229"><ele>374</ele><time>2020-10-07T13:03:46Z</time><name>PT3881</name></trkpt>
<trkpt lat="53.186754" lon="-2.026287"><ele>374</ele><time>2020-10-07T13:03:49Z</time><name>PT3882</name></trkpt>
<trkpt lat="53.186764" lon="-2.026366"><ele>374</ele><time>2020-10-07T13:03:52Z</time><name>PT3883</name></trkpt>
<trkpt lat="53.186769" lon="-2.026426"><ele>374</ele><time>2020-10-07T13:03:55Z</time><name>PT3884</name></trkpt>
<trkpt lat="53.186767" lon="-2.026511"><ele>372</ele><time>2020-10-07T13:03:59Z</time><name>PT3885</name></trkpt>
<trkpt lat="53.186778" lon="-2.026573"><ele>372</ele><time>2020-10-07T13:04:02Z</time><name>PT3886</name></trkpt>
<trkpt lat="53.186791" lon="-2.026615"><ele>372</ele><time>2020-10-07T13:04:06Z</time><name>PT3887</name></trkpt>
<trkpt lat="53.186799" lon="-2.026678"><ele>371</ele><time>2020-10-07T13:04:10Z</time><name>PT3888</name></trkpt>
<trkpt lat="53.186823" lon="-2.026756"><ele>370</ele><time>2020-10-07T13:04:13Z</time><name>PT3889</name></trkpt>
<trkpt lat="53.186811" lon="-2.026828"><ele>370</ele><time>2020-10-07T13:04:18Z</time><name>PT3890</name></trkpt>
<trkpt lat="53.186813" lon="-2.026889"><ele>371</ele><time>2020-10-07T13:04:22Z</time><name>PT3891</name></trkpt>
<trkpt lat="53.186817" lon="-2.026946"><ele>370</ele><time>2020-10-07T13:04:25Z</time><name>PT3892</name></trkpt>
<trkpt lat="53.186820" lon="-2.027018"><ele>371</ele><time>2020-10-07T13:04:28Z</time><name>PT3893</name></trkpt>
<trkpt lat="53.186824" lon="-2.027072"><ele>372</ele><time>2020-10-07T13:04:31Z</time><name>PT3894</name></trkpt>
<trkpt lat="53.186825" lon="-2.027138"><ele>372</ele><time>2020-10-07T13:04:34Z</time><name>PT3895</name></trkpt>
<trkpt lat="53.186811" lon="-2.027201"><ele>373</ele><time>2020-10-07T13:04:38Z</time><name>PT3896</name></trkpt>
<trkpt lat="53.186800" lon="-2.027244"><ele>373</ele><time>2020-10-07T13:04:41Z</time><name>PT3897</name></trkpt>
<trkpt lat="53.186783" lon="-2.027304"><ele>374</ele><time>2020-10-07T13:04:46Z</time><name>PT3898</name></trkpt>
<trkpt lat="53.186777" lon="-2.027378"><ele>374</ele><time>2020-10-07T13:04:49Z</time><name>PT3899</name></trkpt>
<trkpt lat="53.186773" lon="-2.027458"><ele>374</ele><time>2020-10-07T13:04:53Z</time><name>PT3900</name></trkpt>
<trkpt lat="53.186777" lon="-2.027514"><ele>374</ele><time>2020-10-07T13:04:56Z</time><name>PT3901</name></trkpt>
<trkpt lat="53.186794" lon="-2.027582"><ele>373</ele><time>2020-10-07T13:05:01Z</time><name>PT3902</name></trkpt>
<trkpt lat="53.186800" lon="-2.027624"><ele>373</ele><time>2020-10-07T13:05:04Z</time><name>PT3903</name></trkpt>
<trkpt lat="53.186811" lon="-2.027692"><ele>373</ele><time>2020-10-07T13:05:07Z</time><name>PT3904</name></trkpt>
<trkpt lat="53.186809" lon="-2.027746"><ele>372</ele><time>2020-10-07T13:05:10Z</time><name>PT3905</name></trkpt>
<trkpt lat="53.186812" lon="-2.027820"><ele>371</ele><time>2020-10-07T13:05:14Z</time><name>PT3906</name></trkpt>
<trkpt lat="53.186819" lon="-2.027858"><ele>372</ele><time>2020-10-07T13:05:17Z</time><name>PT3907</name></trkpt>
<trkpt lat="53.186820" lon="-2.027903"><ele>371</ele><time>2020-10-07T13:05:21Z</time><name>PT3908</name></trkpt>
<trkpt lat="53.186825" lon="-2.027972"><ele>369</ele><time>2020-10-07T13:05:25Z</time><name>PT3909</name></trkpt>
<trkpt lat="53.186829" lon="-2.028025"><ele>368</ele><time>2020-10-07T13:05:28Z</time><name>PT3910</name></trkpt>
<trkpt lat="53.186843" lon="-2.028107"><ele>367</ele><time>2020-10-07T13:05:31Z</time><name>PT3911</name></trkpt>
<trkpt lat="53.186861" lon="-2.028185"><ele>366</ele><time>2020-10-07T13:05:35Z</time><name>PT3912</name></trkpt>
<trkpt lat="53.186872" lon="-2.028238"><ele>366</ele><time>2020-10-07T13:05:38Z</time><name>PT3913</name></trkpt>
<trkpt lat="53.186895" lon="-2.028308"><ele>365</ele><time>2020-10-07T13:05:43Z</time><name>PT3914</name></trkpt>
<trkpt lat="53.186914" lon="-2.028365"><ele>365</ele><time>2020-10-07T13:05:46Z</time><name>PT3915</name></trkpt>
<trkpt lat="53.186936" lon="-2.028442"><ele>364</ele><time>2020-10-07T13:05:49Z</time><name>PT3916</name></trkpt>
<trkpt lat="53.186945" lon="-2.028530"><ele>364</ele><time>2020-10-07T13:05:53Z</time><name>PT3917</name></trkpt>
<trkpt lat="53.186946" lon="-2.028581"><ele>364</ele><time>2020-10-07T13:05:57Z</time><name>PT3918</name></trkpt>
<trkpt lat="53.186949" lon="-2.028662"><ele>364</ele><time>2020-10-07T13:06:01Z</time><name>PT3919</name></trkpt>
<trkpt lat="53.186943" lon="-2.028706"><ele>365</ele><time>2020-10-07T13:06:04Z</time><name>PT3920</name></trkpt>
<trkpt lat="53.186944" lon="-2.028767"><ele>365</ele><time>2020-10-07T13:06:07Z</time><name>PT3921</name></trkpt>
<trkpt lat="53.186946" lon="-2.028808"><ele>366</ele><time>2020-10-07T13:06:10Z</time><name>PT3922</name></trkpt>
<trkpt lat="53.186948" lon="-2.028866"><ele>367</ele><time>2020-10-07T13:06:14Z</time><name>PT3923</name></trkpt>
<trkpt lat="53.186941" lon="-2.028913"><ele>368</ele><time>2020-10-07T13:06:17Z</time><name>PT3924</name></trkpt>
<trkpt lat="53.186938" lon="-2.028968"><ele>368</ele><time>2020-10-07T13:06:22Z</time><name>PT3925</name></trkpt>
<trkpt lat="53.186920" lon="-2.028996"><ele>369</ele><time>2020-10-07T13:06:25Z</time><name>PT3926</name></trkpt>
<trkpt lat="53.186910" lon="-2.029070"><ele>370</ele><time>2020-10-07T13:06:28Z</time><name>PT3927</name></trkpt>
<trkpt lat="53.186901" lon="-2.029155"><ele>369</ele><time>2020-10-07T13:06:32Z</time><name>PT3928</name></trkpt>
<trkpt lat="53.186892" lon="-2.029219"><ele>370</ele><time>2020-10-07T13:06:35Z</time><name>PT3929</name></trkpt>
<trkpt lat="53.186906" lon="-2.029292"><ele>370</ele><time>2020-10-07T13:06:38Z</time><name>PT3930</name></trkpt>
<trkpt lat="53.186919" lon="-2.029353"><ele>370</ele><time>2020-10-07T13:06:41Z</time><name>PT3931</name></trkpt>
<trkpt lat="53.186933" lon="-2.029418"><ele>370</ele><time>2020-10-07T13:06:44Z</time><name>PT3932</name></trkpt>
<trkpt lat="53.186941" lon="-2.029483"><ele>371</ele><time>2020-10-07T13:06:47Z</time><name>PT3933</name></trkpt>
<trkpt lat="53.186949" lon="-2.029568"><ele>370</ele><time>2020-10-07T13:06:52Z</time><name>PT3934</name></trkpt>
<trkpt lat="53.186947" lon="-2.029647"><ele>370</ele><time>2020-10-07T13:06:55Z</time><name>PT3935</name></trkpt>
<trkpt lat="53.186938" lon="-2.029733"><ele>371</ele><time>2020-10-07T13:06:59Z</time><name>PT3936</name></trkpt>
<trkpt lat="53.186924" lon="-2.029799"><ele>370</ele><time>2020-10-07T13:07:04Z</time><name>PT3937</name></trkpt>
<trkpt lat="53.186918" lon="-2.029856"><ele>371</ele><time>2020-10-07T13:07:07Z</time><name>PT3938</name></trkpt>
<trkpt lat="53.186925" lon="-2.029913"><ele>371</ele><time>2020-10-07T13:07:10Z</time><name>PT3939</name></trkpt>
<trkpt lat="53.186935" lon="-2.029968"><ele>372</ele><time>2020-10-07T13:07:13Z</time><name>PT3940</name></trkpt>
<trkpt lat="53.186946" lon="-2.030018"><ele>372</ele><time>2020-10-07T13:07:16Z</time><name>PT3941</name></trkpt>
<trkpt lat="53.186955" lon="-2.030085"><ele>371</ele><time>2020-10-07T13:07:19Z</time><name>PT3942</name></trkpt>
<trkpt lat="53.186965" lon="-2.030148"><ele>371</ele><time>2020-10-07T13:07:22Z</time><name>PT3943</name></trkpt>
<trkpt lat="53.186975" lon="-2.030207"><ele>371</ele><time>2020-10-07T13:07:25Z</time><name>PT3944</name></trkpt>
<trkpt lat="53.186984" lon="-2.030266"><ele>371</ele><time>2020-10-07T13:07:28Z</time><name>PT3945</name></trkpt>
<trkpt lat="53.186994" lon="-2.030351"><ele>371</ele><time>2020-10-07T13:07:32Z</time><name>PT3946</name></trkpt>
<trkpt lat="53.187005" lon="-2.030436"><ele>369</ele><time>2020-10-07T13:07:37Z</time><name>PT3947</name></trkpt>
<trkpt lat="53.187018" lon="-2.030494"><ele>369</ele><time>2020-10-07T13:07:40Z</time><name>PT3948</name></trkpt>
<trkpt lat="53.187022" lon="-2.030577"><ele>369</ele><time>2020-10-07T13:07:43Z</time><name>PT3949</name></trkpt>
<trkpt lat="53.187012" lon="-2.030653"><ele>368</ele><time>2020-10-07T13:07:47Z</time><name>PT3950</name></trkpt>
<trkpt lat="53.186998" lon="-2.030707"><ele>368</ele><time>2020-10-07T13:07:50Z</time><name>PT3951</name></trkpt>
<trkpt lat="53.186984" lon="-2.030765"><ele>368</ele><time>2020-10-07T13:07:53Z</time><name>PT3952</name></trkpt>
<trkpt lat="53.186976" lon="-2.030842"><ele>367</ele><time>2020-10-07T13:07:58Z</time><name>PT3953</name></trkpt>
<trkpt lat="53.186971" lon="-2.030910"><ele>367</ele><time>2020-10-07T13:08:01Z</time><name>PT3954</name></trkpt>
<trkpt lat="53.186960" lon="-2.030985"><ele>368</ele><time>2020-10-07T13:08:04Z</time><name>PT3955</name></trkpt>
<trkpt lat="53.186955" lon="-2.031037"><ele>367</ele><time>2020-10-07T13:08:07Z</time><name>PT3956</name></trkpt>
<trkpt lat="53.186956" lon="-2.031112"><ele>367</ele><time>2020-10-07T13:08:11Z</time><name>PT3957</name></trkpt>
<trkpt lat="53.186952" lon="-2.031176"><ele>367</ele><time>2020-10-07T13:08:14Z</time><name>PT3958</name></trkpt>
<trkpt lat="53.186934" lon="-2.031215"><ele>367</ele><time>2020-10-07T13:08:17Z</time><name>PT3959</name></trkpt>
<trkpt lat="53.186904" lon="-2.031278"><ele>367</ele><time>2020-10-07T13:08:22Z</time><name>PT3960</name></trkpt>
<trkpt lat="53.186887" lon="-2.031364"><ele>366</ele><time>2020-10-07T13:08:25Z</time><name>PT3961</name></trkpt>
<trkpt lat="53.186882" lon="-2.031420"><ele>365</ele><time>2020-10-07T13:08:28Z</time><name>PT3962</name></trkpt>
<trkpt lat="53.186880" lon="-2.031513"><ele>364</ele><time>2020-10-07T13:08:32Z</time><name>PT3963</name></trkpt>
<trkpt lat="53.186882" lon="-2.031574"><ele>365</ele><time>2020-10-07T13:08:35Z</time><name>PT3964</name></trkpt>
<trkpt lat="53.186881" lon="-2.031636"><ele>364</ele><time>2020-10-07T13:08:38Z</time><name>PT3965</name></trkpt>
<trkpt lat="53.186884" lon="-2.031715"><ele>363</ele><time>2020-10-07T13:08:43Z</time><name>PT3966</name></trkpt>
<trkpt lat="53.186902" lon="-2.031794"><ele>362</ele><time>2020-10-07T13:08:46Z</time><name>PT3967</name></trkpt>
<trkpt lat="53.186932" lon="-2.031853"><ele>362</ele><time>2020-10-07T13:08:50Z</time><name>PT3968</name></trkpt>
<trkpt lat="53.186952" lon="-2.031915"><ele>362</ele><time>2020-10-07T13:08:53Z</time><name>PT3969</name></trkpt>
<trkpt lat="53.186961" lon="-2.031977"><ele>362</ele><time>2020-10-07T13:08:58Z</time><name>PT3970</name></trkpt>
<trkpt lat="53.186958" lon="-2.032040"><ele>361</ele><time>2020-10-07T13:09:01Z</time><name>PT3971</name></trkpt>
<trkpt lat="53.186952" lon="-2.032124"><ele>360</ele><time>2020-10-07T13:09:04Z</time><name>PT3972</name></trkpt>
<trkpt lat="53.186963" lon="-2.032190"><ele>360</ele><time>2020-10-07T13:09:07Z</time><name>PT3973</name></trkpt>
<trkpt lat="53.186982" lon="-2.032267"><ele>359</ele><time>2020-10-07T13:09:11Z</time><name>PT3974</name></trkpt>
<trkpt lat="53.186999" lon="-2.032344"><ele>358</ele><time>2020-10-07T13:09:16Z</time><name>PT3975</name></trkpt>
<trkpt lat="53.187018" lon="-2.032395"><ele>357</ele><time>2020-10-07T13:09:19Z</time><name>PT3976</name></trkpt>
<trkpt lat="53.187035" lon="-2.032446"><ele>356</ele><time>2020-10-07T13:09:22Z</time><name>PT3977</name></trkpt>
<trkpt lat="53.187065" lon="-2.032515"><ele>356</ele><time>2020-10-07T13:09:25Z</time><name>PT3978</name></trkpt>
<trkpt lat="53.187077" lon="-2.032597"><ele>355</ele><time>2020-10-07T13:09:29Z</time><name>PT3979</name></trkpt>
<trkpt lat="53.187085" lon="-2.032664"><ele>354</ele><time>2020-10-07T13:09:33Z</time><name>PT3980</name></trkpt>
<trkpt lat="53.187092" lon="-2.032748"><ele>353</ele><time>2020-10-07T13:09:37Z</time><name>PT3981</name></trkpt>
<trkpt lat="53.187115" lon="-2.032792"><ele>352</ele><time>2020-10-07T13:09:40Z</time><name>PT3982</name></trkpt>
<trkpt lat="53.187122" lon="-2.032867"><ele>352</ele><time>2020-10-07T13:09:43Z</time><name>PT3983</name></trkpt>
<trkpt lat="53.187110" lon="-2.032909"><ele>351</ele><time>2020-10-07T13:09:46Z</time><name>PT3984</name></trkpt>
<trkpt lat="53.187106" lon="-2.032964"><ele>349</ele><time>2020-10-07T13:09:50Z</time><name>PT3985</name></trkpt>
<trkpt lat="53.187104" lon="-2.033016"><ele>348</ele><time>2020-10-07T13:09:53Z</time><name>PT3986</name></trkpt>
<trkpt lat="53.187096" lon="-2.033071"><ele>346</ele><time>2020-10-07T13:09:58Z</time><name>PT3987</name></trkpt>
<trkpt lat="53.187081" lon="-2.033118"><ele>347</ele><time>2020-10-07T13:10:01Z</time><name>PT3988</name></trkpt>
<trkpt lat="53.187068" lon="-2.033173"><ele>346</ele><time>2020-10-07T13:10:05Z</time><name>PT3989</name></trkpt>
<trkpt lat="53.187071" lon="-2.033264"><ele>345</ele><time>2020-10-07T13:10:10Z</time><name>PT3990</name></trkpt>
<trkpt lat="53.187078" lon="-2.033328"><ele>344</ele><time>2020-10-07T13:10:13Z</time><name>PT3991</name></trkpt>
<trkpt lat="53.187075" lon="-2.033388"><ele>344</ele><time>2020-10-07T13:10:16Z</time><name>PT3992</name></trkpt>
<trkpt lat="53.187077" lon="-2.033442"><ele>343</ele><time>2020-10-07T13:10:19Z</time><name>PT3993</name></trkpt>
<trkpt lat="53.187091" lon="-2.033498"><ele>342</ele><time>2020-10-07T13:10:22Z</time><name>PT3994</name></trkpt>
<trkpt lat="53.187086" lon="-2.033551"><ele>340</ele><time>2020-10-07T13:10:25Z</time><name>PT3995</name></trkpt>
<trkpt lat="53.187092" lon="-2.033631"><ele>340</ele><time>2020-10-07T13:10:28Z</time><name>PT3996</name></trkpt>
<trkpt lat="53.187101" lon="-2.033707"><ele>339</ele><time>2020-10-07T13:10:33Z</time><name>PT3997</name></trkpt>
<trkpt lat="53.187115" lon="-2.033760"><ele>338</ele><time>2020-10-07T13:10:36Z</time><name>PT3998</name></trkpt>
<trkpt lat="53.187130" lon="-2.033835"><ele>338</ele><time>2020-10-07T13:10:39Z</time><name>PT3999</name></trkpt>
<trkpt lat="53.187130" lon="-2.033891"><ele>337</ele><time>2020-10-07T13:10:42Z</time><name>PT4000</name></trkpt>
<trkpt lat="53.187132" lon="-2.033963"><ele>337</ele><time>2020-10-07T13:10:46Z</time><name>PT4001</name></trkpt>
<trkpt lat="53.187134" lon="-2.034033"><ele>336</ele><time>2020-10-07T13:10:49Z</time><name>PT4002</name></trkpt>
<trkpt lat="53.187129" lon="-2.034101"><ele>336</ele><time>2020-10-07T13:10:53Z</time><name>PT4003</name></trkpt>
<trkpt lat="53.187124" lon="-2.034193"><ele>335</ele><time>2020-10-07T13:10:57Z</time><name>PT4004</name></trkpt>
<trkpt lat="53.187117" lon="-2.034257"><ele>335</ele><time>2020-10-07T13:11:00Z</time><name>PT4005</name></trkpt>
<trkpt lat="53.187104" lon="-2.034322"><ele>334</ele><time>2020-10-07T13:11:03Z</time><name>PT4006</name></trkpt>
<trkpt lat="53.187091" lon="-2.034402"><ele>333</ele><time>2020-10-07T13:11:06Z</time><name>PT4007</name></trkpt>
<trkpt lat="53.187087" lon="-2.034484"><ele>333</ele><time>2020-10-07T13:11:10Z</time><name>PT4008</name></trkpt>
<trkpt lat="53.187080" lon="-2.034531"><ele>332</ele><time>2020-10-07T13:11:13Z</time><name>PT4009</name></trkpt>
<trkpt lat="53.187079" lon="-2.034614"><ele>332</ele><time>2020-10-07T13:11:18Z</time><name>PT4010</name></trkpt>
<trkpt lat="53.187089" lon="-2.034705"><ele>331</ele><time>2020-10-07T13:11:21Z</time><name>PT4011</name></trkpt>
<trkpt lat="53.187096" lon="-2.034789"><ele>332</ele><time>2020-10-07T13:11:25Z</time><name>PT4012</name></trkpt>
<trkpt lat="53.187077" lon="-2.034833"><ele>332</ele><time>2020-10-07T13:11:28Z</time><name>PT4013</name></trkpt>
<trkpt lat="53.187035" lon="-2.034866"><ele>332</ele><time>2020-10-07T13:11:33Z</time><name>PT4014</name></trkpt>
<trkpt lat="53.187015" lon="-2.034894"><ele>331</ele><time>2020-10-07T13:11:36Z</time><name>PT4015</name></trkpt>
<trkpt lat="53.186988" lon="-2.034927"><ele>331</ele><time>2020-10-07T13:11:39Z</time><name>PT4016</name></trkpt>
<trkpt lat="53.186937" lon="-2.034963"><ele>330</ele><time>2020-10-07T13:11:42Z</time><name>PT4017</name></trkpt>
<trkpt lat="53.186906" lon="-2.034986"><ele>329</ele><time>2020-10-07T13:11:45Z</time><name>PT4018</name></trkpt>
<trkpt lat="53.186858" lon="-2.035010"><ele>328</ele><time>2020-10-07T13:11:49Z</time><name>PT4019</name></trkpt>
<trkpt lat="53.186810" lon="-2.035053"><ele>328</ele><time>2020-10-07T13:11:54Z</time><name>PT4020</name></trkpt>
<trkpt lat="53.186787" lon="-2.035107"><ele>326</ele><time>2020-10-07T13:11:57Z</time><name>PT4021</name></trkpt>
<trkpt lat="53.186790" lon="-2.035141"><ele>327</ele><time>2020-10-07T13:12:00Z</time><name>PT4022</name></trkpt>
<trkpt lat="53.186779" lon="-2.035167"><ele>328</ele><time>2020-10-07T13:12:04Z</time><name>PT4023</name></trkpt>
<trkpt lat="53.186773" lon="-2.035164"><ele>328</ele><time>2020-10-07T13:12:09Z</time><name>PT4024</name></trkpt>
<trkpt lat="53.186760" lon="-2.035179"><ele>328</ele><time>2020-10-07T13:12:12Z</time><name>PT4025</name></trkpt>
<trkpt lat="53.186755" lon="-2.035237"><ele>329</ele><time>2020-10-07T13:12:15Z</time><name>PT4026</name></trkpt>
<trkpt lat="53.186741" lon="-2.035290"><ele>329</ele><time>2020-10-07T13:12:18Z</time><name>PT4027</name></trkpt>
<trkpt lat="53.186732" lon="-2.035344"><ele>328</ele><time>2020-10-07T13:12:21Z</time><name>PT4028</name></trkpt>
<trkpt lat="53.186715" lon="-2.035427"><ele>328</ele><time>2020-10-07T13:12:25Z</time><name>PT4029</name></trkpt>
<trkpt lat="53.186710" lon="-2.035523"><ele>329</ele><time>2020-10-07T13:12:30Z</time><name>PT4030</name></trkpt>
<trkpt lat="53.186699" lon="-2.035614"><ele>329</ele><time>2020-10-07T13:12:33Z</time><name>PT4031</name></trkpt>
<trkpt lat="53.186680" lon="-2.035678"><ele>329</ele><time>2020-10-07T13:12:36Z</time><name>PT4032</name></trkpt>
<trkpt lat="53.186653" lon="-2.035758"><ele>329</ele><time>2020-10-07T13:12:40Z</time><name>PT4033</name></trkpt>
<trkpt lat="53.186635" lon="-2.035845"><ele>329</ele><time>2020-10-07T13:12:45Z</time><name>PT4034</name></trkpt>
<trkpt lat="53.186619" lon="-2.035934"><ele>328</ele><time>2020-10-07T13:12:48Z</time><name>PT4035</name></trkpt>
<trkpt lat="53.186614" lon="-2.036029"><ele>328</ele><time>2020-10-07T13:12:53Z</time><name>PT4036</name></trkpt>
<trkpt lat="53.186602" lon="-2.036107"><ele>328</ele><time>2020-10-07T13:12:57Z</time><name>PT4037</name></trkpt>
<trkpt lat="53.186590" lon="-2.036169"><ele>328</ele><time>2020-10-07T13:13:00Z</time><name>PT4038</name></trkpt>
<trkpt lat="53.186574" lon="-2.036234"><ele>328</ele><time>2020-10-07T13:13:03Z</time><name>PT4039</name></trkpt>
<trkpt lat="53.186560" lon="-2.036321"><ele>328</ele><time>2020-10-07T13:13:06Z</time><name>PT4040</name></trkpt>
<trkpt lat="53.186550" lon="-2.036414"><ele>328</ele><time>2020-10-07T13:13:10Z</time><name>PT4041</name></trkpt>
<trkpt lat="53.186542" lon="-2.036475"><ele>328</ele><time>2020-10-07T13:13:13Z</time><name>PT4042</name></trkpt>
<trkpt lat="53.186536" lon="-2.036549"><ele>328</ele><time>2020-10-07T13:13:16Z</time><name>PT4043</name></trkpt>
<trkpt lat="53.186536" lon="-2.036611"><ele>328</ele><time>2020-10-07T13:13:20Z</time><name>PT4044</name></trkpt>
<trkpt lat="53.186523" lon="-2.036647"><ele>329</ele><time>2020-10-07T13:13:24Z</time><name>PT4045</name></trkpt>
<trkpt lat="53.186511" lon="-2.036650"><ele>329</ele><time>2020-10-07T13:13:27Z</time><name>PT4046</name></trkpt>
<trkpt lat="53.186505" lon="-2.036656"><ele>330</ele><time>2020-10-07T13:13:31Z</time><name>PT4047</name></trkpt>
<trkpt lat="53.186527" lon="-2.036694"><ele>330</ele><time>2020-10-07T13:13:37Z</time><name>PT4048</name></trkpt>
<trkpt lat="53.186513" lon="-2.036783"><ele>330</ele><time>2020-10-07T13:13:42Z</time><name>PT4049</name></trkpt>
<trkpt lat="53.186500" lon="-2.036844"><ele>330</ele><time>2020-10-07T13:13:45Z</time><name>PT4050</name></trkpt>
<trkpt lat="53.186497" lon="-2.036927"><ele>330</ele><time>2020-10-07T13:13:48Z</time><name>PT4051</name></trkpt>
<trkpt lat="53.186485" lon="-2.037010"><ele>331</ele><time>2020-10-07T13:13:52Z</time><name>PT4052</name></trkpt>
<trkpt lat="53.186469" lon="-2.037074"><ele>331</ele><time>2020-10-07T13:13:55Z</time><name>PT4053</name></trkpt>
<trkpt lat="53.186457" lon="-2.037125"><ele>332</ele><time>2020-10-07T13:13:58Z</time><name>PT4054</name></trkpt>
<trkpt lat="53.186444" lon="-2.037206"><ele>332</ele><time>2020-10-07T13:14:03Z</time><name>PT4055</name></trkpt>
<trkpt lat="53.186432" lon="-2.037268"><ele>332</ele><time>2020-10-07T13:14:06Z</time><name>PT4056</name></trkpt>
<trkpt lat="53.186423" lon="-2.037335"><ele>332</ele><time>2020-10-07T13:14:09Z</time><name>PT4057</name></trkpt>
<trkpt lat="53.186415" lon="-2.037400"><ele>333</ele><time>2020-10-07T13:14:12Z</time><name>PT4058</name></trkpt>
<trkpt lat="53.186403" lon="-2.037489"><ele>333</ele><time>2020-10-07T13:14:15Z</time><name>PT4059</name></trkpt>
<trkpt lat="53.186390" lon="-2.037550"><ele>332</ele><time>2020-10-07T13:14:18Z</time><name>PT4060</name></trkpt>
<trkpt lat="53.186374" lon="-2.037633"><ele>332</ele><time>2020-10-07T13:14:22Z</time><name>PT4061</name></trkpt>
<trkpt lat="53.186359" lon="-2.037719"><ele>332</ele><time>2020-10-07T13:14:27Z</time><name>PT4062</name></trkpt>
<trkpt lat="53.186335" lon="-2.037777"><ele>331</ele><time>2020-10-07T13:14:30Z</time><name>PT4063</name></trkpt>
<trkpt lat="53.186321" lon="-2.037833"><ele>332</ele><time>2020-10-07T13:14:33Z</time><name>PT4064</name></trkpt>
<trkpt lat="53.186304" lon="-2.037904"><ele>332</ele><time>2020-10-07T13:14:36Z</time><name>PT4065</name></trkpt>
<trkpt lat="53.186284" lon="-2.037967"><ele>332</ele><time>2020-10-07T13:14:40Z</time><name>PT4066</name></trkpt>
<trkpt lat="53.186277" lon="-2.038001"><ele>332</ele><time>2020-10-07T13:14:43Z</time><name>PT4067</name></trkpt>
<trkpt lat="53.186270" lon="-2.038041"><ele>332</ele><time>2020-10-07T13:14:48Z</time><name>PT4068</name></trkpt>
<trkpt lat="53.186259" lon="-2.038130"><ele>333</ele><time>2020-10-07T13:14:51Z</time><name>PT4069</name></trkpt>
<trkpt lat="53.186255" lon="-2.038200"><ele>333</ele><time>2020-10-07T13:14:54Z</time><name>PT4070</name></trkpt>
<trkpt lat="53.186237" lon="-2.038287"><ele>334</ele><time>2020-10-07T13:14:58Z</time><name>PT4071</name></trkpt>
<trkpt lat="53.186223" lon="-2.038367"><ele>334</ele><time>2020-10-07T13:15:03Z</time><name>PT4072</name></trkpt>
<trkpt lat="53.186215" lon="-2.038433"><ele>333</ele><time>2020-10-07T13:15:06Z</time><name>PT4073</name></trkpt>
<trkpt lat="53.186206" lon="-2.038495"><ele>334</ele><time>2020-10-07T13:15:09Z</time><name>PT4074</name></trkpt>
<trkpt lat="53.186199" lon="-2.038558"><ele>334</ele><time>2020-10-07T13:15:12Z</time><name>PT4075</name></trkpt>
<trkpt lat="53.186194" lon="-2.038623"><ele>334</ele><time>2020-10-07T13:15:15Z</time><name>PT4076</name></trkpt>
<trkpt lat="53.186185" lon="-2.038712"><ele>334</ele><time>2020-10-07T13:15:18Z</time><name>PT4077</name></trkpt>
<trkpt lat="53.186174" lon="-2.038799"><ele>334</ele><time>2020-10-07T13:15:22Z</time><name>PT4078</name></trkpt>
<trkpt lat="53.186164" lon="-2.038866"><ele>334</ele><time>2020-10-07T13:15:25Z</time><name>PT4079</name></trkpt>
<trkpt lat="53.186154" lon="-2.038953"><ele>335</ele><time>2020-10-07T13:15:30Z</time><name>PT4080</name></trkpt>
<trkpt lat="53.186151" lon="-2.039021"><ele>335</ele><time>2020-10-07T13:15:33Z</time><name>PT4081</name></trkpt>
<trkpt lat="53.186143" lon="-2.039110"><ele>335</ele><time>2020-10-07T13:15:36Z</time><name>PT4082</name></trkpt>
<trkpt lat="53.186129" lon="-2.039190"><ele>334</ele><time>2020-10-07T13:15:40Z</time><name>PT4083</name></trkpt>
<trkpt lat="53.186120" lon="-2.039274"><ele>334</ele><time>2020-10-07T13:15:45Z</time><name>PT4084</name></trkpt>
<trkpt lat="53.186116" lon="-2.039340"><ele>333</ele><time>2020-10-07T13:15:48Z</time><name>PT4085</name></trkpt>
<trkpt lat="53.186110" lon="-2.039410"><ele>333</ele><time>2020-10-07T13:15:51Z</time><name>PT4086</name></trkpt>
<trkpt lat="53.186101" lon="-2.039492"><ele>333</ele><time>2020-10-07T13:15:54Z</time><name>PT4087</name></trkpt>
<trkpt lat="53.186093" lon="-2.039575"><ele>332</ele><time>2020-10-07T13:15:58Z</time><name>PT4088</name></trkpt>
<trkpt lat="53.186074" lon="-2.039656"><ele>331</ele><time>2020-10-07T13:16:03Z</time><name>PT4089</name></trkpt>
<trkpt lat="53.186057" lon="-2.039704"><ele>332</ele><time>2020-10-07T13:16:06Z</time><name>PT4090</name></trkpt>
<trkpt lat="53.186036" lon="-2.039781"><ele>332</ele><time>2020-10-07T13:16:09Z</time><name>PT4091</name></trkpt>
<trkpt lat="53.186029" lon="-2.039839"><ele>332</ele><time>2020-10-07T13:16:12Z</time><name>PT4092</name></trkpt>
<trkpt lat="53.186022" lon="-2.039915"><ele>333</ele><time>2020-10-07T13:16:16Z</time><name>PT4093</name></trkpt>
<trkpt lat="53.186015" lon="-2.039991"><ele>335</ele><time>2020-10-07T13:16:21Z</time><name>PT4094</name></trkpt>
<trkpt lat="53.186001" lon="-2.040065"><ele>335</ele><time>2020-10-07T13:16:24Z</time><name>PT4095</name></trkpt>
<trkpt lat="53.185988" lon="-2.040119"><ele>335</ele><time>2020-10-07T13:16:27Z</time><name>PT4096</name></trkpt>
<trkpt lat="53.185978" lon="-2.040199"><ele>335</ele><time>2020-10-07T13:16:31Z</time><name>PT4097</name></trkpt>
<trkpt lat="53.185966" lon="-2.040270"><ele>336</ele><time>2020-10-07T13:16:36Z</time><name>PT4098</name></trkpt>
<trkpt lat="53.185949" lon="-2.040352"><ele>336</ele><time>2020-10-07T13:16:39Z</time><name>PT4099</name></trkpt>
<trkpt lat="53.185943" lon="-2.040416"><ele>336</ele><time>2020-10-07T13:16:42Z</time><name>PT4100</name></trkpt>
<trkpt lat="53.185936" lon="-2.040484"><ele>335</ele><time>2020-10-07T13:16:45Z</time><name>PT4101</name></trkpt>
<trkpt lat="53.185928" lon="-2.040543"><ele>335</ele><time>2020-10-07T13:16:48Z</time><name>PT4102</name></trkpt>
<trkpt lat="53.185918" lon="-2.040635"><ele>335</ele><time>2020-10-07T13:16:52Z</time><name>PT4103</name></trkpt>
<trkpt lat="53.185905" lon="-2.040697"><ele>335</ele><time>2020-10-07T13:16:55Z</time><name>PT4104</name></trkpt>
<trkpt lat="53.185889" lon="-2.040782"><ele>336</ele><time>2020-10-07T13:17:00Z</time><name>PT4105</name></trkpt>
<trkpt lat="53.185865" lon="-2.040832"><ele>336</ele><time>2020-10-07T13:17:03Z</time><name>PT4106</name></trkpt>
<trkpt lat="53.185839" lon="-2.040872"><ele>336</ele><time>2020-10-07T13:17:06Z</time><name>PT4107</name></trkpt>
<trkpt lat="53.185800" lon="-2.040915"><ele>336</ele><time>2020-10-07T13:17:09Z</time><name>PT4108</name></trkpt>
<trkpt lat="53.185769" lon="-2.040935"><ele>336</ele><time>2020-10-07T13:17:12Z</time><name>PT4109</name></trkpt>
<trkpt lat="53.185743" lon="-2.040923"><ele>336</ele><time>2020-10-07T13:17:16Z</time><name>PT4110</name></trkpt>
<trkpt lat="53.185745" lon="-2.040876"><ele>337</ele><time>2020-10-07T13:17:19Z</time><name>PT4111</name></trkpt>
<trkpt lat="53.185742" lon="-2.040827"><ele>336</ele><time>2020-10-07T13:17:24Z</time><name>PT4112</name></trkpt>
<trkpt lat="53.185721" lon="-2.040797"><ele>336</ele><time>2020-10-07T13:17:27Z</time><name>PT4113</name></trkpt>
<trkpt lat="53.185702" lon="-2.040762"><ele>334</ele><time>2020-10-07T13:17:31Z</time><name>PT4114</name></trkpt>
<trkpt lat="53.185689" lon="-2.040698"><ele>335</ele><time>2020-10-07T13:17:36Z</time><name>PT4115</name></trkpt>
<trkpt lat="53.185685" lon="-2.040657"><ele>336</ele><time>2020-10-07T13:17:39Z</time><name>PT4116</name></trkpt>
<trkpt lat="53.185686" lon="-2.040652"><ele>335</ele><time>2020-10-07T13:17:42Z</time><name>PT4117</name></trkpt>
<trkpt lat="53.185691" lon="-2.040639"><ele>335</ele><time>2020-10-07T13:18:00Z</time><name>PT4118</name></trkpt>
<trkpt lat="53.185693" lon="-2.040667"><ele>334</ele><time>2020-10-07T13:18:03Z</time><name>PT4119</name></trkpt>
<trkpt lat="53.185701" lon="-2.040702"><ele>333</ele><time>2020-10-07T13:18:06Z</time><name>PT4120</name></trkpt>
<trkpt lat="53.185707" lon="-2.040735"><ele>333</ele><time>2020-10-07T13:18:09Z</time><name>PT4121</name></trkpt>
<trkpt lat="53.185714" lon="-2.040791"><ele>333</ele><time>2020-10-07T13:18:12Z</time><name>PT4122</name></trkpt>
<trkpt lat="53.185722" lon="-2.040833"><ele>333</ele><time>2020-10-07T13:18:15Z</time><name>PT4123</name></trkpt>
<trkpt lat="53.185724" lon="-2.040856"><ele>333</ele><time>2020-10-07T13:18:19Z</time><name>PT4124</name></trkpt>
<trkpt lat="53.185723" lon="-2.040864"><ele>333</ele><time>2020-10-07T13:19:57Z</time><name>PT4125</name></trkpt>
<trkpt lat="53.185708" lon="-2.040916"><ele>333</ele><time>2020-10-07T13:20:01Z</time><name>PT4126</name></trkpt>
<trkpt lat="53.185695" lon="-2.040945"><ele>332</ele><time>2020-10-07T13:20:04Z</time><name>PT4127</name></trkpt>
<trkpt lat="53.185697" lon="-2.040999"><ele>329</ele><time>2020-10-07T13:20:09Z</time><name>PT4128</name></trkpt>
<trkpt lat="53.185708" lon="-2.041027"><ele>330</ele><time>2020-10-07T13:20:12Z</time><name>PT4129</name></trkpt>
<trkpt lat="53.185679" lon="-2.041038"><ele>329</ele><time>2020-10-07T13:20:15Z</time><name>PT4130</name></trkpt>
<trkpt lat="53.185655" lon="-2.041038"><ele>327</ele><time>2020-10-07T13:20:19Z</time><name>PT4131</name></trkpt>
<trkpt lat="53.185633" lon="-2.041026"><ele>326</ele><time>2020-10-07T13:20:24Z</time><name>PT4132</name></trkpt>
<trkpt lat="53.185616" lon="-2.041022"><ele>325</ele><time>2020-10-07T13:20:27Z</time><name>PT4133</name></trkpt>
<trkpt lat="53.185600" lon="-2.041017"><ele>325</ele><time>2020-10-07T13:20:30Z</time><name>PT4134</name></trkpt>
<trkpt lat="53.185583" lon="-2.041017"><ele>325</ele><time>2020-10-07T13:20:33Z</time><name>PT4135</name></trkpt>
<trkpt lat="53.185583" lon="-2.041021"><ele>325</ele><time>2020-10-07T13:20:36Z</time><name>PT4136</name></trkpt>
<trkpt lat="53.185581" lon="-2.041018"><ele>325</ele><time>2020-10-07T13:20:39Z</time><name>PT4137</name></trkpt>
<trkpt lat="53.185579" lon="-2.041016"><ele>325</ele><time>2020-10-07T13:20:54Z</time><name>PT4138</name></trkpt>
<trkpt lat="53.185572" lon="-2.041007"><ele>326</ele><time>2020-10-07T13:20:57Z</time><name>PT4139</name></trkpt>
<trkpt lat="53.185563" lon="-2.040985"><ele>326</ele><time>2020-10-07T13:21:15Z</time><name>PT4140</name></trkpt>
<trkpt lat="53.185547" lon="-2.040955"><ele>327</ele><time>2020-10-07T13:21:18Z</time><name>PT4141</name></trkpt>
<trkpt lat="53.185548" lon="-2.040940"><ele>327</ele><time>2020-10-07T13:21:21Z</time><name>PT4142</name></trkpt>
<trkpt lat="53.185545" lon="-2.040928"><ele>328</ele><time>2020-10-07T13:21:42Z</time><name>PT4143</name></trkpt>
<trkpt lat="53.185535" lon="-2.040933"><ele>329</ele><time>2020-10-07T13:22:19Z</time><name>PT4144</name></trkpt>
<trkpt lat="53.185511" lon="-2.040918"><ele>329</ele><time>2020-10-07T13:22:22Z</time><name>PT4145</name></trkpt>
<trkpt lat="53.185475" lon="-2.040875"><ele>328</ele><time>2020-10-07T13:22:27Z</time><name>PT4146</name></trkpt>
<trkpt lat="53.185451" lon="-2.040822"><ele>328</ele><time>2020-10-07T13:22:30Z</time><name>PT4147</name></trkpt>
<trkpt lat="53.185467" lon="-2.040824"><ele>329</ele><time>2020-10-07T13:22:33Z</time><name>PT4148</name></trkpt>
<trkpt lat="53.185467" lon="-2.040816"><ele>329</ele><time>2020-10-07T13:22:45Z</time><name>PT4149</name></trkpt>
<trkpt lat="53.185435" lon="-2.040778"><ele>329</ele><time>2020-10-07T13:22:48Z</time><name>PT4150</name></trkpt>
<trkpt lat="53.185411" lon="-2.040743"><ele>328</ele><time>2020-10-07T13:22:51Z</time><name>PT4151</name></trkpt>
<trkpt lat="53.185384" lon="-2.040696"><ele>328</ele><time>2020-10-07T13:22:55Z</time><name>PT4152</name></trkpt>
<trkpt lat="53.185378" lon="-2.040686"><ele>327</ele><time>2020-10-07T13:22:58Z</time><name>PT4153</name></trkpt>
<trkpt lat="53.185382" lon="-2.040689"><ele>326</ele><time>2020-10-07T13:23:03Z</time><name>PT4154</name></trkpt>
<trkpt lat="53.185351" lon="-2.040647"><ele>326</ele><time>2020-10-07T13:23:06Z</time><name>PT4155</name></trkpt>
<trkpt lat="53.185330" lon="-2.040615"><ele>325</ele><time>2020-10-07T13:23:09Z</time><name>PT4156</name></trkpt>
<trkpt lat="53.185317" lon="-2.040567"><ele>325</ele><time>2020-10-07T13:23:12Z</time><name>PT4157</name></trkpt>
<trkpt lat="53.185301" lon="-2.040515"><ele>323</ele><time>2020-10-07T13:23:15Z</time><name>PT4158</name></trkpt>
<trkpt lat="53.185276" lon="-2.040484"><ele>322</ele><time>2020-10-07T13:23:18Z</time><name>PT4159</name></trkpt>
<trkpt lat="53.185256" lon="-2.040451"><ele>322</ele><time>2020-10-07T13:23:21Z</time><name>PT4160</name></trkpt>
<trkpt lat="53.185233" lon="-2.040405"><ele>321</ele><time>2020-10-07T13:23:24Z</time><name>PT4161</name></trkpt>
<trkpt lat="53.185204" lon="-2.040350"><ele>319</ele><time>2020-10-07T13:23:28Z</time><name>PT4162</name></trkpt>
<trkpt lat="53.185172" lon="-2.040297"><ele>318</ele><time>2020-10-07T13:23:33Z</time><name>PT4163</name></trkpt>
<trkpt lat="53.185133" lon="-2.040242"><ele>317</ele><time>2020-10-07T13:23:36Z</time><name>PT4164</name></trkpt>
<trkpt lat="53.185105" lon="-2.040200"><ele>316</ele><time>2020-10-07T13:23:39Z</time><name>PT4165</name></trkpt>
<trkpt lat="53.185089" lon="-2.040161"><ele>315</ele><time>2020-10-07T13:23:42Z</time><name>PT4166</name></trkpt>
<trkpt lat="53.185064" lon="-2.040117"><ele>314</ele><time>2020-10-07T13:23:46Z</time><name>PT4167</name></trkpt>
<trkpt lat="53.185048" lon="-2.040083"><ele>314</ele><time>2020-10-07T13:23:49Z</time><name>PT4168</name></trkpt>
<trkpt lat="53.185022" lon="-2.040039"><ele>313</ele><time>2020-10-07T13:23:54Z</time><name>PT4169</name></trkpt>
<trkpt lat="53.184993" lon="-2.040001"><ele>313</ele><time>2020-10-07T13:23:57Z</time><name>PT4170</name></trkpt>
<trkpt lat="53.184973" lon="-2.039972"><ele>313</ele><time>2020-10-07T13:24:00Z</time><name>PT4171</name></trkpt>
<trkpt lat="53.184960" lon="-2.039964"><ele>312</ele><time>2020-10-07T13:24:03Z</time><name>PT4172</name></trkpt>
<trkpt lat="53.184951" lon="-2.039966"><ele>310</ele><time>2020-10-07T13:24:06Z</time><name>PT4173</name></trkpt>
<trkpt lat="53.184952" lon="-2.039967"><ele>309</ele><time>2020-10-07T13:24:10Z</time><name>PT4174</name></trkpt>
<trkpt lat="53.184935" lon="-2.039989"><ele>308</ele><time>2020-10-07T13:24:18Z</time><name>PT4175</name></trkpt>
<trkpt lat="53.184893" lon="-2.040008"><ele>306</ele><time>2020-10-07T13:24:21Z</time><name>PT4176</name></trkpt>
<trkpt lat="53.184860" lon="-2.040001"><ele>305</ele><time>2020-10-07T13:24:24Z</time><name>PT4177</name></trkpt>
<trkpt lat="53.184821" lon="-2.040006"><ele>304</ele><time>2020-10-07T13:24:27Z</time><name>PT4178</name></trkpt>
<trkpt lat="53.184770" lon="-2.040019"><ele>301</ele><time>2020-10-07T13:24:31Z</time><name>PT4179</name></trkpt>
<trkpt lat="53.184737" lon="-2.040033"><ele>298</ele><time>2020-10-07T13:24:34Z</time><name>PT4180</name></trkpt>
<trkpt lat="53.184711" lon="-2.040040"><ele>297</ele><time>2020-10-07T13:24:37Z</time><name>PT4181</name></trkpt>
<trkpt lat="53.184689" lon="-2.040029"><ele>297</ele><time>2020-10-07T13:24:40Z</time><name>PT4182</name></trkpt>
<trkpt lat="53.184668" lon="-2.040017"><ele>295</ele><time>2020-10-07T13:24:45Z</time><name>PT4183</name></trkpt>
<trkpt lat="53.184664" lon="-2.040017"><ele>295</ele><time>2020-10-07T13:24:48Z</time><name>PT4184</name></trkpt>
<trkpt lat="53.184650" lon="-2.040021"><ele>294</ele><time>2020-10-07T13:24:52Z</time><name>PT4185</name></trkpt>
<trkpt lat="53.184626" lon="-2.040057"><ele>292</ele><time>2020-10-07T13:24:57Z</time><name>PT4186</name></trkpt>
<trkpt lat="53.184611" lon="-2.040085"><ele>291</ele><time>2020-10-07T13:25:00Z</time><name>PT4187</name></trkpt>
<trkpt lat="53.184608" lon="-2.040166"><ele>290</ele><time>2020-10-07T13:25:03Z</time><name>PT4188</name></trkpt>
<trkpt lat="53.184607" lon="-2.040235"><ele>291</ele><time>2020-10-07T13:25:07Z</time><name>PT4189</name></trkpt>
<trkpt lat="53.184606" lon="-2.040256"><ele>291</ele><time>2020-10-07T13:25:10Z</time><name>PT4190</name></trkpt>
<trkpt lat="53.184619" lon="-2.040305"><ele>291</ele><time>2020-10-07T13:25:34Z</time><name>PT4191</name></trkpt>
<trkpt lat="53.184624" lon="-2.040414"><ele>291</ele><time>2020-10-07T13:25:39Z</time><name>PT4192</name></trkpt>
<trkpt lat="53.184632" lon="-2.040461"><ele>289</ele><time>2020-10-07T13:25:42Z</time><name>PT4193</name></trkpt>
<trkpt lat="53.184644" lon="-2.040525"><ele>289</ele><time>2020-10-07T13:25:45Z</time><name>PT4194</name></trkpt>
<trkpt lat="53.184652" lon="-2.040614"><ele>287</ele><time>2020-10-07T13:25:48Z</time><name>PT4195</name></trkpt>
<trkpt lat="53.184661" lon="-2.040710"><ele>287</ele><time>2020-10-07T13:25:52Z</time><name>PT4196</name></trkpt>
<trkpt lat="53.184670" lon="-2.040772"><ele>287</ele><time>2020-10-07T13:25:55Z</time><name>PT4197</name></trkpt>
<trkpt lat="53.184681" lon="-2.040866"><ele>287</ele><time>2020-10-07T13:26:00Z</time><name>PT4198</name></trkpt>
<trkpt lat="53.184688" lon="-2.040951"><ele>288</ele><time>2020-10-07T13:26:03Z</time><name>PT4199</name></trkpt>
<trkpt lat="53.184703" lon="-2.041010"><ele>287</ele><time>2020-10-07T13:26:06Z</time><name>PT4200</name></trkpt>
<trkpt lat="53.184719" lon="-2.041089"><ele>285</ele><time>2020-10-07T13:26:10Z</time><name>PT4201</name></trkpt>
<trkpt lat="53.184739" lon="-2.041174"><ele>284</ele><time>2020-10-07T13:26:15Z</time><name>PT4202</name></trkpt>
<trkpt lat="53.184752" lon="-2.041233"><ele>284</ele><time>2020-10-07T13:26:18Z</time><name>PT4203</name></trkpt>
<trkpt lat="53.184765" lon="-2.041283"><ele>283</ele><time>2020-10-07T13:26:21Z</time><name>PT4204</name></trkpt>
<trkpt lat="53.184769" lon="-2.041367"><ele>284</ele><time>2020-10-07T13:26:24Z</time><name>PT4205</name></trkpt>
<trkpt lat="53.184783" lon="-2.041445"><ele>283</ele><time>2020-10-07T13:26:27Z</time><name>PT4206</name></trkpt>
<trkpt lat="53.184785" lon="-2.041505"><ele>282</ele><time>2020-10-07T13:26:30Z</time><name>PT4207</name></trkpt>
<trkpt lat="53.184797" lon="-2.041588"><ele>280</ele><time>2020-10-07T13:26:34Z</time><name>PT4208</name></trkpt>
<trkpt lat="53.184805" lon="-2.041702"><ele>282</ele><time>2020-10-07T13:26:39Z</time><name>PT4209</name></trkpt>
<trkpt lat="53.184816" lon="-2.041779"><ele>282</ele><time>2020-10-07T13:26:42Z</time><name>PT4210</name></trkpt>
<trkpt lat="53.184826" lon="-2.041874"><ele>281</ele><time>2020-10-07T13:26:45Z</time><name>PT4211</name></trkpt>
<trkpt lat="53.184838" lon="-2.041971"><ele>282</ele><time>2020-10-07T13:26:48Z</time><name>PT4212</name></trkpt>
<trkpt lat="53.184854" lon="-2.042035"><ele>281</ele><time>2020-10-07T13:26:51Z</time><name>PT4213</name></trkpt>
<trkpt lat="53.184868" lon="-2.042098"><ele>280</ele><time>2020-10-07T13:26:54Z</time><name>PT4214</name></trkpt>
<trkpt lat="53.184878" lon="-2.042157"><ele>280</ele><time>2020-10-07T13:26:57Z</time><name>PT4215</name></trkpt>
<trkpt lat="53.184887" lon="-2.042232"><ele>280</ele><time>2020-10-07T13:27:00Z</time><name>PT4216</name></trkpt>
<trkpt lat="53.184906" lon="-2.042327"><ele>280</ele><time>2020-10-07T13:27:04Z</time><name>PT4217</name></trkpt>
<trkpt lat="53.184917" lon="-2.042417"><ele>280</ele><time>2020-10-07T13:27:09Z</time><name>PT4218</name></trkpt>
<trkpt lat="53.184926" lon="-2.042479"><ele>280</ele><time>2020-10-07T13:27:12Z</time><name>PT4219</name></trkpt>
<trkpt lat="53.184939" lon="-2.042558"><ele>279</ele><time>2020-10-07T13:27:15Z</time><name>PT4220</name></trkpt>
<trkpt lat="53.184955" lon="-2.042647"><ele>279</ele><time>2020-10-07T13:27:19Z</time><name>PT4221</name></trkpt>
<trkpt lat="53.184968" lon="-2.042698"><ele>278</ele><time>2020-10-07T13:27:23Z</time><name>PT4222</name></trkpt>
<trkpt lat="53.184984" lon="-2.042777"><ele>277</ele><time>2020-10-07T13:27:27Z</time><name>PT4223</name></trkpt>
<trkpt lat="53.185007" lon="-2.042866"><ele>279</ele><time>2020-10-07T13:27:30Z</time><name>PT4224</name></trkpt>
<trkpt lat="53.185023" lon="-2.042932"><ele>278</ele><time>2020-10-07T13:27:33Z</time><name>PT4225</name></trkpt>
<trkpt lat="53.185040" lon="-2.043051"><ele>279</ele><time>2020-10-07T13:27:37Z</time><name>PT4226</name></trkpt>
<trkpt lat="53.185054" lon="-2.043145"><ele>280</ele><time>2020-10-07T13:27:40Z</time><name>PT4227</name></trkpt>
<trkpt lat="53.185076" lon="-2.043252"><ele>281</ele><time>2020-10-07T13:27:45Z</time><name>PT4228</name></trkpt>
<trkpt lat="53.185098" lon="-2.043321"><ele>281</ele><time>2020-10-07T13:27:48Z</time><name>PT4229</name></trkpt>
<trkpt lat="53.185113" lon="-2.043360"><ele>280</ele><time>2020-10-07T13:27:51Z</time><name>PT4230</name></trkpt>
<trkpt lat="53.185133" lon="-2.043401"><ele>278</ele><time>2020-10-07T13:27:54Z</time><name>PT4231</name></trkpt>
<trkpt lat="53.185153" lon="-2.043466"><ele>276</ele><time>2020-10-07T13:27:58Z</time><name>PT4232</name></trkpt>
<trkpt lat="53.185163" lon="-2.043505"><ele>275</ele><time>2020-10-07T13:28:01Z</time><name>PT4233</name></trkpt>
<trkpt lat="53.185176" lon="-2.043567"><ele>274</ele><time>2020-10-07T13:28:06Z</time><name>PT4234</name></trkpt>
<trkpt lat="53.185180" lon="-2.043622"><ele>273</ele><time>2020-10-07T13:28:09Z</time><name>PT4235</name></trkpt>
<trkpt lat="53.185188" lon="-2.043648"><ele>274</ele><time>2020-10-07T13:28:12Z</time><name>PT4236</name></trkpt>
<trkpt lat="53.185187" lon="-2.043676"><ele>274</ele><time>2020-10-07T13:28:15Z</time><name>PT4237</name></trkpt>
<trkpt lat="53.185173" lon="-2.043764"><ele>274</ele><time>2020-10-07T13:28:18Z</time><name>PT4238</name></trkpt>
<trkpt lat="53.185173" lon="-2.043865"><ele>274</ele><time>2020-10-07T13:28:23Z</time><name>PT4239</name></trkpt>
<trkpt lat="53.185185" lon="-2.043966"><ele>273</ele><time>2020-10-07T13:28:27Z</time><name>PT4240</name></trkpt>
<trkpt lat="53.185192" lon="-2.044091"><ele>274</ele><time>2020-10-07T13:28:30Z</time><name>PT4241</name></trkpt>
<trkpt lat="53.185200" lon="-2.044182"><ele>274</ele><time>2020-10-07T13:28:33Z</time><name>PT4242</name></trkpt>
<trkpt lat="53.185211" lon="-2.044271"><ele>274</ele><time>2020-10-07T13:28:36Z</time><name>PT4243</name></trkpt>
<trkpt lat="53.185208" lon="-2.044365"><ele>274</ele><time>2020-10-07T13:28:39Z</time><name>PT4244</name></trkpt>
<trkpt lat="53.185212" lon="-2.044479"><ele>275</ele><time>2020-10-07T13:28:43Z</time><name>PT4245</name></trkpt>
<trkpt lat="53.185228" lon="-2.044568"><ele>275</ele><time>2020-10-07T13:28:48Z</time><name>PT4246</name></trkpt>
<trkpt lat="53.185244" lon="-2.044661"><ele>274</ele><time>2020-10-07T13:28:51Z</time><name>PT4247</name></trkpt>
<trkpt lat="53.185258" lon="-2.044720"><ele>273</ele><time>2020-10-07T13:28:54Z</time><name>PT4248</name></trkpt>
<trkpt lat="53.185270" lon="-2.044809"><ele>273</ele><time>2020-10-07T13:28:58Z</time><name>PT4249</name></trkpt>
<trkpt lat="53.185285" lon="-2.044898"><ele>272</ele><time>2020-10-07T13:29:03Z</time><name>PT4250</name></trkpt>
<trkpt lat="53.185284" lon="-2.044973"><ele>269</ele><time>2020-10-07T13:29:06Z</time><name>PT4251</name></trkpt>
<trkpt lat="53.185279" lon="-2.045057"><ele>269</ele><time>2020-10-07T13:29:09Z</time><name>PT4252</name></trkpt>
<trkpt lat="53.185270" lon="-2.045117"><ele>267</ele><time>2020-10-07T13:29:12Z</time><name>PT4253</name></trkpt>
<trkpt lat="53.185266" lon="-2.045176"><ele>267</ele><time>2020-10-07T13:29:15Z</time><name>PT4254</name></trkpt>
<trkpt lat="53.185252" lon="-2.045233"><ele>265</ele><time>2020-10-07T13:29:19Z</time><name>PT4255</name></trkpt>
<trkpt lat="53.185238" lon="-2.045323"><ele>264</ele><time>2020-10-07T13:29:24Z</time><name>PT4256</name></trkpt>
<trkpt lat="53.185239" lon="-2.045380"><ele>263</ele><time>2020-10-07T13:29:27Z</time><name>PT4257</name></trkpt>
<trkpt lat="53.185245" lon="-2.045437"><ele>263</ele><time>2020-10-07T13:29:30Z</time><name>PT4258</name></trkpt>
<trkpt lat="53.185238" lon="-2.045514"><ele>262</ele><time>2020-10-07T13:29:33Z</time><name>PT4259</name></trkpt>
<trkpt lat="53.185247" lon="-2.045607"><ele>263</ele><time>2020-10-07T13:29:37Z</time><name>PT4260</name></trkpt>
<trkpt lat="53.185243" lon="-2.045664"><ele>262</ele><time>2020-10-07T13:29:42Z</time><name>PT4261</name></trkpt>
<trkpt lat="53.185232" lon="-2.045681"><ele>261</ele><time>2020-10-07T13:29:45Z</time><name>PT4262</name></trkpt>
<trkpt lat="53.185204" lon="-2.045732"><ele>261</ele><time>2020-10-07T13:29:48Z</time><name>PT4263</name></trkpt>
<trkpt lat="53.185160" lon="-2.045799"><ele>260</ele><time>2020-10-07T13:29:51Z</time><name>PT4264</name></trkpt>
<trkpt lat="53.185111" lon="-2.045869"><ele>260</ele><time>2020-10-07T13:29:55Z</time><name>PT4265</name></trkpt>
<trkpt lat="53.185060" lon="-2.045929"><ele>259</ele><time>2020-10-07T13:30:00Z</time><name>PT4266</name></trkpt>
<trkpt lat="53.185033" lon="-2.045965"><ele>258</ele><time>2020-10-07T13:30:03Z</time><name>PT4267</name></trkpt>
<trkpt lat="53.185003" lon="-2.046001"><ele>258</ele><time>2020-10-07T13:30:06Z</time><name>PT4268</name></trkpt>
<trkpt lat="53.184973" lon="-2.046046"><ele>258</ele><time>2020-10-07T13:30:09Z</time><name>PT4269</name></trkpt>
<trkpt lat="53.184934" lon="-2.046084"><ele>258</ele><time>2020-10-07T13:30:12Z</time><name>PT4270</name></trkpt>
<trkpt lat="53.184909" lon="-2.046114"><ele>257</ele><time>2020-10-07T13:30:15Z</time><name>PT4271</name></trkpt>
<trkpt lat="53.184857" lon="-2.046180"><ele>259</ele><time>2020-10-07T13:30:19Z</time><name>PT4272</name></trkpt>
<trkpt lat="53.184846" lon="-2.046197"><ele>259</ele><time>2020-10-07T13:30:21Z</time><name>PT4273</name></trkpt>
<trkpt lat="53.184837" lon="-2.046212"><ele>258</ele><time>2020-10-07T13:30:21Z</time><name>PT4274</name></trkpt>
<trkpt lat="53.184828" lon="-2.046227"><ele>258</ele><time>2020-10-07T13:30:22Z</time><name>PT4275</name></trkpt>
<trkpt lat="53.184817" lon="-2.046241"><ele>258</ele><time>2020-10-07T13:30:24Z</time><name>PT4276</name></trkpt>
<trkpt lat="53.184808" lon="-2.046257"><ele>258</ele><time>2020-10-07T13:30:24Z</time><name>PT4277</name></trkpt>
<trkpt lat="53.184799" lon="-2.046273"><ele>258</ele><time>2020-10-07T13:30:25Z</time><name>PT4278</name></trkpt>
<trkpt lat="53.184789" lon="-2.046290"><ele>258</ele><time>2020-10-07T13:30:27Z</time><name>PT4279</name></trkpt>
<trkpt lat="53.184782" lon="-2.046304"><ele>258</ele><time>2020-10-07T13:30:27Z</time><name>PT4280</name></trkpt>
<trkpt lat="53.184774" lon="-2.046318"><ele>258</ele><time>2020-10-07T13:30:28Z</time><name>PT4281</name></trkpt>
<trkpt lat="53.184765" lon="-2.046334"><ele>258</ele><time>2020-10-07T13:30:30Z</time><name>PT4282</name></trkpt>
<trkpt lat="53.184759" lon="-2.046350"><ele>258</ele><time>2020-10-07T13:30:30Z</time><name>PT4283</name></trkpt>
<trkpt lat="53.184750" lon="-2.046369"><ele>257</ele><time>2020-10-07T13:30:31Z</time><name>PT4284</name></trkpt>
<trkpt lat="53.184739" lon="-2.046385"><ele>257</ele><time>2020-10-07T13:30:33Z</time><name>PT4285</name></trkpt>
<trkpt lat="53.184729" lon="-2.046395"><ele>257</ele><time>2020-10-07T13:30:33Z</time><name>PT4286</name></trkpt>
<trkpt lat="53.184722" lon="-2.046405"><ele>256</ele><time>2020-10-07T13:30:34Z</time><name>PT4287</name></trkpt>
<trkpt lat="53.184711" lon="-2.046417"><ele>256</ele><time>2020-10-07T13:30:36Z</time><name>PT4288</name></trkpt>
<trkpt lat="53.184702" lon="-2.046425"><ele>256</ele><time>2020-10-07T13:30:36Z</time><name>PT4289</name></trkpt>
<trkpt lat="53.184694" lon="-2.046437"><ele>255</ele><time>2020-10-07T13:30:37Z</time><name>PT4290</name></trkpt>
<trkpt lat="53.184683" lon="-2.046445"><ele>255</ele><time>2020-10-07T13:30:39Z</time><name>PT4291</name></trkpt>
<trkpt lat="53.184671" lon="-2.046447"><ele>255</ele><time>2020-10-07T13:30:39Z</time><name>PT4292</name></trkpt>
<trkpt lat="53.184660" lon="-2.046450"><ele>255</ele><time>2020-10-07T13:30:41Z</time><name>PT4293</name></trkpt>
<trkpt lat="53.184652" lon="-2.046454"><ele>255</ele><time>2020-10-07T13:30:41Z</time><name>PT4294</name></trkpt>
<trkpt lat="53.184644" lon="-2.046463"><ele>255</ele><time>2020-10-07T13:30:42Z</time><name>PT4295</name></trkpt>
<trkpt lat="53.184639" lon="-2.046466"><ele>255</ele><time>2020-10-07T13:30:44Z</time><name>PT4296</name></trkpt>
<trkpt lat="53.184645" lon="-2.046472"><ele>255</ele><time>2020-10-07T13:30:44Z</time><name>PT4297</name></trkpt>
<trkpt lat="53.184645" lon="-2.046475"><ele>255</ele><time>2020-10-07T13:30:45Z</time><name>PT4298</name></trkpt>
<trkpt lat="53.184644" lon="-2.046476"><ele>255</ele><time>2020-10-07T13:30:47Z</time><name>PT4299</name></trkpt>
<trkpt lat="53.184643" lon="-2.046478"><ele>255</ele><time>2020-10-07T13:30:47Z</time><name>PT4300</name></trkpt>
<trkpt lat="53.184642" lon="-2.046480"><ele>255</ele><time>2020-10-07T13:30:48Z</time><name>PT4301</name></trkpt>
<trkpt lat="53.184637" lon="-2.046479"><ele>255</ele><time>2020-10-07T13:31:05Z</time><name>PT4302</name></trkpt>
<trkpt lat="53.184632" lon="-2.046504"><ele>257</ele><time>2020-10-07T13:31:05Z</time><name>PT4303</name></trkpt>
<trkpt lat="53.184633" lon="-2.046527"><ele>256</ele><time>2020-10-07T13:31:06Z</time><name>PT4304</name></trkpt>
<trkpt lat="53.184633" lon="-2.046547"><ele>256</ele><time>2020-10-07T13:31:08Z</time><name>PT4305</name></trkpt>
<trkpt lat="53.184624" lon="-2.046566"><ele>257</ele><time>2020-10-07T13:31:08Z</time><name>PT4306</name></trkpt>
<trkpt lat="53.184609" lon="-2.046591"><ele>257</ele><time>2020-10-07T13:31:09Z</time><name>PT4307</name></trkpt>
<trkpt lat="53.184603" lon="-2.046615"><ele>256</ele><time>2020-10-07T13:31:11Z</time><name>PT4308</name></trkpt>
<trkpt lat="53.184599" lon="-2.046631"><ele>256</ele><time>2020-10-07T13:31:11Z</time><name>PT4309</name></trkpt>
<trkpt lat="53.184593" lon="-2.046648"><ele>256</ele><time>2020-10-07T13:31:12Z</time><name>PT4310</name></trkpt>
<trkpt lat="53.184583" lon="-2.046663"><ele>256</ele><time>2020-10-07T13:31:14Z</time><name>PT4311</name></trkpt>
<trkpt lat="53.184570" lon="-2.046672"><ele>255</ele><time>2020-10-07T13:31:14Z</time><name>PT4312</name></trkpt>
<trkpt lat="53.184560" lon="-2.046681"><ele>254</ele><time>2020-10-07T13:31:15Z</time><name>PT4313</name></trkpt>
<trkpt lat="53.184552" lon="-2.046700"><ele>254</ele><time>2020-10-07T13:31:17Z</time><name>PT4314</name></trkpt>
<trkpt lat="53.184543" lon="-2.046717"><ele>254</ele><time>2020-10-07T13:31:17Z</time><name>PT4315</name></trkpt>
<trkpt lat="53.184534" lon="-2.046732"><ele>254</ele><time>2020-10-07T13:31:18Z</time><name>PT4316</name></trkpt>
<trkpt lat="53.184525" lon="-2.046752"><ele>254</ele><time>2020-10-07T13:31:20Z</time><name>PT4317</name></trkpt>
<trkpt lat="53.184517" lon="-2.046771"><ele>254</ele><time>2020-10-07T13:31:20Z</time><name>PT4318</name></trkpt>
<trkpt lat="53.184509" lon="-2.046791"><ele>254</ele><time>2020-10-07T13:31:21Z</time><name>PT4319</name></trkpt>
<trkpt lat="53.184504" lon="-2.046808"><ele>253</ele><time>2020-10-07T13:31:23Z</time><name>PT4320</name></trkpt>
<trkpt lat="53.184494" lon="-2.046823"><ele>253</ele><time>2020-10-07T13:31:23Z</time><name>PT4321</name></trkpt>
<trkpt lat="53.184483" lon="-2.046842"><ele>252</ele><time>2020-10-07T13:31:24Z</time><name>PT4322</name></trkpt>
<trkpt lat="53.184471" lon="-2.046858"><ele>252</ele><time>2020-10-07T13:31:26Z</time><name>PT4323</name></trkpt>
<trkpt lat="53.184461" lon="-2.046873"><ele>253</ele><time>2020-10-07T13:31:26Z</time><name>PT4324</name></trkpt>
<trkpt lat="53.184453" lon="-2.046895"><ele>254</ele><time>2020-10-07T13:31:27Z</time><name>PT4325</name></trkpt>
<trkpt lat="53.184445" lon="-2.046916"><ele>254</ele><time>2020-10-07T13:31:29Z</time><name>PT4326</name></trkpt>
<trkpt lat="53.184435" lon="-2.046937"><ele>253</ele><time>2020-10-07T13:31:29Z</time><name>PT4327</name></trkpt>
<trkpt lat="53.184425" lon="-2.046957"><ele>253</ele><time>2020-10-07T13:31:30Z</time><name>PT4328</name></trkpt>
<trkpt lat="53.184415" lon="-2.046974"><ele>253</ele><time>2020-10-07T13:31:32Z</time><name>PT4329</name></trkpt>
<trkpt lat="53.184403" lon="-2.046993"><ele>252</ele><time>2020-10-07T13:31:32Z</time><name>PT4330</name></trkpt>
<trkpt lat="53.184392" lon="-2.047007"><ele>252</ele><time>2020-10-07T13:31:33Z</time><name>PT4331</name></trkpt>
<trkpt lat="53.184383" lon="-2.047023"><ele>252</ele><time>2020-10-07T13:31:35Z</time><name>PT4332</name></trkpt>
<trkpt lat="53.184376" lon="-2.047038"><ele>252</ele><time>2020-10-07T13:31:35Z</time><name>PT4333</name></trkpt>
<trkpt lat="53.184366" lon="-2.047053"><ele>252</ele><time>2020-10-07T13:31:36Z</time><name>PT4334</name></trkpt>
<trkpt lat="53.184355" lon="-2.047066"><ele>252</ele><time>2020-10-07T13:31:38Z</time><name>PT4335</name></trkpt>
<trkpt lat="53.184346" lon="-2.047085"><ele>252</ele><time>2020-10-07T13:31:38Z</time><name>PT4336</name></trkpt>
<trkpt lat="53.184339" lon="-2.047099"><ele>252</ele><time>2020-10-07T13:31:39Z</time><name>PT4337</name></trkpt>
<trkpt lat="53.184332" lon="-2.047111"><ele>252</ele><time>2020-10-07T13:31:41Z</time><name>PT4338</name></trkpt>
<trkpt lat="53.184326" lon="-2.047126"><ele>252</ele><time>2020-10-07T13:31:41Z</time><name>PT4339</name></trkpt>
<trkpt lat="53.184318" lon="-2.047140"><ele>252</ele><time>2020-10-07T13:31:42Z</time><name>PT4340</name></trkpt>
<trkpt lat="53.184312" lon="-2.047152"><ele>252</ele><time>2020-10-07T13:31:44Z</time><name>PT4341</name></trkpt>
<trkpt lat="53.184309" lon="-2.047163"><ele>252</ele><time>2020-10-07T13:31:44Z</time><name>PT4342</name></trkpt>
<trkpt lat="53.184305" lon="-2.047175"><ele>252</ele><time>2020-10-07T13:31:45Z</time><name>PT4343</name></trkpt>
<trkpt lat="53.184300" lon="-2.047187"><ele>252</ele><time>2020-10-07T13:31:47Z</time><name>PT4344</name></trkpt>
<trkpt lat="53.184292" lon="-2.047197"><ele>252</ele><time>2020-10-07T13:31:47Z</time><name>PT4345</name></trkpt>
<trkpt lat="53.184282" lon="-2.047211"><ele>252</ele><time>2020-10-07T13:31:48Z</time><name>PT4346</name></trkpt>
<trkpt lat="53.184271" lon="-2.047225"><ele>251</ele><time>2020-10-07T13:31:50Z</time><name>PT4347</name></trkpt>
<trkpt lat="53.184262" lon="-2.047240"><ele>250</ele><time>2020-10-07T13:31:50Z</time><name>PT4348</name></trkpt>
<trkpt lat="53.184252" lon="-2.047253"><ele>250</ele><time>2020-10-07T13:31:51Z</time><name>PT4349</name></trkpt>
<trkpt lat="53.184241" lon="-2.047273"><ele>250</ele><time>2020-10-07T13:31:53Z</time><name>PT4350</name></trkpt>
<trkpt lat="53.184232" lon="-2.047286"><ele>251</ele><time>2020-10-07T13:31:53Z</time><name>PT4351</name></trkpt>
<trkpt lat="53.184222" lon="-2.047301"><ele>251</ele><time>2020-10-07T13:31:54Z</time><name>PT4352</name></trkpt>
<trkpt lat="53.184211" lon="-2.047314"><ele>251</ele><time>2020-10-07T13:31:56Z</time><name>PT4353</name></trkpt>
<trkpt lat="53.184200" lon="-2.047331"><ele>251</ele><time>2020-10-07T13:31:56Z</time><name>PT4354</name></trkpt>
<trkpt lat="53.184189" lon="-2.047349"><ele>251</ele><time>2020-10-07T13:31:57Z</time><name>PT4355</name></trkpt>
<trkpt lat="53.184177" lon="-2.047366"><ele>250</ele><time>2020-10-07T13:31:59Z</time><name>PT4356</name></trkpt>
<trkpt lat="53.184167" lon="-2.047379"><ele>250</ele><time>2020-10-07T13:31:59Z</time><name>PT4357</name></trkpt>
<trkpt lat="53.184158" lon="-2.047392"><ele>250</ele><time>2020-10-07T13:32:00Z</time><name>PT4358</name></trkpt>
<trkpt lat="53.184148" lon="-2.047397"><ele>249</ele><time>2020-10-07T13:32:02Z</time><name>PT4359</name></trkpt>
<trkpt lat="53.184138" lon="-2.047415"><ele>249</ele><time>2020-10-07T13:32:02Z</time><name>PT4360</name></trkpt>
<trkpt lat="53.184130" lon="-2.047429"><ele>249</ele><time>2020-10-07T13:32:03Z</time><name>PT4361</name></trkpt>
<trkpt lat="53.184122" lon="-2.047439"><ele>248</ele><time>2020-10-07T13:32:05Z</time><name>PT4362</name></trkpt>
<trkpt lat="53.184115" lon="-2.047450"><ele>247</ele><time>2020-10-07T13:32:05Z</time><name>PT4363</name></trkpt>
<trkpt lat="53.184109" lon="-2.047466"><ele>247</ele><time>2020-10-07T13:32:06Z</time><name>PT4364</name></trkpt>
<trkpt lat="53.184104" lon="-2.047492"><ele>247</ele><time>2020-10-07T13:32:08Z</time><name>PT4365</name></trkpt>
<trkpt lat="53.184098" lon="-2.047515"><ele>246</ele><time>2020-10-07T13:32:08Z</time><name>PT4366</name></trkpt>
<trkpt lat="53.184092" lon="-2.047535"><ele>246</ele><time>2020-10-07T13:32:09Z</time><name>PT4367</name></trkpt>
<trkpt lat="53.184086" lon="-2.047553"><ele>246</ele><time>2020-10-07T13:32:11Z</time><name>PT4368</name></trkpt>
<trkpt lat="53.184079" lon="-2.047568"><ele>246</ele><time>2020-10-07T13:32:11Z</time><name>PT4369</name></trkpt>
<trkpt lat="53.184074" lon="-2.047587"><ele>245</ele><time>2020-10-07T13:32:12Z</time><name>PT4370</name></trkpt>
<trkpt lat="53.184068" lon="-2.047605"><ele>245</ele><time>2020-10-07T13:32:14Z</time><name>PT4371</name></trkpt>
<trkpt lat="53.184064" lon="-2.047621"><ele>244</ele><time>2020-10-07T13:32:14Z</time><name>PT4372</name></trkpt>
<trkpt lat="53.184056" lon="-2.047633"><ele>244</ele><time>2020-10-07T13:32:15Z</time><name>PT4373</name></trkpt>
<trkpt lat="53.184048" lon="-2.047651"><ele>244</ele><time>2020-10-07T13:32:17Z</time><name>PT4374</name></trkpt>
<trkpt lat="53.184041" lon="-2.047668"><ele>243</ele><time>2020-10-07T13:32:17Z</time><name>PT4375</name></trkpt>
<trkpt lat="53.184031" lon="-2.047685"><ele>243</ele><time>2020-10-07T13:32:18Z</time><name>PT4376</name></trkpt>
<trkpt lat="53.184020" lon="-2.047692"><ele>244</ele><time>2020-10-07T13:32:20Z</time><name>PT4377</name></trkpt>
<trkpt lat="53.184012" lon="-2.047700"><ele>243</ele><time>2020-10-07T13:32:20Z</time><name>PT4378</name></trkpt>
<trkpt lat="53.184005" lon="-2.047710"><ele>243</ele><time>2020-10-07T13:32:21Z</time><name>PT4379</name></trkpt>
<trkpt lat="53.183995" lon="-2.047723"><ele>243</ele><time>2020-10-07T13:32:23Z</time><name>PT4380</name></trkpt>
<trkpt lat="53.183985" lon="-2.047728"><ele>243</ele><time>2020-10-07T13:32:23Z</time><name>PT4381</name></trkpt>
<trkpt lat="53.183977" lon="-2.047730"><ele>244</ele><time>2020-10-07T13:32:24Z</time><name>PT4382</name></trkpt>
<trkpt lat="53.183971" lon="-2.047735"><ele>244</ele><time>2020-10-07T13:32:26Z</time><name>PT4383</name></trkpt>
<trkpt lat="53.183970" lon="-2.047739"><ele>244</ele><time>2020-10-07T13:32:26Z</time><name>PT4384</name></trkpt>
<trkpt lat="53.183965" lon="-2.047746"><ele>243</ele><time>2020-10-07T13:32:27Z</time><name>PT4385</name></trkpt>
<trkpt lat="53.183962" lon="-2.047760"><ele>244</ele><time>2020-10-07T13:32:29Z</time><name>PT4386</name></trkpt>
<trkpt lat="53.183958" lon="-2.047769"><ele>243</ele><time>2020-10-07T13:32:29Z</time><name>PT4387</name></trkpt>
<trkpt lat="53.183962" lon="-2.047774"><ele>244</ele><time>2020-10-07T13:32:30Z</time><name>PT4388</name></trkpt>
<trkpt lat="53.183962" lon="-2.047773"><ele>244</ele><time>2020-10-07T13:32:32Z</time><name>PT4389</name></trkpt>
<trkpt lat="53.183959" lon="-2.047781"><ele>244</ele><time>2020-10-07T13:32:32Z</time><name>PT4390</name></trkpt>
<trkpt lat="53.183954" lon="-2.047782"><ele>244</ele><time>2020-10-07T13:32:34Z</time><name>PT4391</name></trkpt>
<trkpt lat="53.183952" lon="-2.047787"><ele>244</ele><time>2020-10-07T13:32:35Z</time><name>PT4392</name></trkpt>
<trkpt lat="53.183948" lon="-2.047796"><ele>245</ele><time>2020-10-07T13:32:35Z</time><name>PT4393</name></trkpt>
<trkpt lat="53.183942" lon="-2.047799"><ele>245</ele><time>2020-10-07T13:32:36Z</time><name>PT4394</name></trkpt>
<trkpt lat="53.183942" lon="-2.047803"><ele>244</ele><time>2020-10-07T13:32:38Z</time><name>PT4395</name></trkpt>
<trkpt lat="53.183939" lon="-2.047808"><ele>244</ele><time>2020-10-07T13:32:38Z</time><name>PT4396</name></trkpt>
<trkpt lat="53.183935" lon="-2.047815"><ele>245</ele><time>2020-10-07T13:32:39Z</time><name>PT4397</name></trkpt>
<trkpt lat="53.183933" lon="-2.047825"><ele>244</ele><time>2020-10-07T13:32:41Z</time><name>PT4398</name></trkpt>
<trkpt lat="53.183923" lon="-2.047835"><ele>245</ele><time>2020-10-07T13:32:41Z</time><name>PT4399</name></trkpt>
<trkpt lat="53.183924" lon="-2.047840"><ele>244</ele><time>2020-10-07T13:32:42Z</time><name>PT4400</name></trkpt>
<trkpt lat="53.183925" lon="-2.047846"><ele>244</ele><time>2020-10-07T13:32:44Z</time><name>PT4401</name></trkpt>
<trkpt lat="53.183926" lon="-2.047844"><ele>243</ele><time>2020-10-07T13:32:44Z</time><name>PT4402</name></trkpt>
<trkpt lat="53.183923" lon="-2.047856"><ele>242</ele><time>2020-10-07T13:32:45Z</time><name>PT4403</name></trkpt>
<trkpt lat="53.183919" lon="-2.047862"><ele>241</ele><time>2020-10-07T13:32:47Z</time><name>PT4404</name></trkpt>
<trkpt lat="53.183921" lon="-2.047877"><ele>241</ele><time>2020-10-07T13:32:47Z</time><name>PT4405</name></trkpt>
<trkpt lat="53.183920" lon="-2.047891"><ele>240</ele><time>2020-10-07T13:32:49Z</time><name>PT4406</name></trkpt>
<trkpt lat="53.183917" lon="-2.047902"><ele>238</ele><time>2020-10-07T13:32:50Z</time><name>PT4407</name></trkpt>
<trkpt lat="53.183914" lon="-2.047915"><ele>238</ele><time>2020-10-07T13:32:50Z</time><name>PT4408</name></trkpt>
<trkpt lat="53.183911" lon="-2.047926"><ele>238</ele><time>2020-10-07T13:32:51Z</time><name>PT4409</name></trkpt>
<trkpt lat="53.183910" lon="-2.047937"><ele>237</ele><time>2020-10-07T13:32:53Z</time><name>PT4410</name></trkpt>
<trkpt lat="53.183903" lon="-2.047952"><ele>237</ele><time>2020-10-07T13:32:53Z</time><name>PT4411</name></trkpt>
<trkpt lat="53.183898" lon="-2.047967"><ele>236</ele><time>2020-10-07T13:32:54Z</time><name>PT4412</name></trkpt>
<trkpt lat="53.183895" lon="-2.047977"><ele>235</ele><time>2020-10-07T13:32:56Z</time><name>PT4413</name></trkpt>
<trkpt lat="53.183892" lon="-2.047991"><ele>236</ele><time>2020-10-07T13:32:56Z</time><name>PT4414</name></trkpt>
<trkpt lat="53.183889" lon="-2.048004"><ele>236</ele><time>2020-10-07T13:32:58Z</time><name>PT4415</name></trkpt>
<trkpt lat="53.183890" lon="-2.048008"><ele>236</ele><time>2020-10-07T13:32:59Z</time><name>PT4416</name></trkpt>
<trkpt lat="53.183889" lon="-2.048031"><ele>236</ele><time>2020-10-07T13:32:59Z</time><name>PT4417</name></trkpt>
<trkpt lat="53.183883" lon="-2.048051"><ele>234</ele><time>2020-10-07T13:33:01Z</time><name>PT4418</name></trkpt>
<trkpt lat="53.183881" lon="-2.048080"><ele>233</ele><time>2020-10-07T13:33:02Z</time><name>PT4419</name></trkpt>
<trkpt lat="53.183880" lon="-2.048101"><ele>233</ele><time>2020-10-07T13:33:02Z</time><name>PT4420</name></trkpt>
<trkpt lat="53.183873" lon="-2.048120"><ele>231</ele><time>2020-10-07T13:33:03Z</time><name>PT4421</name></trkpt>
<trkpt lat="53.183868" lon="-2.048136"><ele>230</ele><time>2020-10-07T13:33:05Z</time><name>PT4422</name></trkpt>
<trkpt lat="53.183859" lon="-2.048146"><ele>230</ele><time>2020-10-07T13:33:05Z</time><name>PT4423</name></trkpt>
<trkpt lat="53.183855" lon="-2.048160"><ele>229</ele><time>2020-10-07T13:33:06Z</time><name>PT4424</name></trkpt>
<trkpt lat="53.183856" lon="-2.048184"><ele>226</ele><time>2020-10-07T13:33:08Z</time><name>PT4425</name></trkpt>
<trkpt lat="53.183855" lon="-2.048202"><ele>226</ele><time>2020-10-07T13:33:08Z</time><name>PT4426</name></trkpt>
<trkpt lat="53.183852" lon="-2.048210"><ele>226</ele><time>2020-10-07T13:33:09Z</time><name>PT4427</name></trkpt>
<trkpt lat="53.183846" lon="-2.048231"><ele>226</ele><time>2020-10-07T13:33:11Z</time><name>PT4428</name></trkpt>
<trkpt lat="53.183850" lon="-2.048258"><ele>227</ele><time>2020-10-07T13:33:11Z</time><name>PT4429</name></trkpt>
<trkpt lat="53.183845" lon="-2.048282"><ele>227</ele><time>2020-10-07T13:33:12Z</time><name>PT4430</name></trkpt>
<trkpt lat="53.183837" lon="-2.048309"><ele>228</ele><time>2020-10-07T13:33:14Z</time><name>PT4431</name></trkpt>
<trkpt lat="53.183831" lon="-2.048335"><ele>228</ele><time>2020-10-07T13:33:14Z</time><name>PT4432</name></trkpt>
<trkpt lat="53.183830" lon="-2.048329"><ele>227</ele><time>2020-10-07T13:33:15Z</time><name>PT4433</name></trkpt>
<trkpt lat="53.183827" lon="-2.048342"><ele>227</ele><time>2020-10-07T13:33:17Z</time><name>PT4434</name></trkpt>
<trkpt lat="53.183821" lon="-2.048345"><ele>225</ele><time>2020-10-07T13:33:17Z</time><name>PT4435</name></trkpt>
<trkpt lat="53.183816" lon="-2.048363"><ele>224</ele><time>2020-10-07T13:33:18Z</time><name>PT4436</name></trkpt>
<trkpt lat="53.183814" lon="-2.048381"><ele>223</ele><time>2020-10-07T13:33:20Z</time><name>PT4437</name></trkpt>
<trkpt lat="53.183808" lon="-2.048398"><ele>223</ele><time>2020-10-07T13:33:20Z</time><name>PT4438</name></trkpt>
<trkpt lat="53.183803" lon="-2.048443"><ele>219</ele><time>2020-10-07T13:33:24Z</time><name>PT4439</name></trkpt>
<trkpt lat="53.183803" lon="-2.048476"><ele>217</ele><time>2020-10-07T13:33:27Z</time><name>PT4440</name></trkpt>
<trkpt lat="53.183803" lon="-2.048514"><ele>213</ele><time>2020-10-07T13:33:32Z</time><name>PT4441</name></trkpt>
<trkpt lat="53.183783" lon="-2.048576"><ele>213</ele><time>2020-10-07T13:33:35Z</time><name>PT4442</name></trkpt>
<trkpt lat="53.183766" lon="-2.048633"><ele>213</ele><time>2020-10-07T13:33:38Z</time><name>PT4443</name></trkpt>
<trkpt lat="53.183750" lon="-2.048676"><ele>212</ele><time>2020-10-07T13:33:41Z</time><name>PT4444</name></trkpt>
<trkpt lat="53.183737" lon="-2.048729"><ele>210</ele><time>2020-10-07T13:33:45Z</time><name>PT4445</name></trkpt>
<trkpt lat="53.183723" lon="-2.048774"><ele>211</ele><time>2020-10-07T13:33:48Z</time><name>PT4446</name></trkpt>
<trkpt lat="53.183707" lon="-2.048878"><ele>216</ele><time>2020-10-07T13:33:53Z</time><name>PT4447</name></trkpt>
<trkpt lat="53.183691" lon="-2.048921"><ele>216</ele><time>2020-10-07T13:33:56Z</time><name>PT4448</name></trkpt>
<trkpt lat="53.183669" lon="-2.048990"><ele>216</ele><time>2020-10-07T13:33:59Z</time><name>PT4449</name></trkpt>
<trkpt lat="53.183651" lon="-2.049058"><ele>216</ele><time>2020-10-07T13:34:03Z</time><name>PT4450</name></trkpt>
<trkpt lat="53.183651" lon="-2.049096"><ele>216</ele><time>2020-10-07T13:34:08Z</time><name>PT4451</name></trkpt>
<trkpt lat="53.183640" lon="-2.049168"><ele>218</ele><time>2020-10-07T13:34:11Z</time><name>PT4452</name></trkpt>
<trkpt lat="53.183645" lon="-2.049196"><ele>218</ele><time>2020-10-07T13:34:14Z</time><name>PT4453</name></trkpt>
<trkpt lat="53.183633" lon="-2.049293"><ele>221</ele><time>2020-10-07T13:34:18Z</time><name>PT4454</name></trkpt>
<trkpt lat="53.183631" lon="-2.049391"><ele>223</ele><time>2020-10-07T13:34:23Z</time><name>PT4455</name></trkpt>
<trkpt lat="53.183618" lon="-2.049432"><ele>222</ele><time>2020-10-07T13:34:26Z</time><name>PT4456</name></trkpt>
<trkpt lat="53.183583" lon="-2.049519"><ele>222</ele><time>2020-10-07T13:34:29Z</time><name>PT4457</name></trkpt>
<trkpt lat="53.183562" lon="-2.049592"><ele>223</ele><time>2020-10-07T13:34:32Z</time><name>PT4458</name></trkpt>
<trkpt lat="53.183541" lon="-2.049666"><ele>226</ele><time>2020-10-07T13:34:36Z</time><name>PT4459</name></trkpt>
<trkpt lat="53.183529" lon="-2.049702"><ele>227</ele><time>2020-10-07T13:34:39Z</time><name>PT4460</name></trkpt>
<trkpt lat="53.183505" lon="-2.049751"><ele>227</ele><time>2020-10-07T13:34:42Z</time><name>PT4461</name></trkpt>
<trkpt lat="53.183495" lon="-2.049821"><ele>228</ele><time>2020-10-07T13:34:45Z</time><name>PT4462</name></trkpt>
<trkpt lat="53.183474" lon="-2.049852"><ele>227</ele><time>2020-10-07T13:34:50Z</time><name>PT4463</name></trkpt>
<trkpt lat="53.183442" lon="-2.049871"><ele>226</ele><time>2020-10-07T13:34:53Z</time><name>PT4464</name></trkpt>
<trkpt lat="53.183418" lon="-2.049894"><ele>225</ele><time>2020-10-07T13:34:57Z</time><name>PT4465</name></trkpt>
<trkpt lat="53.183389" lon="-2.049914"><ele>225</ele><time>2020-10-07T13:35:00Z</time><name>PT4466</name></trkpt>
<trkpt lat="53.183372" lon="-2.049927"><ele>225</ele><time>2020-10-07T13:35:05Z</time><name>PT4467</name></trkpt>
<trkpt lat="53.183350" lon="-2.049957"><ele>222</ele><time>2020-10-07T13:35:08Z</time><name>PT4468</name></trkpt>
<trkpt lat="53.183324" lon="-2.049982"><ele>219</ele><time>2020-10-07T13:35:12Z</time><name>PT4469</name></trkpt>
<trkpt lat="53.183299" lon="-2.050025"><ele>215</ele><time>2020-10-07T13:35:15Z</time><name>PT4470</name></trkpt>
<trkpt lat="53.183281" lon="-2.050067"><ele>215</ele><time>2020-10-07T13:35:20Z</time><name>PT4471</name></trkpt>
<trkpt lat="53.183264" lon="-2.050106"><ele>214</ele><time>2020-10-07T13:35:23Z</time><name>PT4472</name></trkpt>
<trkpt lat="53.183234" lon="-2.050167"><ele>214</ele><time>2020-10-07T13:35:26Z</time><name>PT4473</name></trkpt>
<trkpt lat="53.183208" lon="-2.050248"><ele>216</ele><time>2020-10-07T13:35:30Z</time><name>PT4474</name></trkpt>
<trkpt lat="53.183199" lon="-2.050267"><ele>216</ele><time>2020-10-07T13:35:33Z</time><name>PT4475</name></trkpt>
<trkpt lat="53.183188" lon="-2.050304"><ele>216</ele><time>2020-10-07T13:35:36Z</time><name>PT4476</name></trkpt>
<trkpt lat="53.183137" lon="-2.050379"><ele>213</ele><time>2020-10-07T13:35:41Z</time><name>PT4477</name></trkpt>
<trkpt lat="53.183081" lon="-2.050462"><ele>211</ele><time>2020-10-07T13:35:44Z</time><name>PT4478</name></trkpt>
<trkpt lat="53.183047" lon="-2.050494"><ele>209</ele><time>2020-10-07T13:35:47Z</time><name>PT4479</name></trkpt>
<trkpt lat="53.183021" lon="-2.050564"><ele>207</ele><time>2020-10-07T13:35:51Z</time><name>PT4480</name></trkpt>
<trkpt lat="53.182988" lon="-2.050594"><ele>205</ele><time>2020-10-07T13:35:56Z</time><name>PT4481</name></trkpt>
<trkpt lat="53.182975" lon="-2.050635"><ele>203</ele><time>2020-10-07T13:35:59Z</time><name>PT4482</name></trkpt>
<trkpt lat="53.182975" lon="-2.050695"><ele>204</ele><time>2020-10-07T13:36:04Z</time><name>PT4483</name></trkpt>
<trkpt lat="53.182976" lon="-2.050757"><ele>203</ele><time>2020-10-07T13:36:08Z</time><name>PT4484</name></trkpt>
<trkpt lat="53.182971" lon="-2.050806"><ele>204</ele><time>2020-10-07T13:36:11Z</time><name>PT4485</name></trkpt>
<trkpt lat="53.182960" lon="-2.050886"><ele>206</ele><time>2020-10-07T13:36:14Z</time><name>PT4486</name></trkpt>
<trkpt lat="53.182958" lon="-2.050961"><ele>207</ele><time>2020-10-07T13:36:17Z</time><name>PT4487</name></trkpt>
<trkpt lat="53.182956" lon="-2.051034"><ele>207</ele><time>2020-10-07T13:36:21Z</time><name>PT4488</name></trkpt>
<trkpt lat="53.182950" lon="-2.051113"><ele>209</ele><time>2020-10-07T13:36:24Z</time><name>PT4489</name></trkpt>
<trkpt lat="53.182960" lon="-2.051172"><ele>209</ele><time>2020-10-07T13:36:29Z</time><name>PT4490</name></trkpt>
<trkpt lat="53.182976" lon="-2.051224"><ele>208</ele><time>2020-10-07T13:36:32Z</time><name>PT4491</name></trkpt>
<trkpt lat="53.182981" lon="-2.051277"><ele>206</ele><time>2020-10-07T13:36:35Z</time><name>PT4492</name></trkpt>
<trkpt lat="53.182988" lon="-2.051337"><ele>207</ele><time>2020-10-07T13:36:38Z</time><name>PT4493</name></trkpt>
<trkpt lat="53.182993" lon="-2.051407"><ele>209</ele><time>2020-10-07T13:36:41Z</time><name>PT4494</name></trkpt>
<trkpt lat="53.182987" lon="-2.051488"><ele>208</ele><time>2020-10-07T13:36:45Z</time><name>PT4495</name></trkpt>
<trkpt lat="53.182995" lon="-2.051536"><ele>208</ele><time>2020-10-07T13:36:48Z</time><name>PT4496</name></trkpt>
<trkpt lat="53.182996" lon="-2.051622"><ele>208</ele><time>2020-10-07T13:36:51Z</time><name>PT4497</name></trkpt>
<trkpt lat="53.182987" lon="-2.051681"><ele>208</ele><time>2020-10-07T13:36:56Z</time><name>PT4498</name></trkpt>
<trkpt lat="53.182974" lon="-2.051743"><ele>204</ele><time>2020-10-07T13:36:59Z</time><name>PT4499</name></trkpt>
<trkpt lat="53.182971" lon="-2.051812"><ele>199</ele><time>2020-10-07T13:37:03Z</time><name>PT4500</name></trkpt>
<trkpt lat="53.182959" lon="-2.051871"><ele>198</ele><time>2020-10-07T13:37:08Z</time><name>PT4501</name></trkpt>
<trkpt lat="53.182938" lon="-2.051945"><ele>198</ele><time>2020-10-07T13:37:11Z</time><name>PT4502</name></trkpt>
<trkpt lat="53.182914" lon="-2.051989"><ele>197</ele><time>2020-10-07T13:37:15Z</time><name>PT4503</name></trkpt>
<trkpt lat="53.182911" lon="-2.052001"><ele>198</ele><time>2020-10-07T13:37:18Z</time><name>PT4504</name></trkpt>
<trkpt lat="53.182882" lon="-2.052097"><ele>199</ele><time>2020-10-07T13:37:23Z</time><name>PT4505</name></trkpt>
<trkpt lat="53.182864" lon="-2.052171"><ele>199</ele><time>2020-10-07T13:37:26Z</time><name>PT4506</name></trkpt>
<trkpt lat="53.182837" lon="-2.052264"><ele>202</ele><time>2020-10-07T13:37:29Z</time><name>PT4507</name></trkpt>
<trkpt lat="53.182806" lon="-2.052370"><ele>203</ele><time>2020-10-07T13:37:32Z</time><name>PT4508</name></trkpt>
<trkpt lat="53.182785" lon="-2.052461"><ele>204</ele><time>2020-10-07T13:37:35Z</time><name>PT4509</name></trkpt>
<trkpt lat="53.182767" lon="-2.052553"><ele>205</ele><time>2020-10-07T13:37:39Z</time><name>PT4510</name></trkpt>
<trkpt lat="53.182752" lon="-2.052639"><ele>207</ele><time>2020-10-07T13:37:42Z</time><name>PT4511</name></trkpt>
<trkpt lat="53.182740" lon="-2.052743"><ele>208</ele><time>2020-10-07T13:37:47Z</time><name>PT4512</name></trkpt>
<trkpt lat="53.182721" lon="-2.052804"><ele>208</ele><time>2020-10-07T13:37:50Z</time><name>PT4513</name></trkpt>
<trkpt lat="53.182705" lon="-2.052867"><ele>208</ele><time>2020-10-07T13:37:53Z</time><name>PT4514</name></trkpt>
<trkpt lat="53.182693" lon="-2.052927"><ele>208</ele><time>2020-10-07T13:37:56Z</time><name>PT4515</name></trkpt>
<trkpt lat="53.182675" lon="-2.052990"><ele>208</ele><time>2020-10-07T13:37:59Z</time><name>PT4516</name></trkpt>
<trkpt lat="53.182667" lon="-2.053028"><ele>208</ele><time>2020-10-07T13:38:03Z</time><name>PT4517</name></trkpt>
<trkpt lat="53.182665" lon="-2.053073"><ele>207</ele><time>2020-10-07T13:38:06Z</time><name>PT4518</name></trkpt>
<trkpt lat="53.182652" lon="-2.053126"><ele>206</ele><time>2020-10-07T13:38:11Z</time><name>PT4519</name></trkpt>
<trkpt lat="53.182644" lon="-2.053118"><ele>205</ele><time>2020-10-07T13:38:14Z</time><name>PT4520</name></trkpt>
<trkpt lat="53.182641" lon="-2.053126"><ele>204</ele><time>2020-10-07T13:38:17Z</time><name>PT4521</name></trkpt>
<trkpt lat="53.182637" lon="-2.053157"><ele>202</ele><time>2020-10-07T13:38:21Z</time><name>PT4522</name></trkpt>
<trkpt lat="53.182630" lon="-2.053189"><ele>200</ele><time>2020-10-07T13:38:24Z</time><name>PT4523</name></trkpt>
<trkpt lat="53.182628" lon="-2.053227"><ele>198</ele><time>2020-10-07T13:38:29Z</time><name>PT4524</name></trkpt>
<trkpt lat="53.182623" lon="-2.053241"><ele>195</ele><time>2020-10-07T13:38:32Z</time><name>PT4525</name></trkpt>
<trkpt lat="53.182620" lon="-2.053285"><ele>196</ele><time>2020-10-07T13:38:35Z</time><name>PT4526</name></trkpt>
<trkpt lat="53.182632" lon="-2.053350"><ele>197</ele><time>2020-10-07T13:38:39Z</time><name>PT4527</name></trkpt>
<trkpt lat="53.182635" lon="-2.053426"><ele>197</ele><time>2020-10-07T13:38:44Z</time><name>PT4528</name></trkpt>
<trkpt lat="53.182626" lon="-2.053492"><ele>197</ele><time>2020-10-07T13:38:47Z</time><name>PT4529</name></trkpt>
<trkpt lat="53.182619" lon="-2.053549"><ele>197</ele><time>2020-10-07T13:38:50Z</time><name>PT4530</name></trkpt>
<trkpt lat="53.182608" lon="-2.053621"><ele>199</ele><time>2020-10-07T13:38:54Z</time><name>PT4531</name></trkpt>
<trkpt lat="53.182606" lon="-2.053681"><ele>198</ele><time>2020-10-07T13:38:57Z</time><name>PT4532</name></trkpt>
<trkpt lat="53.182613" lon="-2.053787"><ele>199</ele><time>2020-10-07T13:39:02Z</time><name>PT4533</name></trkpt>
<trkpt lat="53.182635" lon="-2.053897"><ele>200</ele><time>2020-10-07T13:39:05Z</time><name>PT4534</name></trkpt>
<trkpt lat="53.182649" lon="-2.053952"><ele>200</ele><time>2020-10-07T13:39:09Z</time><name>PT4535</name></trkpt>
<trkpt lat="53.182672" lon="-2.054005"><ele>199</ele><time>2020-10-07T13:39:14Z</time><name>PT4536</name></trkpt>
<trkpt lat="53.182685" lon="-2.054027"><ele>198</ele><time>2020-10-07T13:39:17Z</time><name>PT4537</name></trkpt>
<trkpt lat="53.182715" lon="-2.054084"><ele>196</ele><time>2020-10-07T13:39:20Z</time><name>PT4538</name></trkpt>
<trkpt lat="53.182739" lon="-2.054114"><ele>197</ele><time>2020-10-07T13:39:23Z</time><name>PT4539</name></trkpt>
<trkpt lat="53.182768" lon="-2.054132"><ele>196</ele><time>2020-10-07T13:39:27Z</time><name>PT4540</name></trkpt>
<trkpt lat="53.182792" lon="-2.054101"><ele>194</ele><time>2020-10-07T13:39:32Z</time><name>PT4541</name></trkpt>
<trkpt lat="53.182802" lon="-2.054048"><ele>193</ele><time>2020-10-07T13:39:35Z</time><name>PT4542</name></trkpt>
<trkpt lat="53.182824" lon="-2.054008"><ele>192</ele><time>2020-10-07T13:39:38Z</time><name>PT4543</name></trkpt>
<trkpt lat="53.182843" lon="-2.053967"><ele>191</ele><time>2020-10-07T13:39:41Z</time><name>PT4544</name></trkpt>
<trkpt lat="53.182870" lon="-2.053899"><ele>189</ele><time>2020-10-07T13:39:44Z</time><name>PT4545</name></trkpt>
<trkpt lat="53.182895" lon="-2.053835"><ele>189</ele><time>2020-10-07T13:39:48Z</time><name>PT4546</name></trkpt>
<trkpt lat="53.182922" lon="-2.053751"><ele>187</ele><time>2020-10-07T13:39:53Z</time><name>PT4547</name></trkpt>
<trkpt lat="53.182943" lon="-2.053664"><ele>186</ele><time>2020-10-07T13:39:56Z</time><name>PT4548</name></trkpt>
<trkpt lat="53.182969" lon="-2.053591"><ele>186</ele><time>2020-10-07T13:39:59Z</time><name>PT4549</name></trkpt>
<trkpt lat="53.182998" lon="-2.053533"><ele>187</ele><time>2020-10-07T13:40:02Z</time><name>PT4550</name></trkpt>
<trkpt lat="53.183035" lon="-2.053492"><ele>186</ele><time>2020-10-07T13:40:05Z</time><name>PT4551</name></trkpt>
<trkpt lat="53.183069" lon="-2.053437"><ele>186</ele><time>2020-10-07T13:40:09Z</time><name>PT4552</name></trkpt>
<trkpt lat="53.183095" lon="-2.053403"><ele>185</ele><time>2020-10-07T13:40:12Z</time><name>PT4553</name></trkpt>
<trkpt lat="53.183136" lon="-2.053361"><ele>183</ele><time>2020-10-07T13:40:17Z</time><name>PT4554</name></trkpt>
<trkpt lat="53.183186" lon="-2.053311"><ele>184</ele><time>2020-10-07T13:40:20Z</time><name>PT4555</name></trkpt>
<trkpt lat="53.183227" lon="-2.053279"><ele>185</ele><time>2020-10-07T13:40:23Z</time><name>PT4556</name></trkpt>
<trkpt lat="53.183271" lon="-2.053258"><ele>185</ele><time>2020-10-07T13:40:26Z</time><name>PT4557</name></trkpt>
<trkpt lat="53.183316" lon="-2.053249"><ele>185</ele><time>2020-10-07T13:40:30Z</time><name>PT4558</name></trkpt>
<trkpt lat="53.183352" lon="-2.053240"><ele>183</ele><time>2020-10-07T13:40:33Z</time><name>PT4559</name></trkpt>
<trkpt lat="53.183383" lon="-2.053237"><ele>182</ele><time>2020-10-07T13:40:36Z</time><name>PT4560</name></trkpt>
<trkpt lat="53.183452" lon="-2.053245"><ele>183</ele><time>2020-10-07T13:40:41Z</time><name>PT4561</name></trkpt>
<trkpt lat="53.183492" lon="-2.053257"><ele>182</ele><time>2020-10-07T13:40:44Z</time><name>PT4562</name></trkpt>
<trkpt lat="53.183529" lon="-2.053264"><ele>182</ele><time>2020-10-07T13:40:47Z</time><name>PT4563</name></trkpt>
<trkpt lat="53.183579" lon="-2.053287"><ele>181</ele><time>2020-10-07T13:40:50Z</time><name>PT4564</name></trkpt>
<trkpt lat="53.183621" lon="-2.053314"><ele>181</ele><time>2020-10-07T13:40:53Z</time><name>PT4565</name></trkpt>
<trkpt lat="53.183673" lon="-2.053351"><ele>182</ele><time>2020-10-07T13:40:56Z</time><name>PT4566</name></trkpt>
<trkpt lat="53.183727" lon="-2.053388"><ele>185</ele><time>2020-10-07T13:40:59Z</time><name>PT4567</name></trkpt>
<trkpt lat="53.183779" lon="-2.053460"><ele>185</ele><time>2020-10-07T13:41:03Z</time><name>PT4568</name></trkpt>
<trkpt lat="53.183834" lon="-2.053534"><ele>187</ele><time>2020-10-07T13:41:08Z</time><name>PT4569</name></trkpt>
<trkpt lat="53.183863" lon="-2.053606"><ele>187</ele><time>2020-10-07T13:41:11Z</time><name>PT4570</name></trkpt>
<trkpt lat="53.183886" lon="-2.053663"><ele>187</ele><time>2020-10-07T13:41:14Z</time><name>PT4571</name></trkpt>
<trkpt lat="53.183904" lon="-2.053733"><ele>187</ele><time>2020-10-07T13:41:18Z</time><name>PT4572</name></trkpt>
<trkpt lat="53.183923" lon="-2.053784"><ele>188</ele><time>2020-10-07T13:41:21Z</time><name>PT4573</name></trkpt>
<trkpt lat="53.183947" lon="-2.053860"><ele>189</ele><time>2020-10-07T13:41:26Z</time><name>PT4574</name></trkpt>
<trkpt lat="53.183959" lon="-2.053918"><ele>188</ele><time>2020-10-07T13:41:29Z</time><name>PT4575</name></trkpt>
<trkpt lat="53.183974" lon="-2.054012"><ele>188</ele><time>2020-10-07T13:41:32Z</time><name>PT4576</name></trkpt>
<trkpt lat="53.183988" lon="-2.054076"><ele>189</ele><time>2020-10-07T13:41:35Z</time><name>PT4577</name></trkpt>
<trkpt lat="53.183996" lon="-2.054139"><ele>189</ele><time>2020-10-07T13:41:38Z</time><name>PT4578</name></trkpt>
<trkpt lat="53.184010" lon="-2.054229"><ele>189</ele><time>2020-10-07T13:41:42Z</time><name>PT4579</name></trkpt>
<trkpt lat="53.184018" lon="-2.054334"><ele>190</ele><time>2020-10-07T13:41:47Z</time><name>PT4580</name></trkpt>
<trkpt lat="53.184025" lon="-2.054429"><ele>190</ele><time>2020-10-07T13:41:50Z</time><name>PT4581</name></trkpt>
<trkpt lat="53.184013" lon="-2.054479"><ele>191</ele><time>2020-10-07T13:41:53Z</time><name>PT4582</name></trkpt>
<trkpt lat="53.183991" lon="-2.054531"><ele>190</ele><time>2020-10-07T13:41:56Z</time><name>PT4583</name></trkpt>
<trkpt lat="53.183961" lon="-2.054585"><ele>189</ele><time>2020-10-07T13:41:59Z</time><name>PT4584</name></trkpt>
<trkpt lat="53.183925" lon="-2.054658"><ele>186</ele><time>2020-10-07T13:42:03Z</time><name>PT4585</name></trkpt>
<trkpt lat="53.183901" lon="-2.054718"><ele>185</ele><time>2020-10-07T13:42:06Z</time><name>PT4586</name></trkpt>
<trkpt lat="53.183869" lon="-2.054780"><ele>185</ele><time>2020-10-07T13:42:11Z</time><name>PT4587</name></trkpt>
<trkpt lat="53.183847" lon="-2.054855"><ele>185</ele><time>2020-10-07T13:42:14Z</time><name>PT4588</name></trkpt>
<trkpt lat="53.183825" lon="-2.054900"><ele>186</ele><time>2020-10-07T13:42:17Z</time><name>PT4589</name></trkpt>
<trkpt lat="53.183814" lon="-2.054935"><ele>186</ele><time>2020-10-07T13:42:20Z</time><name>PT4590</name></trkpt>
<trkpt lat="53.183812" lon="-2.054964"><ele>188</ele><time>2020-10-07T13:42:23Z</time><name>PT4591</name></trkpt>
<trkpt lat="53.183795" lon="-2.055000"><ele>187</ele><time>2020-10-07T13:42:26Z</time><name>PT4592</name></trkpt>
<trkpt lat="53.183778" lon="-2.055023"><ele>186</ele><time>2020-10-07T13:42:29Z</time><name>PT4593</name></trkpt>
<trkpt lat="53.183770" lon="-2.055030"><ele>188</ele><time>2020-10-07T13:42:32Z</time><name>PT4594</name></trkpt>
<trkpt lat="53.183776" lon="-2.055014"><ele>188</ele><time>2020-10-07T13:42:35Z</time><name>PT4595</name></trkpt>
<trkpt lat="53.183771" lon="-2.055011"><ele>188</ele><time>2020-10-07T13:42:39Z</time><name>PT4596</name></trkpt>
<trkpt lat="53.183786" lon="-2.055016"><ele>187</ele><time>2020-10-07T13:42:47Z</time><name>PT4597</name></trkpt>
<trkpt lat="53.183806" lon="-2.055035"><ele>186</ele><time>2020-10-07T13:42:50Z</time><name>PT4598</name></trkpt>
<trkpt lat="53.183795" lon="-2.055040"><ele>186</ele><time>2020-10-07T13:42:53Z</time><name>PT4599</name></trkpt>
<trkpt lat="53.183791" lon="-2.055043"><ele>186</ele><time>2020-10-07T13:42:57Z</time><name>PT4600</name></trkpt>
<trkpt lat="53.183787" lon="-2.055032"><ele>186</ele><time>2020-10-07T13:43:02Z</time><name>PT4601</name></trkpt>
<trkpt lat="53.183817" lon="-2.055048"><ele>187</ele><time>2020-10-07T13:43:05Z</time><name>PT4602</name></trkpt>
<trkpt lat="53.183878" lon="-2.055133"><ele>191</ele><time>2020-10-07T13:43:08Z</time><name>PT4603</name></trkpt>
<trkpt lat="53.183887" lon="-2.055177"><ele>195</ele><time>2020-10-07T13:43:11Z</time><name>PT4604</name></trkpt>
<trkpt lat="53.183875" lon="-2.055126"><ele>198</ele><time>2020-10-07T13:43:15Z</time><name>PT4605</name></trkpt>
<trkpt lat="53.183859" lon="-2.055116"><ele>199</ele><time>2020-10-07T13:43:20Z</time><name>PT4606</name></trkpt>
<trkpt lat="53.183802" lon="-2.055038"><ele>196</ele><time>2020-10-07T13:43:23Z</time><name>PT4607</name></trkpt>
<trkpt lat="53.183814" lon="-2.055054"><ele>195</ele><time>2020-10-07T13:43:27Z</time><name>PT4608</name></trkpt>
<trkpt lat="53.183826" lon="-2.055062"><ele>194</ele><time>2020-10-07T13:43:32Z</time><name>PT4609</name></trkpt>
<trkpt lat="53.183829" lon="-2.055066"><ele>193</ele><time>2020-10-07T13:43:35Z</time><name>PT4610</name></trkpt>
<trkpt lat="53.183838" lon="-2.055064"><ele>192</ele><time>2020-10-07T13:43:38Z</time><name>PT4611</name></trkpt>
<trkpt lat="53.183879" lon="-2.055069"><ele>192</ele><time>2020-10-07T13:43:41Z</time><name>PT4612</name></trkpt>
<trkpt lat="53.183910" lon="-2.055098"><ele>191</ele><time>2020-10-07T13:43:44Z</time><name>PT4613</name></trkpt>
<trkpt lat="53.183924" lon="-2.055036"><ele>187</ele><time>2020-10-07T13:43:47Z</time><name>PT4614</name></trkpt>
<trkpt lat="53.183946" lon="-2.054978"><ele>182</ele><time>2020-10-07T13:43:51Z</time><name>PT4615</name></trkpt>
<trkpt lat="53.183948" lon="-2.054962"><ele>179</ele><time>2020-10-07T13:43:54Z</time><name>PT4616</name></trkpt>
<trkpt lat="53.183958" lon="-2.054946"><ele>179</ele><time>2020-10-07T13:43:59Z</time><name>PT4617</name></trkpt>
<trkpt lat="53.183962" lon="-2.054945"><ele>179</ele><time>2020-10-07T13:44:02Z</time><name>PT4618</name></trkpt>
<trkpt lat="53.183953" lon="-2.054914"><ele>175</ele><time>2020-10-07T13:44:05Z</time><name>PT4619</name></trkpt>
<trkpt lat="53.183955" lon="-2.054897"><ele>173</ele><time>2020-10-07T13:44:08Z</time><name>PT4620</name></trkpt>
<trkpt lat="53.183962" lon="-2.054908"><ele>172</ele><time>2020-10-07T13:44:11Z</time><name>PT4621</name></trkpt>
<trkpt lat="53.183948" lon="-2.054971"><ele>170</ele><time>2020-10-07T13:44:23Z</time><name>PT4622</name></trkpt>
<trkpt lat="53.183929" lon="-2.055073"><ele>169</ele><time>2020-10-07T13:44:26Z</time><name>PT4623</name></trkpt>
<trkpt lat="53.183931" lon="-2.055077"><ele>169</ele><time>2020-10-07T13:44:41Z</time><name>PT4624</name></trkpt>
<trkpt lat="53.183917" lon="-2.055059"><ele>170</ele><time>2020-10-07T13:44:45Z</time><name>PT4625</name></trkpt>
<trkpt lat="53.183929" lon="-2.055045"><ele>170</ele><time>2020-10-07T13:44:48Z</time><name>PT4626</name></trkpt>
<trkpt lat="53.183896" lon="-2.055119"><ele>172</ele><time>2020-10-07T13:45:36Z</time><name>PT4627</name></trkpt>
<trkpt lat="53.183831" lon="-2.055083"><ele>173</ele><time>2020-10-07T13:45:39Z</time><name>PT4628</name></trkpt>
<trkpt lat="53.183799" lon="-2.055091"><ele>175</ele><time>2020-10-07T13:45:44Z</time><name>PT4629</name></trkpt>
<trkpt lat="53.183786" lon="-2.055089"><ele>177</ele><time>2020-10-07T13:45:47Z</time><name>PT4630</name></trkpt>
<trkpt lat="53.183785" lon="-2.055086"><ele>178</ele><time>2020-10-07T13:45:50Z</time><name>PT4631</name></trkpt>
<trkpt lat="53.183779" lon="-2.055085"><ele>179</ele><time>2020-10-07T13:47:02Z</time><name>PT4632</name></trkpt>
<trkpt lat="53.183759" lon="-2.055087"><ele>181</ele><time>2020-10-07T13:47:06Z</time><name>PT4633</name></trkpt></trkseg></trk></gpx>